<?xml version="1.0" encoding="UTF-8" standalone="no" ?>
<gpx xmlns="http://www.topografix.com/GPX/1/1" xmlns:xsi="http://www.w3.org/2001/XMLSchema-instance" xsi:schemaLocation="http://www.topografix.com/GPX/1/1 http://www.topografix.com/GPX/1/1/gpx.xsd" version="1.1" creator="VisuGPX - https://www.visugpx.com">
  <metadata>
    <name>Balade dominicale</name>
    <desc><![CDATA[Enduro et quad

Enduro et quad]]></desc>
  </metadata>
  <trk>
    <name><![CDATA[Balade dominicale]]></name>
    <cmt><![CDATA[Enduro et quad]]></cmt>
    <desc><![CDATA[Enduro et quad]]></desc>
    <trkseg>
      <trkpt lat="46.1008" lon="6.23464">
        <ele>728.962</ele>
        <time>2020-07-05T15:16:41Z</time>
      </trkpt>
      <trkpt lat="46.10086" lon="6.23468">
        <ele>728.883</ele>
        <time>2020-07-05T15:17:20Z</time>
      </trkpt>
      <trkpt lat="46.10091" lon="6.23472">
        <ele>728.911</ele>
        <time>2020-07-05T15:17:23Z</time>
      </trkpt>
      <trkpt lat="46.10096" lon="6.23479">
        <ele>729.008</ele>
        <time>2020-07-05T15:17:25Z</time>
      </trkpt>
      <trkpt lat="46.10103" lon="6.23486">
        <ele>729.161</ele>
        <time>2020-07-05T15:17:27Z</time>
      </trkpt>
      <trkpt lat="46.1011" lon="6.23494">
        <ele>729.248</ele>
        <time>2020-07-05T15:17:29Z</time>
      </trkpt>
      <trkpt lat="46.10116" lon="6.23499">
        <ele>729.218</ele>
        <time>2020-07-05T15:17:30Z</time>
      </trkpt>
      <trkpt lat="46.10122" lon="6.23502">
        <ele>729.24</ele>
        <time>2020-07-05T15:17:31Z</time>
      </trkpt>
      <trkpt lat="46.10126" lon="6.2351">
        <ele>729.056</ele>
        <time>2020-07-05T15:17:32Z</time>
      </trkpt>
      <trkpt lat="46.10129" lon="6.23517">
        <ele>728.749</ele>
        <time>2020-07-05T15:17:33Z</time>
      </trkpt>
      <trkpt lat="46.10131" lon="6.2353">
        <ele>728.383</ele>
        <time>2020-07-05T15:17:35Z</time>
      </trkpt>
      <trkpt lat="46.10137" lon="6.23536">
        <ele>728.314</ele>
        <time>2020-07-05T15:17:37Z</time>
      </trkpt>
      <trkpt lat="46.10143" lon="6.23533">
        <ele>728.429</ele>
        <time>2020-07-05T15:17:38Z</time>
      </trkpt>
      <trkpt lat="46.10148" lon="6.23532">
        <ele>728.5</ele>
        <time>2020-07-05T15:17:39Z</time>
      </trkpt>
      <trkpt lat="46.10153" lon="6.23532">
        <ele>728.52</ele>
        <time>2020-07-05T15:17:40Z</time>
      </trkpt>
      <trkpt lat="46.10162" lon="6.23532">
        <ele>728.208</ele>
        <time>2020-07-05T15:17:42Z</time>
      </trkpt>
      <trkpt lat="46.10168" lon="6.23531">
        <ele>727.967</ele>
        <time>2020-07-05T15:17:43Z</time>
      </trkpt>
      <trkpt lat="46.10177" lon="6.2353">
        <ele>727.614</ele>
        <time>2020-07-05T15:17:44Z</time>
      </trkpt>
      <trkpt lat="46.10184" lon="6.23532">
        <ele>727.334</ele>
        <time>2020-07-05T15:17:45Z</time>
      </trkpt>
      <trkpt lat="46.10192" lon="6.23537">
        <ele>727.086</ele>
        <time>2020-07-05T15:17:46Z</time>
      </trkpt>
      <trkpt lat="46.102" lon="6.23545">
        <ele>726.732</ele>
        <time>2020-07-05T15:17:47Z</time>
      </trkpt>
      <trkpt lat="46.10206" lon="6.23555">
        <ele>726.335</ele>
        <time>2020-07-05T15:17:48Z</time>
      </trkpt>
      <trkpt lat="46.10213" lon="6.23563">
        <ele>725.879</ele>
        <time>2020-07-05T15:17:49Z</time>
      </trkpt>
      <trkpt lat="46.10219" lon="6.23568">
        <ele>725.36</ele>
        <time>2020-07-05T15:17:50Z</time>
      </trkpt>
      <trkpt lat="46.10227" lon="6.23577">
        <ele>724.845</ele>
        <time>2020-07-05T15:17:51Z</time>
      </trkpt>
      <trkpt lat="46.10237" lon="6.23586">
        <ele>724.247</ele>
        <time>2020-07-05T15:17:52Z</time>
      </trkpt>
      <trkpt lat="46.10247" lon="6.23589">
        <ele>723.711</ele>
        <time>2020-07-05T15:17:53Z</time>
      </trkpt>
      <trkpt lat="46.10259" lon="6.23593">
        <ele>723.108</ele>
        <time>2020-07-05T15:17:54Z</time>
      </trkpt>
      <trkpt lat="46.10268" lon="6.23597">
        <ele>722.419</ele>
        <time>2020-07-05T15:17:55Z</time>
      </trkpt>
      <trkpt lat="46.10277" lon="6.236">
        <ele>721.896</ele>
        <time>2020-07-05T15:17:56Z</time>
      </trkpt>
      <trkpt lat="46.10286" lon="6.23602">
        <ele>721.146</ele>
        <time>2020-07-05T15:17:57Z</time>
      </trkpt>
      <trkpt lat="46.10296" lon="6.23601">
        <ele>720.478</ele>
        <time>2020-07-05T15:17:58Z</time>
      </trkpt>
      <trkpt lat="46.10305" lon="6.23598">
        <ele>719.864</ele>
        <time>2020-07-05T15:17:59Z</time>
      </trkpt>
      <trkpt lat="46.10313" lon="6.23591">
        <ele>719.377</ele>
        <time>2020-07-05T15:18:00Z</time>
      </trkpt>
      <trkpt lat="46.1032" lon="6.23581">
        <ele>718.711</ele>
        <time>2020-07-05T15:18:01Z</time>
      </trkpt>
      <trkpt lat="46.10323" lon="6.23564">
        <ele>718.232</ele>
        <time>2020-07-05T15:18:02Z</time>
      </trkpt>
      <trkpt lat="46.10322" lon="6.2355">
        <ele>717.563</ele>
        <time>2020-07-05T15:18:03Z</time>
      </trkpt>
      <trkpt lat="46.10314" lon="6.23536">
        <ele>716.844</ele>
        <time>2020-07-05T15:18:04Z</time>
      </trkpt>
      <trkpt lat="46.10308" lon="6.23528">
        <ele>716.318</ele>
        <time>2020-07-05T15:18:05Z</time>
      </trkpt>
      <trkpt lat="46.103" lon="6.23521">
        <ele>715.908</ele>
        <time>2020-07-05T15:18:06Z</time>
      </trkpt>
      <trkpt lat="46.10289" lon="6.23513">
        <ele>715.411</ele>
        <time>2020-07-05T15:18:07Z</time>
      </trkpt>
      <trkpt lat="46.1028" lon="6.23506">
        <ele>714.938</ele>
        <time>2020-07-05T15:18:08Z</time>
      </trkpt>
      <trkpt lat="46.1027" lon="6.23496">
        <ele>714.548</ele>
        <time>2020-07-05T15:18:09Z</time>
      </trkpt>
      <trkpt lat="46.10261" lon="6.23484">
        <ele>714.17</ele>
        <time>2020-07-05T15:18:10Z</time>
      </trkpt>
      <trkpt lat="46.10253" lon="6.23472">
        <ele>713.736</ele>
        <time>2020-07-05T15:18:11Z</time>
      </trkpt>
      <trkpt lat="46.10247" lon="6.23459">
        <ele>713.329</ele>
        <time>2020-07-05T15:18:12Z</time>
      </trkpt>
      <trkpt lat="46.1024" lon="6.23448">
        <ele>713.073</ele>
        <time>2020-07-05T15:18:13Z</time>
      </trkpt>
      <trkpt lat="46.10233" lon="6.23432">
        <ele>712.584</ele>
        <time>2020-07-05T15:18:14Z</time>
      </trkpt>
      <trkpt lat="46.10224" lon="6.23419">
        <ele>711.951</ele>
        <time>2020-07-05T15:18:15Z</time>
      </trkpt>
      <trkpt lat="46.10219" lon="6.23407">
        <ele>711.301</ele>
        <time>2020-07-05T15:18:16Z</time>
      </trkpt>
      <trkpt lat="46.10212" lon="6.23395">
        <ele>710.711</ele>
        <time>2020-07-05T15:18:17Z</time>
      </trkpt>
      <trkpt lat="46.10206" lon="6.23383">
        <ele>709.908</ele>
        <time>2020-07-05T15:18:18Z</time>
      </trkpt>
      <trkpt lat="46.10201" lon="6.23369">
        <ele>709.58</ele>
        <time>2020-07-05T15:18:19Z</time>
      </trkpt>
      <trkpt lat="46.10199" lon="6.23358">
        <ele>708.987</ele>
        <time>2020-07-05T15:18:20Z</time>
      </trkpt>
      <trkpt lat="46.10199" lon="6.23347">
        <ele>708.387</ele>
        <time>2020-07-05T15:18:21Z</time>
      </trkpt>
      <trkpt lat="46.10199" lon="6.23334">
        <ele>707.519</ele>
        <time>2020-07-05T15:18:22Z</time>
      </trkpt>
      <trkpt lat="46.10204" lon="6.23315">
        <ele>706.995</ele>
        <time>2020-07-05T15:18:23Z</time>
      </trkpt>
      <trkpt lat="46.10206" lon="6.23302">
        <ele>706.078</ele>
        <time>2020-07-05T15:18:24Z</time>
      </trkpt>
      <trkpt lat="46.10204" lon="6.23286">
        <ele>705.132</ele>
        <time>2020-07-05T15:18:25Z</time>
      </trkpt>
      <trkpt lat="46.10199" lon="6.23271">
        <ele>704.073</ele>
        <time>2020-07-05T15:18:26Z</time>
      </trkpt>
      <trkpt lat="46.10193" lon="6.23259">
        <ele>702.938</ele>
        <time>2020-07-05T15:18:27Z</time>
      </trkpt>
      <trkpt lat="46.10186" lon="6.23245">
        <ele>701.67</ele>
        <time>2020-07-05T15:18:28Z</time>
      </trkpt>
      <trkpt lat="46.10178" lon="6.23233">
        <ele>700.417</ele>
        <time>2020-07-05T15:18:29Z</time>
      </trkpt>
      <trkpt lat="46.1017" lon="6.23223">
        <ele>699.308</ele>
        <time>2020-07-05T15:18:30Z</time>
      </trkpt>
      <trkpt lat="46.10161" lon="6.2321">
        <ele>698.358</ele>
        <time>2020-07-05T15:18:31Z</time>
      </trkpt>
      <trkpt lat="46.10156" lon="6.23198">
        <ele>697.235</ele>
        <time>2020-07-05T15:18:32Z</time>
      </trkpt>
      <trkpt lat="46.10154" lon="6.23183">
        <ele>696.175</ele>
        <time>2020-07-05T15:18:33Z</time>
      </trkpt>
      <trkpt lat="46.1016" lon="6.2317">
        <ele>695.187</ele>
        <time>2020-07-05T15:18:34Z</time>
      </trkpt>
      <trkpt lat="46.10168" lon="6.23161">
        <ele>694.093</ele>
        <time>2020-07-05T15:18:35Z</time>
      </trkpt>
      <trkpt lat="46.10178" lon="6.23157">
        <ele>692.886</ele>
        <time>2020-07-05T15:18:36Z</time>
      </trkpt>
      <trkpt lat="46.10187" lon="6.23157">
        <ele>691.86</ele>
        <time>2020-07-05T15:18:37Z</time>
      </trkpt>
      <trkpt lat="46.10196" lon="6.23157">
        <ele>690.821</ele>
        <time>2020-07-05T15:18:38Z</time>
      </trkpt>
      <trkpt lat="46.10206" lon="6.23159">
        <ele>689.984</ele>
        <time>2020-07-05T15:18:39Z</time>
      </trkpt>
      <trkpt lat="46.10216" lon="6.2316">
        <ele>689.107</ele>
        <time>2020-07-05T15:18:40Z</time>
      </trkpt>
      <trkpt lat="46.10226" lon="6.2316">
        <ele>688.017</ele>
        <time>2020-07-05T15:18:41Z</time>
      </trkpt>
      <trkpt lat="46.10236" lon="6.2316">
        <ele>686.808</ele>
        <time>2020-07-05T15:18:42Z</time>
      </trkpt>
      <trkpt lat="46.10246" lon="6.23159">
        <ele>685.783</ele>
        <time>2020-07-05T15:18:43Z</time>
      </trkpt>
      <trkpt lat="46.10254" lon="6.23154">
        <ele>684.52</ele>
        <time>2020-07-05T15:18:44Z</time>
      </trkpt>
      <trkpt lat="46.10261" lon="6.23145">
        <ele>683.18</ele>
        <time>2020-07-05T15:18:45Z</time>
      </trkpt>
      <trkpt lat="46.10266" lon="6.23134">
        <ele>681.962</ele>
        <time>2020-07-05T15:18:46Z</time>
      </trkpt>
      <trkpt lat="46.10267" lon="6.23122">
        <ele>680.858</ele>
        <time>2020-07-05T15:18:47Z</time>
      </trkpt>
      <trkpt lat="46.10268" lon="6.23107">
        <ele>679.691</ele>
        <time>2020-07-05T15:18:48Z</time>
      </trkpt>
      <trkpt lat="46.10269" lon="6.23092">
        <ele>678.555</ele>
        <time>2020-07-05T15:18:48Z</time>
      </trkpt>
      <trkpt lat="46.10275" lon="6.23085">
        <ele>677.636</ele>
        <time>2020-07-05T15:18:49Z</time>
      </trkpt>
      <trkpt lat="46.1028" lon="6.23084">
        <ele>677.022</ele>
        <time>2020-07-05T15:18:50Z</time>
      </trkpt>
      <trkpt lat="46.10289" lon="6.23089">
        <ele>676.862</ele>
        <time>2020-07-05T15:18:51Z</time>
      </trkpt>
      <trkpt lat="46.103" lon="6.23089">
        <ele>676.808</ele>
        <time>2020-07-05T15:18:52Z</time>
      </trkpt>
      <trkpt lat="46.1031" lon="6.23089">
        <ele>677.308</ele>
        <time>2020-07-05T15:18:53Z</time>
      </trkpt>
      <trkpt lat="46.10322" lon="6.23089">
        <ele>678.067</ele>
        <time>2020-07-05T15:18:54Z</time>
      </trkpt>
      <trkpt lat="46.10331" lon="6.23087">
        <ele>679.054</ele>
        <time>2020-07-05T15:18:55Z</time>
      </trkpt>
      <trkpt lat="46.10336" lon="6.23083">
        <ele>679.864</ele>
        <time>2020-07-05T15:18:56Z</time>
      </trkpt>
      <trkpt lat="46.10335" lon="6.23076">
        <ele>680.736</ele>
        <time>2020-07-05T15:18:57Z</time>
      </trkpt>
      <trkpt lat="46.10331" lon="6.23071">
        <ele>681.592</ele>
        <time>2020-07-05T15:18:58Z</time>
      </trkpt>
      <trkpt lat="46.10323" lon="6.23069">
        <ele>682.565</ele>
        <time>2020-07-05T15:18:59Z</time>
      </trkpt>
      <trkpt lat="46.10314" lon="6.23062">
        <ele>683.459</ele>
        <time>2020-07-05T15:19:00Z</time>
      </trkpt>
      <trkpt lat="46.10311" lon="6.23054">
        <ele>684.59</ele>
        <time>2020-07-05T15:19:01Z</time>
      </trkpt>
      <trkpt lat="46.10313" lon="6.23043">
        <ele>685.595</ele>
        <time>2020-07-05T15:19:02Z</time>
      </trkpt>
      <trkpt lat="46.10318" lon="6.23032">
        <ele>686.449</ele>
        <time>2020-07-05T15:19:03Z</time>
      </trkpt>
      <trkpt lat="46.10326" lon="6.23028">
        <ele>687.423</ele>
        <time>2020-07-05T15:19:04Z</time>
      </trkpt>
      <trkpt lat="46.10335" lon="6.23026">
        <ele>688.508</ele>
        <time>2020-07-05T15:19:05Z</time>
      </trkpt>
      <trkpt lat="46.10344" lon="6.23025">
        <ele>689.594</ele>
        <time>2020-07-05T15:19:06Z</time>
      </trkpt>
      <trkpt lat="46.10351" lon="6.23023">
        <ele>690.781</ele>
        <time>2020-07-05T15:19:07Z</time>
      </trkpt>
      <trkpt lat="46.10358" lon="6.23021">
        <ele>691.981</ele>
        <time>2020-07-05T15:19:08Z</time>
      </trkpt>
      <trkpt lat="46.10365" lon="6.2302">
        <ele>693.053</ele>
        <time>2020-07-05T15:19:09Z</time>
      </trkpt>
      <trkpt lat="46.10371" lon="6.23019">
        <ele>693.949</ele>
        <time>2020-07-05T15:19:10Z</time>
      </trkpt>
      <trkpt lat="46.10378" lon="6.23018">
        <ele>695.032</ele>
        <time>2020-07-05T15:19:11Z</time>
      </trkpt>
      <trkpt lat="46.10384" lon="6.23017">
        <ele>695.876</ele>
        <time>2020-07-05T15:19:12Z</time>
      </trkpt>
      <trkpt lat="46.1039" lon="6.23015">
        <ele>696.567</ele>
        <time>2020-07-05T15:19:13Z</time>
      </trkpt>
      <trkpt lat="46.10396" lon="6.23013">
        <ele>697.215</ele>
        <time>2020-07-05T15:19:14Z</time>
      </trkpt>
      <trkpt lat="46.10401" lon="6.2301">
        <ele>698.065</ele>
        <time>2020-07-05T15:19:15Z</time>
      </trkpt>
      <trkpt lat="46.10409" lon="6.23008">
        <ele>698.611</ele>
        <time>2020-07-05T15:19:16Z</time>
      </trkpt>
      <trkpt lat="46.10417" lon="6.23008">
        <ele>699.208</ele>
        <time>2020-07-05T15:19:17Z</time>
      </trkpt>
      <trkpt lat="46.10426" lon="6.23007">
        <ele>700.126</ele>
        <time>2020-07-05T15:19:18Z</time>
      </trkpt>
      <trkpt lat="46.10435" lon="6.23004">
        <ele>700.713</ele>
        <time>2020-07-05T15:19:19Z</time>
      </trkpt>
      <trkpt lat="46.10445" lon="6.22998">
        <ele>701.373</ele>
        <time>2020-07-05T15:19:20Z</time>
      </trkpt>
      <trkpt lat="46.10456" lon="6.22991">
        <ele>701.855</ele>
        <time>2020-07-05T15:19:21Z</time>
      </trkpt>
      <trkpt lat="46.10467" lon="6.22981">
        <ele>702.511</ele>
        <time>2020-07-05T15:19:22Z</time>
      </trkpt>
      <trkpt lat="46.10476" lon="6.22972">
        <ele>703.484</ele>
        <time>2020-07-05T15:19:23Z</time>
      </trkpt>
      <trkpt lat="46.10486" lon="6.22963">
        <ele>704.588</ele>
        <time>2020-07-05T15:19:24Z</time>
      </trkpt>
      <trkpt lat="46.10498" lon="6.22957">
        <ele>705.999</ele>
        <time>2020-07-05T15:19:25Z</time>
      </trkpt>
      <trkpt lat="46.10508" lon="6.22957">
        <ele>707.447</ele>
        <time>2020-07-05T15:19:26Z</time>
      </trkpt>
      <trkpt lat="46.10519" lon="6.2296">
        <ele>708.929</ele>
        <time>2020-07-05T15:19:27Z</time>
      </trkpt>
      <trkpt lat="46.10531" lon="6.22966">
        <ele>710.321</ele>
        <time>2020-07-05T15:19:28Z</time>
      </trkpt>
      <trkpt lat="46.10541" lon="6.22975">
        <ele>711.708</ele>
        <time>2020-07-05T15:19:29Z</time>
      </trkpt>
      <trkpt lat="46.10547" lon="6.22979">
        <ele>712.759</ele>
        <time>2020-07-05T15:19:30Z</time>
      </trkpt>
      <trkpt lat="46.10554" lon="6.22979">
        <ele>713.746</ele>
        <time>2020-07-05T15:19:31Z</time>
      </trkpt>
      <trkpt lat="46.10561" lon="6.2298">
        <ele>714.596</ele>
        <time>2020-07-05T15:19:32Z</time>
      </trkpt>
      <trkpt lat="46.10569" lon="6.22986">
        <ele>715.198</ele>
        <time>2020-07-05T15:19:33Z</time>
      </trkpt>
      <trkpt lat="46.10577" lon="6.22992">
        <ele>715.114</ele>
        <time>2020-07-05T15:19:34Z</time>
      </trkpt>
      <trkpt lat="46.10585" lon="6.22997">
        <ele>715.077</ele>
        <time>2020-07-05T15:19:35Z</time>
      </trkpt>
      <trkpt lat="46.10592" lon="6.23002">
        <ele>714.571</ele>
        <time>2020-07-05T15:19:36Z</time>
      </trkpt>
      <trkpt lat="46.106" lon="6.23009">
        <ele>713.772</ele>
        <time>2020-07-05T15:19:37Z</time>
      </trkpt>
      <trkpt lat="46.10606" lon="6.23015">
        <ele>712.719</ele>
        <time>2020-07-05T15:19:38Z</time>
      </trkpt>
      <trkpt lat="46.10613" lon="6.23022">
        <ele>711.709</ele>
        <time>2020-07-05T15:19:39Z</time>
      </trkpt>
      <trkpt lat="46.10619" lon="6.23029">
        <ele>710.819</ele>
        <time>2020-07-05T15:19:40Z</time>
      </trkpt>
      <trkpt lat="46.10625" lon="6.23035">
        <ele>710.008</ele>
        <time>2020-07-05T15:19:41Z</time>
      </trkpt>
      <trkpt lat="46.10632" lon="6.2304">
        <ele>709.446</ele>
        <time>2020-07-05T15:19:42Z</time>
      </trkpt>
      <trkpt lat="46.1064" lon="6.23047">
        <ele>709.093</ele>
        <time>2020-07-05T15:19:43Z</time>
      </trkpt>
      <trkpt lat="46.10647" lon="6.23053">
        <ele>708.873</ele>
        <time>2020-07-05T15:19:44Z</time>
      </trkpt>
      <trkpt lat="46.10656" lon="6.23059">
        <ele>708.785</ele>
        <time>2020-07-05T15:19:45Z</time>
      </trkpt>
      <trkpt lat="46.10664" lon="6.23066">
        <ele>708.671</ele>
        <time>2020-07-05T15:19:46Z</time>
      </trkpt>
      <trkpt lat="46.10672" lon="6.23072">
        <ele>708.444</ele>
        <time>2020-07-05T15:19:47Z</time>
      </trkpt>
      <trkpt lat="46.10684" lon="6.2308">
        <ele>708.388</ele>
        <time>2020-07-05T15:19:48Z</time>
      </trkpt>
      <trkpt lat="46.10698" lon="6.23087">
        <ele>708.189</ele>
        <time>2020-07-05T15:19:49Z</time>
      </trkpt>
      <trkpt lat="46.10711" lon="6.23094">
        <ele>708.072</ele>
        <time>2020-07-05T15:19:50Z</time>
      </trkpt>
      <trkpt lat="46.10721" lon="6.23099">
        <ele>707.913</ele>
        <time>2020-07-05T15:19:51Z</time>
      </trkpt>
      <trkpt lat="46.1073" lon="6.23102">
        <ele>707.714</ele>
        <time>2020-07-05T15:19:52Z</time>
      </trkpt>
      <trkpt lat="46.10739" lon="6.23109">
        <ele>707.508</ele>
        <time>2020-07-05T15:19:53Z</time>
      </trkpt>
      <trkpt lat="46.10744" lon="6.23115">
        <ele>707.432</ele>
        <time>2020-07-05T15:19:54Z</time>
      </trkpt>
      <trkpt lat="46.10748" lon="6.23119">
        <ele>707.189</ele>
        <time>2020-07-05T15:19:55Z</time>
      </trkpt>
      <trkpt lat="46.10773" lon="6.23121">
        <ele>706.839</ele>
        <time>2020-07-05T15:19:56Z</time>
      </trkpt>
      <trkpt lat="46.1078" lon="6.23122">
        <ele>706.681</ele>
        <time>2020-07-05T15:19:57Z</time>
      </trkpt>
      <trkpt lat="46.10786" lon="6.23121">
        <ele>706.367</ele>
        <time>2020-07-05T15:19:58Z</time>
      </trkpt>
      <trkpt lat="46.10793" lon="6.23116">
        <ele>706.14</ele>
        <time>2020-07-05T15:19:59Z</time>
      </trkpt>
      <trkpt lat="46.108" lon="6.23114">
        <ele>706.114</ele>
        <time>2020-07-05T15:20:00Z</time>
      </trkpt>
      <trkpt lat="46.10806" lon="6.23112">
        <ele>706.455</ele>
        <time>2020-07-05T15:20:01Z</time>
      </trkpt>
      <trkpt lat="46.10812" lon="6.2311">
        <ele>706.852</ele>
        <time>2020-07-05T15:20:02Z</time>
      </trkpt>
      <trkpt lat="46.10818" lon="6.23112">
        <ele>707.453</ele>
        <time>2020-07-05T15:20:03Z</time>
      </trkpt>
      <trkpt lat="46.10823" lon="6.23114">
        <ele>708.008</ele>
        <time>2020-07-05T15:20:04Z</time>
      </trkpt>
      <trkpt lat="46.10827" lon="6.23114">
        <ele>708.408</ele>
        <time>2020-07-05T15:20:05Z</time>
      </trkpt>
      <trkpt lat="46.10832" lon="6.23117">
        <ele>708.51</ele>
        <time>2020-07-05T15:20:06Z</time>
      </trkpt>
      <trkpt lat="46.10837" lon="6.23122">
        <ele>708.557</ele>
        <time>2020-07-05T15:20:07Z</time>
      </trkpt>
      <trkpt lat="46.10844" lon="6.23126">
        <ele>708.657</ele>
        <time>2020-07-05T15:20:08Z</time>
      </trkpt>
      <trkpt lat="46.10851" lon="6.23129">
        <ele>708.779</ele>
        <time>2020-07-05T15:20:09Z</time>
      </trkpt>
      <trkpt lat="46.1086" lon="6.23139">
        <ele>708.785</ele>
        <time>2020-07-05T15:20:11Z</time>
      </trkpt>
      <trkpt lat="46.10865" lon="6.23144">
        <ele>708.738</ele>
        <time>2020-07-05T15:20:12Z</time>
      </trkpt>
      <trkpt lat="46.1087" lon="6.23147">
        <ele>708.412</ele>
        <time>2020-07-05T15:20:13Z</time>
      </trkpt>
      <trkpt lat="46.10875" lon="6.2315">
        <ele>708.123</ele>
        <time>2020-07-05T15:20:14Z</time>
      </trkpt>
      <trkpt lat="46.10883" lon="6.23156">
        <ele>707.693</ele>
        <time>2020-07-05T15:20:15Z</time>
      </trkpt>
      <trkpt lat="46.10887" lon="6.2316">
        <ele>707.065</ele>
        <time>2020-07-05T15:20:16Z</time>
      </trkpt>
      <trkpt lat="46.10892" lon="6.23165">
        <ele>706.521</ele>
        <time>2020-07-05T15:20:17Z</time>
      </trkpt>
      <trkpt lat="46.10898" lon="6.23168">
        <ele>706.008</ele>
        <time>2020-07-05T15:20:18Z</time>
      </trkpt>
      <trkpt lat="46.10905" lon="6.23171">
        <ele>705.694</ele>
        <time>2020-07-05T15:20:19Z</time>
      </trkpt>
      <trkpt lat="46.1091" lon="6.23174">
        <ele>705.351</ele>
        <time>2020-07-05T15:20:20Z</time>
      </trkpt>
      <trkpt lat="46.10916" lon="6.23177">
        <ele>704.911</ele>
        <time>2020-07-05T15:20:21Z</time>
      </trkpt>
      <trkpt lat="46.10922" lon="6.2318">
        <ele>704.493</ele>
        <time>2020-07-05T15:20:22Z</time>
      </trkpt>
      <trkpt lat="46.10929" lon="6.23183">
        <ele>703.949</ele>
        <time>2020-07-05T15:20:23Z</time>
      </trkpt>
      <trkpt lat="46.10936" lon="6.23188">
        <ele>703.422</ele>
        <time>2020-07-05T15:20:24Z</time>
      </trkpt>
      <trkpt lat="46.10943" lon="6.23192">
        <ele>702.986</ele>
        <time>2020-07-05T15:20:25Z</time>
      </trkpt>
      <trkpt lat="46.10949" lon="6.23194">
        <ele>702.417</ele>
        <time>2020-07-05T15:20:26Z</time>
      </trkpt>
      <trkpt lat="46.10957" lon="6.23196">
        <ele>701.977</ele>
        <time>2020-07-05T15:20:27Z</time>
      </trkpt>
      <trkpt lat="46.10961" lon="6.23199">
        <ele>701.561</ele>
        <time>2020-07-05T15:20:28Z</time>
      </trkpt>
      <trkpt lat="46.10969" lon="6.23204">
        <ele>700.327</ele>
        <time>2020-07-05T15:20:31Z</time>
      </trkpt>
      <trkpt lat="46.10974" lon="6.23204">
        <ele>700.108</ele>
        <time>2020-07-05T15:20:32Z</time>
      </trkpt>
      <trkpt lat="46.1098" lon="6.23205">
        <ele>699.612</ele>
        <time>2020-07-05T15:20:34Z</time>
      </trkpt>
      <trkpt lat="46.10984" lon="6.23203">
        <ele>699.349</ele>
        <time>2020-07-05T15:20:36Z</time>
      </trkpt>
      <trkpt lat="46.10991" lon="6.23198">
        <ele>699.199</ele>
        <time>2020-07-05T15:20:38Z</time>
      </trkpt>
      <trkpt lat="46.10997" lon="6.23194">
        <ele>698.861</ele>
        <time>2020-07-05T15:20:40Z</time>
      </trkpt>
      <trkpt lat="46.11002" lon="6.23193">
        <ele>698.417</ele>
        <time>2020-07-05T15:20:42Z</time>
      </trkpt>
      <trkpt lat="46.11006" lon="6.23191">
        <ele>698.01</ele>
        <time>2020-07-05T15:20:44Z</time>
      </trkpt>
      <trkpt lat="46.11014" lon="6.23191">
        <ele>697.984</ele>
        <time>2020-07-05T15:20:47Z</time>
      </trkpt>
      <trkpt lat="46.1102" lon="6.23191">
        <ele>698.195</ele>
        <time>2020-07-05T15:20:48Z</time>
      </trkpt>
      <trkpt lat="46.11027" lon="6.23191">
        <ele>698.342</ele>
        <time>2020-07-05T15:20:49Z</time>
      </trkpt>
      <trkpt lat="46.11033" lon="6.23192">
        <ele>698.722</ele>
        <time>2020-07-05T15:20:50Z</time>
      </trkpt>
      <trkpt lat="46.11039" lon="6.23194">
        <ele>699.214</ele>
        <time>2020-07-05T15:20:52Z</time>
      </trkpt>
      <trkpt lat="46.11046" lon="6.23195">
        <ele>699.708</ele>
        <time>2020-07-05T15:20:54Z</time>
      </trkpt>
      <trkpt lat="46.11052" lon="6.23193">
        <ele>699.939</ele>
        <time>2020-07-05T15:20:55Z</time>
      </trkpt>
      <trkpt lat="46.11056" lon="6.23193">
        <ele>700.226</ele>
        <time>2020-07-05T15:20:57Z</time>
      </trkpt>
      <trkpt lat="46.11072" lon="6.23189">
        <ele>700.236</ele>
        <time>2020-07-05T15:21:13Z</time>
      </trkpt>
      <trkpt lat="46.11077" lon="6.23189">
        <ele>700.228</ele>
        <time>2020-07-05T15:21:20Z</time>
      </trkpt>
      <trkpt lat="46.11074" lon="6.23183">
        <ele>700.524</ele>
        <time>2020-07-05T15:21:36Z</time>
      </trkpt>
      <trkpt lat="46.11069" lon="6.23178">
        <ele>700.887</ele>
        <time>2020-07-05T15:21:37Z</time>
      </trkpt>
      <trkpt lat="46.11065" lon="6.23174">
        <ele>702.131</ele>
        <time>2020-07-05T15:21:40Z</time>
      </trkpt>
      <trkpt lat="46.11065" lon="6.23165">
        <ele>703.922</ele>
        <time>2020-07-05T15:21:44Z</time>
      </trkpt>
      <trkpt lat="46.11061" lon="6.23155">
        <ele>704.967</ele>
        <time>2020-07-05T15:21:46Z</time>
      </trkpt>
      <trkpt lat="46.11059" lon="6.23148">
        <ele>705.881</ele>
        <time>2020-07-05T15:21:48Z</time>
      </trkpt>
      <trkpt lat="46.11058" lon="6.23142">
        <ele>706.719</ele>
        <time>2020-07-05T15:21:50Z</time>
      </trkpt>
      <trkpt lat="46.11054" lon="6.23131">
        <ele>708.708</ele>
        <time>2020-07-05T15:21:55Z</time>
      </trkpt>
      <trkpt lat="46.11055" lon="6.23112">
        <ele>709.161</ele>
        <time>2020-07-05T15:22:02Z</time>
      </trkpt>
      <trkpt lat="46.11052" lon="6.23106">
        <ele>710.548</ele>
        <time>2020-07-05T15:22:08Z</time>
      </trkpt>
      <trkpt lat="46.11048" lon="6.23105">
        <ele>710.928</ele>
        <time>2020-07-05T15:22:14Z</time>
      </trkpt>
      <trkpt lat="46.11043" lon="6.23097">
        <ele>711.14</ele>
        <time>2020-07-05T15:22:16Z</time>
      </trkpt>
      <trkpt lat="46.11042" lon="6.23089">
        <ele>711.666</ele>
        <time>2020-07-05T15:22:18Z</time>
      </trkpt>
      <trkpt lat="46.11038" lon="6.23078">
        <ele>712.469</ele>
        <time>2020-07-05T15:22:20Z</time>
      </trkpt>
      <trkpt lat="46.1103" lon="6.23073">
        <ele>714.793</ele>
        <time>2020-07-05T15:22:31Z</time>
      </trkpt>
      <trkpt lat="46.11027" lon="6.23067">
        <ele>714.834</ele>
        <time>2020-07-05T15:22:55Z</time>
      </trkpt>
      <trkpt lat="46.11022" lon="6.2306">
        <ele>714.732</ele>
        <time>2020-07-05T15:23:04Z</time>
      </trkpt>
      <trkpt lat="46.11018" lon="6.23067">
        <ele>715.392</ele>
        <time>2020-07-05T15:24:05Z</time>
      </trkpt>
      <trkpt lat="46.11018" lon="6.23056">
        <ele>715.511</ele>
        <time>2020-07-05T15:24:26Z</time>
      </trkpt>
      <trkpt lat="46.11024" lon="6.23051">
        <ele>715.408</ele>
        <time>2020-07-05T15:24:39Z</time>
      </trkpt>
      <trkpt lat="46.11022" lon="6.2304">
        <ele>715.358</ele>
        <time>2020-07-05T15:25:02Z</time>
      </trkpt>
      <trkpt lat="46.11024" lon="6.23031">
        <ele>715.855</ele>
        <time>2020-07-05T15:25:04Z</time>
      </trkpt>
      <trkpt lat="46.11023" lon="6.23024">
        <ele>717.195</ele>
        <time>2020-07-05T15:25:07Z</time>
      </trkpt>
      <trkpt lat="46.11023" lon="6.23015">
        <ele>718.547</ele>
        <time>2020-07-05T15:25:11Z</time>
      </trkpt>
      <trkpt lat="46.11019" lon="6.23007">
        <ele>720.523</ele>
        <time>2020-07-05T15:25:22Z</time>
      </trkpt>
      <trkpt lat="46.11018" lon="6.23">
        <ele>720.786</ele>
        <time>2020-07-05T15:25:25Z</time>
      </trkpt>
      <trkpt lat="46.1102" lon="6.22993">
        <ele>720.93</ele>
        <time>2020-07-05T15:25:36Z</time>
      </trkpt>
      <trkpt lat="46.1102" lon="6.22983">
        <ele>721.231</ele>
        <time>2020-07-05T15:25:39Z</time>
      </trkpt>
      <trkpt lat="46.11017" lon="6.22977">
        <ele>721.628</ele>
        <time>2020-07-05T15:25:40Z</time>
      </trkpt>
      <trkpt lat="46.11013" lon="6.22969">
        <ele>723.089</ele>
        <time>2020-07-05T15:25:42Z</time>
      </trkpt>
      <trkpt lat="46.11015" lon="6.22958">
        <ele>725.217</ele>
        <time>2020-07-05T15:25:44Z</time>
      </trkpt>
      <trkpt lat="46.11012" lon="6.22952">
        <ele>726.208</ele>
        <time>2020-07-05T15:25:45Z</time>
      </trkpt>
      <trkpt lat="46.1101" lon="6.22945">
        <ele>727.937</ele>
        <time>2020-07-05T15:25:47Z</time>
      </trkpt>
      <trkpt lat="46.11014" lon="6.22942">
        <ele>729.634</ele>
        <time>2020-07-05T15:26:02Z</time>
      </trkpt>
      <trkpt lat="46.11016" lon="6.2295">
        <ele>728.574</ele>
        <time>2020-07-05T15:26:06Z</time>
      </trkpt>
      <trkpt lat="46.11019" lon="6.22957">
        <ele>726.766</ele>
        <time>2020-07-05T15:26:11Z</time>
      </trkpt>
      <trkpt lat="46.11021" lon="6.22965">
        <ele>725.092</ele>
        <time>2020-07-05T15:26:14Z</time>
      </trkpt>
      <trkpt lat="46.11026" lon="6.22972">
        <ele>722.995</ele>
        <time>2020-07-05T15:26:17Z</time>
      </trkpt>
      <trkpt lat="46.11026" lon="6.2298">
        <ele>722.039</ele>
        <time>2020-07-05T15:26:19Z</time>
      </trkpt>
      <trkpt lat="46.11023" lon="6.22985">
        <ele>722.35</ele>
        <time>2020-07-05T15:26:49Z</time>
      </trkpt>
      <trkpt lat="46.11014" lon="6.22971">
        <ele>722.945</ele>
        <time>2020-07-05T15:27:15Z</time>
      </trkpt>
      <trkpt lat="46.11013" lon="6.22963">
        <ele>724.247</ele>
        <time>2020-07-05T15:27:19Z</time>
      </trkpt>
      <trkpt lat="46.11011" lon="6.22957">
        <ele>725.811</ele>
        <time>2020-07-05T15:27:22Z</time>
      </trkpt>
      <trkpt lat="46.1101" lon="6.22948">
        <ele>727.108</ele>
        <time>2020-07-05T15:27:25Z</time>
      </trkpt>
      <trkpt lat="46.11011" lon="6.2294">
        <ele>728.079</ele>
        <time>2020-07-05T15:27:29Z</time>
      </trkpt>
      <trkpt lat="46.11002" lon="6.22944">
        <ele>729.656</ele>
        <time>2020-07-05T15:28:06Z</time>
      </trkpt>
      <trkpt lat="46.11001" lon="6.22935">
        <ele>729.836</ele>
        <time>2020-07-05T15:28:12Z</time>
      </trkpt>
      <trkpt lat="46.11001" lon="6.22928">
        <ele>730.668</ele>
        <time>2020-07-05T15:28:14Z</time>
      </trkpt>
      <trkpt lat="46.11" lon="6.22916">
        <ele>731.574</ele>
        <time>2020-07-05T15:28:16Z</time>
      </trkpt>
      <trkpt lat="46.11002" lon="6.22905">
        <ele>732.587</ele>
        <time>2020-07-05T15:28:18Z</time>
      </trkpt>
      <trkpt lat="46.11009" lon="6.22896">
        <ele>733.781</ele>
        <time>2020-07-05T15:28:20Z</time>
      </trkpt>
      <trkpt lat="46.11014" lon="6.22894">
        <ele>734.652</ele>
        <time>2020-07-05T15:28:21Z</time>
      </trkpt>
      <trkpt lat="46.11021" lon="6.22894">
        <ele>735.838</ele>
        <time>2020-07-05T15:28:22Z</time>
      </trkpt>
      <trkpt lat="46.11027" lon="6.22896">
        <ele>737.17</ele>
        <time>2020-07-05T15:28:23Z</time>
      </trkpt>
      <trkpt lat="46.11034" lon="6.22899">
        <ele>738.417</ele>
        <time>2020-07-05T15:28:24Z</time>
      </trkpt>
      <trkpt lat="46.11039" lon="6.229">
        <ele>739.808</ele>
        <time>2020-07-05T15:28:25Z</time>
      </trkpt>
      <trkpt lat="46.11047" lon="6.22896">
        <ele>742.648</ele>
        <time>2020-07-05T15:28:27Z</time>
      </trkpt>
      <trkpt lat="46.11053" lon="6.22891">
        <ele>745.215</ele>
        <time>2020-07-05T15:28:29Z</time>
      </trkpt>
      <trkpt lat="46.11057" lon="6.22883">
        <ele>748.055</ele>
        <time>2020-07-05T15:28:31Z</time>
      </trkpt>
      <trkpt lat="46.11063" lon="6.22879">
        <ele>750.457</ele>
        <time>2020-07-05T15:28:33Z</time>
      </trkpt>
      <trkpt lat="46.11068" lon="6.22878">
        <ele>751.763</ele>
        <time>2020-07-05T15:28:35Z</time>
      </trkpt>
      <trkpt lat="46.11074" lon="6.22881">
        <ele>752.266</ele>
        <time>2020-07-05T15:29:28Z</time>
      </trkpt>
      <trkpt lat="46.11084" lon="6.22882">
        <ele>752.43</ele>
        <time>2020-07-05T15:29:30Z</time>
      </trkpt>
      <trkpt lat="46.11089" lon="6.22882">
        <ele>752.631</ele>
        <time>2020-07-05T15:29:31Z</time>
      </trkpt>
      <trkpt lat="46.11096" lon="6.22882">
        <ele>753.094</ele>
        <time>2020-07-05T15:29:32Z</time>
      </trkpt>
      <trkpt lat="46.111" lon="6.22881">
        <ele>753.557</ele>
        <time>2020-07-05T15:29:33Z</time>
      </trkpt>
      <trkpt lat="46.11105" lon="6.22878">
        <ele>754.722</ele>
        <time>2020-07-05T15:29:35Z</time>
      </trkpt>
      <trkpt lat="46.11113" lon="6.22873">
        <ele>756.208</ele>
        <time>2020-07-05T15:29:37Z</time>
      </trkpt>
      <trkpt lat="46.1112" lon="6.2287">
        <ele>757.054</ele>
        <time>2020-07-05T15:29:38Z</time>
      </trkpt>
      <trkpt lat="46.11126" lon="6.22869">
        <ele>758.021</ele>
        <time>2020-07-05T15:29:39Z</time>
      </trkpt>
      <trkpt lat="46.11132" lon="6.22868">
        <ele>759.121</ele>
        <time>2020-07-05T15:29:40Z</time>
      </trkpt>
      <trkpt lat="46.11137" lon="6.22865">
        <ele>761.123</ele>
        <time>2020-07-05T15:29:42Z</time>
      </trkpt>
      <trkpt lat="46.11141" lon="6.2286">
        <ele>762.699</ele>
        <time>2020-07-05T15:29:44Z</time>
      </trkpt>
      <trkpt lat="46.11146" lon="6.22859">
        <ele>763.762</ele>
        <time>2020-07-05T15:29:46Z</time>
      </trkpt>
      <trkpt lat="46.1115" lon="6.22849">
        <ele>764.996</ele>
        <time>2020-07-05T15:29:48Z</time>
      </trkpt>
      <trkpt lat="46.11152" lon="6.2284">
        <ele>766.417</ele>
        <time>2020-07-05T15:29:50Z</time>
      </trkpt>
      <trkpt lat="46.11155" lon="6.22831">
        <ele>768.088</ele>
        <time>2020-07-05T15:29:52Z</time>
      </trkpt>
      <trkpt lat="46.1116" lon="6.22824">
        <ele>769.424</ele>
        <time>2020-07-05T15:29:54Z</time>
      </trkpt>
      <trkpt lat="46.11163" lon="6.22815">
        <ele>770.426</ele>
        <time>2020-07-05T15:29:56Z</time>
      </trkpt>
      <trkpt lat="46.11166" lon="6.22807">
        <ele>770.908</ele>
        <time>2020-07-05T15:29:58Z</time>
      </trkpt>
      <trkpt lat="46.11183" lon="6.22784">
        <ele>771.043</ele>
        <time>2020-07-05T15:30:10Z</time>
      </trkpt>
      <trkpt lat="46.11186" lon="6.22777">
        <ele>770.94</ele>
        <time>2020-07-05T15:30:14Z</time>
      </trkpt>
      <trkpt lat="46.11188" lon="6.22767">
        <ele>770.91</ele>
        <time>2020-07-05T15:30:24Z</time>
      </trkpt>
      <trkpt lat="46.11193" lon="6.22756">
        <ele>771.442</ele>
        <time>2020-07-05T15:30:27Z</time>
      </trkpt>
      <trkpt lat="46.11195" lon="6.22743">
        <ele>772.128</ele>
        <time>2020-07-05T15:30:29Z</time>
      </trkpt>
      <trkpt lat="46.11194" lon="6.22736">
        <ele>772.651</ele>
        <time>2020-07-05T15:30:30Z</time>
      </trkpt>
      <trkpt lat="46.11195" lon="6.22725">
        <ele>773.135</ele>
        <time>2020-07-05T15:30:31Z</time>
      </trkpt>
      <trkpt lat="46.112" lon="6.22712">
        <ele>773.416</ele>
        <time>2020-07-05T15:30:32Z</time>
      </trkpt>
      <trkpt lat="46.11202" lon="6.22703">
        <ele>773.844</ele>
        <time>2020-07-05T15:30:33Z</time>
      </trkpt>
      <trkpt lat="46.11203" lon="6.22696">
        <ele>774.305</ele>
        <time>2020-07-05T15:30:34Z</time>
      </trkpt>
      <trkpt lat="46.11204" lon="6.22685">
        <ele>774.715</ele>
        <time>2020-07-05T15:30:35Z</time>
      </trkpt>
      <trkpt lat="46.11203" lon="6.22675">
        <ele>775.208</ele>
        <time>2020-07-05T15:30:36Z</time>
      </trkpt>
      <trkpt lat="46.11202" lon="6.22664">
        <ele>775.619</ele>
        <time>2020-07-05T15:30:37Z</time>
      </trkpt>
      <trkpt lat="46.11203" lon="6.22656">
        <ele>776.076</ele>
        <time>2020-07-05T15:30:38Z</time>
      </trkpt>
      <trkpt lat="46.11204" lon="6.22645">
        <ele>776.496</ele>
        <time>2020-07-05T15:30:39Z</time>
      </trkpt>
      <trkpt lat="46.11208" lon="6.22634">
        <ele>777.098</ele>
        <time>2020-07-05T15:30:40Z</time>
      </trkpt>
      <trkpt lat="46.11209" lon="6.22621">
        <ele>777.574</ele>
        <time>2020-07-05T15:30:41Z</time>
      </trkpt>
      <trkpt lat="46.11209" lon="6.22609">
        <ele>778.117</ele>
        <time>2020-07-05T15:30:42Z</time>
      </trkpt>
      <trkpt lat="46.11209" lon="6.22596">
        <ele>778.741</ele>
        <time>2020-07-05T15:30:43Z</time>
      </trkpt>
      <trkpt lat="46.11213" lon="6.22582">
        <ele>779.462</ele>
        <time>2020-07-05T15:30:44Z</time>
      </trkpt>
      <trkpt lat="46.11215" lon="6.2257">
        <ele>779.894</ele>
        <time>2020-07-05T15:30:45Z</time>
      </trkpt>
      <trkpt lat="46.11216" lon="6.22553">
        <ele>780.357</ele>
        <time>2020-07-05T15:30:46Z</time>
      </trkpt>
      <trkpt lat="46.11217" lon="6.22543">
        <ele>780.622</ele>
        <time>2020-07-05T15:30:47Z</time>
      </trkpt>
      <trkpt lat="46.1122" lon="6.22532">
        <ele>781.008</ele>
        <time>2020-07-05T15:30:48Z</time>
      </trkpt>
      <trkpt lat="46.11222" lon="6.22519">
        <ele>781.654</ele>
        <time>2020-07-05T15:30:49Z</time>
      </trkpt>
      <trkpt lat="46.11224" lon="6.22502">
        <ele>782.251</ele>
        <time>2020-07-05T15:30:50Z</time>
      </trkpt>
      <trkpt lat="46.11226" lon="6.22486">
        <ele>782.621</ele>
        <time>2020-07-05T15:30:51Z</time>
      </trkpt>
      <trkpt lat="46.11228" lon="6.22474">
        <ele>783.263</ele>
        <time>2020-07-05T15:30:52Z</time>
      </trkpt>
      <trkpt lat="46.11229" lon="6.2246">
        <ele>783.959</ele>
        <time>2020-07-05T15:30:53Z</time>
      </trkpt>
      <trkpt lat="46.11228" lon="6.22445">
        <ele>784.512</ele>
        <time>2020-07-05T15:30:54Z</time>
      </trkpt>
      <trkpt lat="46.11229" lon="6.22429">
        <ele>784.926</ele>
        <time>2020-07-05T15:30:55Z</time>
      </trkpt>
      <trkpt lat="46.11231" lon="6.22417">
        <ele>785.747</ele>
        <time>2020-07-05T15:30:56Z</time>
      </trkpt>
      <trkpt lat="46.11234" lon="6.22406">
        <ele>786.364</ele>
        <time>2020-07-05T15:30:57Z</time>
      </trkpt>
      <trkpt lat="46.11235" lon="6.22396">
        <ele>786.706</ele>
        <time>2020-07-05T15:30:58Z</time>
      </trkpt>
      <trkpt lat="46.11237" lon="6.22389">
        <ele>787.016</ele>
        <time>2020-07-05T15:30:59Z</time>
      </trkpt>
      <trkpt lat="46.11236" lon="6.2238">
        <ele>787.208</ele>
        <time>2020-07-05T15:31:02Z</time>
      </trkpt>
      <trkpt lat="46.11231" lon="6.22373">
        <ele>787.431</ele>
        <time>2020-07-05T15:31:34Z</time>
      </trkpt>
      <trkpt lat="46.11227" lon="6.22367">
        <ele>787.488</ele>
        <time>2020-07-05T15:31:35Z</time>
      </trkpt>
      <trkpt lat="46.11223" lon="6.22358">
        <ele>787.518</ele>
        <time>2020-07-05T15:31:36Z</time>
      </trkpt>
      <trkpt lat="46.11216" lon="6.22345">
        <ele>787.71</ele>
        <time>2020-07-05T15:31:37Z</time>
      </trkpt>
      <trkpt lat="46.11207" lon="6.22327">
        <ele>788.126</ele>
        <time>2020-07-05T15:31:38Z</time>
      </trkpt>
      <trkpt lat="46.11199" lon="6.22307">
        <ele>788.629</ele>
        <time>2020-07-05T15:31:39Z</time>
      </trkpt>
      <trkpt lat="46.1119" lon="6.22285">
        <ele>789.393</ele>
        <time>2020-07-05T15:31:40Z</time>
      </trkpt>
      <trkpt lat="46.11187" lon="6.22265">
        <ele>790.064</ele>
        <time>2020-07-05T15:31:41Z</time>
      </trkpt>
      <trkpt lat="46.11188" lon="6.22249">
        <ele>790.734</ele>
        <time>2020-07-05T15:31:42Z</time>
      </trkpt>
      <trkpt lat="46.11191" lon="6.22237">
        <ele>791.355</ele>
        <time>2020-07-05T15:31:43Z</time>
      </trkpt>
      <trkpt lat="46.11196" lon="6.2222">
        <ele>792.01</ele>
        <time>2020-07-05T15:31:44Z</time>
      </trkpt>
      <trkpt lat="46.112" lon="6.22203">
        <ele>792.708</ele>
        <time>2020-07-05T15:31:45Z</time>
      </trkpt>
      <trkpt lat="46.11202" lon="6.22187">
        <ele>793.428</ele>
        <time>2020-07-05T15:31:46Z</time>
      </trkpt>
      <trkpt lat="46.11204" lon="6.22175">
        <ele>794.235</ele>
        <time>2020-07-05T15:31:47Z</time>
      </trkpt>
      <trkpt lat="46.11205" lon="6.22163">
        <ele>795.095</ele>
        <time>2020-07-05T15:31:48Z</time>
      </trkpt>
      <trkpt lat="46.11204" lon="6.22153">
        <ele>795.727</ele>
        <time>2020-07-05T15:31:49Z</time>
      </trkpt>
      <trkpt lat="46.11201" lon="6.22142">
        <ele>796.333</ele>
        <time>2020-07-05T15:31:50Z</time>
      </trkpt>
      <trkpt lat="46.11194" lon="6.22132">
        <ele>796.676</ele>
        <time>2020-07-05T15:31:51Z</time>
      </trkpt>
      <trkpt lat="46.11186" lon="6.2212">
        <ele>797.07</ele>
        <time>2020-07-05T15:31:52Z</time>
      </trkpt>
      <trkpt lat="46.11179" lon="6.2211">
        <ele>797.331</ele>
        <time>2020-07-05T15:31:53Z</time>
      </trkpt>
      <trkpt lat="46.11175" lon="6.221">
        <ele>797.653</ele>
        <time>2020-07-05T15:31:54Z</time>
      </trkpt>
      <trkpt lat="46.11169" lon="6.2209">
        <ele>798.004</ele>
        <time>2020-07-05T15:31:55Z</time>
      </trkpt>
      <trkpt lat="46.11161" lon="6.22081">
        <ele>798.314</ele>
        <time>2020-07-05T15:31:56Z</time>
      </trkpt>
      <trkpt lat="46.1115" lon="6.2207">
        <ele>798.908</ele>
        <time>2020-07-05T15:31:57Z</time>
      </trkpt>
      <trkpt lat="46.11139" lon="6.22061">
        <ele>799.55</ele>
        <time>2020-07-05T15:31:58Z</time>
      </trkpt>
      <trkpt lat="46.1113" lon="6.22056">
        <ele>800.077</ele>
        <time>2020-07-05T15:31:59Z</time>
      </trkpt>
      <trkpt lat="46.11118" lon="6.22053">
        <ele>800.597</ele>
        <time>2020-07-05T15:32:00Z</time>
      </trkpt>
      <trkpt lat="46.11103" lon="6.2205">
        <ele>801.369</ele>
        <time>2020-07-05T15:32:01Z</time>
      </trkpt>
      <trkpt lat="46.11089" lon="6.22044">
        <ele>802.155</ele>
        <time>2020-07-05T15:32:02Z</time>
      </trkpt>
      <trkpt lat="46.11078" lon="6.22041">
        <ele>803.058</ele>
        <time>2020-07-05T15:32:03Z</time>
      </trkpt>
      <trkpt lat="46.11067" lon="6.22039">
        <ele>804.192</ele>
        <time>2020-07-05T15:32:04Z</time>
      </trkpt>
      <trkpt lat="46.11056" lon="6.22036">
        <ele>805.283</ele>
        <time>2020-07-05T15:32:05Z</time>
      </trkpt>
      <trkpt lat="46.11042" lon="6.2203">
        <ele>806.077</ele>
        <time>2020-07-05T15:32:06Z</time>
      </trkpt>
      <trkpt lat="46.11027" lon="6.22024">
        <ele>807.161</ele>
        <time>2020-07-05T15:32:07Z</time>
      </trkpt>
      <trkpt lat="46.11011" lon="6.2202">
        <ele>808.027</ele>
        <time>2020-07-05T15:32:08Z</time>
      </trkpt>
      <trkpt lat="46.10993" lon="6.22016">
        <ele>809.008</ele>
        <time>2020-07-05T15:32:09Z</time>
      </trkpt>
      <trkpt lat="46.10974" lon="6.22007">
        <ele>810.332</ele>
        <time>2020-07-05T15:32:10Z</time>
      </trkpt>
      <trkpt lat="46.10954" lon="6.22002">
        <ele>812.189</ele>
        <time>2020-07-05T15:32:11Z</time>
      </trkpt>
      <trkpt lat="46.1094" lon="6.21999">
        <ele>813.999</ele>
        <time>2020-07-05T15:32:12Z</time>
      </trkpt>
      <trkpt lat="46.10933" lon="6.21996">
        <ele>815.441</ele>
        <time>2020-07-05T15:32:13Z</time>
      </trkpt>
      <trkpt lat="46.10925" lon="6.21993">
        <ele>816.537</ele>
        <time>2020-07-05T15:32:14Z</time>
      </trkpt>
      <trkpt lat="46.10918" lon="6.21991">
        <ele>817.27</ele>
        <time>2020-07-05T15:32:15Z</time>
      </trkpt>
      <trkpt lat="46.10911" lon="6.2199">
        <ele>817.344</ele>
        <time>2020-07-05T15:32:16Z</time>
      </trkpt>
      <trkpt lat="46.10906" lon="6.21988">
        <ele>817.375</ele>
        <time>2020-07-05T15:32:17Z</time>
      </trkpt>
      <trkpt lat="46.10901" lon="6.21987">
        <ele>817.298</ele>
        <time>2020-07-05T15:32:18Z</time>
      </trkpt>
      <trkpt lat="46.10894" lon="6.21985">
        <ele>817.115</ele>
        <time>2020-07-05T15:32:20Z</time>
      </trkpt>
      <trkpt lat="46.10888" lon="6.21984">
        <ele>817.226</ele>
        <time>2020-07-05T15:32:22Z</time>
      </trkpt>
      <trkpt lat="46.10882" lon="6.21981">
        <ele>817.408</ele>
        <time>2020-07-05T15:32:24Z</time>
      </trkpt>
      <trkpt lat="46.10877" lon="6.21979">
        <ele>817.554</ele>
        <time>2020-07-05T15:32:25Z</time>
      </trkpt>
      <trkpt lat="46.10872" lon="6.21978">
        <ele>817.571</ele>
        <time>2020-07-05T15:32:26Z</time>
      </trkpt>
      <trkpt lat="46.10865" lon="6.21976">
        <ele>817.621</ele>
        <time>2020-07-05T15:32:27Z</time>
      </trkpt>
      <trkpt lat="46.10858" lon="6.21973">
        <ele>817.783</ele>
        <time>2020-07-05T15:32:28Z</time>
      </trkpt>
      <trkpt lat="46.10849" lon="6.21968">
        <ele>817.949</ele>
        <time>2020-07-05T15:32:29Z</time>
      </trkpt>
      <trkpt lat="46.10841" lon="6.21963">
        <ele>818.362</ele>
        <time>2020-07-05T15:32:30Z</time>
      </trkpt>
      <trkpt lat="46.10831" lon="6.21958">
        <ele>818.796</ele>
        <time>2020-07-05T15:32:31Z</time>
      </trkpt>
      <trkpt lat="46.10822" lon="6.21953">
        <ele>819.157</ele>
        <time>2020-07-05T15:32:32Z</time>
      </trkpt>
      <trkpt lat="46.10813" lon="6.21948">
        <ele>819.565</ele>
        <time>2020-07-05T15:32:33Z</time>
      </trkpt>
      <trkpt lat="46.10805" lon="6.21944">
        <ele>819.968</ele>
        <time>2020-07-05T15:32:34Z</time>
      </trkpt>
      <trkpt lat="46.10796" lon="6.21941">
        <ele>820.214</ele>
        <time>2020-07-05T15:32:35Z</time>
      </trkpt>
      <trkpt lat="46.10785" lon="6.21936">
        <ele>820.608</ele>
        <time>2020-07-05T15:32:36Z</time>
      </trkpt>
      <trkpt lat="46.10775" lon="6.21932">
        <ele>821.021</ele>
        <time>2020-07-05T15:32:37Z</time>
      </trkpt>
      <trkpt lat="46.10765" lon="6.21928">
        <ele>821.568</ele>
        <time>2020-07-05T15:32:38Z</time>
      </trkpt>
      <trkpt lat="46.10756" lon="6.21923">
        <ele>821.928</ele>
        <time>2020-07-05T15:32:39Z</time>
      </trkpt>
      <trkpt lat="46.10745" lon="6.21917">
        <ele>822.39</ele>
        <time>2020-07-05T15:32:40Z</time>
      </trkpt>
      <trkpt lat="46.10735" lon="6.21911">
        <ele>822.826</ele>
        <time>2020-07-05T15:32:41Z</time>
      </trkpt>
      <trkpt lat="46.10726" lon="6.21905">
        <ele>823.229</ele>
        <time>2020-07-05T15:32:42Z</time>
      </trkpt>
      <trkpt lat="46.10717" lon="6.21901">
        <ele>823.643</ele>
        <time>2020-07-05T15:32:43Z</time>
      </trkpt>
      <trkpt lat="46.1071" lon="6.21898">
        <ele>823.874</ele>
        <time>2020-07-05T15:32:44Z</time>
      </trkpt>
      <trkpt lat="46.10706" lon="6.21896">
        <ele>824.022</ele>
        <time>2020-07-05T15:32:45Z</time>
      </trkpt>
      <trkpt lat="46.10701" lon="6.21894">
        <ele>824.062</ele>
        <time>2020-07-05T15:32:47Z</time>
      </trkpt>
      <trkpt lat="46.10703" lon="6.21901">
        <ele>823.908</ele>
        <time>2020-07-05T15:32:56Z</time>
      </trkpt>
      <trkpt lat="46.10701" lon="6.21886">
        <ele>824.008</ele>
        <time>2020-07-05T15:33:01Z</time>
      </trkpt>
      <trkpt lat="46.10703" lon="6.21879">
        <ele>824.047</ele>
        <time>2020-07-05T15:33:02Z</time>
      </trkpt>
      <trkpt lat="46.10708" lon="6.21871">
        <ele>824.224</ele>
        <time>2020-07-05T15:33:04Z</time>
      </trkpt>
      <trkpt lat="46.10713" lon="6.21862">
        <ele>824.394</ele>
        <time>2020-07-05T15:33:06Z</time>
      </trkpt>
      <trkpt lat="46.10716" lon="6.21853">
        <ele>824.466</ele>
        <time>2020-07-05T15:33:08Z</time>
      </trkpt>
      <trkpt lat="46.10719" lon="6.21846">
        <ele>824.482</ele>
        <time>2020-07-05T15:33:10Z</time>
      </trkpt>
      <trkpt lat="46.10724" lon="6.21839">
        <ele>824.345</ele>
        <time>2020-07-05T15:33:12Z</time>
      </trkpt>
      <trkpt lat="46.10728" lon="6.21835">
        <ele>824.379</ele>
        <time>2020-07-05T15:33:13Z</time>
      </trkpt>
      <trkpt lat="46.10733" lon="6.21831">
        <ele>824.31</ele>
        <time>2020-07-05T15:33:14Z</time>
      </trkpt>
      <trkpt lat="46.10739" lon="6.21828">
        <ele>824.319</ele>
        <time>2020-07-05T15:33:15Z</time>
      </trkpt>
      <trkpt lat="46.10749" lon="6.21825">
        <ele>824.409</ele>
        <time>2020-07-05T15:33:16Z</time>
      </trkpt>
      <trkpt lat="46.10762" lon="6.21825">
        <ele>824.419</ele>
        <time>2020-07-05T15:33:17Z</time>
      </trkpt>
      <trkpt lat="46.10777" lon="6.21826">
        <ele>824.608</ele>
        <time>2020-07-05T15:33:18Z</time>
      </trkpt>
      <trkpt lat="46.10793" lon="6.21825">
        <ele>824.826</ele>
        <time>2020-07-05T15:33:19Z</time>
      </trkpt>
      <trkpt lat="46.10807" lon="6.21818">
        <ele>825.463</ele>
        <time>2020-07-05T15:33:20Z</time>
      </trkpt>
      <trkpt lat="46.10823" lon="6.21809">
        <ele>825.833</ele>
        <time>2020-07-05T15:33:21Z</time>
      </trkpt>
      <trkpt lat="46.10838" lon="6.21799">
        <ele>826.425</ele>
        <time>2020-07-05T15:33:22Z</time>
      </trkpt>
      <trkpt lat="46.10855" lon="6.2179">
        <ele>826.941</ele>
        <time>2020-07-05T15:33:23Z</time>
      </trkpt>
      <trkpt lat="46.1087" lon="6.21785">
        <ele>827.684</ele>
        <time>2020-07-05T15:33:24Z</time>
      </trkpt>
      <trkpt lat="46.10882" lon="6.21781">
        <ele>828.148</ele>
        <time>2020-07-05T15:33:25Z</time>
      </trkpt>
      <trkpt lat="46.10891" lon="6.21774">
        <ele>828.619</ele>
        <time>2020-07-05T15:33:26Z</time>
      </trkpt>
      <trkpt lat="46.10898" lon="6.21763">
        <ele>829.268</ele>
        <time>2020-07-05T15:33:27Z</time>
      </trkpt>
      <trkpt lat="46.10905" lon="6.21752">
        <ele>829.842</ele>
        <time>2020-07-05T15:33:28Z</time>
      </trkpt>
      <trkpt lat="46.10915" lon="6.21738">
        <ele>830.426</ele>
        <time>2020-07-05T15:33:29Z</time>
      </trkpt>
      <trkpt lat="46.10927" lon="6.21723">
        <ele>831.208</ele>
        <time>2020-07-05T15:33:30Z</time>
      </trkpt>
      <trkpt lat="46.1094" lon="6.21709">
        <ele>832.191</ele>
        <time>2020-07-05T15:33:31Z</time>
      </trkpt>
      <trkpt lat="46.10947" lon="6.21699">
        <ele>832.818</ele>
        <time>2020-07-05T15:33:32Z</time>
      </trkpt>
      <trkpt lat="46.10953" lon="6.21692">
        <ele>833.788</ele>
        <time>2020-07-05T15:33:33Z</time>
      </trkpt>
      <trkpt lat="46.1096" lon="6.21687">
        <ele>834.22</ele>
        <time>2020-07-05T15:33:34Z</time>
      </trkpt>
      <trkpt lat="46.10967" lon="6.21684">
        <ele>834.566</ele>
        <time>2020-07-05T15:33:35Z</time>
      </trkpt>
      <trkpt lat="46.10979" lon="6.21686">
        <ele>834.679</ele>
        <time>2020-07-05T15:33:36Z</time>
      </trkpt>
      <trkpt lat="46.10993" lon="6.21685">
        <ele>834.943</ele>
        <time>2020-07-05T15:33:37Z</time>
      </trkpt>
      <trkpt lat="46.1101" lon="6.21683">
        <ele>835.074</ele>
        <time>2020-07-05T15:33:38Z</time>
      </trkpt>
      <trkpt lat="46.11028" lon="6.21683">
        <ele>835.492</ele>
        <time>2020-07-05T15:33:39Z</time>
      </trkpt>
      <trkpt lat="46.11052" lon="6.21684">
        <ele>835.473</ele>
        <time>2020-07-05T15:33:40Z</time>
      </trkpt>
      <trkpt lat="46.11071" lon="6.21685">
        <ele>835.62</ele>
        <time>2020-07-05T15:33:41Z</time>
      </trkpt>
      <trkpt lat="46.1109" lon="6.21685">
        <ele>835.608</ele>
        <time>2020-07-05T15:33:42Z</time>
      </trkpt>
      <trkpt lat="46.11106" lon="6.21686">
        <ele>835.394</ele>
        <time>2020-07-05T15:33:43Z</time>
      </trkpt>
      <trkpt lat="46.1112" lon="6.21686">
        <ele>834.611</ele>
        <time>2020-07-05T15:33:44Z</time>
      </trkpt>
      <trkpt lat="46.11136" lon="6.21686">
        <ele>833.921</ele>
        <time>2020-07-05T15:33:45Z</time>
      </trkpt>
      <trkpt lat="46.11148" lon="6.21687">
        <ele>832.943</ele>
        <time>2020-07-05T15:33:46Z</time>
      </trkpt>
      <trkpt lat="46.1116" lon="6.21687">
        <ele>832.199</ele>
        <time>2020-07-05T15:33:47Z</time>
      </trkpt>
      <trkpt lat="46.1117" lon="6.21688">
        <ele>831.542</ele>
        <time>2020-07-05T15:33:48Z</time>
      </trkpt>
      <trkpt lat="46.11181" lon="6.21688">
        <ele>831.146</ele>
        <time>2020-07-05T15:33:49Z</time>
      </trkpt>
      <trkpt lat="46.11189" lon="6.21686">
        <ele>830.877</ele>
        <time>2020-07-05T15:33:50Z</time>
      </trkpt>
      <trkpt lat="46.11195" lon="6.21682">
        <ele>830.494</ele>
        <time>2020-07-05T15:33:51Z</time>
      </trkpt>
      <trkpt lat="46.11199" lon="6.21673">
        <ele>830.057</ele>
        <time>2020-07-05T15:33:52Z</time>
      </trkpt>
      <trkpt lat="46.11203" lon="6.21664">
        <ele>829.522</ele>
        <time>2020-07-05T15:33:53Z</time>
      </trkpt>
      <trkpt lat="46.11206" lon="6.21651">
        <ele>829.108</ele>
        <time>2020-07-05T15:33:54Z</time>
      </trkpt>
      <trkpt lat="46.1121" lon="6.21636">
        <ele>828.894</ele>
        <time>2020-07-05T15:33:55Z</time>
      </trkpt>
      <trkpt lat="46.11214" lon="6.21621">
        <ele>828.651</ele>
        <time>2020-07-05T15:33:56Z</time>
      </trkpt>
      <trkpt lat="46.11217" lon="6.21608">
        <ele>828.591</ele>
        <time>2020-07-05T15:33:57Z</time>
      </trkpt>
      <trkpt lat="46.11219" lon="6.216">
        <ele>828.423</ele>
        <time>2020-07-05T15:33:58Z</time>
      </trkpt>
      <trkpt lat="46.11223" lon="6.21595">
        <ele>827.939</ele>
        <time>2020-07-05T15:34:00Z</time>
      </trkpt>
      <trkpt lat="46.11215" lon="6.21593">
        <ele>826.432</ele>
        <time>2020-07-05T15:34:04Z</time>
      </trkpt>
      <trkpt lat="46.11205" lon="6.21583">
        <ele>826.546</ele>
        <time>2020-07-05T15:34:06Z</time>
      </trkpt>
      <trkpt lat="46.11195" lon="6.21573">
        <ele>826.857</ele>
        <time>2020-07-05T15:34:07Z</time>
      </trkpt>
      <trkpt lat="46.11182" lon="6.2156">
        <ele>827.369</ele>
        <time>2020-07-05T15:34:08Z</time>
      </trkpt>
      <trkpt lat="46.1117" lon="6.21547">
        <ele>827.904</ele>
        <time>2020-07-05T15:34:09Z</time>
      </trkpt>
      <trkpt lat="46.11157" lon="6.21533">
        <ele>828.524</ele>
        <time>2020-07-05T15:34:10Z</time>
      </trkpt>
      <trkpt lat="46.11145" lon="6.21522">
        <ele>829.108</ele>
        <time>2020-07-05T15:34:11Z</time>
      </trkpt>
      <trkpt lat="46.11134" lon="6.2151">
        <ele>829.571</ele>
        <time>2020-07-05T15:34:12Z</time>
      </trkpt>
      <trkpt lat="46.11125" lon="6.21501">
        <ele>829.848</ele>
        <time>2020-07-05T15:34:13Z</time>
      </trkpt>
      <trkpt lat="46.11118" lon="6.21489">
        <ele>829.878</ele>
        <time>2020-07-05T15:34:14Z</time>
      </trkpt>
      <trkpt lat="46.11112" lon="6.21476">
        <ele>829.87</ele>
        <time>2020-07-05T15:34:15Z</time>
      </trkpt>
      <trkpt lat="46.11107" lon="6.21464">
        <ele>829.776</ele>
        <time>2020-07-05T15:34:16Z</time>
      </trkpt>
      <trkpt lat="46.11102" lon="6.21455">
        <ele>829.659</ele>
        <time>2020-07-05T15:34:17Z</time>
      </trkpt>
      <trkpt lat="46.11097" lon="6.21448">
        <ele>829.693</ele>
        <time>2020-07-05T15:34:18Z</time>
      </trkpt>
      <trkpt lat="46.1109" lon="6.21437">
        <ele>829.654</ele>
        <time>2020-07-05T15:34:19Z</time>
      </trkpt>
      <trkpt lat="46.11084" lon="6.21429">
        <ele>829.623</ele>
        <time>2020-07-05T15:34:20Z</time>
      </trkpt>
      <trkpt lat="46.11077" lon="6.21422">
        <ele>829.683</ele>
        <time>2020-07-05T15:34:21Z</time>
      </trkpt>
      <trkpt lat="46.11071" lon="6.21414">
        <ele>829.611</ele>
        <time>2020-07-05T15:34:22Z</time>
      </trkpt>
      <trkpt lat="46.11064" lon="6.21407">
        <ele>829.508</ele>
        <time>2020-07-05T15:34:23Z</time>
      </trkpt>
      <trkpt lat="46.11058" lon="6.21399">
        <ele>829.327</ele>
        <time>2020-07-05T15:34:24Z</time>
      </trkpt>
      <trkpt lat="46.1105" lon="6.2139">
        <ele>829.094</ele>
        <time>2020-07-05T15:34:25Z</time>
      </trkpt>
      <trkpt lat="46.11042" lon="6.21384">
        <ele>828.624</ele>
        <time>2020-07-05T15:34:26Z</time>
      </trkpt>
      <trkpt lat="46.11033" lon="6.2138">
        <ele>828.016</ele>
        <time>2020-07-05T15:34:27Z</time>
      </trkpt>
      <trkpt lat="46.11025" lon="6.21379">
        <ele>827.392</ele>
        <time>2020-07-05T15:34:28Z</time>
      </trkpt>
      <trkpt lat="46.11018" lon="6.21378">
        <ele>826.745</ele>
        <time>2020-07-05T15:34:29Z</time>
      </trkpt>
      <trkpt lat="46.1101" lon="6.21379">
        <ele>826.139</ele>
        <time>2020-07-05T15:34:30Z</time>
      </trkpt>
      <trkpt lat="46.11003" lon="6.21378">
        <ele>825.59</ele>
        <time>2020-07-05T15:34:31Z</time>
      </trkpt>
      <trkpt lat="46.10995" lon="6.21376">
        <ele>824.983</ele>
        <time>2020-07-05T15:34:32Z</time>
      </trkpt>
      <trkpt lat="46.10988" lon="6.21375">
        <ele>824.425</ele>
        <time>2020-07-05T15:34:33Z</time>
      </trkpt>
      <trkpt lat="46.10981" lon="6.21373">
        <ele>823.717</ele>
        <time>2020-07-05T15:34:34Z</time>
      </trkpt>
      <trkpt lat="46.10974" lon="6.21372">
        <ele>823.108</ele>
        <time>2020-07-05T15:34:35Z</time>
      </trkpt>
      <trkpt lat="46.10967" lon="6.21371">
        <ele>822.523</ele>
        <time>2020-07-05T15:34:36Z</time>
      </trkpt>
      <trkpt lat="46.10961" lon="6.21369">
        <ele>822.03</ele>
        <time>2020-07-05T15:34:37Z</time>
      </trkpt>
      <trkpt lat="46.10954" lon="6.21367">
        <ele>821.59</ele>
        <time>2020-07-05T15:34:38Z</time>
      </trkpt>
      <trkpt lat="46.10949" lon="6.21366">
        <ele>820.912</ele>
        <time>2020-07-05T15:34:39Z</time>
      </trkpt>
      <trkpt lat="46.10943" lon="6.21367">
        <ele>820.418</ele>
        <time>2020-07-05T15:34:40Z</time>
      </trkpt>
      <trkpt lat="46.10938" lon="6.21366">
        <ele>820.091</ele>
        <time>2020-07-05T15:34:41Z</time>
      </trkpt>
      <trkpt lat="46.10933" lon="6.21365">
        <ele>819.715</ele>
        <time>2020-07-05T15:34:42Z</time>
      </trkpt>
      <trkpt lat="46.10928" lon="6.21364">
        <ele>819.426</ele>
        <time>2020-07-05T15:34:43Z</time>
      </trkpt>
      <trkpt lat="46.1092" lon="6.21361">
        <ele>819.166</ele>
        <time>2020-07-05T15:34:45Z</time>
      </trkpt>
      <trkpt lat="46.10914" lon="6.21358">
        <ele>819.029</ele>
        <time>2020-07-05T15:34:46Z</time>
      </trkpt>
      <trkpt lat="46.10909" lon="6.21356">
        <ele>818.921</ele>
        <time>2020-07-05T15:34:47Z</time>
      </trkpt>
      <trkpt lat="46.10904" lon="6.21354">
        <ele>818.908</ele>
        <time>2020-07-05T15:34:48Z</time>
      </trkpt>
      <trkpt lat="46.10895" lon="6.21352">
        <ele>818.941</ele>
        <time>2020-07-05T15:34:49Z</time>
      </trkpt>
      <trkpt lat="46.10886" lon="6.2135">
        <ele>819.118</ele>
        <time>2020-07-05T15:34:50Z</time>
      </trkpt>
      <trkpt lat="46.10876" lon="6.21347">
        <ele>819.348</ele>
        <time>2020-07-05T15:34:51Z</time>
      </trkpt>
      <trkpt lat="46.10867" lon="6.21344">
        <ele>819.69</ele>
        <time>2020-07-05T15:34:52Z</time>
      </trkpt>
      <trkpt lat="46.10861" lon="6.21344">
        <ele>819.836</ele>
        <time>2020-07-05T15:34:53Z</time>
      </trkpt>
      <trkpt lat="46.10854" lon="6.21342">
        <ele>820.039</ele>
        <time>2020-07-05T15:34:54Z</time>
      </trkpt>
      <trkpt lat="46.10848" lon="6.21341">
        <ele>820.123</ele>
        <time>2020-07-05T15:34:55Z</time>
      </trkpt>
      <trkpt lat="46.10843" lon="6.21342">
        <ele>820.184</ele>
        <time>2020-07-05T15:34:56Z</time>
      </trkpt>
      <trkpt lat="46.10835" lon="6.21338">
        <ele>820.088</ele>
        <time>2020-07-05T15:34:58Z</time>
      </trkpt>
      <trkpt lat="46.10829" lon="6.21332">
        <ele>819.524</ele>
        <time>2020-07-05T15:35:01Z</time>
      </trkpt>
      <trkpt lat="46.10819" lon="6.21333">
        <ele>819.426</ele>
        <time>2020-07-05T15:35:03Z</time>
      </trkpt>
      <trkpt lat="46.10814" lon="6.21336">
        <ele>819.408</ele>
        <time>2020-07-05T15:35:04Z</time>
      </trkpt>
      <trkpt lat="46.10807" lon="6.2134">
        <ele>819.553</ele>
        <time>2020-07-05T15:35:05Z</time>
      </trkpt>
      <trkpt lat="46.108" lon="6.21345">
        <ele>819.89</ele>
        <time>2020-07-05T15:35:06Z</time>
      </trkpt>
      <trkpt lat="46.10792" lon="6.21349">
        <ele>820.09</ele>
        <time>2020-07-05T15:35:07Z</time>
      </trkpt>
      <trkpt lat="46.10781" lon="6.21352">
        <ele>820.172</ele>
        <time>2020-07-05T15:35:08Z</time>
      </trkpt>
      <trkpt lat="46.10769" lon="6.21356">
        <ele>820.478</ele>
        <time>2020-07-05T15:35:09Z</time>
      </trkpt>
      <trkpt lat="46.10755" lon="6.21359">
        <ele>820.911</ele>
        <time>2020-07-05T15:35:10Z</time>
      </trkpt>
      <trkpt lat="46.10742" lon="6.21361">
        <ele>821.185</ele>
        <time>2020-07-05T15:35:11Z</time>
      </trkpt>
      <trkpt lat="46.10727" lon="6.21364">
        <ele>821.536</ele>
        <time>2020-07-05T15:35:12Z</time>
      </trkpt>
      <trkpt lat="46.10711" lon="6.21367">
        <ele>822.236</ele>
        <time>2020-07-05T15:35:13Z</time>
      </trkpt>
      <trkpt lat="46.10694" lon="6.2137">
        <ele>822.817</ele>
        <time>2020-07-05T15:35:14Z</time>
      </trkpt>
      <trkpt lat="46.10677" lon="6.21372">
        <ele>823.318</ele>
        <time>2020-07-05T15:35:15Z</time>
      </trkpt>
      <trkpt lat="46.10662" lon="6.21374">
        <ele>823.908</ele>
        <time>2020-07-05T15:35:16Z</time>
      </trkpt>
      <trkpt lat="46.10647" lon="6.21376">
        <ele>824.278</ele>
        <time>2020-07-05T15:35:17Z</time>
      </trkpt>
      <trkpt lat="46.10634" lon="6.21378">
        <ele>824.675</ele>
        <time>2020-07-05T15:35:18Z</time>
      </trkpt>
      <trkpt lat="46.10621" lon="6.21381">
        <ele>825.215</ele>
        <time>2020-07-05T15:35:19Z</time>
      </trkpt>
      <trkpt lat="46.10608" lon="6.21383">
        <ele>825.687</ele>
        <time>2020-07-05T15:35:20Z</time>
      </trkpt>
      <trkpt lat="46.10595" lon="6.21386">
        <ele>826.233</ele>
        <time>2020-07-05T15:35:21Z</time>
      </trkpt>
      <trkpt lat="46.10581" lon="6.21388">
        <ele>826.826</ele>
        <time>2020-07-05T15:35:22Z</time>
      </trkpt>
      <trkpt lat="46.10566" lon="6.21388">
        <ele>827.54</ele>
        <time>2020-07-05T15:35:23Z</time>
      </trkpt>
      <trkpt lat="46.10552" lon="6.2139">
        <ele>828.121</ele>
        <time>2020-07-05T15:35:24Z</time>
      </trkpt>
      <trkpt lat="46.10538" lon="6.21394">
        <ele>829.266</ele>
        <time>2020-07-05T15:35:25Z</time>
      </trkpt>
      <trkpt lat="46.10524" lon="6.21401">
        <ele>830.429</ele>
        <time>2020-07-05T15:35:26Z</time>
      </trkpt>
      <trkpt lat="46.1051" lon="6.21413">
        <ele>832.121</ele>
        <time>2020-07-05T15:35:27Z</time>
      </trkpt>
      <trkpt lat="46.10496" lon="6.21425">
        <ele>833.608</ele>
        <time>2020-07-05T15:35:28Z</time>
      </trkpt>
      <trkpt lat="46.10481" lon="6.21438">
        <ele>835.221</ele>
        <time>2020-07-05T15:35:29Z</time>
      </trkpt>
      <trkpt lat="46.10465" lon="6.2145">
        <ele>836.818</ele>
        <time>2020-07-05T15:35:30Z</time>
      </trkpt>
      <trkpt lat="46.1045" lon="6.21461">
        <ele>838.458</ele>
        <time>2020-07-05T15:35:31Z</time>
      </trkpt>
      <trkpt lat="46.10436" lon="6.21471">
        <ele>839.98</ele>
        <time>2020-07-05T15:35:32Z</time>
      </trkpt>
      <trkpt lat="46.10424" lon="6.21478">
        <ele>841.196</ele>
        <time>2020-07-05T15:35:33Z</time>
      </trkpt>
      <trkpt lat="46.10414" lon="6.21483">
        <ele>842.879</ele>
        <time>2020-07-05T15:35:34Z</time>
      </trkpt>
      <trkpt lat="46.10404" lon="6.21486">
        <ele>844.223</ele>
        <time>2020-07-05T15:35:35Z</time>
      </trkpt>
      <trkpt lat="46.10396" lon="6.21486">
        <ele>845.094</ele>
        <time>2020-07-05T15:35:36Z</time>
      </trkpt>
      <trkpt lat="46.1039" lon="6.21486">
        <ele>845.644</ele>
        <time>2020-07-05T15:35:37Z</time>
      </trkpt>
      <trkpt lat="46.10387" lon="6.21477">
        <ele>846.205</ele>
        <time>2020-07-05T15:35:39Z</time>
      </trkpt>
      <trkpt lat="46.10386" lon="6.21463">
        <ele>846.115</ele>
        <time>2020-07-05T15:35:41Z</time>
      </trkpt>
      <trkpt lat="46.10384" lon="6.21453">
        <ele>846.108</ele>
        <time>2020-07-05T15:35:42Z</time>
      </trkpt>
      <trkpt lat="46.10382" lon="6.21444">
        <ele>846.369</ele>
        <time>2020-07-05T15:35:43Z</time>
      </trkpt>
      <trkpt lat="46.10378" lon="6.21431">
        <ele>846.626</ele>
        <time>2020-07-05T15:35:44Z</time>
      </trkpt>
      <trkpt lat="46.10376" lon="6.2142">
        <ele>847.266</ele>
        <time>2020-07-05T15:35:45Z</time>
      </trkpt>
      <trkpt lat="46.10374" lon="6.21406">
        <ele>847.798</ele>
        <time>2020-07-05T15:35:46Z</time>
      </trkpt>
      <trkpt lat="46.10372" lon="6.21396">
        <ele>848.224</ele>
        <time>2020-07-05T15:35:47Z</time>
      </trkpt>
      <trkpt lat="46.10369" lon="6.21386">
        <ele>848.577</ele>
        <time>2020-07-05T15:35:48Z</time>
      </trkpt>
      <trkpt lat="46.10364" lon="6.21375">
        <ele>848.851</ele>
        <time>2020-07-05T15:35:49Z</time>
      </trkpt>
      <trkpt lat="46.10361" lon="6.21366">
        <ele>849.032</ele>
        <time>2020-07-05T15:35:50Z</time>
      </trkpt>
      <trkpt lat="46.10358" lon="6.21356">
        <ele>849.272</ele>
        <time>2020-07-05T15:35:51Z</time>
      </trkpt>
      <trkpt lat="46.10355" lon="6.21348">
        <ele>849.613</ele>
        <time>2020-07-05T15:35:52Z</time>
      </trkpt>
      <trkpt lat="46.10352" lon="6.21339">
        <ele>850.214</ele>
        <time>2020-07-05T15:35:53Z</time>
      </trkpt>
      <trkpt lat="46.10348" lon="6.2133">
        <ele>850.908</ele>
        <time>2020-07-05T15:35:54Z</time>
      </trkpt>
      <trkpt lat="46.10344" lon="6.21321">
        <ele>851.662</ele>
        <time>2020-07-05T15:35:55Z</time>
      </trkpt>
      <trkpt lat="46.10338" lon="6.21308">
        <ele>852.779</ele>
        <time>2020-07-05T15:35:56Z</time>
      </trkpt>
      <trkpt lat="46.10332" lon="6.21295">
        <ele>853.959</ele>
        <time>2020-07-05T15:35:57Z</time>
      </trkpt>
      <trkpt lat="46.10325" lon="6.21278">
        <ele>855.241</ele>
        <time>2020-07-05T15:35:58Z</time>
      </trkpt>
      <trkpt lat="46.10318" lon="6.21259">
        <ele>856.517</ele>
        <time>2020-07-05T15:35:59Z</time>
      </trkpt>
      <trkpt lat="46.10311" lon="6.21241">
        <ele>858.23</ele>
        <time>2020-07-05T15:36:00Z</time>
      </trkpt>
      <trkpt lat="46.10306" lon="6.21225">
        <ele>860.084</ele>
        <time>2020-07-05T15:36:01Z</time>
      </trkpt>
      <trkpt lat="46.10301" lon="6.21207">
        <ele>861.875</ele>
        <time>2020-07-05T15:36:02Z</time>
      </trkpt>
      <trkpt lat="46.10293" lon="6.21187">
        <ele>863.937</ele>
        <time>2020-07-05T15:36:03Z</time>
      </trkpt>
      <trkpt lat="46.10287" lon="6.2117">
        <ele>865.949</ele>
        <time>2020-07-05T15:36:04Z</time>
      </trkpt>
      <trkpt lat="46.10283" lon="6.21157">
        <ele>867.613</ele>
        <time>2020-07-05T15:36:05Z</time>
      </trkpt>
      <trkpt lat="46.10281" lon="6.21144">
        <ele>869.008</ele>
        <time>2020-07-05T15:36:06Z</time>
      </trkpt>
      <trkpt lat="46.10281" lon="6.21131">
        <ele>870.158</ele>
        <time>2020-07-05T15:36:07Z</time>
      </trkpt>
      <trkpt lat="46.10285" lon="6.21118">
        <ele>870.725</ele>
        <time>2020-07-05T15:36:08Z</time>
      </trkpt>
      <trkpt lat="46.10288" lon="6.21108">
        <ele>871.195</ele>
        <time>2020-07-05T15:36:09Z</time>
      </trkpt>
      <trkpt lat="46.1029" lon="6.21098">
        <ele>871.457</ele>
        <time>2020-07-05T15:36:10Z</time>
      </trkpt>
      <trkpt lat="46.1029" lon="6.21088">
        <ele>871.793</ele>
        <time>2020-07-05T15:36:11Z</time>
      </trkpt>
      <trkpt lat="46.10288" lon="6.21078">
        <ele>871.866</ele>
        <time>2020-07-05T15:36:12Z</time>
      </trkpt>
      <trkpt lat="46.10281" lon="6.21069">
        <ele>871.85</ele>
        <time>2020-07-05T15:36:13Z</time>
      </trkpt>
      <trkpt lat="46.10272" lon="6.2106">
        <ele>871.831</ele>
        <time>2020-07-05T15:36:14Z</time>
      </trkpt>
      <trkpt lat="46.10262" lon="6.21051">
        <ele>871.843</ele>
        <time>2020-07-05T15:36:15Z</time>
      </trkpt>
      <trkpt lat="46.10255" lon="6.21043">
        <ele>871.864</ele>
        <time>2020-07-05T15:36:16Z</time>
      </trkpt>
      <trkpt lat="46.10248" lon="6.21036">
        <ele>871.71</ele>
        <time>2020-07-05T15:36:17Z</time>
      </trkpt>
      <trkpt lat="46.10241" lon="6.21027">
        <ele>871.708</ele>
        <time>2020-07-05T15:36:18Z</time>
      </trkpt>
      <trkpt lat="46.10234" lon="6.2102">
        <ele>871.669</ele>
        <time>2020-07-05T15:36:19Z</time>
      </trkpt>
      <trkpt lat="46.10226" lon="6.21013">
        <ele>871.386</ele>
        <time>2020-07-05T15:36:20Z</time>
      </trkpt>
      <trkpt lat="46.10218" lon="6.21003">
        <ele>871.056</ele>
        <time>2020-07-05T15:36:21Z</time>
      </trkpt>
      <trkpt lat="46.10206" lon="6.20991">
        <ele>870.728</ele>
        <time>2020-07-05T15:36:22Z</time>
      </trkpt>
      <trkpt lat="46.10192" lon="6.20979">
        <ele>870.554</ele>
        <time>2020-07-05T15:36:23Z</time>
      </trkpt>
      <trkpt lat="46.10181" lon="6.20968">
        <ele>870.417</ele>
        <time>2020-07-05T15:36:24Z</time>
      </trkpt>
      <trkpt lat="46.10171" lon="6.20958">
        <ele>870.251</ele>
        <time>2020-07-05T15:36:25Z</time>
      </trkpt>
      <trkpt lat="46.10161" lon="6.20948">
        <ele>870.142</ele>
        <time>2020-07-05T15:36:26Z</time>
      </trkpt>
      <trkpt lat="46.10149" lon="6.20935">
        <ele>870.156</ele>
        <time>2020-07-05T15:36:27Z</time>
      </trkpt>
      <trkpt lat="46.10136" lon="6.20922">
        <ele>870.259</ele>
        <time>2020-07-05T15:36:28Z</time>
      </trkpt>
      <trkpt lat="46.10125" lon="6.20911">
        <ele>870.314</ele>
        <time>2020-07-05T15:36:29Z</time>
      </trkpt>
      <trkpt lat="46.10115" lon="6.209">
        <ele>870.508</ele>
        <time>2020-07-05T15:36:30Z</time>
      </trkpt>
      <trkpt lat="46.10107" lon="6.20892">
        <ele>870.65</ele>
        <time>2020-07-05T15:36:31Z</time>
      </trkpt>
      <trkpt lat="46.10096" lon="6.20887">
        <ele>870.737</ele>
        <time>2020-07-05T15:36:32Z</time>
      </trkpt>
      <trkpt lat="46.10088" lon="6.20882">
        <ele>870.787</ele>
        <time>2020-07-05T15:36:33Z</time>
      </trkpt>
      <trkpt lat="46.10081" lon="6.20878">
        <ele>870.659</ele>
        <time>2020-07-05T15:36:34Z</time>
      </trkpt>
      <trkpt lat="46.10074" lon="6.20871">
        <ele>870.635</ele>
        <time>2020-07-05T15:36:35Z</time>
      </trkpt>
      <trkpt lat="46.10066" lon="6.20861">
        <ele>870.848</ele>
        <time>2020-07-05T15:36:36Z</time>
      </trkpt>
      <trkpt lat="46.10059" lon="6.2085">
        <ele>871.142</ele>
        <time>2020-07-05T15:36:37Z</time>
      </trkpt>
      <trkpt lat="46.10051" lon="6.2084">
        <ele>871.613</ele>
        <time>2020-07-05T15:36:38Z</time>
      </trkpt>
      <trkpt lat="46.10041" lon="6.2083">
        <ele>872.169</ele>
        <time>2020-07-05T15:36:39Z</time>
      </trkpt>
      <trkpt lat="46.10031" lon="6.20819">
        <ele>872.904</ele>
        <time>2020-07-05T15:36:40Z</time>
      </trkpt>
      <trkpt lat="46.10022" lon="6.20809">
        <ele>873.724</ele>
        <time>2020-07-05T15:36:41Z</time>
      </trkpt>
      <trkpt lat="46.1001" lon="6.20795">
        <ele>874.508</ele>
        <time>2020-07-05T15:36:42Z</time>
      </trkpt>
      <trkpt lat="46.09996" lon="6.2078">
        <ele>875.261</ele>
        <time>2020-07-05T15:36:43Z</time>
      </trkpt>
      <trkpt lat="46.09983" lon="6.20767">
        <ele>876.138</ele>
        <time>2020-07-05T15:36:44Z</time>
      </trkpt>
      <trkpt lat="46.09973" lon="6.20755">
        <ele>876.698</ele>
        <time>2020-07-05T15:36:45Z</time>
      </trkpt>
      <trkpt lat="46.09963" lon="6.20743">
        <ele>877.12</ele>
        <time>2020-07-05T15:36:46Z</time>
      </trkpt>
      <trkpt lat="46.09976" lon="6.20746">
        <ele>877.546</ele>
        <time>2020-07-05T15:36:47Z</time>
      </trkpt>
      <trkpt lat="46.09969" lon="6.20737">
        <ele>877.869</ele>
        <time>2020-07-05T15:36:48Z</time>
      </trkpt>
      <trkpt lat="46.09961" lon="6.20726">
        <ele>878.163</ele>
        <time>2020-07-05T15:36:49Z</time>
      </trkpt>
      <trkpt lat="46.09955" lon="6.20717">
        <ele>878.684</ele>
        <time>2020-07-05T15:36:50Z</time>
      </trkpt>
      <trkpt lat="46.09953" lon="6.20703">
        <ele>879.249</ele>
        <time>2020-07-05T15:36:51Z</time>
      </trkpt>
      <trkpt lat="46.09953" lon="6.20689">
        <ele>879.902</ele>
        <time>2020-07-05T15:36:52Z</time>
      </trkpt>
      <trkpt lat="46.0995" lon="6.20675">
        <ele>880.722</ele>
        <time>2020-07-05T15:36:53Z</time>
      </trkpt>
      <trkpt lat="46.09948" lon="6.20662">
        <ele>881.308</ele>
        <time>2020-07-05T15:36:54Z</time>
      </trkpt>
      <trkpt lat="46.09946" lon="6.2065">
        <ele>881.829</ele>
        <time>2020-07-05T15:36:55Z</time>
      </trkpt>
      <trkpt lat="46.09945" lon="6.20639">
        <ele>882.076</ele>
        <time>2020-07-05T15:36:56Z</time>
      </trkpt>
      <trkpt lat="46.09941" lon="6.20623">
        <ele>882.466</ele>
        <time>2020-07-05T15:36:57Z</time>
      </trkpt>
      <trkpt lat="46.09935" lon="6.20607">
        <ele>882.998</ele>
        <time>2020-07-05T15:36:58Z</time>
      </trkpt>
      <trkpt lat="46.09928" lon="6.20591">
        <ele>883.764</ele>
        <time>2020-07-05T15:36:59Z</time>
      </trkpt>
      <trkpt lat="46.0992" lon="6.20573">
        <ele>885.037</ele>
        <time>2020-07-05T15:37:00Z</time>
      </trkpt>
      <trkpt lat="46.09914" lon="6.20557">
        <ele>886.731</ele>
        <time>2020-07-05T15:37:01Z</time>
      </trkpt>
      <trkpt lat="46.09911" lon="6.20544">
        <ele>888.362</ele>
        <time>2020-07-05T15:37:02Z</time>
      </trkpt>
      <trkpt lat="46.09907" lon="6.20532">
        <ele>890.053</ele>
        <time>2020-07-05T15:37:03Z</time>
      </trkpt>
      <trkpt lat="46.09902" lon="6.20524">
        <ele>891.504</ele>
        <time>2020-07-05T15:37:04Z</time>
      </trkpt>
      <trkpt lat="46.09896" lon="6.20514">
        <ele>892.614</ele>
        <time>2020-07-05T15:37:05Z</time>
      </trkpt>
      <trkpt lat="46.09888" lon="6.20503">
        <ele>893.408</ele>
        <time>2020-07-05T15:37:06Z</time>
      </trkpt>
      <trkpt lat="46.09879" lon="6.20492">
        <ele>894.45</ele>
        <time>2020-07-05T15:37:07Z</time>
      </trkpt>
      <trkpt lat="46.09872" lon="6.20485">
        <ele>895.197</ele>
        <time>2020-07-05T15:37:08Z</time>
      </trkpt>
      <trkpt lat="46.09864" lon="6.20479">
        <ele>895.897</ele>
        <time>2020-07-05T15:37:09Z</time>
      </trkpt>
      <trkpt lat="46.09852" lon="6.20474">
        <ele>896.759</ele>
        <time>2020-07-05T15:37:10Z</time>
      </trkpt>
      <trkpt lat="46.09842" lon="6.20468">
        <ele>897.665</ele>
        <time>2020-07-05T15:37:11Z</time>
      </trkpt>
      <trkpt lat="46.09826" lon="6.20468">
        <ele>898.638</ele>
        <time>2020-07-05T15:37:12Z</time>
      </trkpt>
      <trkpt lat="46.0981" lon="6.20463">
        <ele>899.612</ele>
        <time>2020-07-05T15:37:13Z</time>
      </trkpt>
      <trkpt lat="46.09799" lon="6.20457">
        <ele>900.793</ele>
        <time>2020-07-05T15:37:14Z</time>
      </trkpt>
      <trkpt lat="46.0979" lon="6.20454">
        <ele>901.816</ele>
        <time>2020-07-05T15:37:15Z</time>
      </trkpt>
      <trkpt lat="46.09782" lon="6.2045">
        <ele>902.776</ele>
        <time>2020-07-05T15:37:16Z</time>
      </trkpt>
      <trkpt lat="46.09772" lon="6.20446">
        <ele>903.713</ele>
        <time>2020-07-05T15:37:17Z</time>
      </trkpt>
      <trkpt lat="46.09763" lon="6.20443">
        <ele>904.708</ele>
        <time>2020-07-05T15:37:18Z</time>
      </trkpt>
      <trkpt lat="46.09756" lon="6.20446">
        <ele>905.816</ele>
        <time>2020-07-05T15:37:19Z</time>
      </trkpt>
      <trkpt lat="46.09747" lon="6.20449">
        <ele>907.013</ele>
        <time>2020-07-05T15:37:20Z</time>
      </trkpt>
      <trkpt lat="46.0974" lon="6.20457">
        <ele>908.073</ele>
        <time>2020-07-05T15:37:21Z</time>
      </trkpt>
      <trkpt lat="46.09734" lon="6.20467">
        <ele>908.945</ele>
        <time>2020-07-05T15:37:22Z</time>
      </trkpt>
      <trkpt lat="46.0973" lon="6.20478">
        <ele>909.931</ele>
        <time>2020-07-05T15:37:23Z</time>
      </trkpt>
      <trkpt lat="46.09724" lon="6.20488">
        <ele>910.874</ele>
        <time>2020-07-05T15:37:24Z</time>
      </trkpt>
      <trkpt lat="46.09718" lon="6.20501">
        <ele>911.518</ele>
        <time>2020-07-05T15:37:25Z</time>
      </trkpt>
      <trkpt lat="46.09713" lon="6.20506">
        <ele>912.279</ele>
        <time>2020-07-05T15:37:26Z</time>
      </trkpt>
      <trkpt lat="46.09707" lon="6.2051">
        <ele>912.811</ele>
        <time>2020-07-05T15:37:27Z</time>
      </trkpt>
      <trkpt lat="46.09702" lon="6.20508">
        <ele>913.121</ele>
        <time>2020-07-05T15:37:28Z</time>
      </trkpt>
      <trkpt lat="46.09694" lon="6.205">
        <ele>913.303</ele>
        <time>2020-07-05T15:37:30Z</time>
      </trkpt>
      <trkpt lat="46.09689" lon="6.20497">
        <ele>913.408</ele>
        <time>2020-07-05T15:37:31Z</time>
      </trkpt>
      <trkpt lat="46.09683" lon="6.20495">
        <ele>913.546</ele>
        <time>2020-07-05T15:37:32Z</time>
      </trkpt>
      <trkpt lat="46.09676" lon="6.2049">
        <ele>913.753</ele>
        <time>2020-07-05T15:37:33Z</time>
      </trkpt>
      <trkpt lat="46.09669" lon="6.20484">
        <ele>914.013</ele>
        <time>2020-07-05T15:37:34Z</time>
      </trkpt>
      <trkpt lat="46.09664" lon="6.20479">
        <ele>914.295</ele>
        <time>2020-07-05T15:37:35Z</time>
      </trkpt>
      <trkpt lat="46.09657" lon="6.20473">
        <ele>914.531</ele>
        <time>2020-07-05T15:37:36Z</time>
      </trkpt>
      <trkpt lat="46.0965" lon="6.20467">
        <ele>914.744</ele>
        <time>2020-07-05T15:37:37Z</time>
      </trkpt>
      <trkpt lat="46.09642" lon="6.20462">
        <ele>914.958</ele>
        <time>2020-07-05T15:37:38Z</time>
      </trkpt>
      <trkpt lat="46.09633" lon="6.20456">
        <ele>915.059</ele>
        <time>2020-07-05T15:37:39Z</time>
      </trkpt>
      <trkpt lat="46.09625" lon="6.20449">
        <ele>915.289</ele>
        <time>2020-07-05T15:37:40Z</time>
      </trkpt>
      <trkpt lat="46.09616" lon="6.20442">
        <ele>915.406</ele>
        <time>2020-07-05T15:37:41Z</time>
      </trkpt>
      <trkpt lat="46.09603" lon="6.20434">
        <ele>915.726</ele>
        <time>2020-07-05T15:37:42Z</time>
      </trkpt>
      <trkpt lat="46.09591" lon="6.20427">
        <ele>915.808</ele>
        <time>2020-07-05T15:37:43Z</time>
      </trkpt>
      <trkpt lat="46.09581" lon="6.20422">
        <ele>915.873</ele>
        <time>2020-07-05T15:37:44Z</time>
      </trkpt>
      <trkpt lat="46.09571" lon="6.20418">
        <ele>915.58</ele>
        <time>2020-07-05T15:37:45Z</time>
      </trkpt>
      <trkpt lat="46.09561" lon="6.20415">
        <ele>915.16</ele>
        <time>2020-07-05T15:37:46Z</time>
      </trkpt>
      <trkpt lat="46.09552" lon="6.20412">
        <ele>914.382</ele>
        <time>2020-07-05T15:37:47Z</time>
      </trkpt>
      <trkpt lat="46.09544" lon="6.20408">
        <ele>913.448</ele>
        <time>2020-07-05T15:37:48Z</time>
      </trkpt>
      <trkpt lat="46.09537" lon="6.20399">
        <ele>912.481</ele>
        <time>2020-07-05T15:37:49Z</time>
      </trkpt>
      <trkpt lat="46.09532" lon="6.20391">
        <ele>911.515</ele>
        <time>2020-07-05T15:37:50Z</time>
      </trkpt>
      <trkpt lat="46.09527" lon="6.20382">
        <ele>910.646</ele>
        <time>2020-07-05T15:37:51Z</time>
      </trkpt>
      <trkpt lat="46.0952" lon="6.20372">
        <ele>909.797</ele>
        <time>2020-07-05T15:37:52Z</time>
      </trkpt>
      <trkpt lat="46.09509" lon="6.20365">
        <ele>909.223</ele>
        <time>2020-07-05T15:37:53Z</time>
      </trkpt>
      <trkpt lat="46.09498" lon="6.20357">
        <ele>909.225</ele>
        <time>2020-07-05T15:37:54Z</time>
      </trkpt>
      <trkpt lat="46.09485" lon="6.2035">
        <ele>909.808</ele>
        <time>2020-07-05T15:37:55Z</time>
      </trkpt>
      <trkpt lat="46.09469" lon="6.20343">
        <ele>910.964</ele>
        <time>2020-07-05T15:37:56Z</time>
      </trkpt>
      <trkpt lat="46.09453" lon="6.20339">
        <ele>912.511</ele>
        <time>2020-07-05T15:37:57Z</time>
      </trkpt>
      <trkpt lat="46.09438" lon="6.20334">
        <ele>914.331</ele>
        <time>2020-07-05T15:37:58Z</time>
      </trkpt>
      <trkpt lat="46.09425" lon="6.20331">
        <ele>915.953</ele>
        <time>2020-07-05T15:37:59Z</time>
      </trkpt>
      <trkpt lat="46.09413" lon="6.20325">
        <ele>917.389</ele>
        <time>2020-07-05T15:38:00Z</time>
      </trkpt>
      <trkpt lat="46.09401" lon="6.20316">
        <ele>918.392</ele>
        <time>2020-07-05T15:38:01Z</time>
      </trkpt>
      <trkpt lat="46.09391" lon="6.20308">
        <ele>919.066</ele>
        <time>2020-07-05T15:38:02Z</time>
      </trkpt>
      <trkpt lat="46.09382" lon="6.203">
        <ele>919.467</ele>
        <time>2020-07-05T15:38:03Z</time>
      </trkpt>
      <trkpt lat="46.09372" lon="6.20291">
        <ele>919.869</ele>
        <time>2020-07-05T15:38:04Z</time>
      </trkpt>
      <trkpt lat="46.09359" lon="6.20282">
        <ele>919.904</ele>
        <time>2020-07-05T15:38:05Z</time>
      </trkpt>
      <trkpt lat="46.09347" lon="6.20272">
        <ele>919.924</ele>
        <time>2020-07-05T15:38:06Z</time>
      </trkpt>
      <trkpt lat="46.09335" lon="6.20261">
        <ele>919.908</ele>
        <time>2020-07-05T15:38:07Z</time>
      </trkpt>
      <trkpt lat="46.09322" lon="6.20248">
        <ele>919.931</ele>
        <time>2020-07-05T15:38:08Z</time>
      </trkpt>
      <trkpt lat="46.0931" lon="6.20238">
        <ele>919.658</ele>
        <time>2020-07-05T15:38:09Z</time>
      </trkpt>
      <trkpt lat="46.093" lon="6.20231">
        <ele>919.468</ele>
        <time>2020-07-05T15:38:10Z</time>
      </trkpt>
      <trkpt lat="46.09289" lon="6.20228">
        <ele>919.39</ele>
        <time>2020-07-05T15:38:11Z</time>
      </trkpt>
      <trkpt lat="46.09277" lon="6.20229">
        <ele>919.356</ele>
        <time>2020-07-05T15:38:12Z</time>
      </trkpt>
      <trkpt lat="46.09263" lon="6.20234">
        <ele>919.259</ele>
        <time>2020-07-05T15:38:13Z</time>
      </trkpt>
      <trkpt lat="46.09251" lon="6.20243">
        <ele>919.163</ele>
        <time>2020-07-05T15:38:14Z</time>
      </trkpt>
      <trkpt lat="46.09239" lon="6.20254">
        <ele>918.934</ele>
        <time>2020-07-05T15:38:15Z</time>
      </trkpt>
      <trkpt lat="46.09228" lon="6.20265">
        <ele>918.841</ele>
        <time>2020-07-05T15:38:16Z</time>
      </trkpt>
      <trkpt lat="46.09219" lon="6.20274">
        <ele>918.681</ele>
        <time>2020-07-05T15:38:17Z</time>
      </trkpt>
      <trkpt lat="46.09213" lon="6.20283">
        <ele>918.209</ele>
        <time>2020-07-05T15:38:18Z</time>
      </trkpt>
      <trkpt lat="46.0921" lon="6.20296">
        <ele>917.908</ele>
        <time>2020-07-05T15:38:19Z</time>
      </trkpt>
      <trkpt lat="46.09209" lon="6.20309">
        <ele>917.629</ele>
        <time>2020-07-05T15:38:20Z</time>
      </trkpt>
      <trkpt lat="46.09208" lon="6.20322">
        <ele>917.286</ele>
        <time>2020-07-05T15:38:21Z</time>
      </trkpt>
      <trkpt lat="46.09209" lon="6.20334">
        <ele>916.756</ele>
        <time>2020-07-05T15:38:22Z</time>
      </trkpt>
      <trkpt lat="46.09212" lon="6.20349">
        <ele>916.598</ele>
        <time>2020-07-05T15:38:23Z</time>
      </trkpt>
      <trkpt lat="46.09215" lon="6.20367">
        <ele>916.474</ele>
        <time>2020-07-05T15:38:24Z</time>
      </trkpt>
      <trkpt lat="46.09217" lon="6.20385">
        <ele>916.277</ele>
        <time>2020-07-05T15:38:25Z</time>
      </trkpt>
      <trkpt lat="46.09218" lon="6.20405">
        <ele>916.051</ele>
        <time>2020-07-05T15:38:26Z</time>
      </trkpt>
      <trkpt lat="46.09219" lon="6.20423">
        <ele>915.952</ele>
        <time>2020-07-05T15:38:27Z</time>
      </trkpt>
      <trkpt lat="46.09218" lon="6.20439">
        <ele>915.746</ele>
        <time>2020-07-05T15:38:28Z</time>
      </trkpt>
      <trkpt lat="46.09216" lon="6.20457">
        <ele>915.388</ele>
        <time>2020-07-05T15:38:29Z</time>
      </trkpt>
      <trkpt lat="46.09211" lon="6.20471">
        <ele>915.016</ele>
        <time>2020-07-05T15:38:30Z</time>
      </trkpt>
      <trkpt lat="46.09204" lon="6.20487">
        <ele>914.708</ele>
        <time>2020-07-05T15:38:31Z</time>
      </trkpt>
      <trkpt lat="46.09198" lon="6.20504">
        <ele>914.399</ele>
        <time>2020-07-05T15:38:32Z</time>
      </trkpt>
      <trkpt lat="46.09193" lon="6.20522">
        <ele>913.966</ele>
        <time>2020-07-05T15:38:33Z</time>
      </trkpt>
      <trkpt lat="46.09188" lon="6.20538">
        <ele>913.526</ele>
        <time>2020-07-05T15:38:34Z</time>
      </trkpt>
      <trkpt lat="46.09183" lon="6.2055">
        <ele>913.068</ele>
        <time>2020-07-05T15:38:35Z</time>
      </trkpt>
      <trkpt lat="46.09177" lon="6.2056">
        <ele>912.414</ele>
        <time>2020-07-05T15:38:36Z</time>
      </trkpt>
      <trkpt lat="46.09168" lon="6.20566">
        <ele>911.897</ele>
        <time>2020-07-05T15:38:37Z</time>
      </trkpt>
      <trkpt lat="46.09161" lon="6.2057">
        <ele>910.991</ele>
        <time>2020-07-05T15:38:38Z</time>
      </trkpt>
      <trkpt lat="46.09156" lon="6.20571">
        <ele>910.042</ele>
        <time>2020-07-05T15:38:39Z</time>
      </trkpt>
      <trkpt lat="46.09152" lon="6.20567">
        <ele>907.114</ele>
        <time>2020-07-05T15:38:54Z</time>
      </trkpt>
      <trkpt lat="46.09149" lon="6.20562">
        <ele>907.154</ele>
        <time>2020-07-05T15:38:55Z</time>
      </trkpt>
      <trkpt lat="46.09146" lon="6.20551">
        <ele>907.209</ele>
        <time>2020-07-05T15:38:56Z</time>
      </trkpt>
      <trkpt lat="46.09146" lon="6.20538">
        <ele>907.308</ele>
        <time>2020-07-05T15:38:57Z</time>
      </trkpt>
      <trkpt lat="46.09146" lon="6.20521">
        <ele>907.526</ele>
        <time>2020-07-05T15:38:58Z</time>
      </trkpt>
      <trkpt lat="46.09148" lon="6.20502">
        <ele>907.793</ele>
        <time>2020-07-05T15:38:59Z</time>
      </trkpt>
      <trkpt lat="46.09151" lon="6.20483">
        <ele>907.963</ele>
        <time>2020-07-05T15:39:00Z</time>
      </trkpt>
      <trkpt lat="46.09155" lon="6.20466">
        <ele>908.095</ele>
        <time>2020-07-05T15:39:01Z</time>
      </trkpt>
      <trkpt lat="46.09157" lon="6.20449">
        <ele>908.111</ele>
        <time>2020-07-05T15:39:02Z</time>
      </trkpt>
      <trkpt lat="46.09158" lon="6.20431">
        <ele>908.134</ele>
        <time>2020-07-05T15:39:03Z</time>
      </trkpt>
      <trkpt lat="46.09157" lon="6.20413">
        <ele>908.038</ele>
        <time>2020-07-05T15:39:04Z</time>
      </trkpt>
      <trkpt lat="46.09153" lon="6.20397">
        <ele>907.969</ele>
        <time>2020-07-05T15:39:05Z</time>
      </trkpt>
      <trkpt lat="46.09143" lon="6.20385">
        <ele>907.862</ele>
        <time>2020-07-05T15:39:06Z</time>
      </trkpt>
      <trkpt lat="46.09131" lon="6.20373">
        <ele>907.883</ele>
        <time>2020-07-05T15:39:07Z</time>
      </trkpt>
      <trkpt lat="46.09119" lon="6.20362">
        <ele>907.711</ele>
        <time>2020-07-05T15:39:08Z</time>
      </trkpt>
      <trkpt lat="46.09108" lon="6.20351">
        <ele>907.608</ele>
        <time>2020-07-05T15:39:09Z</time>
      </trkpt>
      <trkpt lat="46.09097" lon="6.20339">
        <ele>907.391</ele>
        <time>2020-07-05T15:39:10Z</time>
      </trkpt>
      <trkpt lat="46.09085" lon="6.20327">
        <ele>906.898</ele>
        <time>2020-07-05T15:39:11Z</time>
      </trkpt>
      <trkpt lat="46.09073" lon="6.20317">
        <ele>906.138</ele>
        <time>2020-07-05T15:39:12Z</time>
      </trkpt>
      <trkpt lat="46.09062" lon="6.20305">
        <ele>905.42</ele>
        <time>2020-07-05T15:39:13Z</time>
      </trkpt>
      <trkpt lat="46.0905" lon="6.20294">
        <ele>904.716</ele>
        <time>2020-07-05T15:39:14Z</time>
      </trkpt>
      <trkpt lat="46.09038" lon="6.20283">
        <ele>904.029</ele>
        <time>2020-07-05T15:39:15Z</time>
      </trkpt>
      <trkpt lat="46.09026" lon="6.20272">
        <ele>903.433</ele>
        <time>2020-07-05T15:39:16Z</time>
      </trkpt>
      <trkpt lat="46.09014" lon="6.2026">
        <ele>903.094</ele>
        <time>2020-07-05T15:39:17Z</time>
      </trkpt>
      <trkpt lat="46.09002" lon="6.20249">
        <ele>902.471</ele>
        <time>2020-07-05T15:39:18Z</time>
      </trkpt>
      <trkpt lat="46.0899" lon="6.20238">
        <ele>902.041</ele>
        <time>2020-07-05T15:39:19Z</time>
      </trkpt>
      <trkpt lat="46.08981" lon="6.20226">
        <ele>901.715</ele>
        <time>2020-07-05T15:39:20Z</time>
      </trkpt>
      <trkpt lat="46.08974" lon="6.20212">
        <ele>901.408</ele>
        <time>2020-07-05T15:39:21Z</time>
      </trkpt>
      <trkpt lat="46.08971" lon="6.20198">
        <ele>900.952</ele>
        <time>2020-07-05T15:39:22Z</time>
      </trkpt>
      <trkpt lat="46.08973" lon="6.20182">
        <ele>900.799</ele>
        <time>2020-07-05T15:39:23Z</time>
      </trkpt>
      <trkpt lat="46.08973" lon="6.20165">
        <ele>900.289</ele>
        <time>2020-07-05T15:39:24Z</time>
      </trkpt>
      <trkpt lat="46.08973" lon="6.20151">
        <ele>899.641</ele>
        <time>2020-07-05T15:39:25Z</time>
      </trkpt>
      <trkpt lat="46.08971" lon="6.20136">
        <ele>899.197</ele>
        <time>2020-07-05T15:39:26Z</time>
      </trkpt>
      <trkpt lat="46.08963" lon="6.20122">
        <ele>899.13</ele>
        <time>2020-07-05T15:39:27Z</time>
      </trkpt>
      <trkpt lat="46.08954" lon="6.20108">
        <ele>898.114</ele>
        <time>2020-07-05T15:39:28Z</time>
      </trkpt>
      <trkpt lat="46.08946" lon="6.20095">
        <ele>898.175</ele>
        <time>2020-07-05T15:39:29Z</time>
      </trkpt>
      <trkpt lat="46.08939" lon="6.20087">
        <ele>897.882</ele>
        <time>2020-07-05T15:39:30Z</time>
      </trkpt>
      <trkpt lat="46.08934" lon="6.20078">
        <ele>897.443</ele>
        <time>2020-07-05T15:39:31Z</time>
      </trkpt>
      <trkpt lat="46.0893" lon="6.20072">
        <ele>897.017</ele>
        <time>2020-07-05T15:39:32Z</time>
      </trkpt>
      <trkpt lat="46.08927" lon="6.20063">
        <ele>895.508</ele>
        <time>2020-07-05T15:39:34Z</time>
      </trkpt>
      <trkpt lat="46.08919" lon="6.20062">
        <ele>894.423</ele>
        <time>2020-07-05T15:39:43Z</time>
      </trkpt>
      <trkpt lat="46.08915" lon="6.20064">
        <ele>894.46</ele>
        <time>2020-07-05T15:39:44Z</time>
      </trkpt>
      <trkpt lat="46.08908" lon="6.20067">
        <ele>894.59</ele>
        <time>2020-07-05T15:39:45Z</time>
      </trkpt>
      <trkpt lat="46.08903" lon="6.20069">
        <ele>894.992</ele>
        <time>2020-07-05T15:39:46Z</time>
      </trkpt>
      <trkpt lat="46.08897" lon="6.2007">
        <ele>895.788</ele>
        <time>2020-07-05T15:39:47Z</time>
      </trkpt>
      <trkpt lat="46.0889" lon="6.20072">
        <ele>896.641</ele>
        <time>2020-07-05T15:39:48Z</time>
      </trkpt>
      <trkpt lat="46.08882" lon="6.20072">
        <ele>897.775</ele>
        <time>2020-07-05T15:39:49Z</time>
      </trkpt>
      <trkpt lat="46.08877" lon="6.20074">
        <ele>898.986</ele>
        <time>2020-07-05T15:39:50Z</time>
      </trkpt>
      <trkpt lat="46.08871" lon="6.20074">
        <ele>900.018</ele>
        <time>2020-07-05T15:39:51Z</time>
      </trkpt>
      <trkpt lat="46.08865" lon="6.20077">
        <ele>901.698</ele>
        <time>2020-07-05T15:39:53Z</time>
      </trkpt>
      <trkpt lat="46.08859" lon="6.20078">
        <ele>902.217</ele>
        <time>2020-07-05T15:39:54Z</time>
      </trkpt>
      <trkpt lat="46.08852" lon="6.20079">
        <ele>902.608</ele>
        <time>2020-07-05T15:39:55Z</time>
      </trkpt>
      <trkpt lat="46.08844" lon="6.20081">
        <ele>903.236</ele>
        <time>2020-07-05T15:39:56Z</time>
      </trkpt>
      <trkpt lat="46.08835" lon="6.20083">
        <ele>903.783</ele>
        <time>2020-07-05T15:39:57Z</time>
      </trkpt>
      <trkpt lat="46.08826" lon="6.20086">
        <ele>904.333</ele>
        <time>2020-07-05T15:39:58Z</time>
      </trkpt>
      <trkpt lat="46.08819" lon="6.20088">
        <ele>905.115</ele>
        <time>2020-07-05T15:39:59Z</time>
      </trkpt>
      <trkpt lat="46.08813" lon="6.20089">
        <ele>906.011</ele>
        <time>2020-07-05T15:40:00Z</time>
      </trkpt>
      <trkpt lat="46.08809" lon="6.2009">
        <ele>906.824</ele>
        <time>2020-07-05T15:40:01Z</time>
      </trkpt>
      <trkpt lat="46.08804" lon="6.20092">
        <ele>908.118</ele>
        <time>2020-07-05T15:40:03Z</time>
      </trkpt>
      <trkpt lat="46.08807" lon="6.20097">
        <ele>910.569</ele>
        <time>2020-07-05T15:40:17Z</time>
      </trkpt>
      <trkpt lat="46.08812" lon="6.20094">
        <ele>910.564</ele>
        <time>2020-07-05T15:40:18Z</time>
      </trkpt>
      <trkpt lat="46.08818" lon="6.20091">
        <ele>910.506</ele>
        <time>2020-07-05T15:40:19Z</time>
      </trkpt>
      <trkpt lat="46.08828" lon="6.2009">
        <ele>910.416</ele>
        <time>2020-07-05T15:40:20Z</time>
      </trkpt>
      <trkpt lat="46.08839" lon="6.20087">
        <ele>910.108</ele>
        <time>2020-07-05T15:40:21Z</time>
      </trkpt>
      <trkpt lat="46.08852" lon="6.20085">
        <ele>909.631</ele>
        <time>2020-07-05T15:40:22Z</time>
      </trkpt>
      <trkpt lat="46.08861" lon="6.20082">
        <ele>909.078</ele>
        <time>2020-07-05T15:40:23Z</time>
      </trkpt>
      <trkpt lat="46.08871" lon="6.2008">
        <ele>908.278</ele>
        <time>2020-07-05T15:40:24Z</time>
      </trkpt>
      <trkpt lat="46.0888" lon="6.20078">
        <ele>907.25</ele>
        <time>2020-07-05T15:40:25Z</time>
      </trkpt>
      <trkpt lat="46.08888" lon="6.20077">
        <ele>906.246</ele>
        <time>2020-07-05T15:40:26Z</time>
      </trkpt>
      <trkpt lat="46.08897" lon="6.20075">
        <ele>905.319</ele>
        <time>2020-07-05T15:40:27Z</time>
      </trkpt>
      <trkpt lat="46.08904" lon="6.20073">
        <ele>904.233</ele>
        <time>2020-07-05T15:40:28Z</time>
      </trkpt>
      <trkpt lat="46.0891" lon="6.20071">
        <ele>903.114</ele>
        <time>2020-07-05T15:40:29Z</time>
      </trkpt>
      <trkpt lat="46.08914" lon="6.20067">
        <ele>901.939</ele>
        <time>2020-07-05T15:40:30Z</time>
      </trkpt>
      <trkpt lat="46.08919" lon="6.20064">
        <ele>900.601</ele>
        <time>2020-07-05T15:40:31Z</time>
      </trkpt>
      <trkpt lat="46.08924" lon="6.20062">
        <ele>898.121</ele>
        <time>2020-07-05T15:40:33Z</time>
      </trkpt>
      <trkpt lat="46.08923" lon="6.20053">
        <ele>896.108</ele>
        <time>2020-07-05T15:40:35Z</time>
      </trkpt>
      <trkpt lat="46.08923" lon="6.20043">
        <ele>895.538</ele>
        <time>2020-07-05T15:40:36Z</time>
      </trkpt>
      <trkpt lat="46.08923" lon="6.20036">
        <ele>895.125</ele>
        <time>2020-07-05T15:40:37Z</time>
      </trkpt>
      <trkpt lat="46.08912" lon="6.2001">
        <ele>894.865</ele>
        <time>2020-07-05T15:40:38Z</time>
      </trkpt>
      <trkpt lat="46.08908" lon="6.19986">
        <ele>894.827</ele>
        <time>2020-07-05T15:40:39Z</time>
      </trkpt>
      <trkpt lat="46.08904" lon="6.19966">
        <ele>894.713</ele>
        <time>2020-07-05T15:40:40Z</time>
      </trkpt>
      <trkpt lat="46.08901" lon="6.19946">
        <ele>894.356</ele>
        <time>2020-07-05T15:40:41Z</time>
      </trkpt>
      <trkpt lat="46.08896" lon="6.19928">
        <ele>893.63</ele>
        <time>2020-07-05T15:40:42Z</time>
      </trkpt>
      <trkpt lat="46.08892" lon="6.19912">
        <ele>892.921</ele>
        <time>2020-07-05T15:40:43Z</time>
      </trkpt>
      <trkpt lat="46.08889" lon="6.19893">
        <ele>891.613</ele>
        <time>2020-07-05T15:40:44Z</time>
      </trkpt>
      <trkpt lat="46.08883" lon="6.19877">
        <ele>890.943</ele>
        <time>2020-07-05T15:40:45Z</time>
      </trkpt>
      <trkpt lat="46.08875" lon="6.19862">
        <ele>890.207</ele>
        <time>2020-07-05T15:40:46Z</time>
      </trkpt>
      <trkpt lat="46.08866" lon="6.19839">
        <ele>889.508</ele>
        <time>2020-07-05T15:40:47Z</time>
      </trkpt>
      <trkpt lat="46.08854" lon="6.19824">
        <ele>889.146</ele>
        <time>2020-07-05T15:40:48Z</time>
      </trkpt>
      <trkpt lat="46.08845" lon="6.19809">
        <ele>888.543</ele>
        <time>2020-07-05T15:40:49Z</time>
      </trkpt>
      <trkpt lat="46.08836" lon="6.19796">
        <ele>887.453</ele>
        <time>2020-07-05T15:40:50Z</time>
      </trkpt>
      <trkpt lat="46.08825" lon="6.19782">
        <ele>886.435</ele>
        <time>2020-07-05T15:40:51Z</time>
      </trkpt>
      <trkpt lat="46.08816" lon="6.19769">
        <ele>886.021</ele>
        <time>2020-07-05T15:40:52Z</time>
      </trkpt>
      <trkpt lat="46.08807" lon="6.19753">
        <ele>885.444</ele>
        <time>2020-07-05T15:40:53Z</time>
      </trkpt>
      <trkpt lat="46.08802" lon="6.19736">
        <ele>885.188</ele>
        <time>2020-07-05T15:40:54Z</time>
      </trkpt>
      <trkpt lat="46.088" lon="6.19719">
        <ele>885.099</ele>
        <time>2020-07-05T15:40:55Z</time>
      </trkpt>
      <trkpt lat="46.088" lon="6.19705">
        <ele>884.793</ele>
        <time>2020-07-05T15:40:56Z</time>
      </trkpt>
      <trkpt lat="46.08801" lon="6.19693">
        <ele>884.065</ele>
        <time>2020-07-05T15:40:57Z</time>
      </trkpt>
      <trkpt lat="46.08801" lon="6.19685">
        <ele>883.221</ele>
        <time>2020-07-05T15:40:58Z</time>
      </trkpt>
      <trkpt lat="46.08802" lon="6.19673">
        <ele>881.608</ele>
        <time>2020-07-05T15:41:00Z</time>
      </trkpt>
      <trkpt lat="46.08801" lon="6.19664">
        <ele>880.524</ele>
        <time>2020-07-05T15:41:02Z</time>
      </trkpt>
      <trkpt lat="46.08802" lon="6.19657">
        <ele>879.931</ele>
        <time>2020-07-05T15:41:04Z</time>
      </trkpt>
      <trkpt lat="46.08801" lon="6.1965">
        <ele>879.731</ele>
        <time>2020-07-05T15:41:05Z</time>
      </trkpt>
      <trkpt lat="46.08799" lon="6.19642">
        <ele>879.533</ele>
        <time>2020-07-05T15:41:06Z</time>
      </trkpt>
      <trkpt lat="46.08798" lon="6.19632">
        <ele>879.349</ele>
        <time>2020-07-05T15:41:07Z</time>
      </trkpt>
      <trkpt lat="46.08797" lon="6.19621">
        <ele>879.082</ele>
        <time>2020-07-05T15:41:08Z</time>
      </trkpt>
      <trkpt lat="46.08796" lon="6.1961">
        <ele>878.986</ele>
        <time>2020-07-05T15:41:09Z</time>
      </trkpt>
      <trkpt lat="46.08793" lon="6.19601">
        <ele>878.587</ele>
        <time>2020-07-05T15:41:10Z</time>
      </trkpt>
      <trkpt lat="46.0879" lon="6.19591">
        <ele>878.214</ele>
        <time>2020-07-05T15:41:11Z</time>
      </trkpt>
      <trkpt lat="46.08786" lon="6.19583">
        <ele>877.954</ele>
        <time>2020-07-05T15:41:12Z</time>
      </trkpt>
      <trkpt lat="46.0878" lon="6.19573">
        <ele>877.709</ele>
        <time>2020-07-05T15:41:13Z</time>
      </trkpt>
      <trkpt lat="46.08772" lon="6.19562">
        <ele>877.408</ele>
        <time>2020-07-05T15:41:14Z</time>
      </trkpt>
      <trkpt lat="46.08762" lon="6.19549">
        <ele>877.316</ele>
        <time>2020-07-05T15:41:15Z</time>
      </trkpt>
      <trkpt lat="46.0875" lon="6.19535">
        <ele>877.043</ele>
        <time>2020-07-05T15:41:16Z</time>
      </trkpt>
      <trkpt lat="46.08739" lon="6.19516">
        <ele>876.943</ele>
        <time>2020-07-05T15:41:17Z</time>
      </trkpt>
      <trkpt lat="46.08727" lon="6.19495">
        <ele>876.815</ele>
        <time>2020-07-05T15:41:18Z</time>
      </trkpt>
      <trkpt lat="46.08717" lon="6.19474">
        <ele>876.291</ele>
        <time>2020-07-05T15:41:19Z</time>
      </trkpt>
      <trkpt lat="46.08708" lon="6.19454">
        <ele>875.364</ele>
        <time>2020-07-05T15:41:20Z</time>
      </trkpt>
      <trkpt lat="46.08701" lon="6.19438">
        <ele>874.758</ele>
        <time>2020-07-05T15:41:21Z</time>
      </trkpt>
      <trkpt lat="46.08696" lon="6.19423">
        <ele>873.339</ele>
        <time>2020-07-05T15:41:22Z</time>
      </trkpt>
      <trkpt lat="46.08691" lon="6.19411">
        <ele>872.074</ele>
        <time>2020-07-05T15:41:23Z</time>
      </trkpt>
      <trkpt lat="46.08686" lon="6.194">
        <ele>871.156</ele>
        <time>2020-07-05T15:41:24Z</time>
      </trkpt>
      <trkpt lat="46.08682" lon="6.19391">
        <ele>870.321</ele>
        <time>2020-07-05T15:41:25Z</time>
      </trkpt>
      <trkpt lat="46.0868" lon="6.19384">
        <ele>869.308</ele>
        <time>2020-07-05T15:41:26Z</time>
      </trkpt>
      <trkpt lat="46.08678" lon="6.19376">
        <ele>868.442</ele>
        <time>2020-07-05T15:41:28Z</time>
      </trkpt>
      <trkpt lat="46.08679" lon="6.19368">
        <ele>867.149</ele>
        <time>2020-07-05T15:41:31Z</time>
      </trkpt>
      <trkpt lat="46.08685" lon="6.1936">
        <ele>866.469</ele>
        <time>2020-07-05T15:41:33Z</time>
      </trkpt>
      <trkpt lat="46.08692" lon="6.19353">
        <ele>865.191</ele>
        <time>2020-07-05T15:41:35Z</time>
      </trkpt>
      <trkpt lat="46.08696" lon="6.19349">
        <ele>864.287</ele>
        <time>2020-07-05T15:41:36Z</time>
      </trkpt>
      <trkpt lat="46.08699" lon="6.19343">
        <ele>863.23</ele>
        <time>2020-07-05T15:41:37Z</time>
      </trkpt>
      <trkpt lat="46.08704" lon="6.1934">
        <ele>862.194</ele>
        <time>2020-07-05T15:41:38Z</time>
      </trkpt>
      <trkpt lat="46.0871" lon="6.19335">
        <ele>861.225</ele>
        <time>2020-07-05T15:41:39Z</time>
      </trkpt>
      <trkpt lat="46.08716" lon="6.19331">
        <ele>860.326</ele>
        <time>2020-07-05T15:41:40Z</time>
      </trkpt>
      <trkpt lat="46.08722" lon="6.19327">
        <ele>859.547</ele>
        <time>2020-07-05T15:41:41Z</time>
      </trkpt>
      <trkpt lat="46.08728" lon="6.19322">
        <ele>858.711</ele>
        <time>2020-07-05T15:41:42Z</time>
      </trkpt>
      <trkpt lat="46.08731" lon="6.19314">
        <ele>858.108</ele>
        <time>2020-07-05T15:41:43Z</time>
      </trkpt>
      <trkpt lat="46.08733" lon="6.19305">
        <ele>857.597</ele>
        <time>2020-07-05T15:41:44Z</time>
      </trkpt>
      <trkpt lat="46.08734" lon="6.19299">
        <ele>857.134</ele>
        <time>2020-07-05T15:41:45Z</time>
      </trkpt>
      <trkpt lat="46.08736" lon="6.19292">
        <ele>856.984</ele>
        <time>2020-07-05T15:41:46Z</time>
      </trkpt>
      <trkpt lat="46.08739" lon="6.19285">
        <ele>856.736</ele>
        <time>2020-07-05T15:41:47Z</time>
      </trkpt>
      <trkpt lat="46.08742" lon="6.19277">
        <ele>856.582</ele>
        <time>2020-07-05T15:41:48Z</time>
      </trkpt>
      <trkpt lat="46.08747" lon="6.1927">
        <ele>856.295</ele>
        <time>2020-07-05T15:41:50Z</time>
      </trkpt>
      <trkpt lat="46.08756" lon="6.19269">
        <ele>855.369</ele>
        <time>2020-07-05T15:42:22Z</time>
      </trkpt>
      <trkpt lat="46.08758" lon="6.19262">
        <ele>855.32</ele>
        <time>2020-07-05T15:42:23Z</time>
      </trkpt>
      <trkpt lat="46.08762" lon="6.19253">
        <ele>855.364</ele>
        <time>2020-07-05T15:42:24Z</time>
      </trkpt>
      <trkpt lat="46.08766" lon="6.19239">
        <ele>855.306</ele>
        <time>2020-07-05T15:42:25Z</time>
      </trkpt>
      <trkpt lat="46.08772" lon="6.19219">
        <ele>855.316</ele>
        <time>2020-07-05T15:42:26Z</time>
      </trkpt>
      <trkpt lat="46.08776" lon="6.192">
        <ele>855.208</ele>
        <time>2020-07-05T15:42:27Z</time>
      </trkpt>
      <trkpt lat="46.0878" lon="6.19183">
        <ele>855.071</ele>
        <time>2020-07-05T15:42:28Z</time>
      </trkpt>
      <trkpt lat="46.08783" lon="6.19169">
        <ele>854.468</ele>
        <time>2020-07-05T15:42:29Z</time>
      </trkpt>
      <trkpt lat="46.08786" lon="6.19154">
        <ele>853.938</ele>
        <time>2020-07-05T15:42:30Z</time>
      </trkpt>
      <trkpt lat="46.08787" lon="6.19143">
        <ele>853.09</ele>
        <time>2020-07-05T15:42:31Z</time>
      </trkpt>
      <trkpt lat="46.08789" lon="6.19135">
        <ele>852.126</ele>
        <time>2020-07-05T15:42:32Z</time>
      </trkpt>
      <trkpt lat="46.08792" lon="6.19123">
        <ele>851.389</ele>
        <time>2020-07-05T15:42:33Z</time>
      </trkpt>
      <trkpt lat="46.0879" lon="6.19108">
        <ele>850.413</ele>
        <time>2020-07-05T15:42:34Z</time>
      </trkpt>
      <trkpt lat="46.08792" lon="6.19094">
        <ele>849.594</ele>
        <time>2020-07-05T15:42:35Z</time>
      </trkpt>
      <trkpt lat="46.08792" lon="6.19079">
        <ele>848.622</ele>
        <time>2020-07-05T15:42:36Z</time>
      </trkpt>
      <trkpt lat="46.08792" lon="6.19069">
        <ele>847.362</ele>
        <time>2020-07-05T15:42:37Z</time>
      </trkpt>
      <trkpt lat="46.08793" lon="6.19059">
        <ele>845.808</ele>
        <time>2020-07-05T15:42:38Z</time>
      </trkpt>
      <trkpt lat="46.08796" lon="6.19053">
        <ele>844.308</ele>
        <time>2020-07-05T15:42:39Z</time>
      </trkpt>
      <trkpt lat="46.08801" lon="6.19046">
        <ele>842.687</ele>
        <time>2020-07-05T15:42:40Z</time>
      </trkpt>
      <trkpt lat="46.08804" lon="6.19041">
        <ele>841.134</ele>
        <time>2020-07-05T15:42:41Z</time>
      </trkpt>
      <trkpt lat="46.08806" lon="6.19033">
        <ele>838.924</ele>
        <time>2020-07-05T15:42:43Z</time>
      </trkpt>
      <trkpt lat="46.08805" lon="6.19025">
        <ele>837.416</ele>
        <time>2020-07-05T15:42:45Z</time>
      </trkpt>
      <trkpt lat="46.08805" lon="6.19017">
        <ele>835.862</ele>
        <time>2020-07-05T15:42:52Z</time>
      </trkpt>
      <trkpt lat="46.08802" lon="6.19009">
        <ele>835.225</ele>
        <time>2020-07-05T15:42:58Z</time>
      </trkpt>
      <trkpt lat="46.08799" lon="6.19003">
        <ele>835.059</ele>
        <time>2020-07-05T15:43:00Z</time>
      </trkpt>
      <trkpt lat="46.08795" lon="6.18996">
        <ele>834.73</ele>
        <time>2020-07-05T15:43:02Z</time>
      </trkpt>
      <trkpt lat="46.08792" lon="6.18991">
        <ele>834.444</ele>
        <time>2020-07-05T15:43:03Z</time>
      </trkpt>
      <trkpt lat="46.08787" lon="6.18984">
        <ele>834.005</ele>
        <time>2020-07-05T15:43:04Z</time>
      </trkpt>
      <trkpt lat="46.08781" lon="6.18978">
        <ele>833.615</ele>
        <time>2020-07-05T15:43:05Z</time>
      </trkpt>
      <trkpt lat="46.08775" lon="6.18969">
        <ele>833.308</ele>
        <time>2020-07-05T15:43:06Z</time>
      </trkpt>
      <trkpt lat="46.08765" lon="6.18954">
        <ele>832.999</ele>
        <time>2020-07-05T15:43:07Z</time>
      </trkpt>
      <trkpt lat="46.08754" lon="6.18938">
        <ele>832.446</ele>
        <time>2020-07-05T15:43:08Z</time>
      </trkpt>
      <trkpt lat="46.08741" lon="6.18921">
        <ele>831.936</ele>
        <time>2020-07-05T15:43:09Z</time>
      </trkpt>
      <trkpt lat="46.08728" lon="6.18906">
        <ele>831.248</ele>
        <time>2020-07-05T15:43:10Z</time>
      </trkpt>
      <trkpt lat="46.08717" lon="6.1889">
        <ele>830.444</ele>
        <time>2020-07-05T15:43:11Z</time>
      </trkpt>
      <trkpt lat="46.08705" lon="6.18875">
        <ele>829.227</ele>
        <time>2020-07-05T15:43:12Z</time>
      </trkpt>
      <trkpt lat="46.08694" lon="6.18863">
        <ele>828.141</ele>
        <time>2020-07-05T15:43:13Z</time>
      </trkpt>
      <trkpt lat="46.08685" lon="6.18852">
        <ele>826.572</ele>
        <time>2020-07-05T15:43:14Z</time>
      </trkpt>
      <trkpt lat="46.08677" lon="6.18842">
        <ele>824.824</ele>
        <time>2020-07-05T15:43:15Z</time>
      </trkpt>
      <trkpt lat="46.0867" lon="6.18832">
        <ele>823.204</ele>
        <time>2020-07-05T15:43:16Z</time>
      </trkpt>
      <trkpt lat="46.08664" lon="6.18821">
        <ele>821.514</ele>
        <time>2020-07-05T15:43:17Z</time>
      </trkpt>
      <trkpt lat="46.08656" lon="6.1881">
        <ele>819.708</ele>
        <time>2020-07-05T15:43:18Z</time>
      </trkpt>
      <trkpt lat="46.08647" lon="6.188">
        <ele>818.217</ele>
        <time>2020-07-05T15:43:19Z</time>
      </trkpt>
      <trkpt lat="46.08637" lon="6.18793">
        <ele>816.994</ele>
        <time>2020-07-05T15:43:20Z</time>
      </trkpt>
      <trkpt lat="46.08628" lon="6.18786">
        <ele>815.774</ele>
        <time>2020-07-05T15:43:21Z</time>
      </trkpt>
      <trkpt lat="46.08622" lon="6.18781">
        <ele>815.076</ele>
        <time>2020-07-05T15:43:22Z</time>
      </trkpt>
      <trkpt lat="46.08619" lon="6.18772">
        <ele>814.682</ele>
        <time>2020-07-05T15:43:24Z</time>
      </trkpt>
      <trkpt lat="46.0862" lon="6.18766">
        <ele>814.625</ele>
        <time>2020-07-05T15:43:25Z</time>
      </trkpt>
      <trkpt lat="46.08617" lon="6.1876">
        <ele>814.789</ele>
        <time>2020-07-05T15:43:26Z</time>
      </trkpt>
      <trkpt lat="46.08608" lon="6.1875">
        <ele>814.88</ele>
        <time>2020-07-05T15:43:27Z</time>
      </trkpt>
      <trkpt lat="46.08599" lon="6.1874">
        <ele>814.931</ele>
        <time>2020-07-05T15:43:28Z</time>
      </trkpt>
      <trkpt lat="46.08592" lon="6.18731">
        <ele>814.961</ele>
        <time>2020-07-05T15:43:29Z</time>
      </trkpt>
      <trkpt lat="46.08585" lon="6.18724">
        <ele>815.007</ele>
        <time>2020-07-05T15:43:30Z</time>
      </trkpt>
      <trkpt lat="46.08581" lon="6.18717">
        <ele>815.008</ele>
        <time>2020-07-05T15:43:31Z</time>
      </trkpt>
      <trkpt lat="46.08574" lon="6.1871">
        <ele>814.948</ele>
        <time>2020-07-05T15:43:32Z</time>
      </trkpt>
      <trkpt lat="46.08568" lon="6.18704">
        <ele>814.765</ele>
        <time>2020-07-05T15:43:33Z</time>
      </trkpt>
      <trkpt lat="46.0856" lon="6.187">
        <ele>814.515</ele>
        <time>2020-07-05T15:43:34Z</time>
      </trkpt>
      <trkpt lat="46.08552" lon="6.18695">
        <ele>814.257</ele>
        <time>2020-07-05T15:43:35Z</time>
      </trkpt>
      <trkpt lat="46.08544" lon="6.18691">
        <ele>813.963</ele>
        <time>2020-07-05T15:43:36Z</time>
      </trkpt>
      <trkpt lat="46.08536" lon="6.18686">
        <ele>813.766</ele>
        <time>2020-07-05T15:43:37Z</time>
      </trkpt>
      <trkpt lat="46.08528" lon="6.1868">
        <ele>813.49</ele>
        <time>2020-07-05T15:43:38Z</time>
      </trkpt>
      <trkpt lat="46.08518" lon="6.18674">
        <ele>813.321</ele>
        <time>2020-07-05T15:43:39Z</time>
      </trkpt>
      <trkpt lat="46.08509" lon="6.18665">
        <ele>813.375</ele>
        <time>2020-07-05T15:43:40Z</time>
      </trkpt>
      <trkpt lat="46.08501" lon="6.18652">
        <ele>813.728</ele>
        <time>2020-07-05T15:43:41Z</time>
      </trkpt>
      <trkpt lat="46.08495" lon="6.18635">
        <ele>814.22</ele>
        <time>2020-07-05T15:43:42Z</time>
      </trkpt>
      <trkpt lat="46.08486" lon="6.18619">
        <ele>814.608</ele>
        <time>2020-07-05T15:43:43Z</time>
      </trkpt>
      <trkpt lat="46.08473" lon="6.18604">
        <ele>815.012</ele>
        <time>2020-07-05T15:43:44Z</time>
      </trkpt>
      <trkpt lat="46.08461" lon="6.18591">
        <ele>815.069</ele>
        <time>2020-07-05T15:43:45Z</time>
      </trkpt>
      <trkpt lat="46.0845" lon="6.1858">
        <ele>815.099</ele>
        <time>2020-07-05T15:43:46Z</time>
      </trkpt>
      <trkpt lat="46.08441" lon="6.18569">
        <ele>815.041</ele>
        <time>2020-07-05T15:43:47Z</time>
      </trkpt>
      <trkpt lat="46.08433" lon="6.18561">
        <ele>814.817</ele>
        <time>2020-07-05T15:43:48Z</time>
      </trkpt>
      <trkpt lat="46.08428" lon="6.18553">
        <ele>814.54</ele>
        <time>2020-07-05T15:43:49Z</time>
      </trkpt>
      <trkpt lat="46.08421" lon="6.18543">
        <ele>814.414</ele>
        <time>2020-07-05T15:43:50Z</time>
      </trkpt>
      <trkpt lat="46.08416" lon="6.18535">
        <ele>814.125</ele>
        <time>2020-07-05T15:43:51Z</time>
      </trkpt>
      <trkpt lat="46.08408" lon="6.18527">
        <ele>813.738</ele>
        <time>2020-07-05T15:43:52Z</time>
      </trkpt>
      <trkpt lat="46.08401" lon="6.18517">
        <ele>813.47</ele>
        <time>2020-07-05T15:43:53Z</time>
      </trkpt>
      <trkpt lat="46.08394" lon="6.18506">
        <ele>813.317</ele>
        <time>2020-07-05T15:43:54Z</time>
      </trkpt>
      <trkpt lat="46.08388" lon="6.18493">
        <ele>813.108</ele>
        <time>2020-07-05T15:43:55Z</time>
      </trkpt>
      <trkpt lat="46.08383" lon="6.18478">
        <ele>812.938</ele>
        <time>2020-07-05T15:43:56Z</time>
      </trkpt>
      <trkpt lat="46.08379" lon="6.18462">
        <ele>812.765</ele>
        <time>2020-07-05T15:43:57Z</time>
      </trkpt>
      <trkpt lat="46.08374" lon="6.18448">
        <ele>812.495</ele>
        <time>2020-07-05T15:43:58Z</time>
      </trkpt>
      <trkpt lat="46.08367" lon="6.18433">
        <ele>812.027</ele>
        <time>2020-07-05T15:43:59Z</time>
      </trkpt>
      <trkpt lat="46.08358" lon="6.18422">
        <ele>811.613</ele>
        <time>2020-07-05T15:44:00Z</time>
      </trkpt>
      <trkpt lat="46.08349" lon="6.18409">
        <ele>811.216</ele>
        <time>2020-07-05T15:44:01Z</time>
      </trkpt>
      <trkpt lat="46.08339" lon="6.18398">
        <ele>810.79</ele>
        <time>2020-07-05T15:44:02Z</time>
      </trkpt>
      <trkpt lat="46.0833" lon="6.18387">
        <ele>810.151</ele>
        <time>2020-07-05T15:44:03Z</time>
      </trkpt>
      <trkpt lat="46.08322" lon="6.18376">
        <ele>809.567</ele>
        <time>2020-07-05T15:44:04Z</time>
      </trkpt>
      <trkpt lat="46.08314" lon="6.18365">
        <ele>809.081</ele>
        <time>2020-07-05T15:44:05Z</time>
      </trkpt>
      <trkpt lat="46.08306" lon="6.18356">
        <ele>808.519</ele>
        <time>2020-07-05T15:44:06Z</time>
      </trkpt>
      <trkpt lat="46.08298" lon="6.18347">
        <ele>807.908</ele>
        <time>2020-07-05T15:44:07Z</time>
      </trkpt>
      <trkpt lat="46.08289" lon="6.18339">
        <ele>807.451</ele>
        <time>2020-07-05T15:44:08Z</time>
      </trkpt>
      <trkpt lat="46.08282" lon="6.18329">
        <ele>807.178</ele>
        <time>2020-07-05T15:44:09Z</time>
      </trkpt>
      <trkpt lat="46.08273" lon="6.18321">
        <ele>806.638</ele>
        <time>2020-07-05T15:44:10Z</time>
      </trkpt>
      <trkpt lat="46.08264" lon="6.18313">
        <ele>806.02</ele>
        <time>2020-07-05T15:44:11Z</time>
      </trkpt>
      <trkpt lat="46.08254" lon="6.18304">
        <ele>805.436</ele>
        <time>2020-07-05T15:44:12Z</time>
      </trkpt>
      <trkpt lat="46.08243" lon="6.18295">
        <ele>804.899</ele>
        <time>2020-07-05T15:44:13Z</time>
      </trkpt>
      <trkpt lat="46.08233" lon="6.18286">
        <ele>804.213</ele>
        <time>2020-07-05T15:44:14Z</time>
      </trkpt>
      <trkpt lat="46.08223" lon="6.18276">
        <ele>803.694</ele>
        <time>2020-07-05T15:44:15Z</time>
      </trkpt>
      <trkpt lat="46.08209" lon="6.18267">
        <ele>803.053</ele>
        <time>2020-07-05T15:44:16Z</time>
      </trkpt>
      <trkpt lat="46.08194" lon="6.18259">
        <ele>802.604</ele>
        <time>2020-07-05T15:44:17Z</time>
      </trkpt>
      <trkpt lat="46.0818" lon="6.1825">
        <ele>802.114</ele>
        <time>2020-07-05T15:44:18Z</time>
      </trkpt>
      <trkpt lat="46.08168" lon="6.18243">
        <ele>801.708</ele>
        <time>2020-07-05T15:44:19Z</time>
      </trkpt>
      <trkpt lat="46.08156" lon="6.18233">
        <ele>801.39</ele>
        <time>2020-07-05T15:44:20Z</time>
      </trkpt>
      <trkpt lat="46.08146" lon="6.18222">
        <ele>800.767</ele>
        <time>2020-07-05T15:44:21Z</time>
      </trkpt>
      <trkpt lat="46.08137" lon="6.18209">
        <ele>799.717</ele>
        <time>2020-07-05T15:44:22Z</time>
      </trkpt>
      <trkpt lat="46.08128" lon="6.18196">
        <ele>799.019</ele>
        <time>2020-07-05T15:44:23Z</time>
      </trkpt>
      <trkpt lat="46.08121" lon="6.18185">
        <ele>798.165</ele>
        <time>2020-07-05T15:44:24Z</time>
      </trkpt>
      <trkpt lat="46.08113" lon="6.18175">
        <ele>797.398</ele>
        <time>2020-07-05T15:44:25Z</time>
      </trkpt>
      <trkpt lat="46.08105" lon="6.18164">
        <ele>796.682</ele>
        <time>2020-07-05T15:44:26Z</time>
      </trkpt>
      <trkpt lat="46.08098" lon="6.18152">
        <ele>796.233</ele>
        <time>2020-07-05T15:44:27Z</time>
      </trkpt>
      <trkpt lat="46.08088" lon="6.18141">
        <ele>795.731</ele>
        <time>2020-07-05T15:44:28Z</time>
      </trkpt>
      <trkpt lat="46.08077" lon="6.18126">
        <ele>795.561</ele>
        <time>2020-07-05T15:44:29Z</time>
      </trkpt>
      <trkpt lat="46.08065" lon="6.18111">
        <ele>795.507</ele>
        <time>2020-07-05T15:44:30Z</time>
      </trkpt>
      <trkpt lat="46.08054" lon="6.18098">
        <ele>795.508</ele>
        <time>2020-07-05T15:44:31Z</time>
      </trkpt>
      <trkpt lat="46.08039" lon="6.18088">
        <ele>795.638</ele>
        <time>2020-07-05T15:44:32Z</time>
      </trkpt>
      <trkpt lat="46.08025" lon="6.1808">
        <ele>796.085</ele>
        <time>2020-07-05T15:44:33Z</time>
      </trkpt>
      <trkpt lat="46.08012" lon="6.18071">
        <ele>796.235</ele>
        <time>2020-07-05T15:44:34Z</time>
      </trkpt>
      <trkpt lat="46.07998" lon="6.18062">
        <ele>796.277</ele>
        <time>2020-07-05T15:44:35Z</time>
      </trkpt>
      <trkpt lat="46.07985" lon="6.18054">
        <ele>796.483</ele>
        <time>2020-07-05T15:44:36Z</time>
      </trkpt>
      <trkpt lat="46.07971" lon="6.18043">
        <ele>796.456</ele>
        <time>2020-07-05T15:44:37Z</time>
      </trkpt>
      <trkpt lat="46.0796" lon="6.18035">
        <ele>796.43</ele>
        <time>2020-07-05T15:44:38Z</time>
      </trkpt>
      <trkpt lat="46.07948" lon="6.18027">
        <ele>796.271</ele>
        <time>2020-07-05T15:44:39Z</time>
      </trkpt>
      <trkpt lat="46.07937" lon="6.18019">
        <ele>796.157</ele>
        <time>2020-07-05T15:44:40Z</time>
      </trkpt>
      <trkpt lat="46.07927" lon="6.18011">
        <ele>796.1</ele>
        <time>2020-07-05T15:44:41Z</time>
      </trkpt>
      <trkpt lat="46.07917" lon="6.18002">
        <ele>795.92</ele>
        <time>2020-07-05T15:44:42Z</time>
      </trkpt>
      <trkpt lat="46.07908" lon="6.17994">
        <ele>795.908</ele>
        <time>2020-07-05T15:44:43Z</time>
      </trkpt>
      <trkpt lat="46.07895" lon="6.17984">
        <ele>796.17</ele>
        <time>2020-07-05T15:44:44Z</time>
      </trkpt>
      <trkpt lat="46.07885" lon="6.17975">
        <ele>796.117</ele>
        <time>2020-07-05T15:44:45Z</time>
      </trkpt>
      <trkpt lat="46.07875" lon="6.17965">
        <ele>796.227</ele>
        <time>2020-07-05T15:44:46Z</time>
      </trkpt>
      <trkpt lat="46.07865" lon="6.17957">
        <ele>796.589</ele>
        <time>2020-07-05T15:44:47Z</time>
      </trkpt>
      <trkpt lat="46.07854" lon="6.17948">
        <ele>796.565</ele>
        <time>2020-07-05T15:44:48Z</time>
      </trkpt>
      <trkpt lat="46.07845" lon="6.17939">
        <ele>796.828</ele>
        <time>2020-07-05T15:44:49Z</time>
      </trkpt>
      <trkpt lat="46.07835" lon="6.1793">
        <ele>797.052</ele>
        <time>2020-07-05T15:44:50Z</time>
      </trkpt>
      <trkpt lat="46.07824" lon="6.17921">
        <ele>797.153</ele>
        <time>2020-07-05T15:44:51Z</time>
      </trkpt>
      <trkpt lat="46.07814" lon="6.17912">
        <ele>797.246</ele>
        <time>2020-07-05T15:44:52Z</time>
      </trkpt>
      <trkpt lat="46.07803" lon="6.17903">
        <ele>797.488</ele>
        <time>2020-07-05T15:44:53Z</time>
      </trkpt>
      <trkpt lat="46.07792" lon="6.17892">
        <ele>797.416</ele>
        <time>2020-07-05T15:44:54Z</time>
      </trkpt>
      <trkpt lat="46.07782" lon="6.17883">
        <ele>797.408</ele>
        <time>2020-07-05T15:44:55Z</time>
      </trkpt>
      <trkpt lat="46.07771" lon="6.17875">
        <ele>797.399</ele>
        <time>2020-07-05T15:44:56Z</time>
      </trkpt>
      <trkpt lat="46.07762" lon="6.17867">
        <ele>797.216</ele>
        <time>2020-07-05T15:44:57Z</time>
      </trkpt>
      <trkpt lat="46.07752" lon="6.17859">
        <ele>797.186</ele>
        <time>2020-07-05T15:44:58Z</time>
      </trkpt>
      <trkpt lat="46.07742" lon="6.17849">
        <ele>797.198</ele>
        <time>2020-07-05T15:44:59Z</time>
      </trkpt>
      <trkpt lat="46.07732" lon="6.17839">
        <ele>796.984</ele>
        <time>2020-07-05T15:45:00Z</time>
      </trkpt>
      <trkpt lat="46.07723" lon="6.1783">
        <ele>796.717</ele>
        <time>2020-07-05T15:45:01Z</time>
      </trkpt>
      <trkpt lat="46.07714" lon="6.17825">
        <ele>796.271</ele>
        <time>2020-07-05T15:45:02Z</time>
      </trkpt>
      <trkpt lat="46.07704" lon="6.17822">
        <ele>795.462</ele>
        <time>2020-07-05T15:45:03Z</time>
      </trkpt>
      <trkpt lat="46.07693" lon="6.17825">
        <ele>794.627</ele>
        <time>2020-07-05T15:45:04Z</time>
      </trkpt>
      <trkpt lat="46.07684" lon="6.17834">
        <ele>793.768</ele>
        <time>2020-07-05T15:45:05Z</time>
      </trkpt>
      <trkpt lat="46.07676" lon="6.17845">
        <ele>792.814</ele>
        <time>2020-07-05T15:45:06Z</time>
      </trkpt>
      <trkpt lat="46.07667" lon="6.17855">
        <ele>792.008</ele>
        <time>2020-07-05T15:45:07Z</time>
      </trkpt>
      <trkpt lat="46.07659" lon="6.17863">
        <ele>791.267</ele>
        <time>2020-07-05T15:45:08Z</time>
      </trkpt>
      <trkpt lat="46.0765" lon="6.17869">
        <ele>790.334</ele>
        <time>2020-07-05T15:45:09Z</time>
      </trkpt>
      <trkpt lat="46.0764" lon="6.17872">
        <ele>789.414</ele>
        <time>2020-07-05T15:45:10Z</time>
      </trkpt>
      <trkpt lat="46.07631" lon="6.17875">
        <ele>788.426</ele>
        <time>2020-07-05T15:45:11Z</time>
      </trkpt>
      <trkpt lat="46.0762" lon="6.17876">
        <ele>787.362</ele>
        <time>2020-07-05T15:45:12Z</time>
      </trkpt>
      <trkpt lat="46.0761" lon="6.17878">
        <ele>786.255</ele>
        <time>2020-07-05T15:45:13Z</time>
      </trkpt>
      <trkpt lat="46.07602" lon="6.17879">
        <ele>785.149</ele>
        <time>2020-07-05T15:45:14Z</time>
      </trkpt>
      <trkpt lat="46.07594" lon="6.1788">
        <ele>784.11</ele>
        <time>2020-07-05T15:45:15Z</time>
      </trkpt>
      <trkpt lat="46.07585" lon="6.17879">
        <ele>783.346</ele>
        <time>2020-07-05T15:45:16Z</time>
      </trkpt>
      <trkpt lat="46.07579" lon="6.17876">
        <ele>782.688</ele>
        <time>2020-07-05T15:45:17Z</time>
      </trkpt>
      <trkpt lat="46.07574" lon="6.17869">
        <ele>782.016</ele>
        <time>2020-07-05T15:45:18Z</time>
      </trkpt>
      <trkpt lat="46.0757" lon="6.17858">
        <ele>781.408</ele>
        <time>2020-07-05T15:45:19Z</time>
      </trkpt>
      <trkpt lat="46.07566" lon="6.17841">
        <ele>780.969</ele>
        <time>2020-07-05T15:45:20Z</time>
      </trkpt>
      <trkpt lat="46.07572" lon="6.17826">
        <ele>780.656</ele>
        <time>2020-07-05T15:45:21Z</time>
      </trkpt>
      <trkpt lat="46.07578" lon="6.17814">
        <ele>780.476</ele>
        <time>2020-07-05T15:45:22Z</time>
      </trkpt>
      <trkpt lat="46.07589" lon="6.17803">
        <ele>780.488</ele>
        <time>2020-07-05T15:45:23Z</time>
      </trkpt>
      <trkpt lat="46.07598" lon="6.17795">
        <ele>780.634</ele>
        <time>2020-07-05T15:45:24Z</time>
      </trkpt>
      <trkpt lat="46.07603" lon="6.17786">
        <ele>781.287</ele>
        <time>2020-07-05T15:45:25Z</time>
      </trkpt>
      <trkpt lat="46.07608" lon="6.17777">
        <ele>781.741</ele>
        <time>2020-07-05T15:45:26Z</time>
      </trkpt>
      <trkpt lat="46.07611" lon="6.17767">
        <ele>782.482</ele>
        <time>2020-07-05T15:45:27Z</time>
      </trkpt>
      <trkpt lat="46.07613" lon="6.17755">
        <ele>783.151</ele>
        <time>2020-07-05T15:45:28Z</time>
      </trkpt>
      <trkpt lat="46.07611" lon="6.17745">
        <ele>783.701</ele>
        <time>2020-07-05T15:45:29Z</time>
      </trkpt>
      <trkpt lat="46.07607" lon="6.17736">
        <ele>784.211</ele>
        <time>2020-07-05T15:45:30Z</time>
      </trkpt>
      <trkpt lat="46.07597" lon="6.17731">
        <ele>784.808</ele>
        <time>2020-07-05T15:45:31Z</time>
      </trkpt>
      <trkpt lat="46.07586" lon="6.17729">
        <ele>785.32</ele>
        <time>2020-07-05T15:45:32Z</time>
      </trkpt>
      <trkpt lat="46.07575" lon="6.1773">
        <ele>786.087</ele>
        <time>2020-07-05T15:45:33Z</time>
      </trkpt>
      <trkpt lat="46.07563" lon="6.17735">
        <ele>786.677</ele>
        <time>2020-07-05T15:45:34Z</time>
      </trkpt>
      <trkpt lat="46.07552" lon="6.17743">
        <ele>787.339</ele>
        <time>2020-07-05T15:45:35Z</time>
      </trkpt>
      <trkpt lat="46.07542" lon="6.17755">
        <ele>788.275</ele>
        <time>2020-07-05T15:45:36Z</time>
      </trkpt>
      <trkpt lat="46.07535" lon="6.17765">
        <ele>789.168</ele>
        <time>2020-07-05T15:45:37Z</time>
      </trkpt>
      <trkpt lat="46.07531" lon="6.17773">
        <ele>790.042</ele>
        <time>2020-07-05T15:45:38Z</time>
      </trkpt>
      <trkpt lat="46.07527" lon="6.17779">
        <ele>791.043</ele>
        <time>2020-07-05T15:45:39Z</time>
      </trkpt>
      <trkpt lat="46.07524" lon="6.17788">
        <ele>792.337</ele>
        <time>2020-07-05T15:45:41Z</time>
      </trkpt>
      <trkpt lat="46.0752" lon="6.17794">
        <ele>793.149</ele>
        <time>2020-07-05T15:45:43Z</time>
      </trkpt>
      <trkpt lat="46.07513" lon="6.17801">
        <ele>793.813</ele>
        <time>2020-07-05T15:45:45Z</time>
      </trkpt>
      <trkpt lat="46.07508" lon="6.178">
        <ele>794.508</ele>
        <time>2020-07-05T15:45:47Z</time>
      </trkpt>
      <trkpt lat="46.07498" lon="6.17803">
        <ele>795.388</ele>
        <time>2020-07-05T15:46:27Z</time>
      </trkpt>
      <trkpt lat="46.07494" lon="6.17803">
        <ele>795.315</ele>
        <time>2020-07-05T15:46:28Z</time>
      </trkpt>
      <trkpt lat="46.07487" lon="6.17802">
        <ele>795.445</ele>
        <time>2020-07-05T15:46:29Z</time>
      </trkpt>
      <trkpt lat="46.07478" lon="6.17799">
        <ele>795.677</ele>
        <time>2020-07-05T15:46:30Z</time>
      </trkpt>
      <trkpt lat="46.07468" lon="6.17793">
        <ele>795.993</ele>
        <time>2020-07-05T15:46:31Z</time>
      </trkpt>
      <trkpt lat="46.07458" lon="6.17786">
        <ele>796.356</ele>
        <time>2020-07-05T15:46:32Z</time>
      </trkpt>
      <trkpt lat="46.07447" lon="6.17778">
        <ele>797.08</ele>
        <time>2020-07-05T15:46:33Z</time>
      </trkpt>
      <trkpt lat="46.07435" lon="6.1777">
        <ele>797.961</ele>
        <time>2020-07-05T15:46:34Z</time>
      </trkpt>
      <trkpt lat="46.07423" lon="6.17761">
        <ele>799.081</ele>
        <time>2020-07-05T15:46:35Z</time>
      </trkpt>
      <trkpt lat="46.07411" lon="6.17752">
        <ele>800.361</ele>
        <time>2020-07-05T15:46:36Z</time>
      </trkpt>
      <trkpt lat="46.07398" lon="6.17744">
        <ele>801.617</ele>
        <time>2020-07-05T15:46:37Z</time>
      </trkpt>
      <trkpt lat="46.07384" lon="6.17736">
        <ele>802.708</ele>
        <time>2020-07-05T15:46:38Z</time>
      </trkpt>
      <trkpt lat="46.0737" lon="6.17729">
        <ele>803.643</ele>
        <time>2020-07-05T15:46:39Z</time>
      </trkpt>
      <trkpt lat="46.07355" lon="6.17727">
        <ele>804.44</ele>
        <time>2020-07-05T15:46:40Z</time>
      </trkpt>
      <trkpt lat="46.07339" lon="6.17727">
        <ele>805.22</ele>
        <time>2020-07-05T15:46:41Z</time>
      </trkpt>
      <trkpt lat="46.07324" lon="6.17729">
        <ele>805.922</ele>
        <time>2020-07-05T15:46:42Z</time>
      </trkpt>
      <trkpt lat="46.07309" lon="6.1773">
        <ele>806.348</ele>
        <time>2020-07-05T15:46:43Z</time>
      </trkpt>
      <trkpt lat="46.07295" lon="6.1773">
        <ele>807.261</ele>
        <time>2020-07-05T15:46:44Z</time>
      </trkpt>
      <trkpt lat="46.07283" lon="6.17727">
        <ele>808.085</ele>
        <time>2020-07-05T15:46:45Z</time>
      </trkpt>
      <trkpt lat="46.07272" lon="6.17721">
        <ele>808.726</ele>
        <time>2020-07-05T15:46:46Z</time>
      </trkpt>
      <trkpt lat="46.07263" lon="6.1771">
        <ele>809.334</ele>
        <time>2020-07-05T15:46:47Z</time>
      </trkpt>
      <trkpt lat="46.07256" lon="6.17701">
        <ele>810.055</ele>
        <time>2020-07-05T15:46:48Z</time>
      </trkpt>
      <trkpt lat="46.0725" lon="6.17691">
        <ele>810.51</ele>
        <time>2020-07-05T15:46:49Z</time>
      </trkpt>
      <trkpt lat="46.07242" lon="6.17688">
        <ele>810.608</ele>
        <time>2020-07-05T15:46:50Z</time>
      </trkpt>
      <trkpt lat="46.07235" lon="6.17694">
        <ele>810.698</ele>
        <time>2020-07-05T15:46:51Z</time>
      </trkpt>
      <trkpt lat="46.07228" lon="6.17702">
        <ele>810.755</ele>
        <time>2020-07-05T15:46:52Z</time>
      </trkpt>
      <trkpt lat="46.07225" lon="6.17711">
        <ele>810.845</ele>
        <time>2020-07-05T15:46:53Z</time>
      </trkpt>
      <trkpt lat="46.07222" lon="6.17722">
        <ele>811.287</ele>
        <time>2020-07-05T15:46:54Z</time>
      </trkpt>
      <trkpt lat="46.07221" lon="6.17735">
        <ele>811.893</ele>
        <time>2020-07-05T15:46:55Z</time>
      </trkpt>
      <trkpt lat="46.07222" lon="6.17747">
        <ele>812.366</ele>
        <time>2020-07-05T15:46:56Z</time>
      </trkpt>
      <trkpt lat="46.07226" lon="6.17761">
        <ele>813.16</ele>
        <time>2020-07-05T15:46:57Z</time>
      </trkpt>
      <trkpt lat="46.0723" lon="6.17774">
        <ele>813.991</ele>
        <time>2020-07-05T15:46:58Z</time>
      </trkpt>
      <trkpt lat="46.07234" lon="6.17788">
        <ele>814.624</ele>
        <time>2020-07-05T15:46:59Z</time>
      </trkpt>
      <trkpt lat="46.07238" lon="6.17804">
        <ele>815.504</ele>
        <time>2020-07-05T15:47:00Z</time>
      </trkpt>
      <trkpt lat="46.07241" lon="6.17818">
        <ele>816.414</ele>
        <time>2020-07-05T15:47:01Z</time>
      </trkpt>
      <trkpt lat="46.07245" lon="6.17831">
        <ele>817.408</ele>
        <time>2020-07-05T15:47:02Z</time>
      </trkpt>
      <trkpt lat="46.07246" lon="6.17845">
        <ele>818.357</ele>
        <time>2020-07-05T15:47:03Z</time>
      </trkpt>
      <trkpt lat="46.07247" lon="6.17859">
        <ele>819.294</ele>
        <time>2020-07-05T15:47:04Z</time>
      </trkpt>
      <trkpt lat="46.07244" lon="6.17876">
        <ele>820.084</ele>
        <time>2020-07-05T15:47:05Z</time>
      </trkpt>
      <trkpt lat="46.0724" lon="6.17891">
        <ele>820.846</ele>
        <time>2020-07-05T15:47:06Z</time>
      </trkpt>
      <trkpt lat="46.07235" lon="6.17904">
        <ele>821.642</ele>
        <time>2020-07-05T15:47:07Z</time>
      </trkpt>
      <trkpt lat="46.07229" lon="6.17915">
        <ele>822.515</ele>
        <time>2020-07-05T15:47:08Z</time>
      </trkpt>
      <trkpt lat="46.07223" lon="6.17926">
        <ele>823.479</ele>
        <time>2020-07-05T15:47:09Z</time>
      </trkpt>
      <trkpt lat="46.07216" lon="6.17934">
        <ele>824.29</ele>
        <time>2020-07-05T15:47:10Z</time>
      </trkpt>
      <trkpt lat="46.07209" lon="6.17938">
        <ele>824.957</ele>
        <time>2020-07-05T15:47:11Z</time>
      </trkpt>
      <trkpt lat="46.07201" lon="6.17939">
        <ele>825.6</ele>
        <time>2020-07-05T15:47:12Z</time>
      </trkpt>
      <trkpt lat="46.07194" lon="6.17943">
        <ele>826.82</ele>
        <time>2020-07-05T15:47:14Z</time>
      </trkpt>
      <trkpt lat="46.07198" lon="6.17959">
        <ele>827.708</ele>
        <time>2020-07-05T15:47:16Z</time>
      </trkpt>
      <trkpt lat="46.07203" lon="6.17963">
        <ele>828.11</ele>
        <time>2020-07-05T15:47:17Z</time>
      </trkpt>
      <trkpt lat="46.07209" lon="6.17968">
        <ele>828.577</ele>
        <time>2020-07-05T15:47:18Z</time>
      </trkpt>
      <trkpt lat="46.07215" lon="6.17974">
        <ele>828.817</ele>
        <time>2020-07-05T15:47:19Z</time>
      </trkpt>
      <trkpt lat="46.07221" lon="6.17979">
        <ele>829.289</ele>
        <time>2020-07-05T15:47:20Z</time>
      </trkpt>
      <trkpt lat="46.07229" lon="6.17986">
        <ele>829.545</ele>
        <time>2020-07-05T15:47:21Z</time>
      </trkpt>
      <trkpt lat="46.07236" lon="6.17992">
        <ele>829.898</ele>
        <time>2020-07-05T15:47:22Z</time>
      </trkpt>
      <trkpt lat="46.07243" lon="6.18">
        <ele>830.022</ele>
        <time>2020-07-05T15:47:23Z</time>
      </trkpt>
      <trkpt lat="46.07251" lon="6.18007">
        <ele>830.243</ele>
        <time>2020-07-05T15:47:24Z</time>
      </trkpt>
      <trkpt lat="46.07258" lon="6.18015">
        <ele>830.261</ele>
        <time>2020-07-05T15:47:25Z</time>
      </trkpt>
      <trkpt lat="46.07266" lon="6.18024">
        <ele>830.221</ele>
        <time>2020-07-05T15:47:26Z</time>
      </trkpt>
      <trkpt lat="46.07272" lon="6.18033">
        <ele>830.113</ele>
        <time>2020-07-05T15:47:27Z</time>
      </trkpt>
      <trkpt lat="46.07278" lon="6.1804">
        <ele>829.908</ele>
        <time>2020-07-05T15:47:28Z</time>
      </trkpt>
      <trkpt lat="46.07284" lon="6.18049">
        <ele>829.741</ele>
        <time>2020-07-05T15:47:29Z</time>
      </trkpt>
      <trkpt lat="46.07291" lon="6.18057">
        <ele>829.668</ele>
        <time>2020-07-05T15:47:30Z</time>
      </trkpt>
      <trkpt lat="46.07298" lon="6.18065">
        <ele>829.688</ele>
        <time>2020-07-05T15:47:31Z</time>
      </trkpt>
      <trkpt lat="46.07306" lon="6.18073">
        <ele>829.66</ele>
        <time>2020-07-05T15:47:32Z</time>
      </trkpt>
      <trkpt lat="46.07312" lon="6.18079">
        <ele>829.736</ele>
        <time>2020-07-05T15:47:33Z</time>
      </trkpt>
      <trkpt lat="46.07319" lon="6.18086">
        <ele>829.939</ele>
        <time>2020-07-05T15:47:34Z</time>
      </trkpt>
      <trkpt lat="46.07326" lon="6.18092">
        <ele>830.133</ele>
        <time>2020-07-05T15:47:35Z</time>
      </trkpt>
      <trkpt lat="46.07333" lon="6.18098">
        <ele>830.394</ele>
        <time>2020-07-05T15:47:36Z</time>
      </trkpt>
      <trkpt lat="46.07339" lon="6.18103">
        <ele>830.618</ele>
        <time>2020-07-05T15:47:37Z</time>
      </trkpt>
      <trkpt lat="46.07343" lon="6.18108">
        <ele>830.798</ele>
        <time>2020-07-05T15:47:38Z</time>
      </trkpt>
      <trkpt lat="46.07348" lon="6.18113">
        <ele>830.717</ele>
        <time>2020-07-05T15:47:39Z</time>
      </trkpt>
      <trkpt lat="46.07355" lon="6.18121">
        <ele>830.808</ele>
        <time>2020-07-05T15:47:41Z</time>
      </trkpt>
      <trkpt lat="46.07359" lon="6.18128">
        <ele>830.916</ele>
        <time>2020-07-05T15:47:42Z</time>
      </trkpt>
      <trkpt lat="46.07366" lon="6.18134">
        <ele>831.023</ele>
        <time>2020-07-05T15:47:43Z</time>
      </trkpt>
      <trkpt lat="46.07373" lon="6.18142">
        <ele>831.133</ele>
        <time>2020-07-05T15:47:44Z</time>
      </trkpt>
      <trkpt lat="46.07381" lon="6.1815">
        <ele>831.215</ele>
        <time>2020-07-05T15:47:45Z</time>
      </trkpt>
      <trkpt lat="46.07389" lon="6.18156">
        <ele>831.211</ele>
        <time>2020-07-05T15:47:46Z</time>
      </trkpt>
      <trkpt lat="46.07397" lon="6.18163">
        <ele>831.234</ele>
        <time>2020-07-05T15:47:47Z</time>
      </trkpt>
      <trkpt lat="46.07406" lon="6.18169">
        <ele>831.328</ele>
        <time>2020-07-05T15:47:48Z</time>
      </trkpt>
      <trkpt lat="46.07414" lon="6.18176">
        <ele>831.459</ele>
        <time>2020-07-05T15:47:49Z</time>
      </trkpt>
      <trkpt lat="46.07423" lon="6.18183">
        <ele>831.576</ele>
        <time>2020-07-05T15:47:50Z</time>
      </trkpt>
      <trkpt lat="46.07432" lon="6.1819">
        <ele>831.79</ele>
        <time>2020-07-05T15:47:51Z</time>
      </trkpt>
      <trkpt lat="46.07442" lon="6.18199">
        <ele>831.919</ele>
        <time>2020-07-05T15:47:52Z</time>
      </trkpt>
      <trkpt lat="46.0745" lon="6.18208">
        <ele>832.208</ele>
        <time>2020-07-05T15:47:53Z</time>
      </trkpt>
      <trkpt lat="46.07455" lon="6.18216">
        <ele>832.692</ele>
        <time>2020-07-05T15:47:54Z</time>
      </trkpt>
      <trkpt lat="46.07456" lon="6.18225">
        <ele>833.339</ele>
        <time>2020-07-05T15:47:55Z</time>
      </trkpt>
      <trkpt lat="46.07454" lon="6.18231">
        <ele>834.149</ele>
        <time>2020-07-05T15:47:56Z</time>
      </trkpt>
      <trkpt lat="46.0745" lon="6.18238">
        <ele>835.011</ele>
        <time>2020-07-05T15:47:57Z</time>
      </trkpt>
      <trkpt lat="46.07442" lon="6.18245">
        <ele>835.747</ele>
        <time>2020-07-05T15:47:58Z</time>
      </trkpt>
      <trkpt lat="46.07434" lon="6.18257">
        <ele>836.36</ele>
        <time>2020-07-05T15:47:59Z</time>
      </trkpt>
      <trkpt lat="46.07425" lon="6.18271">
        <ele>837.284</ele>
        <time>2020-07-05T15:48:00Z</time>
      </trkpt>
      <trkpt lat="46.07417" lon="6.18288">
        <ele>838.225</ele>
        <time>2020-07-05T15:48:01Z</time>
      </trkpt>
      <trkpt lat="46.07411" lon="6.18308">
        <ele>839.559</ele>
        <time>2020-07-05T15:48:02Z</time>
      </trkpt>
      <trkpt lat="46.07408" lon="6.18323">
        <ele>841.203</ele>
        <time>2020-07-05T15:48:03Z</time>
      </trkpt>
      <trkpt lat="46.07403" lon="6.18338">
        <ele>843.123</ele>
        <time>2020-07-05T15:48:04Z</time>
      </trkpt>
      <trkpt lat="46.07399" lon="6.1835">
        <ele>845.108</ele>
        <time>2020-07-05T15:48:05Z</time>
      </trkpt>
      <trkpt lat="46.07396" lon="6.18365">
        <ele>846.97</ele>
        <time>2020-07-05T15:48:06Z</time>
      </trkpt>
      <trkpt lat="46.07393" lon="6.18374">
        <ele>848.887</ele>
        <time>2020-07-05T15:48:07Z</time>
      </trkpt>
      <trkpt lat="46.07389" lon="6.18381">
        <ele>850.727</ele>
        <time>2020-07-05T15:48:08Z</time>
      </trkpt>
      <trkpt lat="46.07378" lon="6.18387">
        <ele>854.229</ele>
        <time>2020-07-05T15:48:10Z</time>
      </trkpt>
      <trkpt lat="46.0737" lon="6.18387">
        <ele>855.835</ele>
        <time>2020-07-05T15:48:11Z</time>
      </trkpt>
      <trkpt lat="46.0736" lon="6.1839">
        <ele>857.288</ele>
        <time>2020-07-05T15:48:12Z</time>
      </trkpt>
      <trkpt lat="46.07351" lon="6.18398">
        <ele>858.562</ele>
        <time>2020-07-05T15:48:13Z</time>
      </trkpt>
      <trkpt lat="46.07344" lon="6.18405">
        <ele>859.873</ele>
        <time>2020-07-05T15:48:14Z</time>
      </trkpt>
      <trkpt lat="46.07339" lon="6.1841">
        <ele>861.111</ele>
        <time>2020-07-05T15:48:15Z</time>
      </trkpt>
      <trkpt lat="46.07334" lon="6.18414">
        <ele>862.621</ele>
        <time>2020-07-05T15:48:16Z</time>
      </trkpt>
      <trkpt lat="46.07328" lon="6.18413">
        <ele>864.103</ele>
        <time>2020-07-05T15:48:17Z</time>
      </trkpt>
      <trkpt lat="46.07322" lon="6.18411">
        <ele>865.508</ele>
        <time>2020-07-05T15:48:18Z</time>
      </trkpt>
      <trkpt lat="46.07315" lon="6.18406">
        <ele>866.836</ele>
        <time>2020-07-05T15:48:19Z</time>
      </trkpt>
      <trkpt lat="46.0731" lon="6.18403">
        <ele>868.023</ele>
        <time>2020-07-05T15:48:20Z</time>
      </trkpt>
      <trkpt lat="46.07303" lon="6.18405">
        <ele>869.323</ele>
        <time>2020-07-05T15:48:21Z</time>
      </trkpt>
      <trkpt lat="46.07296" lon="6.18411">
        <ele>870.435</ele>
        <time>2020-07-05T15:48:22Z</time>
      </trkpt>
      <trkpt lat="46.07289" lon="6.18416">
        <ele>871.641</ele>
        <time>2020-07-05T15:48:23Z</time>
      </trkpt>
      <trkpt lat="46.07277" lon="6.18422">
        <ele>873.054</ele>
        <time>2020-07-05T15:48:24Z</time>
      </trkpt>
      <trkpt lat="46.07267" lon="6.18429">
        <ele>874.668</ele>
        <time>2020-07-05T15:48:25Z</time>
      </trkpt>
      <trkpt lat="46.07257" lon="6.18435">
        <ele>875.889</ele>
        <time>2020-07-05T15:48:26Z</time>
      </trkpt>
      <trkpt lat="46.07248" lon="6.1844">
        <ele>877.636</ele>
        <time>2020-07-05T15:48:27Z</time>
      </trkpt>
      <trkpt lat="46.07244" lon="6.18449">
        <ele>879.417</ele>
        <time>2020-07-05T15:48:28Z</time>
      </trkpt>
      <trkpt lat="46.07236" lon="6.18459">
        <ele>881.318</ele>
        <time>2020-07-05T15:48:29Z</time>
      </trkpt>
      <trkpt lat="46.07228" lon="6.18472">
        <ele>882.908</ele>
        <time>2020-07-05T15:48:30Z</time>
      </trkpt>
      <trkpt lat="46.07223" lon="6.18484">
        <ele>884.778</ele>
        <time>2020-07-05T15:48:31Z</time>
      </trkpt>
      <trkpt lat="46.07217" lon="6.18497">
        <ele>886.575</ele>
        <time>2020-07-05T15:48:32Z</time>
      </trkpt>
      <trkpt lat="46.0721" lon="6.18507">
        <ele>888.135</ele>
        <time>2020-07-05T15:48:33Z</time>
      </trkpt>
      <trkpt lat="46.07206" lon="6.18514">
        <ele>889.557</ele>
        <time>2020-07-05T15:48:34Z</time>
      </trkpt>
      <trkpt lat="46.07201" lon="6.18519">
        <ele>890.913</ele>
        <time>2020-07-05T15:48:35Z</time>
      </trkpt>
      <trkpt lat="46.07193" lon="6.18525">
        <ele>892.176</ele>
        <time>2020-07-05T15:48:36Z</time>
      </trkpt>
      <trkpt lat="46.07186" lon="6.18533">
        <ele>893.15</ele>
        <time>2020-07-05T15:48:37Z</time>
      </trkpt>
      <trkpt lat="46.07179" lon="6.18541">
        <ele>893.951</ele>
        <time>2020-07-05T15:48:38Z</time>
      </trkpt>
      <trkpt lat="46.07172" lon="6.18548">
        <ele>894.755</ele>
        <time>2020-07-05T15:48:39Z</time>
      </trkpt>
      <trkpt lat="46.07165" lon="6.18555">
        <ele>895.407</ele>
        <time>2020-07-05T15:48:40Z</time>
      </trkpt>
      <trkpt lat="46.07159" lon="6.18563">
        <ele>896.317</ele>
        <time>2020-07-05T15:48:41Z</time>
      </trkpt>
      <trkpt lat="46.07151" lon="6.18571">
        <ele>897.308</ele>
        <time>2020-07-05T15:48:42Z</time>
      </trkpt>
      <trkpt lat="46.07144" lon="6.18578">
        <ele>898.54</ele>
        <time>2020-07-05T15:48:43Z</time>
      </trkpt>
      <trkpt lat="46.07139" lon="6.18585">
        <ele>899.847</ele>
        <time>2020-07-05T15:48:44Z</time>
      </trkpt>
      <trkpt lat="46.07133" lon="6.18594">
        <ele>901.247</ele>
        <time>2020-07-05T15:48:45Z</time>
      </trkpt>
      <trkpt lat="46.07126" lon="6.18602">
        <ele>902.669</ele>
        <time>2020-07-05T15:48:46Z</time>
      </trkpt>
      <trkpt lat="46.0712" lon="6.18607">
        <ele>904.215</ele>
        <time>2020-07-05T15:48:47Z</time>
      </trkpt>
      <trkpt lat="46.07114" lon="6.18615">
        <ele>905.568</ele>
        <time>2020-07-05T15:48:48Z</time>
      </trkpt>
      <trkpt lat="46.0711" lon="6.18619">
        <ele>906.882</ele>
        <time>2020-07-05T15:48:49Z</time>
      </trkpt>
      <trkpt lat="46.07105" lon="6.18621">
        <ele>908.253</ele>
        <time>2020-07-05T15:48:50Z</time>
      </trkpt>
      <trkpt lat="46.071" lon="6.1862">
        <ele>909.546</ele>
        <time>2020-07-05T15:48:51Z</time>
      </trkpt>
      <trkpt lat="46.07088" lon="6.18616">
        <ele>912.588</ele>
        <time>2020-07-05T15:50:12Z</time>
      </trkpt>
      <trkpt lat="46.07091" lon="6.1862">
        <ele>912.416</ele>
        <time>2020-07-05T15:50:16Z</time>
      </trkpt>
      <trkpt lat="46.07093" lon="6.18627">
        <ele>912.108</ele>
        <time>2020-07-05T15:50:20Z</time>
      </trkpt>
      <trkpt lat="46.07099" lon="6.18624">
        <ele>911.289</ele>
        <time>2020-07-05T15:53:10Z</time>
      </trkpt>
      <trkpt lat="46.07104" lon="6.18626">
        <ele>911.696</ele>
        <time>2020-07-05T16:04:55Z</time>
      </trkpt>
      <trkpt lat="46.07096" lon="6.18625">
        <ele>911.786</ele>
        <time>2020-07-05T16:14:03Z</time>
      </trkpt>
      <trkpt lat="46.07099" lon="6.1863">
        <ele>911.718</ele>
        <time>2020-07-05T16:14:32Z</time>
      </trkpt>
      <trkpt lat="46.07103" lon="6.18622">
        <ele>911.654</ele>
        <time>2020-07-05T16:14:52Z</time>
      </trkpt>
      <trkpt lat="46.07098" lon="6.18618">
        <ele>911.737</ele>
        <time>2020-07-05T16:14:55Z</time>
      </trkpt>
      <trkpt lat="46.07092" lon="6.18617">
        <ele>912.021</ele>
        <time>2020-07-05T16:14:59Z</time>
      </trkpt>
      <trkpt lat="46.0709" lon="6.1861">
        <ele>912.332</ele>
        <time>2020-07-05T16:15:05Z</time>
      </trkpt>
      <trkpt lat="46.07084" lon="6.18608">
        <ele>912.758</ele>
        <time>2020-07-05T16:16:21Z</time>
      </trkpt>
      <trkpt lat="46.07079" lon="6.18605">
        <ele>912.852</ele>
        <time>2020-07-05T16:16:23Z</time>
      </trkpt>
      <trkpt lat="46.07074" lon="6.18602">
        <ele>913.117</ele>
        <time>2020-07-05T16:16:26Z</time>
      </trkpt>
      <trkpt lat="46.07067" lon="6.18596">
        <ele>913.508</ele>
        <time>2020-07-05T16:16:28Z</time>
      </trkpt>
      <trkpt lat="46.07063" lon="6.18592">
        <ele>913.86</ele>
        <time>2020-07-05T16:16:29Z</time>
      </trkpt>
      <trkpt lat="46.07058" lon="6.18586">
        <ele>914.587</ele>
        <time>2020-07-05T16:16:31Z</time>
      </trkpt>
      <trkpt lat="46.07051" lon="6.18583">
        <ele>915.277</ele>
        <time>2020-07-05T16:16:33Z</time>
      </trkpt>
      <trkpt lat="46.07044" lon="6.18578">
        <ele>915.939</ele>
        <time>2020-07-05T16:16:35Z</time>
      </trkpt>
      <trkpt lat="46.07038" lon="6.18571">
        <ele>916.715</ele>
        <time>2020-07-05T16:16:37Z</time>
      </trkpt>
      <trkpt lat="46.07035" lon="6.18564">
        <ele>917.178</ele>
        <time>2020-07-05T16:16:38Z</time>
      </trkpt>
      <trkpt lat="46.07029" lon="6.18557">
        <ele>918.022</ele>
        <time>2020-07-05T16:16:40Z</time>
      </trkpt>
      <trkpt lat="46.07024" lon="6.18548">
        <ele>918.743</ele>
        <time>2020-07-05T16:16:42Z</time>
      </trkpt>
      <trkpt lat="46.07019" lon="6.18546">
        <ele>919.057</ele>
        <time>2020-07-05T16:16:43Z</time>
      </trkpt>
      <trkpt lat="46.07013" lon="6.18544">
        <ele>919.3</ele>
        <time>2020-07-05T16:16:44Z</time>
      </trkpt>
      <trkpt lat="46.07006" lon="6.18539">
        <ele>919.92</ele>
        <time>2020-07-05T16:16:46Z</time>
      </trkpt>
      <trkpt lat="46.07001" lon="6.18536">
        <ele>920.208</ele>
        <time>2020-07-05T16:16:47Z</time>
      </trkpt>
      <trkpt lat="46.06997" lon="6.18531">
        <ele>920.52</ele>
        <time>2020-07-05T16:16:48Z</time>
      </trkpt>
      <trkpt lat="46.06992" lon="6.18525">
        <ele>920.867</ele>
        <time>2020-07-05T16:16:49Z</time>
      </trkpt>
      <trkpt lat="46.06987" lon="6.18519">
        <ele>921.127</ele>
        <time>2020-07-05T16:16:50Z</time>
      </trkpt>
      <trkpt lat="46.06981" lon="6.18514">
        <ele>921.349</ele>
        <time>2020-07-05T16:16:51Z</time>
      </trkpt>
      <trkpt lat="46.06977" lon="6.18511">
        <ele>921.515</ele>
        <time>2020-07-05T16:16:52Z</time>
      </trkpt>
      <trkpt lat="46.06972" lon="6.18506">
        <ele>921.778</ele>
        <time>2020-07-05T16:16:53Z</time>
      </trkpt>
      <trkpt lat="46.06963" lon="6.18501">
        <ele>921.982</ele>
        <time>2020-07-05T16:16:55Z</time>
      </trkpt>
      <trkpt lat="46.06958" lon="6.18499">
        <ele>922.053</ele>
        <time>2020-07-05T16:16:56Z</time>
      </trkpt>
      <trkpt lat="46.06949" lon="6.185">
        <ele>922.417</ele>
        <time>2020-07-05T16:16:58Z</time>
      </trkpt>
      <trkpt lat="46.06941" lon="6.18503">
        <ele>922.987</ele>
        <time>2020-07-05T16:17:00Z</time>
      </trkpt>
      <trkpt lat="46.06935" lon="6.18506">
        <ele>923.315</ele>
        <time>2020-07-05T16:17:01Z</time>
      </trkpt>
      <trkpt lat="46.06929" lon="6.18509">
        <ele>923.708</ele>
        <time>2020-07-05T16:17:02Z</time>
      </trkpt>
      <trkpt lat="46.06922" lon="6.18511">
        <ele>924.156</ele>
        <time>2020-07-05T16:17:03Z</time>
      </trkpt>
      <trkpt lat="46.06918" lon="6.18514">
        <ele>924.513</ele>
        <time>2020-07-05T16:17:04Z</time>
      </trkpt>
      <trkpt lat="46.06913" lon="6.18517">
        <ele>924.973</ele>
        <time>2020-07-05T16:17:05Z</time>
      </trkpt>
      <trkpt lat="46.06909" lon="6.1852">
        <ele>925.235</ele>
        <time>2020-07-05T16:17:06Z</time>
      </trkpt>
      <trkpt lat="46.06904" lon="6.18522">
        <ele>925.391</ele>
        <time>2020-07-05T16:17:07Z</time>
      </trkpt>
      <trkpt lat="46.06896" lon="6.18527">
        <ele>925.414</ele>
        <time>2020-07-05T16:17:09Z</time>
      </trkpt>
      <trkpt lat="46.06892" lon="6.1853">
        <ele>925.488</ele>
        <time>2020-07-05T16:17:10Z</time>
      </trkpt>
      <trkpt lat="46.06888" lon="6.18534">
        <ele>925.619</ele>
        <time>2020-07-05T16:17:11Z</time>
      </trkpt>
      <trkpt lat="46.06883" lon="6.18539">
        <ele>925.891</ele>
        <time>2020-07-05T16:17:12Z</time>
      </trkpt>
      <trkpt lat="46.06878" lon="6.18543">
        <ele>926.081</ele>
        <time>2020-07-05T16:17:13Z</time>
      </trkpt>
      <trkpt lat="46.06871" lon="6.18547">
        <ele>926.419</ele>
        <time>2020-07-05T16:17:14Z</time>
      </trkpt>
      <trkpt lat="46.06866" lon="6.18552">
        <ele>926.708</ele>
        <time>2020-07-05T16:17:15Z</time>
      </trkpt>
      <trkpt lat="46.06857" lon="6.18557">
        <ele>927.054</ele>
        <time>2020-07-05T16:17:16Z</time>
      </trkpt>
      <trkpt lat="46.06848" lon="6.18565">
        <ele>927.861</ele>
        <time>2020-07-05T16:17:17Z</time>
      </trkpt>
      <trkpt lat="46.06837" lon="6.18573">
        <ele>928.681</ele>
        <time>2020-07-05T16:17:18Z</time>
      </trkpt>
      <trkpt lat="46.0683" lon="6.1858">
        <ele>929.793</ele>
        <time>2020-07-05T16:17:19Z</time>
      </trkpt>
      <trkpt lat="46.06822" lon="6.18585">
        <ele>930.979</ele>
        <time>2020-07-05T16:17:20Z</time>
      </trkpt>
      <trkpt lat="46.06814" lon="6.1859">
        <ele>932.032</ele>
        <time>2020-07-05T16:17:21Z</time>
      </trkpt>
      <trkpt lat="46.06804" lon="6.18593">
        <ele>932.956</ele>
        <time>2020-07-05T16:17:22Z</time>
      </trkpt>
      <trkpt lat="46.06795" lon="6.18595">
        <ele>933.817</ele>
        <time>2020-07-05T16:17:23Z</time>
      </trkpt>
      <trkpt lat="46.06787" lon="6.18599">
        <ele>934.521</ele>
        <time>2020-07-05T16:17:24Z</time>
      </trkpt>
      <trkpt lat="46.0678" lon="6.18604">
        <ele>935.041</ele>
        <time>2020-07-05T16:17:25Z</time>
      </trkpt>
      <trkpt lat="46.06774" lon="6.18611">
        <ele>935.505</ele>
        <time>2020-07-05T16:17:26Z</time>
      </trkpt>
      <trkpt lat="46.0677" lon="6.1862">
        <ele>935.808</ele>
        <time>2020-07-05T16:17:27Z</time>
      </trkpt>
      <trkpt lat="46.06766" lon="6.18628">
        <ele>936.167</ele>
        <time>2020-07-05T16:17:28Z</time>
      </trkpt>
      <trkpt lat="46.06759" lon="6.18637">
        <ele>936.444</ele>
        <time>2020-07-05T16:17:29Z</time>
      </trkpt>
      <trkpt lat="46.06753" lon="6.18647">
        <ele>936.744</ele>
        <time>2020-07-05T16:17:30Z</time>
      </trkpt>
      <trkpt lat="46.06747" lon="6.18656">
        <ele>936.856</ele>
        <time>2020-07-05T16:17:31Z</time>
      </trkpt>
      <trkpt lat="46.0674" lon="6.18666">
        <ele>936.822</ele>
        <time>2020-07-05T16:17:32Z</time>
      </trkpt>
      <trkpt lat="46.06732" lon="6.18677">
        <ele>936.775</ele>
        <time>2020-07-05T16:17:33Z</time>
      </trkpt>
      <trkpt lat="46.06724" lon="6.18689">
        <ele>936.559</ele>
        <time>2020-07-05T16:17:34Z</time>
      </trkpt>
      <trkpt lat="46.06717" lon="6.18701">
        <ele>936.33</ele>
        <time>2020-07-05T16:17:35Z</time>
      </trkpt>
      <trkpt lat="46.06711" lon="6.18711">
        <ele>936.012</ele>
        <time>2020-07-05T16:17:36Z</time>
      </trkpt>
      <trkpt lat="46.06707" lon="6.18718">
        <ele>935.832</ele>
        <time>2020-07-05T16:17:37Z</time>
      </trkpt>
      <trkpt lat="46.06703" lon="6.18724">
        <ele>935.605</ele>
        <time>2020-07-05T16:17:38Z</time>
      </trkpt>
      <trkpt lat="46.06697" lon="6.18732">
        <ele>935.108</ele>
        <time>2020-07-05T16:17:40Z</time>
      </trkpt>
      <trkpt lat="46.06691" lon="6.18732">
        <ele>934.996</ele>
        <time>2020-07-05T16:17:42Z</time>
      </trkpt>
      <trkpt lat="46.06688" lon="6.18726">
        <ele>934.993</ele>
        <time>2020-07-05T16:17:43Z</time>
      </trkpt>
      <trkpt lat="46.06688" lon="6.1872">
        <ele>935.023</ele>
        <time>2020-07-05T16:17:44Z</time>
      </trkpt>
      <trkpt lat="46.06689" lon="6.1871">
        <ele>935.145</ele>
        <time>2020-07-05T16:17:45Z</time>
      </trkpt>
      <trkpt lat="46.06689" lon="6.18698">
        <ele>935.291</ele>
        <time>2020-07-05T16:17:46Z</time>
      </trkpt>
      <trkpt lat="46.06687" lon="6.18683">
        <ele>935.364</ele>
        <time>2020-07-05T16:17:47Z</time>
      </trkpt>
      <trkpt lat="46.06683" lon="6.18666">
        <ele>935.398</ele>
        <time>2020-07-05T16:17:48Z</time>
      </trkpt>
      <trkpt lat="46.06677" lon="6.18648">
        <ele>935.379</ele>
        <time>2020-07-05T16:17:49Z</time>
      </trkpt>
      <trkpt lat="46.06671" lon="6.18632">
        <ele>935.361</ele>
        <time>2020-07-05T16:17:50Z</time>
      </trkpt>
      <trkpt lat="46.06666" lon="6.18616">
        <ele>935.321</ele>
        <time>2020-07-05T16:17:51Z</time>
      </trkpt>
      <trkpt lat="46.0666" lon="6.18601">
        <ele>935.113</ele>
        <time>2020-07-05T16:17:52Z</time>
      </trkpt>
      <trkpt lat="46.06653" lon="6.1859">
        <ele>934.708</ele>
        <time>2020-07-05T16:17:53Z</time>
      </trkpt>
      <trkpt lat="46.06646" lon="6.18578">
        <ele>934.681</ele>
        <time>2020-07-05T16:17:54Z</time>
      </trkpt>
      <trkpt lat="46.06639" lon="6.18566">
        <ele>934.268</ele>
        <time>2020-07-05T16:17:55Z</time>
      </trkpt>
      <trkpt lat="46.0663" lon="6.18554">
        <ele>933.768</ele>
        <time>2020-07-05T16:17:56Z</time>
      </trkpt>
      <trkpt lat="46.06624" lon="6.18542">
        <ele>933.41</ele>
        <time>2020-07-05T16:17:57Z</time>
      </trkpt>
      <trkpt lat="46.06615" lon="6.18528">
        <ele>933.236</ele>
        <time>2020-07-05T16:17:58Z</time>
      </trkpt>
      <trkpt lat="46.06608" lon="6.18517">
        <ele>933.059</ele>
        <time>2020-07-05T16:17:59Z</time>
      </trkpt>
      <trkpt lat="46.06601" lon="6.18505">
        <ele>932.763</ele>
        <time>2020-07-05T16:18:00Z</time>
      </trkpt>
      <trkpt lat="46.06596" lon="6.18493">
        <ele>932.524</ele>
        <time>2020-07-05T16:18:01Z</time>
      </trkpt>
      <trkpt lat="46.06592" lon="6.18481">
        <ele>932.398</ele>
        <time>2020-07-05T16:18:02Z</time>
      </trkpt>
      <trkpt lat="46.06587" lon="6.1847">
        <ele>932.215</ele>
        <time>2020-07-05T16:18:03Z</time>
      </trkpt>
      <trkpt lat="46.06582" lon="6.18461">
        <ele>931.926</ele>
        <time>2020-07-05T16:18:04Z</time>
      </trkpt>
      <trkpt lat="46.06577" lon="6.18455">
        <ele>931.408</ele>
        <time>2020-07-05T16:18:05Z</time>
      </trkpt>
      <trkpt lat="46.06571" lon="6.18453">
        <ele>930.954</ele>
        <time>2020-07-05T16:18:06Z</time>
      </trkpt>
      <trkpt lat="46.06566" lon="6.1845">
        <ele>930.411</ele>
        <time>2020-07-05T16:18:07Z</time>
      </trkpt>
      <trkpt lat="46.06562" lon="6.18446">
        <ele>929.951</ele>
        <time>2020-07-05T16:18:08Z</time>
      </trkpt>
      <trkpt lat="46.06555" lon="6.18442">
        <ele>929.473</ele>
        <time>2020-07-05T16:18:09Z</time>
      </trkpt>
      <trkpt lat="46.06548" lon="6.18438">
        <ele>929.019</ele>
        <time>2020-07-05T16:18:10Z</time>
      </trkpt>
      <trkpt lat="46.06542" lon="6.18434">
        <ele>928.692</ele>
        <time>2020-07-05T16:18:11Z</time>
      </trkpt>
      <trkpt lat="46.06537" lon="6.18431">
        <ele>928.356</ele>
        <time>2020-07-05T16:18:12Z</time>
      </trkpt>
      <trkpt lat="46.06532" lon="6.18429">
        <ele>927.937</ele>
        <time>2020-07-05T16:18:13Z</time>
      </trkpt>
      <trkpt lat="46.06524" lon="6.18424">
        <ele>927.293</ele>
        <time>2020-07-05T16:18:15Z</time>
      </trkpt>
      <trkpt lat="46.06519" lon="6.1842">
        <ele>926.965</ele>
        <time>2020-07-05T16:18:16Z</time>
      </trkpt>
      <trkpt lat="46.06512" lon="6.18417">
        <ele>926.321</ele>
        <time>2020-07-05T16:18:18Z</time>
      </trkpt>
      <trkpt lat="46.06507" lon="6.18415">
        <ele>925.908</ele>
        <time>2020-07-05T16:18:20Z</time>
      </trkpt>
      <trkpt lat="46.06503" lon="6.18415">
        <ele>925.744</ele>
        <time>2020-07-05T16:18:22Z</time>
      </trkpt>
      <trkpt lat="46.06499" lon="6.18413">
        <ele>925.641</ele>
        <time>2020-07-05T16:18:24Z</time>
      </trkpt>
      <trkpt lat="46.06494" lon="6.1841">
        <ele>925.571</ele>
        <time>2020-07-05T16:18:26Z</time>
      </trkpt>
      <trkpt lat="46.06488" lon="6.18409">
        <ele>925.323</ele>
        <time>2020-07-05T16:18:28Z</time>
      </trkpt>
      <trkpt lat="46.06478" lon="6.18403">
        <ele>925.299</ele>
        <time>2020-07-05T16:18:33Z</time>
      </trkpt>
      <trkpt lat="46.06474" lon="6.18398">
        <ele>925.282</ele>
        <time>2020-07-05T16:18:35Z</time>
      </trkpt>
      <trkpt lat="46.06468" lon="6.18395">
        <ele>925.216</ele>
        <time>2020-07-05T16:18:37Z</time>
      </trkpt>
      <trkpt lat="46.06463" lon="6.18396">
        <ele>925.387</ele>
        <time>2020-07-05T16:18:39Z</time>
      </trkpt>
      <trkpt lat="46.06457" lon="6.18393">
        <ele>925.627</ele>
        <time>2020-07-05T16:18:41Z</time>
      </trkpt>
      <trkpt lat="46.06453" lon="6.18388">
        <ele>925.868</ele>
        <time>2020-07-05T16:18:42Z</time>
      </trkpt>
      <trkpt lat="46.06449" lon="6.18385">
        <ele>926.014</ele>
        <time>2020-07-05T16:18:43Z</time>
      </trkpt>
      <trkpt lat="46.06442" lon="6.18381">
        <ele>926.108</ele>
        <time>2020-07-05T16:18:44Z</time>
      </trkpt>
      <trkpt lat="46.06437" lon="6.18376">
        <ele>926.287</ele>
        <time>2020-07-05T16:18:45Z</time>
      </trkpt>
      <trkpt lat="46.06432" lon="6.18374">
        <ele>926.574</ele>
        <time>2020-07-05T16:18:53Z</time>
      </trkpt>
      <trkpt lat="46.06426" lon="6.18369">
        <ele>926.424</ele>
        <time>2020-07-05T16:18:57Z</time>
      </trkpt>
      <trkpt lat="46.0642" lon="6.18364">
        <ele>926.536</ele>
        <time>2020-07-05T16:18:59Z</time>
      </trkpt>
      <trkpt lat="46.06415" lon="6.18361">
        <ele>926.752</ele>
        <time>2020-07-05T16:19:02Z</time>
      </trkpt>
      <trkpt lat="46.0641" lon="6.18358">
        <ele>926.775</ele>
        <time>2020-07-05T16:19:04Z</time>
      </trkpt>
      <trkpt lat="46.06406" lon="6.18354">
        <ele>926.779</ele>
        <time>2020-07-05T16:19:06Z</time>
      </trkpt>
      <trkpt lat="46.06402" lon="6.18353">
        <ele>926.74</ele>
        <time>2020-07-05T16:19:07Z</time>
      </trkpt>
      <trkpt lat="46.06393" lon="6.1835">
        <ele>926.785</ele>
        <time>2020-07-05T16:19:09Z</time>
      </trkpt>
      <trkpt lat="46.06389" lon="6.18346">
        <ele>926.789</ele>
        <time>2020-07-05T16:19:10Z</time>
      </trkpt>
      <trkpt lat="46.06385" lon="6.18342">
        <ele>926.717</ele>
        <time>2020-07-05T16:19:11Z</time>
      </trkpt>
      <trkpt lat="46.0638" lon="6.18339">
        <ele>926.808</ele>
        <time>2020-07-05T16:19:12Z</time>
      </trkpt>
      <trkpt lat="46.06376" lon="6.18335">
        <ele>926.953</ele>
        <time>2020-07-05T16:19:13Z</time>
      </trkpt>
      <trkpt lat="46.06369" lon="6.18335">
        <ele>927.28</ele>
        <time>2020-07-05T16:19:16Z</time>
      </trkpt>
      <trkpt lat="46.06363" lon="6.18334">
        <ele>927.39</ele>
        <time>2020-07-05T16:19:18Z</time>
      </trkpt>
      <trkpt lat="46.06359" lon="6.18332">
        <ele>927.432</ele>
        <time>2020-07-05T16:19:19Z</time>
      </trkpt>
      <trkpt lat="46.06351" lon="6.18331">
        <ele>927.618</ele>
        <time>2020-07-05T16:19:21Z</time>
      </trkpt>
      <trkpt lat="46.06343" lon="6.18328">
        <ele>927.941</ele>
        <time>2020-07-05T16:19:23Z</time>
      </trkpt>
      <trkpt lat="46.06335" lon="6.18334">
        <ele>928.095</ele>
        <time>2020-07-05T16:19:25Z</time>
      </trkpt>
      <trkpt lat="46.06329" lon="6.1834">
        <ele>928.056</ele>
        <time>2020-07-05T16:19:26Z</time>
      </trkpt>
      <trkpt lat="46.06324" lon="6.18341">
        <ele>927.922</ele>
        <time>2020-07-05T16:19:27Z</time>
      </trkpt>
      <trkpt lat="46.06319" lon="6.1834">
        <ele>927.762</ele>
        <time>2020-07-05T16:19:28Z</time>
      </trkpt>
      <trkpt lat="46.06312" lon="6.18349">
        <ele>927.308</ele>
        <time>2020-07-05T16:19:30Z</time>
      </trkpt>
      <trkpt lat="46.06308" lon="6.18355">
        <ele>927.008</ele>
        <time>2020-07-05T16:19:31Z</time>
      </trkpt>
      <trkpt lat="46.06303" lon="6.1836">
        <ele>926.827</ele>
        <time>2020-07-05T16:19:32Z</time>
      </trkpt>
      <trkpt lat="46.06298" lon="6.18363">
        <ele>926.544</ele>
        <time>2020-07-05T16:19:33Z</time>
      </trkpt>
      <trkpt lat="46.06294" lon="6.18369">
        <ele>926.244</ele>
        <time>2020-07-05T16:19:34Z</time>
      </trkpt>
      <trkpt lat="46.06287" lon="6.18373">
        <ele>925.396</ele>
        <time>2020-07-05T16:19:36Z</time>
      </trkpt>
      <trkpt lat="46.06282" lon="6.18371">
        <ele>924.252</ele>
        <time>2020-07-05T16:19:38Z</time>
      </trkpt>
      <trkpt lat="46.06276" lon="6.18367">
        <ele>923.075</ele>
        <time>2020-07-05T16:19:40Z</time>
      </trkpt>
      <trkpt lat="46.06271" lon="6.18361">
        <ele>921.929</ele>
        <time>2020-07-05T16:19:42Z</time>
      </trkpt>
      <trkpt lat="46.06268" lon="6.18354">
        <ele>921.13</ele>
        <time>2020-07-05T16:19:44Z</time>
      </trkpt>
      <trkpt lat="46.06266" lon="6.18348">
        <ele>920.829</ele>
        <time>2020-07-05T16:19:45Z</time>
      </trkpt>
      <trkpt lat="46.06267" lon="6.1834">
        <ele>920</ele>
        <time>2020-07-05T16:19:47Z</time>
      </trkpt>
      <trkpt lat="46.0627" lon="6.18327">
        <ele>918.82</ele>
        <time>2020-07-05T16:19:49Z</time>
      </trkpt>
      <trkpt lat="46.06268" lon="6.18318">
        <ele>917.408</ele>
        <time>2020-07-05T16:19:51Z</time>
      </trkpt>
      <trkpt lat="46.06256" lon="6.18313">
        <ele>916.227</ele>
        <time>2020-07-05T16:19:53Z</time>
      </trkpt>
      <trkpt lat="46.06247" lon="6.18307">
        <ele>915.684</ele>
        <time>2020-07-05T16:19:54Z</time>
      </trkpt>
      <trkpt lat="46.06237" lon="6.18302">
        <ele>914.954</ele>
        <time>2020-07-05T16:19:55Z</time>
      </trkpt>
      <trkpt lat="46.06231" lon="6.18296">
        <ele>914.346</ele>
        <time>2020-07-05T16:19:56Z</time>
      </trkpt>
      <trkpt lat="46.06223" lon="6.18292">
        <ele>913.662</ele>
        <time>2020-07-05T16:19:57Z</time>
      </trkpt>
      <trkpt lat="46.06216" lon="6.18287">
        <ele>913.045</ele>
        <time>2020-07-05T16:19:58Z</time>
      </trkpt>
      <trkpt lat="46.0621" lon="6.18282">
        <ele>912.519</ele>
        <time>2020-07-05T16:19:59Z</time>
      </trkpt>
      <trkpt lat="46.06204" lon="6.18278">
        <ele>912.28</ele>
        <time>2020-07-05T16:20:00Z</time>
      </trkpt>
      <trkpt lat="46.06195" lon="6.18276">
        <ele>911.724</ele>
        <time>2020-07-05T16:20:02Z</time>
      </trkpt>
      <trkpt lat="46.06192" lon="6.18281">
        <ele>911.204</ele>
        <time>2020-07-05T16:20:05Z</time>
      </trkpt>
      <trkpt lat="46.06188" lon="6.18288">
        <ele>911.014</ele>
        <time>2020-07-05T16:20:11Z</time>
      </trkpt>
      <trkpt lat="46.06182" lon="6.18295">
        <ele>911.008</ele>
        <time>2020-07-05T16:20:13Z</time>
      </trkpt>
      <trkpt lat="46.06178" lon="6.18296">
        <ele>911.067</ele>
        <time>2020-07-05T16:20:14Z</time>
      </trkpt>
      <trkpt lat="46.06173" lon="6.18302">
        <ele>911.044</ele>
        <time>2020-07-05T16:20:16Z</time>
      </trkpt>
      <trkpt lat="46.06168" lon="6.18309">
        <ele>911.014</ele>
        <time>2020-07-05T16:20:18Z</time>
      </trkpt>
      <trkpt lat="46.06163" lon="6.18313">
        <ele>911.166</ele>
        <time>2020-07-05T16:20:19Z</time>
      </trkpt>
      <trkpt lat="46.06157" lon="6.18317">
        <ele>911.142</ele>
        <time>2020-07-05T16:20:20Z</time>
      </trkpt>
      <trkpt lat="46.06152" lon="6.18325">
        <ele>911.165</ele>
        <time>2020-07-05T16:20:21Z</time>
      </trkpt>
      <trkpt lat="46.06144" lon="6.18334">
        <ele>911.049</ele>
        <time>2020-07-05T16:20:23Z</time>
      </trkpt>
      <trkpt lat="46.0614" lon="6.1834">
        <ele>910.85</ele>
        <time>2020-07-05T16:20:24Z</time>
      </trkpt>
      <trkpt lat="46.06135" lon="6.18346">
        <ele>910.695</ele>
        <time>2020-07-05T16:20:25Z</time>
      </trkpt>
      <trkpt lat="46.06131" lon="6.18354">
        <ele>910.449</ele>
        <time>2020-07-05T16:20:26Z</time>
      </trkpt>
      <trkpt lat="46.06127" lon="6.18363">
        <ele>910.223</ele>
        <time>2020-07-05T16:20:27Z</time>
      </trkpt>
      <trkpt lat="46.06124" lon="6.18369">
        <ele>910.008</ele>
        <time>2020-07-05T16:20:28Z</time>
      </trkpt>
      <trkpt lat="46.06121" lon="6.18376">
        <ele>909.654</ele>
        <time>2020-07-05T16:20:29Z</time>
      </trkpt>
      <trkpt lat="46.0612" lon="6.18385">
        <ele>909.141</ele>
        <time>2020-07-05T16:20:30Z</time>
      </trkpt>
      <trkpt lat="46.06118" lon="6.18392">
        <ele>908.511</ele>
        <time>2020-07-05T16:20:31Z</time>
      </trkpt>
      <trkpt lat="46.06116" lon="6.18398">
        <ele>907.913</ele>
        <time>2020-07-05T16:20:32Z</time>
      </trkpt>
      <trkpt lat="46.06111" lon="6.18403">
        <ele>906.819</ele>
        <time>2020-07-05T16:20:34Z</time>
      </trkpt>
      <trkpt lat="46.06107" lon="6.18407">
        <ele>906.432</ele>
        <time>2020-07-05T16:20:35Z</time>
      </trkpt>
      <trkpt lat="46.061" lon="6.18409">
        <ele>905.646</ele>
        <time>2020-07-05T16:20:37Z</time>
      </trkpt>
      <trkpt lat="46.06094" lon="6.18405">
        <ele>905.297</ele>
        <time>2020-07-05T16:20:39Z</time>
      </trkpt>
      <trkpt lat="46.06089" lon="6.18399">
        <ele>905.267</ele>
        <time>2020-07-05T16:20:40Z</time>
      </trkpt>
      <trkpt lat="46.06084" lon="6.18392">
        <ele>905.381</ele>
        <time>2020-07-05T16:20:41Z</time>
      </trkpt>
      <trkpt lat="46.06081" lon="6.18386">
        <ele>905.519</ele>
        <time>2020-07-05T16:20:42Z</time>
      </trkpt>
      <trkpt lat="46.06077" lon="6.18376">
        <ele>906.108</ele>
        <time>2020-07-05T16:20:44Z</time>
      </trkpt>
      <trkpt lat="46.06073" lon="6.18365">
        <ele>906.831</ele>
        <time>2020-07-05T16:20:46Z</time>
      </trkpt>
      <trkpt lat="46.0607" lon="6.18359">
        <ele>907.338</ele>
        <time>2020-07-05T16:20:47Z</time>
      </trkpt>
      <trkpt lat="46.06063" lon="6.18357">
        <ele>907.948</ele>
        <time>2020-07-05T16:20:49Z</time>
      </trkpt>
      <trkpt lat="46.06058" lon="6.18345">
        <ele>908.04</ele>
        <time>2020-07-05T16:20:51Z</time>
      </trkpt>
      <trkpt lat="46.06054" lon="6.18335">
        <ele>907.956</ele>
        <time>2020-07-05T16:20:52Z</time>
      </trkpt>
      <trkpt lat="46.06048" lon="6.18324">
        <ele>907.769</ele>
        <time>2020-07-05T16:20:53Z</time>
      </trkpt>
      <trkpt lat="46.06045" lon="6.18316">
        <ele>907.593</ele>
        <time>2020-07-05T16:20:54Z</time>
      </trkpt>
      <trkpt lat="46.0604" lon="6.18307">
        <ele>906.674</ele>
        <time>2020-07-05T16:20:56Z</time>
      </trkpt>
      <trkpt lat="46.06032" lon="6.18301">
        <ele>905.224</ele>
        <time>2020-07-05T16:20:58Z</time>
      </trkpt>
      <trkpt lat="46.06028" lon="6.18297">
        <ele>904.404</ele>
        <time>2020-07-05T16:20:59Z</time>
      </trkpt>
      <trkpt lat="46.06021" lon="6.18287">
        <ele>902.814</ele>
        <time>2020-07-05T16:21:01Z</time>
      </trkpt>
      <trkpt lat="46.06018" lon="6.1828">
        <ele>902.008</ele>
        <time>2020-07-05T16:21:02Z</time>
      </trkpt>
      <trkpt lat="46.06013" lon="6.18275">
        <ele>901.377</ele>
        <time>2020-07-05T16:21:03Z</time>
      </trkpt>
      <trkpt lat="46.06008" lon="6.18267">
        <ele>900.654</ele>
        <time>2020-07-05T16:21:04Z</time>
      </trkpt>
      <trkpt lat="46.06005" lon="6.18256">
        <ele>899.334</ele>
        <time>2020-07-05T16:21:06Z</time>
      </trkpt>
      <trkpt lat="46.06004" lon="6.18247">
        <ele>898.856</ele>
        <time>2020-07-05T16:21:07Z</time>
      </trkpt>
      <trkpt lat="46.06002" lon="6.18241">
        <ele>898.112</ele>
        <time>2020-07-05T16:21:08Z</time>
      </trkpt>
      <trkpt lat="46.05998" lon="6.18232">
        <ele>896.765</ele>
        <time>2020-07-05T16:21:10Z</time>
      </trkpt>
      <trkpt lat="46.05996" lon="6.18226">
        <ele>895.929</ele>
        <time>2020-07-05T16:21:11Z</time>
      </trkpt>
      <trkpt lat="46.0599" lon="6.18218">
        <ele>894.46</ele>
        <time>2020-07-05T16:21:13Z</time>
      </trkpt>
      <trkpt lat="46.05984" lon="6.18214">
        <ele>892.741</ele>
        <time>2020-07-05T16:21:15Z</time>
      </trkpt>
      <trkpt lat="46.05978" lon="6.18207">
        <ele>891.181</ele>
        <time>2020-07-05T16:21:17Z</time>
      </trkpt>
      <trkpt lat="46.05974" lon="6.182">
        <ele>889.809</ele>
        <time>2020-07-05T16:21:19Z</time>
      </trkpt>
      <trkpt lat="46.05968" lon="6.18195">
        <ele>888.808</ele>
        <time>2020-07-05T16:21:21Z</time>
      </trkpt>
      <trkpt lat="46.05961" lon="6.18191">
        <ele>887.779</ele>
        <time>2020-07-05T16:21:23Z</time>
      </trkpt>
      <trkpt lat="46.05957" lon="6.18188">
        <ele>887.166</ele>
        <time>2020-07-05T16:21:24Z</time>
      </trkpt>
      <trkpt lat="46.05951" lon="6.18183">
        <ele>885.676</ele>
        <time>2020-07-05T16:21:26Z</time>
      </trkpt>
      <trkpt lat="46.05948" lon="6.18178">
        <ele>884.978</ele>
        <time>2020-07-05T16:21:27Z</time>
      </trkpt>
      <trkpt lat="46.05943" lon="6.18169">
        <ele>883.464</ele>
        <time>2020-07-05T16:21:29Z</time>
      </trkpt>
      <trkpt lat="46.05937" lon="6.18163">
        <ele>882.357</ele>
        <time>2020-07-05T16:21:31Z</time>
      </trkpt>
      <trkpt lat="46.05934" lon="6.18159">
        <ele>881.261</ele>
        <time>2020-07-05T16:21:33Z</time>
      </trkpt>
      <trkpt lat="46.05929" lon="6.18153">
        <ele>880.422</ele>
        <time>2020-07-05T16:21:35Z</time>
      </trkpt>
      <trkpt lat="46.05924" lon="6.1815">
        <ele>879.568</ele>
        <time>2020-07-05T16:21:37Z</time>
      </trkpt>
      <trkpt lat="46.05919" lon="6.18147">
        <ele>878.142</ele>
        <time>2020-07-05T16:21:40Z</time>
      </trkpt>
      <trkpt lat="46.05915" lon="6.18143">
        <ele>876.926</ele>
        <time>2020-07-05T16:21:43Z</time>
      </trkpt>
      <trkpt lat="46.0591" lon="6.18139">
        <ele>875.908</ele>
        <time>2020-07-05T16:21:46Z</time>
      </trkpt>
      <trkpt lat="46.05906" lon="6.18134">
        <ele>874.881</ele>
        <time>2020-07-05T16:21:49Z</time>
      </trkpt>
      <trkpt lat="46.05901" lon="6.1813">
        <ele>873.468</ele>
        <time>2020-07-05T16:21:52Z</time>
      </trkpt>
      <trkpt lat="46.05895" lon="6.18126">
        <ele>871.548</ele>
        <time>2020-07-05T16:21:59Z</time>
      </trkpt>
      <trkpt lat="46.05889" lon="6.18122">
        <ele>871.16</ele>
        <time>2020-07-05T16:22:01Z</time>
      </trkpt>
      <trkpt lat="46.05884" lon="6.18119">
        <ele>869.726</ele>
        <time>2020-07-05T16:22:04Z</time>
      </trkpt>
      <trkpt lat="46.0588" lon="6.18115">
        <ele>867.849</ele>
        <time>2020-07-05T16:22:12Z</time>
      </trkpt>
      <trkpt lat="46.05873" lon="6.18106">
        <ele>867.383</ele>
        <time>2020-07-05T16:22:14Z</time>
      </trkpt>
      <trkpt lat="46.0587" lon="6.181">
        <ele>866.854</ele>
        <time>2020-07-05T16:22:15Z</time>
      </trkpt>
      <trkpt lat="46.05865" lon="6.18093">
        <ele>865.435</ele>
        <time>2020-07-05T16:22:17Z</time>
      </trkpt>
      <trkpt lat="46.05862" lon="6.18088">
        <ele>863.786</ele>
        <time>2020-07-05T16:22:19Z</time>
      </trkpt>
      <trkpt lat="46.05858" lon="6.1808">
        <ele>861.514</ele>
        <time>2020-07-05T16:22:22Z</time>
      </trkpt>
      <trkpt lat="46.05855" lon="6.1807">
        <ele>860.408</ele>
        <time>2020-07-05T16:22:24Z</time>
      </trkpt>
      <trkpt lat="46.05852" lon="6.18062">
        <ele>859.658</ele>
        <time>2020-07-05T16:22:26Z</time>
      </trkpt>
      <trkpt lat="46.05848" lon="6.18053">
        <ele>858.625</ele>
        <time>2020-07-05T16:22:28Z</time>
      </trkpt>
      <trkpt lat="46.05846" lon="6.18043">
        <ele>857.645</ele>
        <time>2020-07-05T16:22:30Z</time>
      </trkpt>
      <trkpt lat="46.05845" lon="6.18035">
        <ele>857.187</ele>
        <time>2020-07-05T16:22:31Z</time>
      </trkpt>
      <trkpt lat="46.05845" lon="6.18028">
        <ele>856.633</ele>
        <time>2020-07-05T16:22:32Z</time>
      </trkpt>
      <trkpt lat="46.05844" lon="6.18021">
        <ele>856.086</ele>
        <time>2020-07-05T16:22:33Z</time>
      </trkpt>
      <trkpt lat="46.05845" lon="6.18014">
        <ele>855.31</ele>
        <time>2020-07-05T16:22:34Z</time>
      </trkpt>
      <trkpt lat="46.05844" lon="6.18001">
        <ele>854.031</ele>
        <time>2020-07-05T16:22:36Z</time>
      </trkpt>
      <trkpt lat="46.05843" lon="6.17993">
        <ele>852.968</ele>
        <time>2020-07-05T16:22:38Z</time>
      </trkpt>
      <trkpt lat="46.05842" lon="6.17986">
        <ele>851.642</ele>
        <time>2020-07-05T16:22:41Z</time>
      </trkpt>
      <trkpt lat="46.05841" lon="6.17977">
        <ele>850.926</ele>
        <time>2020-07-05T16:22:43Z</time>
      </trkpt>
      <trkpt lat="46.0584" lon="6.17968">
        <ele>849.808</ele>
        <time>2020-07-05T16:22:46Z</time>
      </trkpt>
      <trkpt lat="46.05837" lon="6.17958">
        <ele>847.981</ele>
        <time>2020-07-05T16:22:50Z</time>
      </trkpt>
      <trkpt lat="46.05834" lon="6.17952">
        <ele>846.768</ele>
        <time>2020-07-05T16:22:53Z</time>
      </trkpt>
      <trkpt lat="46.05828" lon="6.17953">
        <ele>846.118</ele>
        <time>2020-07-05T16:22:55Z</time>
      </trkpt>
      <trkpt lat="46.05826" lon="6.17959">
        <ele>845.04</ele>
        <time>2020-07-05T16:23:01Z</time>
      </trkpt>
      <trkpt lat="46.05822" lon="6.17966">
        <ele>845.036</ele>
        <time>2020-07-05T16:23:03Z</time>
      </trkpt>
      <trkpt lat="46.0582" lon="6.17973">
        <ele>845.039</ele>
        <time>2020-07-05T16:23:04Z</time>
      </trkpt>
      <trkpt lat="46.05819" lon="6.1798">
        <ele>845.083</ele>
        <time>2020-07-05T16:23:05Z</time>
      </trkpt>
      <trkpt lat="46.05818" lon="6.17989">
        <ele>845.074</ele>
        <time>2020-07-05T16:23:06Z</time>
      </trkpt>
      <trkpt lat="46.05817" lon="6.17999">
        <ele>844.962</ele>
        <time>2020-07-05T16:23:07Z</time>
      </trkpt>
      <trkpt lat="46.05816" lon="6.18009">
        <ele>844.883</ele>
        <time>2020-07-05T16:23:08Z</time>
      </trkpt>
      <trkpt lat="46.05817" lon="6.1802">
        <ele>844.611</ele>
        <time>2020-07-05T16:23:09Z</time>
      </trkpt>
      <trkpt lat="46.05819" lon="6.18031">
        <ele>844.308</ele>
        <time>2020-07-05T16:23:10Z</time>
      </trkpt>
      <trkpt lat="46.05821" lon="6.1804">
        <ele>844.011</ele>
        <time>2020-07-05T16:23:11Z</time>
      </trkpt>
      <trkpt lat="46.05821" lon="6.18051">
        <ele>843.768</ele>
        <time>2020-07-05T16:23:12Z</time>
      </trkpt>
      <trkpt lat="46.05825" lon="6.1806">
        <ele>843.468</ele>
        <time>2020-07-05T16:23:13Z</time>
      </trkpt>
      <trkpt lat="46.05828" lon="6.18073">
        <ele>843.26</ele>
        <time>2020-07-05T16:23:14Z</time>
      </trkpt>
      <trkpt lat="46.05829" lon="6.18081">
        <ele>843.226</ele>
        <time>2020-07-05T16:23:15Z</time>
      </trkpt>
      <trkpt lat="46.05828" lon="6.18088">
        <ele>843.239</ele>
        <time>2020-07-05T16:23:16Z</time>
      </trkpt>
      <trkpt lat="46.05827" lon="6.18095">
        <ele>843.363</ele>
        <time>2020-07-05T16:23:17Z</time>
      </trkpt>
      <trkpt lat="46.05821" lon="6.18099">
        <ele>843.364</ele>
        <time>2020-07-05T16:23:18Z</time>
      </trkpt>
      <trkpt lat="46.05815" lon="6.181">
        <ele>843.483</ele>
        <time>2020-07-05T16:23:19Z</time>
      </trkpt>
      <trkpt lat="46.05808" lon="6.18097">
        <ele>843.625</ele>
        <time>2020-07-05T16:23:20Z</time>
      </trkpt>
      <trkpt lat="46.058" lon="6.18091">
        <ele>843.817</ele>
        <time>2020-07-05T16:23:21Z</time>
      </trkpt>
      <trkpt lat="46.05793" lon="6.18082">
        <ele>844.208</ele>
        <time>2020-07-05T16:23:22Z</time>
      </trkpt>
      <trkpt lat="46.05785" lon="6.18072">
        <ele>844.713</ele>
        <time>2020-07-05T16:23:23Z</time>
      </trkpt>
      <trkpt lat="46.05779" lon="6.18062">
        <ele>845.14</ele>
        <time>2020-07-05T16:23:24Z</time>
      </trkpt>
      <trkpt lat="46.05774" lon="6.18053">
        <ele>845.64</ele>
        <time>2020-07-05T16:23:25Z</time>
      </trkpt>
      <trkpt lat="46.05769" lon="6.18046">
        <ele>846.162</ele>
        <time>2020-07-05T16:23:26Z</time>
      </trkpt>
      <trkpt lat="46.05764" lon="6.18041">
        <ele>846.438</ele>
        <time>2020-07-05T16:23:27Z</time>
      </trkpt>
      <trkpt lat="46.05758" lon="6.18034">
        <ele>846.841</ele>
        <time>2020-07-05T16:23:29Z</time>
      </trkpt>
      <trkpt lat="46.05753" lon="6.18037">
        <ele>846.885</ele>
        <time>2020-07-05T16:23:31Z</time>
      </trkpt>
      <trkpt lat="46.05752" lon="6.18046">
        <ele>846.616</ele>
        <time>2020-07-05T16:23:33Z</time>
      </trkpt>
      <trkpt lat="46.05757" lon="6.18049">
        <ele>846.898</ele>
        <time>2020-07-05T16:23:38Z</time>
      </trkpt>
      <trkpt lat="46.05761" lon="6.18055">
        <ele>846.915</ele>
        <time>2020-07-05T16:23:39Z</time>
      </trkpt>
      <trkpt lat="46.05766" lon="6.18063">
        <ele>847.226</ele>
        <time>2020-07-05T16:23:40Z</time>
      </trkpt>
      <trkpt lat="46.0577" lon="6.18073">
        <ele>847.608</ele>
        <time>2020-07-05T16:23:41Z</time>
      </trkpt>
      <trkpt lat="46.05777" lon="6.18087">
        <ele>848.384</ele>
        <time>2020-07-05T16:23:42Z</time>
      </trkpt>
      <trkpt lat="46.05787" lon="6.1811">
        <ele>849.961</ele>
        <time>2020-07-05T16:23:43Z</time>
      </trkpt>
      <trkpt lat="46.05794" lon="6.18133">
        <ele>851.771</ele>
        <time>2020-07-05T16:23:44Z</time>
      </trkpt>
      <trkpt lat="46.058" lon="6.18153">
        <ele>853.973</ele>
        <time>2020-07-05T16:23:45Z</time>
      </trkpt>
      <trkpt lat="46.05805" lon="6.18169">
        <ele>856.239</ele>
        <time>2020-07-05T16:23:46Z</time>
      </trkpt>
      <trkpt lat="46.05812" lon="6.18189">
        <ele>858.712</ele>
        <time>2020-07-05T16:23:47Z</time>
      </trkpt>
      <trkpt lat="46.05818" lon="6.18202">
        <ele>861.056</ele>
        <time>2020-07-05T16:23:48Z</time>
      </trkpt>
      <trkpt lat="46.05824" lon="6.18212">
        <ele>863.267</ele>
        <time>2020-07-05T16:23:49Z</time>
      </trkpt>
      <trkpt lat="46.0583" lon="6.18225">
        <ele>865.451</ele>
        <time>2020-07-05T16:23:50Z</time>
      </trkpt>
      <trkpt lat="46.05837" lon="6.18243">
        <ele>867.801</ele>
        <time>2020-07-05T16:23:51Z</time>
      </trkpt>
      <trkpt lat="46.05842" lon="6.18257">
        <ele>870.111</ele>
        <time>2020-07-05T16:23:52Z</time>
      </trkpt>
      <trkpt lat="46.05847" lon="6.18277">
        <ele>872.408</ele>
        <time>2020-07-05T16:23:53Z</time>
      </trkpt>
      <trkpt lat="46.05853" lon="6.18289">
        <ele>874.71</ele>
        <time>2020-07-05T16:23:54Z</time>
      </trkpt>
      <trkpt lat="46.05859" lon="6.18299">
        <ele>876.757</ele>
        <time>2020-07-05T16:23:55Z</time>
      </trkpt>
      <trkpt lat="46.05863" lon="6.1831">
        <ele>878.757</ele>
        <time>2020-07-05T16:23:56Z</time>
      </trkpt>
      <trkpt lat="46.05866" lon="6.18326">
        <ele>880.419</ele>
        <time>2020-07-05T16:23:57Z</time>
      </trkpt>
      <trkpt lat="46.05868" lon="6.18342">
        <ele>881.885</ele>
        <time>2020-07-05T16:23:58Z</time>
      </trkpt>
      <trkpt lat="46.05872" lon="6.18352">
        <ele>882.928</ele>
        <time>2020-07-05T16:23:59Z</time>
      </trkpt>
      <trkpt lat="46.05876" lon="6.18363">
        <ele>883.932</ele>
        <time>2020-07-05T16:24:00Z</time>
      </trkpt>
      <trkpt lat="46.05882" lon="6.18372">
        <ele>884.523</ele>
        <time>2020-07-05T16:24:01Z</time>
      </trkpt>
      <trkpt lat="46.05892" lon="6.18379">
        <ele>885.371</ele>
        <time>2020-07-05T16:24:02Z</time>
      </trkpt>
      <trkpt lat="46.05902" lon="6.18386">
        <ele>886.041</ele>
        <time>2020-07-05T16:24:03Z</time>
      </trkpt>
      <trkpt lat="46.0591" lon="6.18389">
        <ele>886.815</ele>
        <time>2020-07-05T16:24:04Z</time>
      </trkpt>
      <trkpt lat="46.0592" lon="6.18392">
        <ele>887.508</ele>
        <time>2020-07-05T16:24:05Z</time>
      </trkpt>
      <trkpt lat="46.05933" lon="6.18396">
        <ele>888.282</ele>
        <time>2020-07-05T16:24:06Z</time>
      </trkpt>
      <trkpt lat="46.05947" lon="6.18402">
        <ele>888.629</ele>
        <time>2020-07-05T16:24:07Z</time>
      </trkpt>
      <trkpt lat="46.05959" lon="6.1841">
        <ele>888.979</ele>
        <time>2020-07-05T16:24:08Z</time>
      </trkpt>
      <trkpt lat="46.0597" lon="6.18419">
        <ele>889.251</ele>
        <time>2020-07-05T16:24:09Z</time>
      </trkpt>
      <trkpt lat="46.05979" lon="6.18427">
        <ele>889.647</ele>
        <time>2020-07-05T16:24:10Z</time>
      </trkpt>
      <trkpt lat="46.05989" lon="6.18434">
        <ele>890.23</ele>
        <time>2020-07-05T16:24:11Z</time>
      </trkpt>
      <trkpt lat="46.06" lon="6.18445">
        <ele>890.634</ele>
        <time>2020-07-05T16:24:12Z</time>
      </trkpt>
      <trkpt lat="46.06012" lon="6.18458">
        <ele>891.565</ele>
        <time>2020-07-05T16:24:13Z</time>
      </trkpt>
      <trkpt lat="46.06022" lon="6.1847">
        <ele>892.489</ele>
        <time>2020-07-05T16:24:14Z</time>
      </trkpt>
      <trkpt lat="46.06029" lon="6.18481">
        <ele>893.206</ele>
        <time>2020-07-05T16:24:15Z</time>
      </trkpt>
      <trkpt lat="46.06037" lon="6.18489">
        <ele>894.126</ele>
        <time>2020-07-05T16:24:16Z</time>
      </trkpt>
      <trkpt lat="46.06045" lon="6.18499">
        <ele>895.008</ele>
        <time>2020-07-05T16:24:17Z</time>
      </trkpt>
      <trkpt lat="46.06052" lon="6.18508">
        <ele>895.873</ele>
        <time>2020-07-05T16:24:18Z</time>
      </trkpt>
      <trkpt lat="46.06059" lon="6.18515">
        <ele>896.51</ele>
        <time>2020-07-05T16:24:19Z</time>
      </trkpt>
      <trkpt lat="46.06068" lon="6.1852">
        <ele>896.97</ele>
        <time>2020-07-05T16:24:20Z</time>
      </trkpt>
      <trkpt lat="46.06074" lon="6.18526">
        <ele>897.282</ele>
        <time>2020-07-05T16:24:21Z</time>
      </trkpt>
      <trkpt lat="46.06081" lon="6.1853">
        <ele>897.638</ele>
        <time>2020-07-05T16:24:22Z</time>
      </trkpt>
      <trkpt lat="46.0609" lon="6.18535">
        <ele>897.831</ele>
        <time>2020-07-05T16:24:23Z</time>
      </trkpt>
      <trkpt lat="46.061" lon="6.18536">
        <ele>897.925</ele>
        <time>2020-07-05T16:24:24Z</time>
      </trkpt>
      <trkpt lat="46.06107" lon="6.18537">
        <ele>898.266</ele>
        <time>2020-07-05T16:24:25Z</time>
      </trkpt>
      <trkpt lat="46.06114" lon="6.18537">
        <ele>898.633</ele>
        <time>2020-07-05T16:24:26Z</time>
      </trkpt>
      <trkpt lat="46.06121" lon="6.18537">
        <ele>898.923</ele>
        <time>2020-07-05T16:24:27Z</time>
      </trkpt>
      <trkpt lat="46.0613" lon="6.18536">
        <ele>899.415</ele>
        <time>2020-07-05T16:24:28Z</time>
      </trkpt>
      <trkpt lat="46.06141" lon="6.18532">
        <ele>900.108</ele>
        <time>2020-07-05T16:24:29Z</time>
      </trkpt>
      <trkpt lat="46.06151" lon="6.1853">
        <ele>900.868</ele>
        <time>2020-07-05T16:24:30Z</time>
      </trkpt>
      <trkpt lat="46.0616" lon="6.1853">
        <ele>901.485</ele>
        <time>2020-07-05T16:24:31Z</time>
      </trkpt>
      <trkpt lat="46.06167" lon="6.18532">
        <ele>902.375</ele>
        <time>2020-07-05T16:24:32Z</time>
      </trkpt>
      <trkpt lat="46.06175" lon="6.18535">
        <ele>903.267</ele>
        <time>2020-07-05T16:24:33Z</time>
      </trkpt>
      <trkpt lat="46.06183" lon="6.18539">
        <ele>903.993</ele>
        <time>2020-07-05T16:24:34Z</time>
      </trkpt>
      <trkpt lat="46.06191" lon="6.18546">
        <ele>904.766</ele>
        <time>2020-07-05T16:24:35Z</time>
      </trkpt>
      <trkpt lat="46.06201" lon="6.18554">
        <ele>905.62</ele>
        <time>2020-07-05T16:24:36Z</time>
      </trkpt>
      <trkpt lat="46.06209" lon="6.18562">
        <ele>906.541</ele>
        <time>2020-07-05T16:24:37Z</time>
      </trkpt>
      <trkpt lat="46.06219" lon="6.1857">
        <ele>907.252</ele>
        <time>2020-07-05T16:24:38Z</time>
      </trkpt>
      <trkpt lat="46.06227" lon="6.18575">
        <ele>907.953</ele>
        <time>2020-07-05T16:24:39Z</time>
      </trkpt>
      <trkpt lat="46.06236" lon="6.18584">
        <ele>908.508</ele>
        <time>2020-07-05T16:24:40Z</time>
      </trkpt>
      <trkpt lat="46.06242" lon="6.18598">
        <ele>908.908</ele>
        <time>2020-07-05T16:24:41Z</time>
      </trkpt>
      <trkpt lat="46.06245" lon="6.18615">
        <ele>909.32</ele>
        <time>2020-07-05T16:24:42Z</time>
      </trkpt>
      <trkpt lat="46.06249" lon="6.18633">
        <ele>909.737</ele>
        <time>2020-07-05T16:24:43Z</time>
      </trkpt>
      <trkpt lat="46.06253" lon="6.18649">
        <ele>910.567</ele>
        <time>2020-07-05T16:24:44Z</time>
      </trkpt>
      <trkpt lat="46.06254" lon="6.18665">
        <ele>911.259</ele>
        <time>2020-07-05T16:24:45Z</time>
      </trkpt>
      <trkpt lat="46.06255" lon="6.18677">
        <ele>912.195</ele>
        <time>2020-07-05T16:24:46Z</time>
      </trkpt>
      <trkpt lat="46.06258" lon="6.18693">
        <ele>913.148</ele>
        <time>2020-07-05T16:24:47Z</time>
      </trkpt>
      <trkpt lat="46.06263" lon="6.18708">
        <ele>914.292</ele>
        <time>2020-07-05T16:24:48Z</time>
      </trkpt>
      <trkpt lat="46.06271" lon="6.18724">
        <ele>915.373</ele>
        <time>2020-07-05T16:24:49Z</time>
      </trkpt>
      <trkpt lat="46.06281" lon="6.18737">
        <ele>916.599</ele>
        <time>2020-07-05T16:24:50Z</time>
      </trkpt>
      <trkpt lat="46.06289" lon="6.18748">
        <ele>917.907</ele>
        <time>2020-07-05T16:24:51Z</time>
      </trkpt>
      <trkpt lat="46.06298" lon="6.18758">
        <ele>919.227</ele>
        <time>2020-07-05T16:24:52Z</time>
      </trkpt>
      <trkpt lat="46.06305" lon="6.18766">
        <ele>920.408</ele>
        <time>2020-07-05T16:24:53Z</time>
      </trkpt>
      <trkpt lat="46.06312" lon="6.18773">
        <ele>921.384</ele>
        <time>2020-07-05T16:24:54Z</time>
      </trkpt>
      <trkpt lat="46.06318" lon="6.18778">
        <ele>922.081</ele>
        <time>2020-07-05T16:24:55Z</time>
      </trkpt>
      <trkpt lat="46.06323" lon="6.18784">
        <ele>922.511</ele>
        <time>2020-07-05T16:24:56Z</time>
      </trkpt>
      <trkpt lat="46.06329" lon="6.18789">
        <ele>922.813</ele>
        <time>2020-07-05T16:24:57Z</time>
      </trkpt>
      <trkpt lat="46.06333" lon="6.18793">
        <ele>923.129</ele>
        <time>2020-07-05T16:24:58Z</time>
      </trkpt>
      <trkpt lat="46.06339" lon="6.18798">
        <ele>923.692</ele>
        <time>2020-07-05T16:25:00Z</time>
      </trkpt>
      <trkpt lat="46.06345" lon="6.18799">
        <ele>923.896</ele>
        <time>2020-07-05T16:25:01Z</time>
      </trkpt>
      <trkpt lat="46.0635" lon="6.18798">
        <ele>924.097</ele>
        <time>2020-07-05T16:25:02Z</time>
      </trkpt>
      <trkpt lat="46.06359" lon="6.188">
        <ele>924.165</ele>
        <time>2020-07-05T16:25:04Z</time>
      </trkpt>
      <trkpt lat="46.06368" lon="6.188">
        <ele>924.068</ele>
        <time>2020-07-05T16:25:06Z</time>
      </trkpt>
      <trkpt lat="46.06374" lon="6.18801">
        <ele>924.014</ele>
        <time>2020-07-05T16:25:07Z</time>
      </trkpt>
      <trkpt lat="46.06382" lon="6.18802">
        <ele>924.008</ele>
        <time>2020-07-05T16:25:09Z</time>
      </trkpt>
      <trkpt lat="46.06391" lon="6.18804">
        <ele>924.081</ele>
        <time>2020-07-05T16:25:11Z</time>
      </trkpt>
      <trkpt lat="46.06396" lon="6.18804">
        <ele>924.078</ele>
        <time>2020-07-05T16:25:12Z</time>
      </trkpt>
      <trkpt lat="46.06404" lon="6.18805">
        <ele>924.068</ele>
        <time>2020-07-05T16:25:13Z</time>
      </trkpt>
      <trkpt lat="46.06414" lon="6.18804">
        <ele>924.19</ele>
        <time>2020-07-05T16:25:14Z</time>
      </trkpt>
      <trkpt lat="46.06423" lon="6.18798">
        <ele>924.256</ele>
        <time>2020-07-05T16:25:15Z</time>
      </trkpt>
      <trkpt lat="46.06429" lon="6.1879">
        <ele>924.569</ele>
        <time>2020-07-05T16:25:16Z</time>
      </trkpt>
      <trkpt lat="46.06435" lon="6.18781">
        <ele>924.933</ele>
        <time>2020-07-05T16:25:17Z</time>
      </trkpt>
      <trkpt lat="46.0644" lon="6.18772">
        <ele>925.344</ele>
        <time>2020-07-05T16:25:18Z</time>
      </trkpt>
      <trkpt lat="46.06447" lon="6.18763">
        <ele>925.625</ele>
        <time>2020-07-05T16:25:19Z</time>
      </trkpt>
      <trkpt lat="46.06455" lon="6.18757">
        <ele>925.926</ele>
        <time>2020-07-05T16:25:20Z</time>
      </trkpt>
      <trkpt lat="46.06462" lon="6.18753">
        <ele>926.008</ele>
        <time>2020-07-05T16:25:21Z</time>
      </trkpt>
      <trkpt lat="46.0647" lon="6.18751">
        <ele>926.108</ele>
        <time>2020-07-05T16:25:22Z</time>
      </trkpt>
      <trkpt lat="46.06479" lon="6.18752">
        <ele>926.257</ele>
        <time>2020-07-05T16:25:23Z</time>
      </trkpt>
      <trkpt lat="46.06489" lon="6.18754">
        <ele>926.344</ele>
        <time>2020-07-05T16:25:24Z</time>
      </trkpt>
      <trkpt lat="46.06498" lon="6.18758">
        <ele>926.424</ele>
        <time>2020-07-05T16:25:25Z</time>
      </trkpt>
      <trkpt lat="46.06507" lon="6.18763">
        <ele>926.696</ele>
        <time>2020-07-05T16:25:26Z</time>
      </trkpt>
      <trkpt lat="46.06515" lon="6.18767">
        <ele>926.882</ele>
        <time>2020-07-05T16:25:27Z</time>
      </trkpt>
      <trkpt lat="46.06522" lon="6.1877">
        <ele>927.015</ele>
        <time>2020-07-05T16:25:28Z</time>
      </trkpt>
      <trkpt lat="46.06529" lon="6.18772">
        <ele>927.239</ele>
        <time>2020-07-05T16:25:29Z</time>
      </trkpt>
      <trkpt lat="46.06537" lon="6.18775">
        <ele>927.42</ele>
        <time>2020-07-05T16:25:30Z</time>
      </trkpt>
      <trkpt lat="46.06544" lon="6.18777">
        <ele>927.717</ele>
        <time>2020-07-05T16:25:31Z</time>
      </trkpt>
      <trkpt lat="46.06552" lon="6.18778">
        <ele>928.087</ele>
        <time>2020-07-05T16:25:32Z</time>
      </trkpt>
      <trkpt lat="46.06559" lon="6.18779">
        <ele>928.415</ele>
        <time>2020-07-05T16:25:33Z</time>
      </trkpt>
      <trkpt lat="46.06567" lon="6.18779">
        <ele>928.808</ele>
        <time>2020-07-05T16:25:34Z</time>
      </trkpt>
      <trkpt lat="46.06578" lon="6.18778">
        <ele>929.296</ele>
        <time>2020-07-05T16:25:35Z</time>
      </trkpt>
      <trkpt lat="46.06588" lon="6.1878">
        <ele>929.633</ele>
        <time>2020-07-05T16:25:36Z</time>
      </trkpt>
      <trkpt lat="46.066" lon="6.18783">
        <ele>930.113</ele>
        <time>2020-07-05T16:25:37Z</time>
      </trkpt>
      <trkpt lat="46.06612" lon="6.18785">
        <ele>930.765</ele>
        <time>2020-07-05T16:25:38Z</time>
      </trkpt>
      <trkpt lat="46.06622" lon="6.1879">
        <ele>931.421</ele>
        <time>2020-07-05T16:25:39Z</time>
      </trkpt>
      <trkpt lat="46.06629" lon="6.18795">
        <ele>932.264</ele>
        <time>2020-07-05T16:25:40Z</time>
      </trkpt>
      <trkpt lat="46.06638" lon="6.188">
        <ele>933.148</ele>
        <time>2020-07-05T16:25:41Z</time>
      </trkpt>
      <trkpt lat="46.06645" lon="6.18805">
        <ele>933.789</ele>
        <time>2020-07-05T16:25:42Z</time>
      </trkpt>
      <trkpt lat="46.06652" lon="6.1881">
        <ele>934.093</ele>
        <time>2020-07-05T16:25:43Z</time>
      </trkpt>
      <trkpt lat="46.06657" lon="6.18814">
        <ele>934.465</ele>
        <time>2020-07-05T16:25:44Z</time>
      </trkpt>
      <trkpt lat="46.06664" lon="6.18818">
        <ele>934.621</ele>
        <time>2020-07-05T16:25:45Z</time>
      </trkpt>
      <trkpt lat="46.0667" lon="6.18822">
        <ele>934.808</ele>
        <time>2020-07-05T16:25:46Z</time>
      </trkpt>
      <trkpt lat="46.06677" lon="6.18827">
        <ele>935.514</ele>
        <time>2020-07-05T16:25:48Z</time>
      </trkpt>
      <trkpt lat="46.06682" lon="6.18828">
        <ele>935.911</ele>
        <time>2020-07-05T16:25:51Z</time>
      </trkpt>
      <trkpt lat="46.06688" lon="6.18831">
        <ele>936.091</ele>
        <time>2020-07-05T16:25:54Z</time>
      </trkpt>
      <trkpt lat="46.06693" lon="6.18841">
        <ele>936.163</ele>
        <time>2020-07-05T16:25:56Z</time>
      </trkpt>
      <trkpt lat="46.06695" lon="6.18847">
        <ele>936.179</ele>
        <time>2020-07-05T16:25:57Z</time>
      </trkpt>
      <trkpt lat="46.06697" lon="6.18854">
        <ele>936.262</ele>
        <time>2020-07-05T16:25:58Z</time>
      </trkpt>
      <trkpt lat="46.067" lon="6.18864">
        <ele>936.276</ele>
        <time>2020-07-05T16:25:59Z</time>
      </trkpt>
      <trkpt lat="46.06703" lon="6.18873">
        <ele>936.457</ele>
        <time>2020-07-05T16:26:00Z</time>
      </trkpt>
      <trkpt lat="46.06706" lon="6.18883">
        <ele>936.586</ele>
        <time>2020-07-05T16:26:01Z</time>
      </trkpt>
      <trkpt lat="46.06707" lon="6.18893">
        <ele>936.76</ele>
        <time>2020-07-05T16:26:02Z</time>
      </trkpt>
      <trkpt lat="46.06709" lon="6.18903">
        <ele>936.826</ele>
        <time>2020-07-05T16:26:03Z</time>
      </trkpt>
      <trkpt lat="46.06711" lon="6.18912">
        <ele>936.908</ele>
        <time>2020-07-05T16:26:04Z</time>
      </trkpt>
      <trkpt lat="46.06714" lon="6.18921">
        <ele>936.993</ele>
        <time>2020-07-05T16:26:05Z</time>
      </trkpt>
      <trkpt lat="46.06718" lon="6.18929">
        <ele>937.05</ele>
        <time>2020-07-05T16:26:06Z</time>
      </trkpt>
      <trkpt lat="46.06721" lon="6.18937">
        <ele>937.19</ele>
        <time>2020-07-05T16:26:07Z</time>
      </trkpt>
      <trkpt lat="46.06725" lon="6.18945">
        <ele>937.332</ele>
        <time>2020-07-05T16:26:08Z</time>
      </trkpt>
      <trkpt lat="46.06732" lon="6.18956">
        <ele>937.578</ele>
        <time>2020-07-05T16:26:09Z</time>
      </trkpt>
      <trkpt lat="46.06738" lon="6.18967">
        <ele>937.871</ele>
        <time>2020-07-05T16:26:10Z</time>
      </trkpt>
      <trkpt lat="46.06743" lon="6.18976">
        <ele>938.135</ele>
        <time>2020-07-05T16:26:11Z</time>
      </trkpt>
      <trkpt lat="46.06749" lon="6.18985">
        <ele>938.456</ele>
        <time>2020-07-05T16:26:12Z</time>
      </trkpt>
      <trkpt lat="46.06755" lon="6.18994">
        <ele>938.715</ele>
        <time>2020-07-05T16:26:13Z</time>
      </trkpt>
      <trkpt lat="46.06762" lon="6.19001">
        <ele>939.065</ele>
        <time>2020-07-05T16:26:14Z</time>
      </trkpt>
      <trkpt lat="46.06768" lon="6.19008">
        <ele>939.211</ele>
        <time>2020-07-05T16:26:15Z</time>
      </trkpt>
      <trkpt lat="46.06775" lon="6.19016">
        <ele>939.308</ele>
        <time>2020-07-05T16:26:16Z</time>
      </trkpt>
      <trkpt lat="46.0678" lon="6.19023">
        <ele>939.366</ele>
        <time>2020-07-05T16:26:17Z</time>
      </trkpt>
      <trkpt lat="46.06788" lon="6.19032">
        <ele>939.333</ele>
        <time>2020-07-05T16:26:18Z</time>
      </trkpt>
      <trkpt lat="46.06795" lon="6.1904">
        <ele>939.253</ele>
        <time>2020-07-05T16:26:19Z</time>
      </trkpt>
      <trkpt lat="46.06802" lon="6.19048">
        <ele>939.065</ele>
        <time>2020-07-05T16:26:20Z</time>
      </trkpt>
      <trkpt lat="46.06811" lon="6.19057">
        <ele>938.821</ele>
        <time>2020-07-05T16:26:21Z</time>
      </trkpt>
      <trkpt lat="46.06818" lon="6.19065">
        <ele>938.564</ele>
        <time>2020-07-05T16:26:22Z</time>
      </trkpt>
      <trkpt lat="46.06825" lon="6.19071">
        <ele>938.298</ele>
        <time>2020-07-05T16:26:23Z</time>
      </trkpt>
      <trkpt lat="46.06835" lon="6.19077">
        <ele>937.789</ele>
        <time>2020-07-05T16:26:24Z</time>
      </trkpt>
      <trkpt lat="46.06846" lon="6.19082">
        <ele>937.223</ele>
        <time>2020-07-05T16:26:25Z</time>
      </trkpt>
      <trkpt lat="46.06854" lon="6.19085">
        <ele>936.683</ele>
        <time>2020-07-05T16:26:26Z</time>
      </trkpt>
      <trkpt lat="46.06862" lon="6.1909">
        <ele>936.011</ele>
        <time>2020-07-05T16:26:27Z</time>
      </trkpt>
      <trkpt lat="46.06868" lon="6.19097">
        <ele>935.408</ele>
        <time>2020-07-05T16:26:28Z</time>
      </trkpt>
      <trkpt lat="46.06877" lon="6.19109">
        <ele>935.067</ele>
        <time>2020-07-05T16:26:29Z</time>
      </trkpt>
      <trkpt lat="46.06885" lon="6.1912">
        <ele>934.784</ele>
        <time>2020-07-05T16:26:30Z</time>
      </trkpt>
      <trkpt lat="46.06894" lon="6.1913">
        <ele>934.454</ele>
        <time>2020-07-05T16:26:31Z</time>
      </trkpt>
      <trkpt lat="46.06903" lon="6.19139">
        <ele>934.126</ele>
        <time>2020-07-05T16:26:32Z</time>
      </trkpt>
      <trkpt lat="46.0691" lon="6.19146">
        <ele>933.862</ele>
        <time>2020-07-05T16:26:33Z</time>
      </trkpt>
      <trkpt lat="46.06919" lon="6.19156">
        <ele>933.455</ele>
        <time>2020-07-05T16:26:34Z</time>
      </trkpt>
      <trkpt lat="46.06928" lon="6.19167">
        <ele>933.039</ele>
        <time>2020-07-05T16:26:35Z</time>
      </trkpt>
      <trkpt lat="46.06934" lon="6.19178">
        <ele>932.73</ele>
        <time>2020-07-05T16:26:36Z</time>
      </trkpt>
      <trkpt lat="46.06941" lon="6.19189">
        <ele>932.574</ele>
        <time>2020-07-05T16:26:37Z</time>
      </trkpt>
      <trkpt lat="46.06949" lon="6.19204">
        <ele>932.456</ele>
        <time>2020-07-05T16:26:38Z</time>
      </trkpt>
      <trkpt lat="46.06958" lon="6.19217">
        <ele>932.421</ele>
        <time>2020-07-05T16:26:39Z</time>
      </trkpt>
      <trkpt lat="46.06966" lon="6.19231">
        <ele>932.508</ele>
        <time>2020-07-05T16:26:40Z</time>
      </trkpt>
      <trkpt lat="46.06974" lon="6.19244">
        <ele>932.762</ele>
        <time>2020-07-05T16:26:41Z</time>
      </trkpt>
      <trkpt lat="46.06981" lon="6.19256">
        <ele>933.099</ele>
        <time>2020-07-05T16:26:42Z</time>
      </trkpt>
      <trkpt lat="46.06986" lon="6.19268">
        <ele>933.669</ele>
        <time>2020-07-05T16:26:43Z</time>
      </trkpt>
      <trkpt lat="46.06991" lon="6.1928">
        <ele>934.371</ele>
        <time>2020-07-05T16:26:44Z</time>
      </trkpt>
      <trkpt lat="46.06996" lon="6.19291">
        <ele>934.977</ele>
        <time>2020-07-05T16:26:45Z</time>
      </trkpt>
      <trkpt lat="46.07" lon="6.193">
        <ele>935.69</ele>
        <time>2020-07-05T16:26:46Z</time>
      </trkpt>
      <trkpt lat="46.07004" lon="6.1931">
        <ele>936.254</ele>
        <time>2020-07-05T16:26:47Z</time>
      </trkpt>
      <trkpt lat="46.07009" lon="6.1932">
        <ele>936.565</ele>
        <time>2020-07-05T16:26:48Z</time>
      </trkpt>
      <trkpt lat="46.07013" lon="6.19332">
        <ele>936.768</ele>
        <time>2020-07-05T16:26:49Z</time>
      </trkpt>
      <trkpt lat="46.07016" lon="6.19341">
        <ele>936.942</ele>
        <time>2020-07-05T16:26:50Z</time>
      </trkpt>
      <trkpt lat="46.07019" lon="6.19352">
        <ele>936.926</ele>
        <time>2020-07-05T16:26:51Z</time>
      </trkpt>
      <trkpt lat="46.07021" lon="6.19364">
        <ele>936.808</ele>
        <time>2020-07-05T16:26:52Z</time>
      </trkpt>
      <trkpt lat="46.07022" lon="6.19375">
        <ele>936.661</ele>
        <time>2020-07-05T16:26:53Z</time>
      </trkpt>
      <trkpt lat="46.07022" lon="6.19388">
        <ele>936.338</ele>
        <time>2020-07-05T16:26:54Z</time>
      </trkpt>
      <trkpt lat="46.07021" lon="6.19401">
        <ele>936.018</ele>
        <time>2020-07-05T16:26:55Z</time>
      </trkpt>
      <trkpt lat="46.07019" lon="6.19416">
        <ele>935.85</ele>
        <time>2020-07-05T16:26:56Z</time>
      </trkpt>
      <trkpt lat="46.07018" lon="6.19431">
        <ele>935.526</ele>
        <time>2020-07-05T16:26:57Z</time>
      </trkpt>
      <trkpt lat="46.07016" lon="6.19444">
        <ele>935.359</ele>
        <time>2020-07-05T16:26:58Z</time>
      </trkpt>
      <trkpt lat="46.07016" lon="6.19457">
        <ele>935.243</ele>
        <time>2020-07-05T16:26:59Z</time>
      </trkpt>
      <trkpt lat="46.07013" lon="6.19467">
        <ele>935.244</ele>
        <time>2020-07-05T16:27:00Z</time>
      </trkpt>
      <trkpt lat="46.07013" lon="6.19478">
        <ele>935.059</ele>
        <time>2020-07-05T16:27:01Z</time>
      </trkpt>
      <trkpt lat="46.07011" lon="6.19487">
        <ele>935.003</ele>
        <time>2020-07-05T16:27:02Z</time>
      </trkpt>
      <trkpt lat="46.07009" lon="6.19496">
        <ele>935.023</ele>
        <time>2020-07-05T16:27:03Z</time>
      </trkpt>
      <trkpt lat="46.07008" lon="6.19505">
        <ele>935.008</ele>
        <time>2020-07-05T16:27:04Z</time>
      </trkpt>
      <trkpt lat="46.07008" lon="6.19513">
        <ele>935.17</ele>
        <time>2020-07-05T16:27:05Z</time>
      </trkpt>
      <trkpt lat="46.07009" lon="6.19524">
        <ele>935.427</ele>
        <time>2020-07-05T16:27:06Z</time>
      </trkpt>
      <trkpt lat="46.07009" lon="6.19536">
        <ele>935.797</ele>
        <time>2020-07-05T16:27:07Z</time>
      </trkpt>
      <trkpt lat="46.07012" lon="6.19545">
        <ele>936.119</ele>
        <time>2020-07-05T16:27:08Z</time>
      </trkpt>
      <trkpt lat="46.07014" lon="6.19555">
        <ele>936.675</ele>
        <time>2020-07-05T16:27:09Z</time>
      </trkpt>
      <trkpt lat="46.07011" lon="6.19569">
        <ele>937.118</ele>
        <time>2020-07-05T16:27:10Z</time>
      </trkpt>
      <trkpt lat="46.07011" lon="6.19585">
        <ele>937.512</ele>
        <time>2020-07-05T16:27:11Z</time>
      </trkpt>
      <trkpt lat="46.07012" lon="6.19597">
        <ele>938.123</ele>
        <time>2020-07-05T16:27:12Z</time>
      </trkpt>
      <trkpt lat="46.07013" lon="6.19609">
        <ele>938.528</ele>
        <time>2020-07-05T16:27:13Z</time>
      </trkpt>
      <trkpt lat="46.07014" lon="6.19617">
        <ele>938.889</ele>
        <time>2020-07-05T16:27:14Z</time>
      </trkpt>
      <trkpt lat="46.07015" lon="6.19624">
        <ele>939.017</ele>
        <time>2020-07-05T16:27:15Z</time>
      </trkpt>
      <trkpt lat="46.07017" lon="6.19634">
        <ele>939.008</ele>
        <time>2020-07-05T16:27:17Z</time>
      </trkpt>
      <trkpt lat="46.07019" lon="6.19642">
        <ele>938.827</ele>
        <time>2020-07-05T16:27:19Z</time>
      </trkpt>
      <trkpt lat="46.0702" lon="6.19649">
        <ele>938.734</ele>
        <time>2020-07-05T16:27:20Z</time>
      </trkpt>
      <trkpt lat="46.07022" lon="6.19656">
        <ele>938.694</ele>
        <time>2020-07-05T16:27:21Z</time>
      </trkpt>
      <trkpt lat="46.07025" lon="6.19666">
        <ele>938.516</ele>
        <time>2020-07-05T16:27:22Z</time>
      </trkpt>
      <trkpt lat="46.07028" lon="6.19676">
        <ele>938.482</ele>
        <time>2020-07-05T16:27:23Z</time>
      </trkpt>
      <trkpt lat="46.07033" lon="6.19684">
        <ele>938.385</ele>
        <time>2020-07-05T16:27:24Z</time>
      </trkpt>
      <trkpt lat="46.07037" lon="6.19694">
        <ele>938.239</ele>
        <time>2020-07-05T16:27:25Z</time>
      </trkpt>
      <trkpt lat="46.0704" lon="6.19704">
        <ele>938.11</ele>
        <time>2020-07-05T16:27:26Z</time>
      </trkpt>
      <trkpt lat="46.0704" lon="6.19712">
        <ele>937.966</ele>
        <time>2020-07-05T16:27:27Z</time>
      </trkpt>
      <trkpt lat="46.07041" lon="6.19723">
        <ele>937.729</ele>
        <time>2020-07-05T16:29:25Z</time>
      </trkpt>
      <trkpt lat="46.07038" lon="6.1973">
        <ele>937.721</ele>
        <time>2020-07-05T16:29:26Z</time>
      </trkpt>
      <trkpt lat="46.07034" lon="6.19737">
        <ele>937.808</ele>
        <time>2020-07-05T16:29:27Z</time>
      </trkpt>
      <trkpt lat="46.07031" lon="6.1975">
        <ele>938.051</ele>
        <time>2020-07-05T16:29:28Z</time>
      </trkpt>
      <trkpt lat="46.07027" lon="6.19765">
        <ele>938.248</ele>
        <time>2020-07-05T16:29:29Z</time>
      </trkpt>
      <trkpt lat="46.07021" lon="6.19779">
        <ele>938.758</ele>
        <time>2020-07-05T16:29:30Z</time>
      </trkpt>
      <trkpt lat="46.07017" lon="6.19795">
        <ele>939.35</ele>
        <time>2020-07-05T16:29:31Z</time>
      </trkpt>
      <trkpt lat="46.07016" lon="6.19811">
        <ele>940.096</ele>
        <time>2020-07-05T16:29:32Z</time>
      </trkpt>
      <trkpt lat="46.07016" lon="6.19827">
        <ele>940.959</ele>
        <time>2020-07-05T16:29:33Z</time>
      </trkpt>
      <trkpt lat="46.07014" lon="6.1984">
        <ele>941.863</ele>
        <time>2020-07-05T16:29:34Z</time>
      </trkpt>
      <trkpt lat="46.07011" lon="6.19855">
        <ele>942.754</ele>
        <time>2020-07-05T16:29:35Z</time>
      </trkpt>
      <trkpt lat="46.07008" lon="6.19867">
        <ele>943.489</ele>
        <time>2020-07-05T16:29:36Z</time>
      </trkpt>
      <trkpt lat="46.07004" lon="6.1988">
        <ele>944.106</ele>
        <time>2020-07-05T16:29:37Z</time>
      </trkpt>
      <trkpt lat="46.06999" lon="6.19893">
        <ele>944.526</ele>
        <time>2020-07-05T16:29:38Z</time>
      </trkpt>
      <trkpt lat="46.06994" lon="6.19906">
        <ele>944.608</ele>
        <time>2020-07-05T16:29:39Z</time>
      </trkpt>
      <trkpt lat="46.06989" lon="6.19916">
        <ele>944.663</ele>
        <time>2020-07-05T16:29:40Z</time>
      </trkpt>
      <trkpt lat="46.06985" lon="6.19927">
        <ele>944.29</ele>
        <time>2020-07-05T16:29:41Z</time>
      </trkpt>
      <trkpt lat="46.06982" lon="6.19941">
        <ele>943.79</ele>
        <time>2020-07-05T16:29:42Z</time>
      </trkpt>
      <trkpt lat="46.06979" lon="6.19956">
        <ele>943.262</ele>
        <time>2020-07-05T16:29:43Z</time>
      </trkpt>
      <trkpt lat="46.06976" lon="6.19974">
        <ele>942.888</ele>
        <time>2020-07-05T16:29:44Z</time>
      </trkpt>
      <trkpt lat="46.06974" lon="6.19988">
        <ele>942.841</ele>
        <time>2020-07-05T16:29:45Z</time>
      </trkpt>
      <trkpt lat="46.06972" lon="6.20001">
        <ele>943.095</ele>
        <time>2020-07-05T16:29:46Z</time>
      </trkpt>
      <trkpt lat="46.0697" lon="6.20015">
        <ele>943.196</ele>
        <time>2020-07-05T16:29:47Z</time>
      </trkpt>
      <trkpt lat="46.06969" lon="6.20029">
        <ele>943.153</ele>
        <time>2020-07-05T16:29:48Z</time>
      </trkpt>
      <trkpt lat="46.06968" lon="6.20043">
        <ele>942.904</ele>
        <time>2020-07-05T16:29:49Z</time>
      </trkpt>
      <trkpt lat="46.06967" lon="6.20058">
        <ele>942.314</ele>
        <time>2020-07-05T16:29:50Z</time>
      </trkpt>
      <trkpt lat="46.06965" lon="6.20072">
        <ele>941.508</ele>
        <time>2020-07-05T16:29:51Z</time>
      </trkpt>
      <trkpt lat="46.06963" lon="6.20086">
        <ele>940.73</ele>
        <time>2020-07-05T16:29:52Z</time>
      </trkpt>
      <trkpt lat="46.06962" lon="6.201">
        <ele>939.917</ele>
        <time>2020-07-05T16:29:53Z</time>
      </trkpt>
      <trkpt lat="46.0696" lon="6.20113">
        <ele>938.977</ele>
        <time>2020-07-05T16:29:54Z</time>
      </trkpt>
      <trkpt lat="46.06958" lon="6.20124">
        <ele>937.919</ele>
        <time>2020-07-05T16:29:55Z</time>
      </trkpt>
      <trkpt lat="46.06955" lon="6.20136">
        <ele>936.925</ele>
        <time>2020-07-05T16:29:56Z</time>
      </trkpt>
      <trkpt lat="46.06953" lon="6.20147">
        <ele>936.038</ele>
        <time>2020-07-05T16:29:57Z</time>
      </trkpt>
      <trkpt lat="46.06953" lon="6.20159">
        <ele>935.332</ele>
        <time>2020-07-05T16:29:58Z</time>
      </trkpt>
      <trkpt lat="46.06951" lon="6.20176">
        <ele>935.013</ele>
        <time>2020-07-05T16:29:59Z</time>
      </trkpt>
      <trkpt lat="46.06952" lon="6.20193">
        <ele>935.072</ele>
        <time>2020-07-05T16:30:00Z</time>
      </trkpt>
      <trkpt lat="46.06953" lon="6.20206">
        <ele>935.413</ele>
        <time>2020-07-05T16:30:01Z</time>
      </trkpt>
      <trkpt lat="46.06954" lon="6.20222">
        <ele>935.514</ele>
        <time>2020-07-05T16:30:02Z</time>
      </trkpt>
      <trkpt lat="46.06953" lon="6.2024">
        <ele>935.508</ele>
        <time>2020-07-05T16:30:03Z</time>
      </trkpt>
      <trkpt lat="46.06953" lon="6.20257">
        <ele>935.442</ele>
        <time>2020-07-05T16:30:04Z</time>
      </trkpt>
      <trkpt lat="46.06953" lon="6.20275">
        <ele>934.899</ele>
        <time>2020-07-05T16:30:05Z</time>
      </trkpt>
      <trkpt lat="46.06953" lon="6.20291">
        <ele>933.869</ele>
        <time>2020-07-05T16:30:06Z</time>
      </trkpt>
      <trkpt lat="46.06952" lon="6.20305">
        <ele>932.781</ele>
        <time>2020-07-05T16:30:07Z</time>
      </trkpt>
      <trkpt lat="46.06956" lon="6.20318">
        <ele>931.797</ele>
        <time>2020-07-05T16:30:08Z</time>
      </trkpt>
      <trkpt lat="46.0696" lon="6.20334">
        <ele>930.55</ele>
        <time>2020-07-05T16:30:09Z</time>
      </trkpt>
      <trkpt lat="46.06965" lon="6.20344">
        <ele>929.544</ele>
        <time>2020-07-05T16:30:10Z</time>
      </trkpt>
      <trkpt lat="46.06969" lon="6.2036">
        <ele>928.845</ele>
        <time>2020-07-05T16:30:11Z</time>
      </trkpt>
      <trkpt lat="46.0697" lon="6.20379">
        <ele>928.562</ele>
        <time>2020-07-05T16:30:12Z</time>
      </trkpt>
      <trkpt lat="46.06972" lon="6.20397">
        <ele>928.283</ele>
        <time>2020-07-05T16:30:13Z</time>
      </trkpt>
      <trkpt lat="46.06975" lon="6.20409">
        <ele>928.211</ele>
        <time>2020-07-05T16:30:14Z</time>
      </trkpt>
      <trkpt lat="46.06981" lon="6.20421">
        <ele>928.508</ele>
        <time>2020-07-05T16:30:15Z</time>
      </trkpt>
      <trkpt lat="46.0699" lon="6.20431">
        <ele>928.991</ele>
        <time>2020-07-05T16:30:16Z</time>
      </trkpt>
      <trkpt lat="46.07001" lon="6.20441">
        <ele>929.238</ele>
        <time>2020-07-05T16:30:17Z</time>
      </trkpt>
      <trkpt lat="46.07009" lon="6.20449">
        <ele>929.558</ele>
        <time>2020-07-05T16:30:18Z</time>
      </trkpt>
      <trkpt lat="46.07017" lon="6.20459">
        <ele>929.99</ele>
        <time>2020-07-05T16:30:19Z</time>
      </trkpt>
      <trkpt lat="46.07024" lon="6.20469">
        <ele>929.986</ele>
        <time>2020-07-05T16:30:20Z</time>
      </trkpt>
      <trkpt lat="46.07031" lon="6.20479">
        <ele>929.589</ele>
        <time>2020-07-05T16:30:21Z</time>
      </trkpt>
      <trkpt lat="46.07036" lon="6.20486">
        <ele>928.883</ele>
        <time>2020-07-05T16:30:22Z</time>
      </trkpt>
      <trkpt lat="46.07041" lon="6.20491">
        <ele>928.044</ele>
        <time>2020-07-05T16:30:23Z</time>
      </trkpt>
      <trkpt lat="46.07046" lon="6.20496">
        <ele>927.116</ele>
        <time>2020-07-05T16:30:24Z</time>
      </trkpt>
      <trkpt lat="46.07044" lon="6.20507">
        <ele>925.776</ele>
        <time>2020-07-05T16:30:26Z</time>
      </trkpt>
      <trkpt lat="46.07038" lon="6.20516">
        <ele>925.613</ele>
        <time>2020-07-05T16:30:27Z</time>
      </trkpt>
      <trkpt lat="46.0703" lon="6.20528">
        <ele>925.608</ele>
        <time>2020-07-05T16:30:28Z</time>
      </trkpt>
      <trkpt lat="46.07022" lon="6.20542">
        <ele>925.646</ele>
        <time>2020-07-05T16:30:29Z</time>
      </trkpt>
      <trkpt lat="46.07014" lon="6.20556">
        <ele>925.873</ele>
        <time>2020-07-05T16:30:30Z</time>
      </trkpt>
      <trkpt lat="46.07005" lon="6.20573">
        <ele>926.043</ele>
        <time>2020-07-05T16:30:31Z</time>
      </trkpt>
      <trkpt lat="46.06996" lon="6.20588">
        <ele>926.565</ele>
        <time>2020-07-05T16:30:32Z</time>
      </trkpt>
      <trkpt lat="46.06988" lon="6.20602">
        <ele>926.821</ele>
        <time>2020-07-05T16:30:33Z</time>
      </trkpt>
      <trkpt lat="46.0698" lon="6.20615">
        <ele>927.134</ele>
        <time>2020-07-05T16:30:34Z</time>
      </trkpt>
      <trkpt lat="46.06974" lon="6.20628">
        <ele>927.348</ele>
        <time>2020-07-05T16:30:35Z</time>
      </trkpt>
      <trkpt lat="46.06969" lon="6.20643">
        <ele>927.339</ele>
        <time>2020-07-05T16:30:36Z</time>
      </trkpt>
      <trkpt lat="46.06966" lon="6.20658">
        <ele>927.399</ele>
        <time>2020-07-05T16:30:37Z</time>
      </trkpt>
      <trkpt lat="46.06963" lon="6.20672">
        <ele>927.207</ele>
        <time>2020-07-05T16:30:38Z</time>
      </trkpt>
      <trkpt lat="46.06961" lon="6.20683">
        <ele>927.227</ele>
        <time>2020-07-05T16:30:39Z</time>
      </trkpt>
      <trkpt lat="46.06959" lon="6.20692">
        <ele>927.108</ele>
        <time>2020-07-05T16:30:40Z</time>
      </trkpt>
      <trkpt lat="46.06957" lon="6.20701">
        <ele>927.054</ele>
        <time>2020-07-05T16:30:41Z</time>
      </trkpt>
      <trkpt lat="46.06955" lon="6.20712">
        <ele>926.781</ele>
        <time>2020-07-05T16:30:42Z</time>
      </trkpt>
      <trkpt lat="46.06952" lon="6.20724">
        <ele>926.331</ele>
        <time>2020-07-05T16:30:43Z</time>
      </trkpt>
      <trkpt lat="46.0695" lon="6.20737">
        <ele>925.933</ele>
        <time>2020-07-05T16:30:44Z</time>
      </trkpt>
      <trkpt lat="46.06945" lon="6.2075">
        <ele>925.659</ele>
        <time>2020-07-05T16:30:45Z</time>
      </trkpt>
      <trkpt lat="46.06939" lon="6.20761">
        <ele>925.212</ele>
        <time>2020-07-05T16:30:46Z</time>
      </trkpt>
      <trkpt lat="46.06934" lon="6.20773">
        <ele>925.096</ele>
        <time>2020-07-05T16:30:47Z</time>
      </trkpt>
      <trkpt lat="46.06927" lon="6.20784">
        <ele>924.877</ele>
        <time>2020-07-05T16:30:48Z</time>
      </trkpt>
      <trkpt lat="46.06921" lon="6.20794">
        <ele>924.554</ele>
        <time>2020-07-05T16:30:49Z</time>
      </trkpt>
      <trkpt lat="46.06915" lon="6.20804">
        <ele>924.256</ele>
        <time>2020-07-05T16:30:50Z</time>
      </trkpt>
      <trkpt lat="46.06908" lon="6.20814">
        <ele>924.011</ele>
        <time>2020-07-05T16:30:51Z</time>
      </trkpt>
      <trkpt lat="46.069" lon="6.20826">
        <ele>923.708</ele>
        <time>2020-07-05T16:30:52Z</time>
      </trkpt>
      <trkpt lat="46.06892" lon="6.20839">
        <ele>923.41</ele>
        <time>2020-07-05T16:30:53Z</time>
      </trkpt>
      <trkpt lat="46.06882" lon="6.20854">
        <ele>923.247</ele>
        <time>2020-07-05T16:30:54Z</time>
      </trkpt>
      <trkpt lat="46.06873" lon="6.20868">
        <ele>923.247</ele>
        <time>2020-07-05T16:30:55Z</time>
      </trkpt>
      <trkpt lat="46.06864" lon="6.20883">
        <ele>923.059</ele>
        <time>2020-07-05T16:30:56Z</time>
      </trkpt>
      <trkpt lat="46.06855" lon="6.20896">
        <ele>922.725</ele>
        <time>2020-07-05T16:30:57Z</time>
      </trkpt>
      <trkpt lat="46.06846" lon="6.20909">
        <ele>922.358</ele>
        <time>2020-07-05T16:30:58Z</time>
      </trkpt>
      <trkpt lat="46.06839" lon="6.20919">
        <ele>922.222</ele>
        <time>2020-07-05T16:30:59Z</time>
      </trkpt>
      <trkpt lat="46.06832" lon="6.2093">
        <ele>921.623</ele>
        <time>2020-07-05T16:31:00Z</time>
      </trkpt>
      <trkpt lat="46.06826" lon="6.20938">
        <ele>921.025</ele>
        <time>2020-07-05T16:31:01Z</time>
      </trkpt>
      <trkpt lat="46.06821" lon="6.20944">
        <ele>920.426</ele>
        <time>2020-07-05T16:31:02Z</time>
      </trkpt>
      <trkpt lat="46.06819" lon="6.20951">
        <ele>919.908</ele>
        <time>2020-07-05T16:31:03Z</time>
      </trkpt>
      <trkpt lat="46.06818" lon="6.20958">
        <ele>919.008</ele>
        <time>2020-07-05T16:31:04Z</time>
      </trkpt>
      <trkpt lat="46.06817" lon="6.20966">
        <ele>918.557</ele>
        <time>2020-07-05T16:31:05Z</time>
      </trkpt>
      <trkpt lat="46.06815" lon="6.20973">
        <ele>918.114</ele>
        <time>2020-07-05T16:31:06Z</time>
      </trkpt>
      <trkpt lat="46.06811" lon="6.20981">
        <ele>917.914</ele>
        <time>2020-07-05T16:31:07Z</time>
      </trkpt>
      <trkpt lat="46.06806" lon="6.20987">
        <ele>917.786</ele>
        <time>2020-07-05T16:31:08Z</time>
      </trkpt>
      <trkpt lat="46.068" lon="6.20995">
        <ele>917.532</ele>
        <time>2020-07-05T16:31:09Z</time>
      </trkpt>
      <trkpt lat="46.06792" lon="6.21005">
        <ele>917.445</ele>
        <time>2020-07-05T16:31:10Z</time>
      </trkpt>
      <trkpt lat="46.06783" lon="6.21012">
        <ele>917.439</ele>
        <time>2020-07-05T16:31:11Z</time>
      </trkpt>
      <trkpt lat="46.06778" lon="6.21017">
        <ele>917.52</ele>
        <time>2020-07-05T16:31:12Z</time>
      </trkpt>
      <trkpt lat="46.06773" lon="6.21023">
        <ele>917.645</ele>
        <time>2020-07-05T16:31:13Z</time>
      </trkpt>
      <trkpt lat="46.06769" lon="6.21028">
        <ele>917.647</ele>
        <time>2020-07-05T16:31:14Z</time>
      </trkpt>
      <trkpt lat="46.0676" lon="6.21036">
        <ele>917.811</ele>
        <time>2020-07-05T16:31:17Z</time>
      </trkpt>
      <trkpt lat="46.06756" lon="6.2104">
        <ele>917.908</ele>
        <time>2020-07-05T16:31:18Z</time>
      </trkpt>
      <trkpt lat="46.06752" lon="6.21046">
        <ele>917.969</ele>
        <time>2020-07-05T16:31:19Z</time>
      </trkpt>
      <trkpt lat="46.06749" lon="6.21053">
        <ele>917.926</ele>
        <time>2020-07-05T16:31:20Z</time>
      </trkpt>
      <trkpt lat="46.06744" lon="6.21058">
        <ele>917.876</ele>
        <time>2020-07-05T16:31:21Z</time>
      </trkpt>
      <trkpt lat="46.0674" lon="6.21066">
        <ele>917.788</ele>
        <time>2020-07-05T16:31:22Z</time>
      </trkpt>
      <trkpt lat="46.06735" lon="6.21076">
        <ele>917.594</ele>
        <time>2020-07-05T16:31:23Z</time>
      </trkpt>
      <trkpt lat="46.0673" lon="6.21084">
        <ele>917.447</ele>
        <time>2020-07-05T16:31:24Z</time>
      </trkpt>
      <trkpt lat="46.06726" lon="6.21092">
        <ele>917.341</ele>
        <time>2020-07-05T16:31:25Z</time>
      </trkpt>
      <trkpt lat="46.06721" lon="6.211">
        <ele>917.232</ele>
        <time>2020-07-05T16:31:26Z</time>
      </trkpt>
      <trkpt lat="46.06717" lon="6.21107">
        <ele>917.164</ele>
        <time>2020-07-05T16:31:27Z</time>
      </trkpt>
      <trkpt lat="46.06713" lon="6.21112">
        <ele>916.906</ele>
        <time>2020-07-05T16:31:28Z</time>
      </trkpt>
      <trkpt lat="46.0671" lon="6.21119">
        <ele>916.716</ele>
        <time>2020-07-05T16:31:29Z</time>
      </trkpt>
      <trkpt lat="46.06705" lon="6.21126">
        <ele>916.508</ele>
        <time>2020-07-05T16:31:30Z</time>
      </trkpt>
      <trkpt lat="46.06701" lon="6.21132">
        <ele>916.271</ele>
        <time>2020-07-05T16:31:31Z</time>
      </trkpt>
      <trkpt lat="46.06697" lon="6.21137">
        <ele>915.888</ele>
        <time>2020-07-05T16:31:32Z</time>
      </trkpt>
      <trkpt lat="46.06694" lon="6.21141">
        <ele>915.448</ele>
        <time>2020-07-05T16:31:33Z</time>
      </trkpt>
      <trkpt lat="46.06689" lon="6.21153">
        <ele>913.91</ele>
        <time>2020-07-05T16:31:35Z</time>
      </trkpt>
      <trkpt lat="46.06679" lon="6.21174">
        <ele>912.056</ele>
        <time>2020-07-05T16:31:37Z</time>
      </trkpt>
      <trkpt lat="46.06674" lon="6.2118">
        <ele>911.029</ele>
        <time>2020-07-05T16:31:38Z</time>
      </trkpt>
      <trkpt lat="46.06669" lon="6.21185">
        <ele>910.373</ele>
        <time>2020-07-05T16:31:39Z</time>
      </trkpt>
      <trkpt lat="46.06665" lon="6.21188">
        <ele>909.724</ele>
        <time>2020-07-05T16:31:40Z</time>
      </trkpt>
      <trkpt lat="46.06659" lon="6.21198">
        <ele>909.316</ele>
        <time>2020-07-05T16:31:41Z</time>
      </trkpt>
      <trkpt lat="46.06652" lon="6.21212">
        <ele>909.276</ele>
        <time>2020-07-05T16:31:42Z</time>
      </trkpt>
      <trkpt lat="46.06645" lon="6.21224">
        <ele>909.113</ele>
        <time>2020-07-05T16:31:43Z</time>
      </trkpt>
      <trkpt lat="46.0664" lon="6.21233">
        <ele>909.008</ele>
        <time>2020-07-05T16:31:44Z</time>
      </trkpt>
      <trkpt lat="46.06636" lon="6.2124">
        <ele>909.076</ele>
        <time>2020-07-05T16:31:45Z</time>
      </trkpt>
      <trkpt lat="46.06635" lon="6.21247">
        <ele>908.993</ele>
        <time>2020-07-05T16:31:46Z</time>
      </trkpt>
      <trkpt lat="46.06641" lon="6.21254">
        <ele>908.453</ele>
        <time>2020-07-05T16:31:48Z</time>
      </trkpt>
      <trkpt lat="46.06647" lon="6.21257">
        <ele>908.225</ele>
        <time>2020-07-05T16:31:49Z</time>
      </trkpt>
      <trkpt lat="46.06652" lon="6.21262">
        <ele>908.021</ele>
        <time>2020-07-05T16:31:50Z</time>
      </trkpt>
      <trkpt lat="46.06656" lon="6.21266">
        <ele>907.854</ele>
        <time>2020-07-05T16:31:51Z</time>
      </trkpt>
      <trkpt lat="46.06662" lon="6.21271">
        <ele>907.788</ele>
        <time>2020-07-05T16:31:53Z</time>
      </trkpt>
      <trkpt lat="46.06668" lon="6.21275">
        <ele>907.649</ele>
        <time>2020-07-05T16:31:55Z</time>
      </trkpt>
      <trkpt lat="46.06672" lon="6.21282">
        <ele>907.597</ele>
        <time>2020-07-05T16:31:57Z</time>
      </trkpt>
      <trkpt lat="46.0668" lon="6.21286">
        <ele>907.523</ele>
        <time>2020-07-05T16:31:59Z</time>
      </trkpt>
      <trkpt lat="46.06689" lon="6.21286">
        <ele>907.525</ele>
        <time>2020-07-05T16:32:00Z</time>
      </trkpt>
      <trkpt lat="46.06694" lon="6.21292">
        <ele>907.508</ele>
        <time>2020-07-05T16:32:01Z</time>
      </trkpt>
      <trkpt lat="46.06698" lon="6.21291">
        <ele>907.414</ele>
        <time>2020-07-05T16:32:02Z</time>
      </trkpt>
      <trkpt lat="46.06702" lon="6.21296">
        <ele>906.931</ele>
        <time>2020-07-05T16:32:05Z</time>
      </trkpt>
      <trkpt lat="46.06705" lon="6.21302">
        <ele>906.861</ele>
        <time>2020-07-05T16:32:06Z</time>
      </trkpt>
      <trkpt lat="46.06704" lon="6.21313">
        <ele>906.883</ele>
        <time>2020-07-05T16:32:08Z</time>
      </trkpt>
      <trkpt lat="46.06707" lon="6.2132">
        <ele>906.869</ele>
        <time>2020-07-05T16:32:09Z</time>
      </trkpt>
      <trkpt lat="46.06711" lon="6.21323">
        <ele>906.872</ele>
        <time>2020-07-05T16:32:10Z</time>
      </trkpt>
      <trkpt lat="46.06713" lon="6.21332">
        <ele>907.026</ele>
        <time>2020-07-05T16:32:12Z</time>
      </trkpt>
      <trkpt lat="46.06718" lon="6.21339">
        <ele>907.167</ele>
        <time>2020-07-05T16:32:14Z</time>
      </trkpt>
      <trkpt lat="46.06722" lon="6.21343">
        <ele>907.256</ele>
        <time>2020-07-05T16:32:15Z</time>
      </trkpt>
      <trkpt lat="46.06726" lon="6.21349">
        <ele>907.259</ele>
        <time>2020-07-05T16:32:16Z</time>
      </trkpt>
      <trkpt lat="46.06729" lon="6.21357">
        <ele>907.114</ele>
        <time>2020-07-05T16:32:17Z</time>
      </trkpt>
      <trkpt lat="46.06735" lon="6.21364">
        <ele>907.108</ele>
        <time>2020-07-05T16:32:18Z</time>
      </trkpt>
      <trkpt lat="46.06747" lon="6.21379">
        <ele>907.03</ele>
        <time>2020-07-05T16:32:19Z</time>
      </trkpt>
      <trkpt lat="46.06757" lon="6.21388">
        <ele>906.797</ele>
        <time>2020-07-05T16:32:20Z</time>
      </trkpt>
      <trkpt lat="46.06763" lon="6.21398">
        <ele>906.267</ele>
        <time>2020-07-05T16:32:22Z</time>
      </trkpt>
      <trkpt lat="46.06767" lon="6.21404">
        <ele>905.899</ele>
        <time>2020-07-05T16:32:23Z</time>
      </trkpt>
      <trkpt lat="46.06774" lon="6.21413">
        <ele>905.525</ele>
        <time>2020-07-05T16:32:24Z</time>
      </trkpt>
      <trkpt lat="46.0678" lon="6.21422">
        <ele>905.218</ele>
        <time>2020-07-05T16:32:25Z</time>
      </trkpt>
      <trkpt lat="46.06785" lon="6.21429">
        <ele>904.872</ele>
        <time>2020-07-05T16:32:26Z</time>
      </trkpt>
      <trkpt lat="46.06789" lon="6.21434">
        <ele>904.363</ele>
        <time>2020-07-05T16:32:27Z</time>
      </trkpt>
      <trkpt lat="46.06793" lon="6.21439">
        <ele>903.821</ele>
        <time>2020-07-05T16:32:28Z</time>
      </trkpt>
      <trkpt lat="46.06798" lon="6.21444">
        <ele>903.241</ele>
        <time>2020-07-05T16:32:29Z</time>
      </trkpt>
      <trkpt lat="46.06804" lon="6.21448">
        <ele>902.605</ele>
        <time>2020-07-05T16:32:30Z</time>
      </trkpt>
      <trkpt lat="46.0681" lon="6.21454">
        <ele>901.908</ele>
        <time>2020-07-05T16:32:31Z</time>
      </trkpt>
      <trkpt lat="46.06814" lon="6.21462">
        <ele>901.277</ele>
        <time>2020-07-05T16:32:32Z</time>
      </trkpt>
      <trkpt lat="46.06819" lon="6.21476">
        <ele>900.534</ele>
        <time>2020-07-05T16:32:33Z</time>
      </trkpt>
      <trkpt lat="46.06821" lon="6.21486">
        <ele>899.814</ele>
        <time>2020-07-05T16:32:34Z</time>
      </trkpt>
      <trkpt lat="46.06822" lon="6.21497">
        <ele>899.156</ele>
        <time>2020-07-05T16:32:35Z</time>
      </trkpt>
      <trkpt lat="46.06821" lon="6.21506">
        <ele>898.422</ele>
        <time>2020-07-05T16:32:36Z</time>
      </trkpt>
      <trkpt lat="46.06818" lon="6.21515">
        <ele>897.745</ele>
        <time>2020-07-05T16:32:37Z</time>
      </trkpt>
      <trkpt lat="46.06815" lon="6.21527">
        <ele>896.949</ele>
        <time>2020-07-05T16:32:38Z</time>
      </trkpt>
      <trkpt lat="46.06812" lon="6.21535">
        <ele>896.11</ele>
        <time>2020-07-05T16:32:39Z</time>
      </trkpt>
      <trkpt lat="46.06808" lon="6.21545">
        <ele>895.333</ele>
        <time>2020-07-05T16:32:40Z</time>
      </trkpt>
      <trkpt lat="46.06804" lon="6.21555">
        <ele>894.623</ele>
        <time>2020-07-05T16:32:41Z</time>
      </trkpt>
      <trkpt lat="46.06798" lon="6.21564">
        <ele>894.015</ele>
        <time>2020-07-05T16:32:42Z</time>
      </trkpt>
      <trkpt lat="46.06796" lon="6.21574">
        <ele>893.508</ele>
        <time>2020-07-05T16:32:43Z</time>
      </trkpt>
      <trkpt lat="46.06797" lon="6.21581">
        <ele>892.888</ele>
        <time>2020-07-05T16:32:45Z</time>
      </trkpt>
      <trkpt lat="46.06798" lon="6.21593">
        <ele>892.225</ele>
        <time>2020-07-05T16:32:48Z</time>
      </trkpt>
      <trkpt lat="46.06797" lon="6.21604">
        <ele>892.145</ele>
        <time>2020-07-05T16:32:50Z</time>
      </trkpt>
      <trkpt lat="46.06798" lon="6.21619">
        <ele>892.127</ele>
        <time>2020-07-05T16:32:52Z</time>
      </trkpt>
      <trkpt lat="46.06797" lon="6.21629">
        <ele>892.143</ele>
        <time>2020-07-05T16:32:53Z</time>
      </trkpt>
      <trkpt lat="46.06798" lon="6.2164">
        <ele>892.166</ele>
        <time>2020-07-05T16:32:54Z</time>
      </trkpt>
      <trkpt lat="46.068" lon="6.21646">
        <ele>892.05</ele>
        <time>2020-07-05T16:32:55Z</time>
      </trkpt>
      <trkpt lat="46.06803" lon="6.21653">
        <ele>891.881</ele>
        <time>2020-07-05T16:32:56Z</time>
      </trkpt>
      <trkpt lat="46.06809" lon="6.21663">
        <ele>891.564</ele>
        <time>2020-07-05T16:32:57Z</time>
      </trkpt>
      <trkpt lat="46.06815" lon="6.21673">
        <ele>891.206</ele>
        <time>2020-07-05T16:32:58Z</time>
      </trkpt>
      <trkpt lat="46.06819" lon="6.21684">
        <ele>890.816</ele>
        <time>2020-07-05T16:32:59Z</time>
      </trkpt>
      <trkpt lat="46.06821" lon="6.21693">
        <ele>890.308</ele>
        <time>2020-07-05T16:33:00Z</time>
      </trkpt>
      <trkpt lat="46.06823" lon="6.21702">
        <ele>889.831</ele>
        <time>2020-07-05T16:33:01Z</time>
      </trkpt>
      <trkpt lat="46.06826" lon="6.21709">
        <ele>889.348</ele>
        <time>2020-07-05T16:33:02Z</time>
      </trkpt>
      <trkpt lat="46.06831" lon="6.21714">
        <ele>888.798</ele>
        <time>2020-07-05T16:33:03Z</time>
      </trkpt>
      <trkpt lat="46.06835" lon="6.21719">
        <ele>888.09</ele>
        <time>2020-07-05T16:33:04Z</time>
      </trkpt>
      <trkpt lat="46.06842" lon="6.21725">
        <ele>887.186</ele>
        <time>2020-07-05T16:33:05Z</time>
      </trkpt>
      <trkpt lat="46.06849" lon="6.21731">
        <ele>886.389</ele>
        <time>2020-07-05T16:33:06Z</time>
      </trkpt>
      <trkpt lat="46.06856" lon="6.21734">
        <ele>885.523</ele>
        <time>2020-07-05T16:33:07Z</time>
      </trkpt>
      <trkpt lat="46.06863" lon="6.21737">
        <ele>884.584</ele>
        <time>2020-07-05T16:33:08Z</time>
      </trkpt>
      <trkpt lat="46.0687" lon="6.21743">
        <ele>883.612</ele>
        <time>2020-07-05T16:33:09Z</time>
      </trkpt>
      <trkpt lat="46.06875" lon="6.21748">
        <ele>882.732</ele>
        <time>2020-07-05T16:33:10Z</time>
      </trkpt>
      <trkpt lat="46.06882" lon="6.21753">
        <ele>881.705</ele>
        <time>2020-07-05T16:33:11Z</time>
      </trkpt>
      <trkpt lat="46.06889" lon="6.21759">
        <ele>880.708</ele>
        <time>2020-07-05T16:33:12Z</time>
      </trkpt>
      <trkpt lat="46.06895" lon="6.21764">
        <ele>879.916</ele>
        <time>2020-07-05T16:33:13Z</time>
      </trkpt>
      <trkpt lat="46.069" lon="6.21769">
        <ele>879.183</ele>
        <time>2020-07-05T16:33:14Z</time>
      </trkpt>
      <trkpt lat="46.06906" lon="6.21774">
        <ele>878.343</ele>
        <time>2020-07-05T16:33:15Z</time>
      </trkpt>
      <trkpt lat="46.06911" lon="6.21778">
        <ele>877.635</ele>
        <time>2020-07-05T16:33:16Z</time>
      </trkpt>
      <trkpt lat="46.06919" lon="6.21779">
        <ele>876.071</ele>
        <time>2020-07-05T16:33:18Z</time>
      </trkpt>
      <trkpt lat="46.06925" lon="6.21783">
        <ele>875.364</ele>
        <time>2020-07-05T16:33:19Z</time>
      </trkpt>
      <trkpt lat="46.06928" lon="6.21789">
        <ele>874.518</ele>
        <time>2020-07-05T16:33:20Z</time>
      </trkpt>
      <trkpt lat="46.06934" lon="6.2179">
        <ele>873.249</ele>
        <time>2020-07-05T16:33:22Z</time>
      </trkpt>
      <trkpt lat="46.06939" lon="6.21786">
        <ele>872.395</ele>
        <time>2020-07-05T16:33:24Z</time>
      </trkpt>
      <trkpt lat="46.06944" lon="6.21786">
        <ele>871.649</ele>
        <time>2020-07-05T16:33:26Z</time>
      </trkpt>
      <trkpt lat="46.06951" lon="6.21791">
        <ele>870.923</ele>
        <time>2020-07-05T16:33:28Z</time>
      </trkpt>
      <trkpt lat="46.06955" lon="6.21794">
        <ele>870.508</ele>
        <time>2020-07-05T16:33:29Z</time>
      </trkpt>
      <trkpt lat="46.06963" lon="6.21799">
        <ele>869.694</ele>
        <time>2020-07-05T16:33:31Z</time>
      </trkpt>
      <trkpt lat="46.06967" lon="6.21803">
        <ele>868.551</ele>
        <time>2020-07-05T16:33:33Z</time>
      </trkpt>
      <trkpt lat="46.06975" lon="6.21805">
        <ele>867.561</ele>
        <time>2020-07-05T16:33:35Z</time>
      </trkpt>
      <trkpt lat="46.06982" lon="6.21806">
        <ele>866.583</ele>
        <time>2020-07-05T16:33:37Z</time>
      </trkpt>
      <trkpt lat="46.06987" lon="6.218">
        <ele>866.069</ele>
        <time>2020-07-05T16:33:38Z</time>
      </trkpt>
      <trkpt lat="46.06994" lon="6.218">
        <ele>865.552</ele>
        <time>2020-07-05T16:33:39Z</time>
      </trkpt>
      <trkpt lat="46.06999" lon="6.21804">
        <ele>864.836</ele>
        <time>2020-07-05T16:33:40Z</time>
      </trkpt>
      <trkpt lat="46.07006" lon="6.21813">
        <ele>864.127</ele>
        <time>2020-07-05T16:33:41Z</time>
      </trkpt>
      <trkpt lat="46.07009" lon="6.21822">
        <ele>863.619</ele>
        <time>2020-07-05T16:33:42Z</time>
      </trkpt>
      <trkpt lat="46.07012" lon="6.21829">
        <ele>863.309</ele>
        <time>2020-07-05T16:33:43Z</time>
      </trkpt>
      <trkpt lat="46.07014" lon="6.21838">
        <ele>863.219</ele>
        <time>2020-07-05T16:33:45Z</time>
      </trkpt>
      <trkpt lat="46.07016" lon="6.21844">
        <ele>863.408</ele>
        <time>2020-07-05T16:33:46Z</time>
      </trkpt>
      <trkpt lat="46.07021" lon="6.21853">
        <ele>864.156</ele>
        <time>2020-07-05T16:33:48Z</time>
      </trkpt>
      <trkpt lat="46.07026" lon="6.21858">
        <ele>864.663</ele>
        <time>2020-07-05T16:33:49Z</time>
      </trkpt>
      <trkpt lat="46.0703" lon="6.21863">
        <ele>865.073</ele>
        <time>2020-07-05T16:33:50Z</time>
      </trkpt>
      <trkpt lat="46.07036" lon="6.21868">
        <ele>866.045</ele>
        <time>2020-07-05T16:33:55Z</time>
      </trkpt>
      <trkpt lat="46.07038" lon="6.21874">
        <ele>866.041</ele>
        <time>2020-07-05T16:33:56Z</time>
      </trkpt>
      <trkpt lat="46.07043" lon="6.21881">
        <ele>866.114</ele>
        <time>2020-07-05T16:33:57Z</time>
      </trkpt>
      <trkpt lat="46.07046" lon="6.2189">
        <ele>866.438</ele>
        <time>2020-07-05T16:33:59Z</time>
      </trkpt>
      <trkpt lat="46.07047" lon="6.21897">
        <ele>867.619</ele>
        <time>2020-07-05T16:37:16Z</time>
      </trkpt>
      <trkpt lat="46.07051" lon="6.21908">
        <ele>868.533</ele>
        <time>2020-07-05T16:48:08Z</time>
      </trkpt>
      <trkpt lat="46.07051" lon="6.21919">
        <ele>868.523</ele>
        <time>2020-07-05T16:48:09Z</time>
      </trkpt>
      <trkpt lat="46.07054" lon="6.21933">
        <ele>868.615</ele>
        <time>2020-07-05T16:48:10Z</time>
      </trkpt>
      <trkpt lat="46.07057" lon="6.21953">
        <ele>868.908</ele>
        <time>2020-07-05T16:48:11Z</time>
      </trkpt>
      <trkpt lat="46.0706" lon="6.2197">
        <ele>869.578</ele>
        <time>2020-07-05T16:48:12Z</time>
      </trkpt>
      <trkpt lat="46.07062" lon="6.21982">
        <ele>870.255</ele>
        <time>2020-07-05T16:48:13Z</time>
      </trkpt>
      <trkpt lat="46.07063" lon="6.21991">
        <ele>871.095</ele>
        <time>2020-07-05T16:48:14Z</time>
      </trkpt>
      <trkpt lat="46.07063" lon="6.21999">
        <ele>871.817</ele>
        <time>2020-07-05T16:48:15Z</time>
      </trkpt>
      <trkpt lat="46.07062" lon="6.22005">
        <ele>872.593</ele>
        <time>2020-07-05T16:48:16Z</time>
      </trkpt>
      <trkpt lat="46.07062" lon="6.22014">
        <ele>873.126</ele>
        <time>2020-07-05T16:48:17Z</time>
      </trkpt>
      <trkpt lat="46.0706" lon="6.22023">
        <ele>873.77</ele>
        <time>2020-07-05T16:48:18Z</time>
      </trkpt>
      <trkpt lat="46.0706" lon="6.22033">
        <ele>874.391</ele>
        <time>2020-07-05T16:48:19Z</time>
      </trkpt>
      <trkpt lat="46.07058" lon="6.22045">
        <ele>875.142</ele>
        <time>2020-07-05T16:48:20Z</time>
      </trkpt>
      <trkpt lat="46.07056" lon="6.22055">
        <ele>876.122</ele>
        <time>2020-07-05T16:48:21Z</time>
      </trkpt>
      <trkpt lat="46.07053" lon="6.22065">
        <ele>877.114</ele>
        <time>2020-07-05T16:48:22Z</time>
      </trkpt>
      <trkpt lat="46.07053" lon="6.22076">
        <ele>878.108</ele>
        <time>2020-07-05T16:48:23Z</time>
      </trkpt>
      <trkpt lat="46.0705" lon="6.22084">
        <ele>879.269</ele>
        <time>2020-07-05T16:48:24Z</time>
      </trkpt>
      <trkpt lat="46.07047" lon="6.22092">
        <ele>880.396</ele>
        <time>2020-07-05T16:48:25Z</time>
      </trkpt>
      <trkpt lat="46.07043" lon="6.22102">
        <ele>881.176</ele>
        <time>2020-07-05T16:48:26Z</time>
      </trkpt>
      <trkpt lat="46.07038" lon="6.22107">
        <ele>881.858</ele>
        <time>2020-07-05T16:48:27Z</time>
      </trkpt>
      <trkpt lat="46.07033" lon="6.22109">
        <ele>882.854</ele>
        <time>2020-07-05T16:48:29Z</time>
      </trkpt>
      <trkpt lat="46.07029" lon="6.22106">
        <ele>883.297</ele>
        <time>2020-07-05T16:48:31Z</time>
      </trkpt>
      <trkpt lat="46.07023" lon="6.22103">
        <ele>883.391</ele>
        <time>2020-07-05T16:48:32Z</time>
      </trkpt>
      <trkpt lat="46.07013" lon="6.22098">
        <ele>883.492</ele>
        <time>2020-07-05T16:48:33Z</time>
      </trkpt>
      <trkpt lat="46.07005" lon="6.22093">
        <ele>883.731</ele>
        <time>2020-07-05T16:48:34Z</time>
      </trkpt>
      <trkpt lat="46.06996" lon="6.22089">
        <ele>884.161</ele>
        <time>2020-07-05T16:48:35Z</time>
      </trkpt>
      <trkpt lat="46.06984" lon="6.22083">
        <ele>884.507</ele>
        <time>2020-07-05T16:48:36Z</time>
      </trkpt>
      <trkpt lat="46.06971" lon="6.22078">
        <ele>884.808</ele>
        <time>2020-07-05T16:48:37Z</time>
      </trkpt>
      <trkpt lat="46.06958" lon="6.22073">
        <ele>885.158</ele>
        <time>2020-07-05T16:48:38Z</time>
      </trkpt>
      <trkpt lat="46.06946" lon="6.22066">
        <ele>885.265</ele>
        <time>2020-07-05T16:48:39Z</time>
      </trkpt>
      <trkpt lat="46.06935" lon="6.22061">
        <ele>885.255</ele>
        <time>2020-07-05T16:48:40Z</time>
      </trkpt>
      <trkpt lat="46.06924" lon="6.22057">
        <ele>885.257</ele>
        <time>2020-07-05T16:48:41Z</time>
      </trkpt>
      <trkpt lat="46.06912" lon="6.22051">
        <ele>885.293</ele>
        <time>2020-07-05T16:48:42Z</time>
      </trkpt>
      <trkpt lat="46.06901" lon="6.22046">
        <ele>885.176</ele>
        <time>2020-07-05T16:48:43Z</time>
      </trkpt>
      <trkpt lat="46.06891" lon="6.22043">
        <ele>885.14</ele>
        <time>2020-07-05T16:48:44Z</time>
      </trkpt>
      <trkpt lat="46.06882" lon="6.22041">
        <ele>885.191</ele>
        <time>2020-07-05T16:48:45Z</time>
      </trkpt>
      <trkpt lat="46.06874" lon="6.22041">
        <ele>885.133</ele>
        <time>2020-07-05T16:48:46Z</time>
      </trkpt>
      <trkpt lat="46.06866" lon="6.22041">
        <ele>885.123</ele>
        <time>2020-07-05T16:48:47Z</time>
      </trkpt>
      <trkpt lat="46.06856" lon="6.22041">
        <ele>885.215</ele>
        <time>2020-07-05T16:48:48Z</time>
      </trkpt>
      <trkpt lat="46.06847" lon="6.22043">
        <ele>885.408</ele>
        <time>2020-07-05T16:48:49Z</time>
      </trkpt>
      <trkpt lat="46.06837" lon="6.22045">
        <ele>885.798</ele>
        <time>2020-07-05T16:48:50Z</time>
      </trkpt>
      <trkpt lat="46.06828" lon="6.22048">
        <ele>886.325</ele>
        <time>2020-07-05T16:48:51Z</time>
      </trkpt>
      <trkpt lat="46.06821" lon="6.22049">
        <ele>886.815</ele>
        <time>2020-07-05T16:48:52Z</time>
      </trkpt>
      <trkpt lat="46.06813" lon="6.22041">
        <ele>887.417</ele>
        <time>2020-07-05T16:48:53Z</time>
      </trkpt>
      <trkpt lat="46.06806" lon="6.22032">
        <ele>887.983</ele>
        <time>2020-07-05T16:48:54Z</time>
      </trkpt>
      <trkpt lat="46.068" lon="6.22026">
        <ele>888.586</ele>
        <time>2020-07-05T16:48:55Z</time>
      </trkpt>
      <trkpt lat="46.06792" lon="6.22026">
        <ele>889.02</ele>
        <time>2020-07-05T16:48:56Z</time>
      </trkpt>
      <trkpt lat="46.06785" lon="6.22028">
        <ele>889.751</ele>
        <time>2020-07-05T16:48:57Z</time>
      </trkpt>
      <trkpt lat="46.06779" lon="6.22028">
        <ele>890.335</ele>
        <time>2020-07-05T16:48:58Z</time>
      </trkpt>
      <trkpt lat="46.0677" lon="6.22029">
        <ele>891.086</ele>
        <time>2020-07-05T16:48:59Z</time>
      </trkpt>
      <trkpt lat="46.06756" lon="6.22029">
        <ele>891.814</ele>
        <time>2020-07-05T16:49:00Z</time>
      </trkpt>
      <trkpt lat="46.06744" lon="6.22032">
        <ele>892.608</ele>
        <time>2020-07-05T16:49:01Z</time>
      </trkpt>
      <trkpt lat="46.06737" lon="6.22034">
        <ele>893.498</ele>
        <time>2020-07-05T16:49:02Z</time>
      </trkpt>
      <trkpt lat="46.06731" lon="6.22043">
        <ele>894.315</ele>
        <time>2020-07-05T16:49:03Z</time>
      </trkpt>
      <trkpt lat="46.06731" lon="6.22052">
        <ele>895.165</ele>
        <time>2020-07-05T16:49:04Z</time>
      </trkpt>
      <trkpt lat="46.0673" lon="6.22061">
        <ele>895.867</ele>
        <time>2020-07-05T16:49:05Z</time>
      </trkpt>
      <trkpt lat="46.06729" lon="6.22075">
        <ele>896.483</ele>
        <time>2020-07-05T16:49:06Z</time>
      </trkpt>
      <trkpt lat="46.06725" lon="6.22091">
        <ele>896.816</ele>
        <time>2020-07-05T16:49:07Z</time>
      </trkpt>
      <trkpt lat="46.06722" lon="6.22108">
        <ele>897.33</ele>
        <time>2020-07-05T16:49:08Z</time>
      </trkpt>
      <trkpt lat="46.06718" lon="6.22117">
        <ele>897.951</ele>
        <time>2020-07-05T16:49:09Z</time>
      </trkpt>
      <trkpt lat="46.06715" lon="6.2213">
        <ele>898.597</ele>
        <time>2020-07-05T16:49:10Z</time>
      </trkpt>
      <trkpt lat="46.06714" lon="6.22138">
        <ele>899.223</ele>
        <time>2020-07-05T16:49:11Z</time>
      </trkpt>
      <trkpt lat="46.06715" lon="6.22146">
        <ele>899.825</ele>
        <time>2020-07-05T16:49:12Z</time>
      </trkpt>
      <trkpt lat="46.06716" lon="6.22154">
        <ele>900.508</ele>
        <time>2020-07-05T16:49:14Z</time>
      </trkpt>
      <trkpt lat="46.06718" lon="6.22162">
        <ele>900.834</ele>
        <time>2020-07-05T16:49:15Z</time>
      </trkpt>
      <trkpt lat="46.06721" lon="6.22168">
        <ele>901.021</ele>
        <time>2020-07-05T16:49:16Z</time>
      </trkpt>
      <trkpt lat="46.06726" lon="6.22173">
        <ele>901.271</ele>
        <time>2020-07-05T16:49:17Z</time>
      </trkpt>
      <trkpt lat="46.06732" lon="6.22177">
        <ele>901.483</ele>
        <time>2020-07-05T16:49:18Z</time>
      </trkpt>
      <trkpt lat="46.06737" lon="6.22181">
        <ele>901.579</ele>
        <time>2020-07-05T16:49:19Z</time>
      </trkpt>
      <trkpt lat="46.06741" lon="6.22186">
        <ele>901.572</ele>
        <time>2020-07-05T16:49:20Z</time>
      </trkpt>
      <trkpt lat="46.06747" lon="6.22192">
        <ele>901.516</ele>
        <time>2020-07-05T16:49:22Z</time>
      </trkpt>
      <trkpt lat="46.06757" lon="6.22194">
        <ele>901.537</ele>
        <time>2020-07-05T16:49:24Z</time>
      </trkpt>
      <trkpt lat="46.06761" lon="6.22196">
        <ele>901.562</ele>
        <time>2020-07-05T16:49:25Z</time>
      </trkpt>
      <trkpt lat="46.06768" lon="6.22201">
        <ele>901.783</ele>
        <time>2020-07-05T16:49:30Z</time>
      </trkpt>
      <trkpt lat="46.06772" lon="6.22205">
        <ele>901.711</ele>
        <time>2020-07-05T16:49:31Z</time>
      </trkpt>
      <trkpt lat="46.06779" lon="6.22208">
        <ele>901.808</ele>
        <time>2020-07-05T16:49:32Z</time>
      </trkpt>
      <trkpt lat="46.06787" lon="6.22215">
        <ele>901.961</ele>
        <time>2020-07-05T16:49:33Z</time>
      </trkpt>
      <trkpt lat="46.06798" lon="6.22222">
        <ele>902.158</ele>
        <time>2020-07-05T16:49:34Z</time>
      </trkpt>
      <trkpt lat="46.06809" lon="6.22229">
        <ele>902.448</ele>
        <time>2020-07-05T16:49:35Z</time>
      </trkpt>
      <trkpt lat="46.06819" lon="6.22237">
        <ele>902.86</ele>
        <time>2020-07-05T16:49:36Z</time>
      </trkpt>
      <trkpt lat="46.06828" lon="6.22244">
        <ele>903.136</ele>
        <time>2020-07-05T16:49:37Z</time>
      </trkpt>
      <trkpt lat="46.06839" lon="6.2225">
        <ele>903.449</ele>
        <time>2020-07-05T16:49:38Z</time>
      </trkpt>
      <trkpt lat="46.06852" lon="6.22259">
        <ele>903.653</ele>
        <time>2020-07-05T16:49:39Z</time>
      </trkpt>
      <trkpt lat="46.06867" lon="6.2227">
        <ele>903.764</ele>
        <time>2020-07-05T16:49:40Z</time>
      </trkpt>
      <trkpt lat="46.06881" lon="6.22281">
        <ele>903.868</ele>
        <time>2020-07-05T16:49:41Z</time>
      </trkpt>
      <trkpt lat="46.06897" lon="6.22293">
        <ele>903.842</ele>
        <time>2020-07-05T16:49:42Z</time>
      </trkpt>
      <trkpt lat="46.06914" lon="6.22306">
        <ele>904.026</ele>
        <time>2020-07-05T16:49:43Z</time>
      </trkpt>
      <trkpt lat="46.06927" lon="6.22321">
        <ele>904.008</ele>
        <time>2020-07-05T16:49:44Z</time>
      </trkpt>
      <trkpt lat="46.06938" lon="6.22337">
        <ele>904.061</ele>
        <time>2020-07-05T16:49:45Z</time>
      </trkpt>
      <trkpt lat="46.06948" lon="6.22353">
        <ele>903.858</ele>
        <time>2020-07-05T16:49:46Z</time>
      </trkpt>
      <trkpt lat="46.06957" lon="6.2237">
        <ele>903.568</ele>
        <time>2020-07-05T16:49:47Z</time>
      </trkpt>
      <trkpt lat="46.06965" lon="6.22387">
        <ele>903.14</ele>
        <time>2020-07-05T16:49:48Z</time>
      </trkpt>
      <trkpt lat="46.06971" lon="6.22404">
        <ele>902.876</ele>
        <time>2020-07-05T16:49:49Z</time>
      </trkpt>
      <trkpt lat="46.06975" lon="6.22419">
        <ele>902.349</ele>
        <time>2020-07-05T16:49:50Z</time>
      </trkpt>
      <trkpt lat="46.06977" lon="6.22432">
        <ele>902.073</ele>
        <time>2020-07-05T16:49:51Z</time>
      </trkpt>
      <trkpt lat="46.06979" lon="6.22444">
        <ele>901.734</ele>
        <time>2020-07-05T16:49:52Z</time>
      </trkpt>
      <trkpt lat="46.06981" lon="6.22455">
        <ele>901.557</ele>
        <time>2020-07-05T16:49:53Z</time>
      </trkpt>
      <trkpt lat="46.06981" lon="6.22467">
        <ele>901</ele>
        <time>2020-07-05T16:49:54Z</time>
      </trkpt>
      <trkpt lat="46.06981" lon="6.2248">
        <ele>900.82</ele>
        <time>2020-07-05T16:49:55Z</time>
      </trkpt>
      <trkpt lat="46.06982" lon="6.22491">
        <ele>900.608</ele>
        <time>2020-07-05T16:49:56Z</time>
      </trkpt>
      <trkpt lat="46.06983" lon="6.225">
        <ele>900.64</ele>
        <time>2020-07-05T16:49:57Z</time>
      </trkpt>
      <trkpt lat="46.06986" lon="6.2251">
        <ele>900.697</ele>
        <time>2020-07-05T16:49:58Z</time>
      </trkpt>
      <trkpt lat="46.06989" lon="6.22521">
        <ele>900.867</ele>
        <time>2020-07-05T16:49:59Z</time>
      </trkpt>
      <trkpt lat="46.06993" lon="6.22531">
        <ele>901.289</ele>
        <time>2020-07-05T16:50:00Z</time>
      </trkpt>
      <trkpt lat="46.06997" lon="6.22541">
        <ele>901.765</ele>
        <time>2020-07-05T16:50:01Z</time>
      </trkpt>
      <trkpt lat="46.06999" lon="6.22549">
        <ele>902.288</ele>
        <time>2020-07-05T16:50:02Z</time>
      </trkpt>
      <trkpt lat="46.07001" lon="6.22555">
        <ele>902.672</ele>
        <time>2020-07-05T16:50:03Z</time>
      </trkpt>
      <trkpt lat="46.07003" lon="6.22563">
        <ele>903.193</ele>
        <time>2020-07-05T16:50:05Z</time>
      </trkpt>
      <trkpt lat="46.06996" lon="6.22544">
        <ele>903.348</ele>
        <time>2020-07-05T16:50:21Z</time>
      </trkpt>
      <trkpt lat="46.06994" lon="6.22537">
        <ele>903.361</ele>
        <time>2020-07-05T16:50:22Z</time>
      </trkpt>
      <trkpt lat="46.06991" lon="6.22531">
        <ele>903.217</ele>
        <time>2020-07-05T16:50:23Z</time>
      </trkpt>
      <trkpt lat="46.06988" lon="6.22521">
        <ele>902.908</ele>
        <time>2020-07-05T16:50:25Z</time>
      </trkpt>
      <trkpt lat="46.06984" lon="6.22512">
        <ele>902.469</ele>
        <time>2020-07-05T16:50:27Z</time>
      </trkpt>
      <trkpt lat="46.0698" lon="6.22517">
        <ele>901.736</ele>
        <time>2020-07-05T16:50:39Z</time>
      </trkpt>
      <trkpt lat="46.06977" lon="6.22522">
        <ele>901.836</ele>
        <time>2020-07-05T16:50:40Z</time>
      </trkpt>
      <trkpt lat="46.0697" lon="6.22529">
        <ele>902.298</ele>
        <time>2020-07-05T16:50:42Z</time>
      </trkpt>
      <trkpt lat="46.06963" lon="6.22532">
        <ele>903.094</ele>
        <time>2020-07-05T16:50:44Z</time>
      </trkpt>
      <trkpt lat="46.06958" lon="6.22533">
        <ele>903.537</ele>
        <time>2020-07-05T16:50:45Z</time>
      </trkpt>
      <trkpt lat="46.06953" lon="6.22534">
        <ele>904.141</ele>
        <time>2020-07-05T16:50:46Z</time>
      </trkpt>
      <trkpt lat="46.06948" lon="6.22533">
        <ele>904.762</ele>
        <time>2020-07-05T16:50:47Z</time>
      </trkpt>
      <trkpt lat="46.06942" lon="6.22534">
        <ele>905.477</ele>
        <time>2020-07-05T16:50:48Z</time>
      </trkpt>
      <trkpt lat="46.06935" lon="6.22535">
        <ele>906.061</ele>
        <time>2020-07-05T16:50:49Z</time>
      </trkpt>
      <trkpt lat="46.06929" lon="6.22536">
        <ele>906.727</ele>
        <time>2020-07-05T16:50:50Z</time>
      </trkpt>
      <trkpt lat="46.0692" lon="6.22539">
        <ele>907.408</ele>
        <time>2020-07-05T16:50:51Z</time>
      </trkpt>
      <trkpt lat="46.06914" lon="6.2254">
        <ele>908.272</ele>
        <time>2020-07-05T16:50:52Z</time>
      </trkpt>
      <trkpt lat="46.06908" lon="6.22541">
        <ele>908.969</ele>
        <time>2020-07-05T16:50:53Z</time>
      </trkpt>
      <trkpt lat="46.06898" lon="6.22543">
        <ele>910.259</ele>
        <time>2020-07-05T16:50:55Z</time>
      </trkpt>
      <trkpt lat="46.06887" lon="6.2255">
        <ele>911.541</ele>
        <time>2020-07-05T16:50:59Z</time>
      </trkpt>
      <trkpt lat="46.0688" lon="6.22551">
        <ele>911.677</ele>
        <time>2020-07-05T16:51:01Z</time>
      </trkpt>
      <trkpt lat="46.06876" lon="6.22555">
        <ele>912.51</ele>
        <time>2020-07-05T16:51:14Z</time>
      </trkpt>
      <trkpt lat="46.06871" lon="6.22551">
        <ele>912.144</ele>
        <time>2020-07-05T16:51:19Z</time>
      </trkpt>
      <trkpt lat="46.06867" lon="6.22542">
        <ele>912.275</ele>
        <time>2020-07-05T16:51:21Z</time>
      </trkpt>
      <trkpt lat="46.06864" lon="6.22533">
        <ele>912.239</ele>
        <time>2020-07-05T16:51:22Z</time>
      </trkpt>
      <trkpt lat="46.06862" lon="6.22524">
        <ele>912.401</ele>
        <time>2020-07-05T16:51:23Z</time>
      </trkpt>
      <trkpt lat="46.06861" lon="6.22517">
        <ele>912.721</ele>
        <time>2020-07-05T16:51:24Z</time>
      </trkpt>
      <trkpt lat="46.06859" lon="6.2251">
        <ele>913.108</ele>
        <time>2020-07-05T16:51:25Z</time>
      </trkpt>
      <trkpt lat="46.06855" lon="6.22501">
        <ele>914.488</ele>
        <time>2020-07-05T16:51:27Z</time>
      </trkpt>
      <trkpt lat="46.06853" lon="6.22494">
        <ele>915.195</ele>
        <time>2020-07-05T16:51:28Z</time>
      </trkpt>
      <trkpt lat="46.0685" lon="6.22485">
        <ele>917.075</ele>
        <time>2020-07-05T16:51:30Z</time>
      </trkpt>
      <trkpt lat="46.06848" lon="6.2248">
        <ele>917.897</ele>
        <time>2020-07-05T16:51:31Z</time>
      </trkpt>
      <trkpt lat="46.06844" lon="6.22471">
        <ele>919.233</ele>
        <time>2020-07-05T16:51:33Z</time>
      </trkpt>
      <trkpt lat="46.0684" lon="6.22463">
        <ele>919.976</ele>
        <time>2020-07-05T16:51:35Z</time>
      </trkpt>
      <trkpt lat="46.06836" lon="6.22457">
        <ele>920.23</ele>
        <time>2020-07-05T16:51:36Z</time>
      </trkpt>
      <trkpt lat="46.06832" lon="6.22452">
        <ele>920.591</ele>
        <time>2020-07-05T16:51:38Z</time>
      </trkpt>
      <trkpt lat="46.06824" lon="6.22446">
        <ele>920.912</ele>
        <time>2020-07-05T16:51:50Z</time>
      </trkpt>
      <trkpt lat="46.06817" lon="6.22441">
        <ele>920.932</ele>
        <time>2020-07-05T16:51:52Z</time>
      </trkpt>
      <trkpt lat="46.0681" lon="6.22436">
        <ele>921.005</ele>
        <time>2020-07-05T16:51:54Z</time>
      </trkpt>
      <trkpt lat="46.06803" lon="6.22431">
        <ele>921.108</ele>
        <time>2020-07-05T16:51:56Z</time>
      </trkpt>
      <trkpt lat="46.06797" lon="6.22424">
        <ele>921.226</ele>
        <time>2020-07-05T16:51:58Z</time>
      </trkpt>
      <trkpt lat="46.06792" lon="6.22418">
        <ele>921.213</ele>
        <time>2020-07-05T16:52:00Z</time>
      </trkpt>
      <trkpt lat="46.06788" lon="6.22414">
        <ele>921.153</ele>
        <time>2020-07-05T16:52:03Z</time>
      </trkpt>
      <trkpt lat="46.06783" lon="6.22409">
        <ele>920.935</ele>
        <time>2020-07-05T16:52:05Z</time>
      </trkpt>
      <trkpt lat="46.06795" lon="6.2242">
        <ele>921.051</ele>
        <time>2020-07-05T16:52:13Z</time>
      </trkpt>
      <trkpt lat="46.06801" lon="6.22426">
        <ele>921.034</ele>
        <time>2020-07-05T16:52:14Z</time>
      </trkpt>
      <trkpt lat="46.06807" lon="6.22431">
        <ele>921.058</ele>
        <time>2020-07-05T16:52:15Z</time>
      </trkpt>
      <trkpt lat="46.06814" lon="6.22437">
        <ele>921.159</ele>
        <time>2020-07-05T16:52:16Z</time>
      </trkpt>
      <trkpt lat="46.06822" lon="6.22443">
        <ele>921.494</ele>
        <time>2020-07-05T16:52:17Z</time>
      </trkpt>
      <trkpt lat="46.06827" lon="6.22446">
        <ele>921.557</ele>
        <time>2020-07-05T16:52:18Z</time>
      </trkpt>
      <trkpt lat="46.06832" lon="6.2245">
        <ele>921.522</ele>
        <time>2020-07-05T16:52:19Z</time>
      </trkpt>
      <trkpt lat="46.06836" lon="6.22458">
        <ele>921.408</ele>
        <time>2020-07-05T16:52:21Z</time>
      </trkpt>
      <trkpt lat="46.06841" lon="6.22467">
        <ele>920.284</ele>
        <time>2020-07-05T16:52:25Z</time>
      </trkpt>
      <trkpt lat="46.06845" lon="6.22476">
        <ele>919.941</ele>
        <time>2020-07-05T16:52:27Z</time>
      </trkpt>
      <trkpt lat="46.06849" lon="6.22484">
        <ele>919.741</ele>
        <time>2020-07-05T16:52:28Z</time>
      </trkpt>
      <trkpt lat="46.06851" lon="6.22493">
        <ele>919.443</ele>
        <time>2020-07-05T16:52:29Z</time>
      </trkpt>
      <trkpt lat="46.06854" lon="6.22502">
        <ele>918.959</ele>
        <time>2020-07-05T16:52:30Z</time>
      </trkpt>
      <trkpt lat="46.06856" lon="6.2251">
        <ele>918.212</ele>
        <time>2020-07-05T16:52:31Z</time>
      </trkpt>
      <trkpt lat="46.06859" lon="6.22518">
        <ele>917.396</ele>
        <time>2020-07-05T16:52:32Z</time>
      </trkpt>
      <trkpt lat="46.06861" lon="6.22525">
        <ele>916.247</ele>
        <time>2020-07-05T16:52:33Z</time>
      </trkpt>
      <trkpt lat="46.06864" lon="6.22532">
        <ele>915.253</ele>
        <time>2020-07-05T16:52:34Z</time>
      </trkpt>
      <trkpt lat="46.06865" lon="6.22542">
        <ele>914.304</ele>
        <time>2020-07-05T16:52:35Z</time>
      </trkpt>
      <trkpt lat="46.06867" lon="6.2255">
        <ele>913.514</ele>
        <time>2020-07-05T16:52:36Z</time>
      </trkpt>
      <trkpt lat="46.0687" lon="6.22562">
        <ele>912.908</ele>
        <time>2020-07-05T16:52:37Z</time>
      </trkpt>
      <trkpt lat="46.06874" lon="6.22574">
        <ele>912.85</ele>
        <time>2020-07-05T16:52:38Z</time>
      </trkpt>
      <trkpt lat="46.06877" lon="6.22588">
        <ele>912.857</ele>
        <time>2020-07-05T16:52:39Z</time>
      </trkpt>
      <trkpt lat="46.06878" lon="6.22604">
        <ele>913.237</ele>
        <time>2020-07-05T16:52:40Z</time>
      </trkpt>
      <trkpt lat="46.06878" lon="6.22616">
        <ele>913.959</ele>
        <time>2020-07-05T16:52:41Z</time>
      </trkpt>
      <trkpt lat="46.06878" lon="6.22626">
        <ele>914.755</ele>
        <time>2020-07-05T16:52:42Z</time>
      </trkpt>
      <trkpt lat="46.06877" lon="6.22634">
        <ele>915.488</ele>
        <time>2020-07-05T16:52:43Z</time>
      </trkpt>
      <trkpt lat="46.06877" lon="6.22645">
        <ele>916.062</ele>
        <time>2020-07-05T16:52:44Z</time>
      </trkpt>
      <trkpt lat="46.06877" lon="6.22653">
        <ele>916.533</ele>
        <time>2020-07-05T16:52:45Z</time>
      </trkpt>
      <trkpt lat="46.06875" lon="6.22665">
        <ele>917.119</ele>
        <time>2020-07-05T16:52:47Z</time>
      </trkpt>
      <trkpt lat="46.06872" lon="6.22671">
        <ele>917.509</ele>
        <time>2020-07-05T16:52:50Z</time>
      </trkpt>
      <trkpt lat="46.06871" lon="6.22681">
        <ele>917.519</ele>
        <time>2020-07-05T16:52:52Z</time>
      </trkpt>
      <trkpt lat="46.06874" lon="6.22686">
        <ele>917.308</ele>
        <time>2020-07-05T16:52:54Z</time>
      </trkpt>
      <trkpt lat="46.06872" lon="6.22693">
        <ele>916.816</ele>
        <time>2020-07-05T16:53:01Z</time>
      </trkpt>
      <trkpt lat="46.06866" lon="6.22689">
        <ele>916.933</ele>
        <time>2020-07-05T16:53:03Z</time>
      </trkpt>
      <trkpt lat="46.06858" lon="6.22683">
        <ele>917.343</ele>
        <time>2020-07-05T16:53:05Z</time>
      </trkpt>
      <trkpt lat="46.06854" lon="6.2268">
        <ele>917.645</ele>
        <time>2020-07-05T16:53:06Z</time>
      </trkpt>
      <trkpt lat="46.06847" lon="6.22672">
        <ele>918.191</ele>
        <time>2020-07-05T16:53:07Z</time>
      </trkpt>
      <trkpt lat="46.06841" lon="6.22667">
        <ele>918.724</ele>
        <time>2020-07-05T16:53:08Z</time>
      </trkpt>
      <trkpt lat="46.06836" lon="6.22662">
        <ele>919.328</ele>
        <time>2020-07-05T16:53:09Z</time>
      </trkpt>
      <trkpt lat="46.06831" lon="6.22657">
        <ele>919.839</ele>
        <time>2020-07-05T16:53:10Z</time>
      </trkpt>
      <trkpt lat="46.06825" lon="6.22649">
        <ele>920.442</ele>
        <time>2020-07-05T16:53:11Z</time>
      </trkpt>
      <trkpt lat="46.06818" lon="6.22642">
        <ele>920.822</ele>
        <time>2020-07-05T16:53:12Z</time>
      </trkpt>
      <trkpt lat="46.06813" lon="6.22635">
        <ele>921.014</ele>
        <time>2020-07-05T16:53:13Z</time>
      </trkpt>
      <trkpt lat="46.06809" lon="6.22628">
        <ele>921.308</ele>
        <time>2020-07-05T16:53:14Z</time>
      </trkpt>
      <trkpt lat="46.06804" lon="6.22621">
        <ele>921.639</ele>
        <time>2020-07-05T16:53:15Z</time>
      </trkpt>
      <trkpt lat="46.06798" lon="6.22614">
        <ele>922.086</ele>
        <time>2020-07-05T16:53:16Z</time>
      </trkpt>
      <trkpt lat="46.06792" lon="6.22605">
        <ele>922.516</ele>
        <time>2020-07-05T16:53:17Z</time>
      </trkpt>
      <trkpt lat="46.06786" lon="6.22598">
        <ele>923.078</ele>
        <time>2020-07-05T16:53:18Z</time>
      </trkpt>
      <trkpt lat="46.06779" lon="6.22589">
        <ele>923.654</ele>
        <time>2020-07-05T16:53:19Z</time>
      </trkpt>
      <trkpt lat="46.06772" lon="6.22583">
        <ele>924.297</ele>
        <time>2020-07-05T16:53:20Z</time>
      </trkpt>
      <trkpt lat="46.06768" lon="6.22579">
        <ele>924.871</ele>
        <time>2020-07-05T16:53:21Z</time>
      </trkpt>
      <trkpt lat="46.0676" lon="6.2257">
        <ele>925.312</ele>
        <time>2020-07-05T16:53:23Z</time>
      </trkpt>
      <trkpt lat="46.06754" lon="6.22564">
        <ele>925.527</ele>
        <time>2020-07-05T16:53:24Z</time>
      </trkpt>
      <trkpt lat="46.06749" lon="6.22559">
        <ele>925.568</ele>
        <time>2020-07-05T16:53:25Z</time>
      </trkpt>
      <trkpt lat="46.06745" lon="6.22555">
        <ele>925.514</ele>
        <time>2020-07-05T16:53:26Z</time>
      </trkpt>
      <trkpt lat="46.0674" lon="6.22551">
        <ele>925.508</ele>
        <time>2020-07-05T16:53:27Z</time>
      </trkpt>
      <trkpt lat="46.06734" lon="6.22543">
        <ele>925.557</ele>
        <time>2020-07-05T16:53:29Z</time>
      </trkpt>
      <trkpt lat="46.06727" lon="6.22537">
        <ele>925.564</ele>
        <time>2020-07-05T16:53:31Z</time>
      </trkpt>
      <trkpt lat="46.06721" lon="6.2253">
        <ele>925.584</ele>
        <time>2020-07-05T16:53:33Z</time>
      </trkpt>
      <trkpt lat="46.06717" lon="6.22525">
        <ele>925.516</ele>
        <time>2020-07-05T16:53:34Z</time>
      </trkpt>
      <trkpt lat="46.06713" lon="6.2252">
        <ele>925.592</ele>
        <time>2020-07-05T16:53:35Z</time>
      </trkpt>
      <trkpt lat="46.06709" lon="6.22515">
        <ele>925.585</ele>
        <time>2020-07-05T16:53:36Z</time>
      </trkpt>
      <trkpt lat="46.06704" lon="6.2251">
        <ele>925.599</ele>
        <time>2020-07-05T16:53:37Z</time>
      </trkpt>
      <trkpt lat="46.06698" lon="6.22506">
        <ele>925.38</ele>
        <time>2020-07-05T16:53:39Z</time>
      </trkpt>
      <trkpt lat="46.06697" lon="6.22517">
        <ele>924.949</ele>
        <time>2020-07-05T16:53:42Z</time>
      </trkpt>
      <trkpt lat="46.06696" lon="6.22524">
        <ele>924.902</ele>
        <time>2020-07-05T16:53:43Z</time>
      </trkpt>
      <trkpt lat="46.06696" lon="6.22532">
        <ele>925.222</ele>
        <time>2020-07-05T16:53:44Z</time>
      </trkpt>
      <trkpt lat="46.06696" lon="6.22539">
        <ele>925.508</ele>
        <time>2020-07-05T16:53:45Z</time>
      </trkpt>
      <trkpt lat="46.06696" lon="6.22548">
        <ele>926.319</ele>
        <time>2020-07-05T16:53:47Z</time>
      </trkpt>
      <trkpt lat="46.06695" lon="6.22555">
        <ele>926.736</ele>
        <time>2020-07-05T16:53:48Z</time>
      </trkpt>
      <trkpt lat="46.06692" lon="6.22569">
        <ele>927.386</ele>
        <time>2020-07-05T16:53:50Z</time>
      </trkpt>
      <trkpt lat="46.06692" lon="6.2258">
        <ele>927.438</ele>
        <time>2020-07-05T16:53:51Z</time>
      </trkpt>
      <trkpt lat="46.0669" lon="6.22596">
        <ele>927.724</ele>
        <time>2020-07-05T16:53:52Z</time>
      </trkpt>
      <trkpt lat="46.06689" lon="6.22604">
        <ele>927.857</ele>
        <time>2020-07-05T16:53:53Z</time>
      </trkpt>
      <trkpt lat="46.06687" lon="6.22612">
        <ele>927.961</ele>
        <time>2020-07-05T16:53:54Z</time>
      </trkpt>
      <trkpt lat="46.06685" lon="6.22624">
        <ele>928.312</ele>
        <time>2020-07-05T16:53:56Z</time>
      </trkpt>
      <trkpt lat="46.06684" lon="6.22631">
        <ele>928.731</ele>
        <time>2020-07-05T16:53:57Z</time>
      </trkpt>
      <trkpt lat="46.06683" lon="6.22638">
        <ele>929.261</ele>
        <time>2020-07-05T16:53:58Z</time>
      </trkpt>
      <trkpt lat="46.06684" lon="6.22645">
        <ele>929.707</ele>
        <time>2020-07-05T16:53:59Z</time>
      </trkpt>
      <trkpt lat="46.06686" lon="6.22653">
        <ele>930.308</ele>
        <time>2020-07-05T16:54:00Z</time>
      </trkpt>
      <trkpt lat="46.06688" lon="6.2266">
        <ele>930.788</ele>
        <time>2020-07-05T16:54:01Z</time>
      </trkpt>
      <trkpt lat="46.0669" lon="6.22666">
        <ele>931.045</ele>
        <time>2020-07-05T16:54:02Z</time>
      </trkpt>
      <trkpt lat="46.06692" lon="6.22676">
        <ele>931.055</ele>
        <time>2020-07-05T16:54:04Z</time>
      </trkpt>
      <trkpt lat="46.06696" lon="6.22685">
        <ele>930.687</ele>
        <time>2020-07-05T16:54:06Z</time>
      </trkpt>
      <trkpt lat="46.06698" lon="6.22696">
        <ele>930.333</ele>
        <time>2020-07-05T16:54:08Z</time>
      </trkpt>
      <trkpt lat="46.067" lon="6.22703">
        <ele>930.216</ele>
        <time>2020-07-05T16:54:09Z</time>
      </trkpt>
      <trkpt lat="46.06702" lon="6.22709">
        <ele>930.14</ele>
        <time>2020-07-05T16:54:10Z</time>
      </trkpt>
      <trkpt lat="46.06705" lon="6.2272">
        <ele>929.941</ele>
        <time>2020-07-05T16:54:12Z</time>
      </trkpt>
      <trkpt lat="46.06709" lon="6.22728">
        <ele>929.841</ele>
        <time>2020-07-05T16:54:14Z</time>
      </trkpt>
      <trkpt lat="46.06711" lon="6.22737">
        <ele>929.881</ele>
        <time>2020-07-05T16:54:16Z</time>
      </trkpt>
      <trkpt lat="46.06714" lon="6.22746">
        <ele>929.809</ele>
        <time>2020-07-05T16:54:18Z</time>
      </trkpt>
      <trkpt lat="46.06718" lon="6.22757">
        <ele>929.808</ele>
        <time>2020-07-05T16:54:20Z</time>
      </trkpt>
      <trkpt lat="46.06721" lon="6.22767">
        <ele>929.939</ele>
        <time>2020-07-05T16:54:22Z</time>
      </trkpt>
      <trkpt lat="46.06723" lon="6.22774">
        <ele>929.976</ele>
        <time>2020-07-05T16:54:23Z</time>
      </trkpt>
      <trkpt lat="46.06724" lon="6.22781">
        <ele>930.056</ele>
        <time>2020-07-05T16:54:24Z</time>
      </trkpt>
      <trkpt lat="46.06724" lon="6.22788">
        <ele>930.038</ele>
        <time>2020-07-05T16:54:25Z</time>
      </trkpt>
      <trkpt lat="46.06727" lon="6.228">
        <ele>930.014</ele>
        <time>2020-07-05T16:54:27Z</time>
      </trkpt>
      <trkpt lat="46.06726" lon="6.22808">
        <ele>929.927</ele>
        <time>2020-07-05T16:54:28Z</time>
      </trkpt>
      <trkpt lat="46.06726" lon="6.22816">
        <ele>929.841</ele>
        <time>2020-07-05T16:54:29Z</time>
      </trkpt>
      <trkpt lat="46.06726" lon="6.22823">
        <ele>929.672</ele>
        <time>2020-07-05T16:54:30Z</time>
      </trkpt>
      <trkpt lat="46.06723" lon="6.22832">
        <ele>929.162</ele>
        <time>2020-07-05T16:54:32Z</time>
      </trkpt>
      <trkpt lat="46.06717" lon="6.22847">
        <ele>928.483</ele>
        <time>2020-07-05T16:54:34Z</time>
      </trkpt>
      <trkpt lat="46.06715" lon="6.22854">
        <ele>928.111</ele>
        <time>2020-07-05T16:54:35Z</time>
      </trkpt>
      <trkpt lat="46.06713" lon="6.22862">
        <ele>927.808</ele>
        <time>2020-07-05T16:54:36Z</time>
      </trkpt>
      <trkpt lat="46.06709" lon="6.22869">
        <ele>927.571</ele>
        <time>2020-07-05T16:54:38Z</time>
      </trkpt>
      <trkpt lat="46.06706" lon="6.22879">
        <ele>927.398</ele>
        <time>2020-07-05T16:54:39Z</time>
      </trkpt>
      <trkpt lat="46.06703" lon="6.22889">
        <ele>927.258</ele>
        <time>2020-07-05T16:54:40Z</time>
      </trkpt>
      <trkpt lat="46.06701" lon="6.22898">
        <ele>927.21</ele>
        <time>2020-07-05T16:54:41Z</time>
      </trkpt>
      <trkpt lat="46.06697" lon="6.22905">
        <ele>927.166</ele>
        <time>2020-07-05T16:54:42Z</time>
      </trkpt>
      <trkpt lat="46.06694" lon="6.22913">
        <ele>927.179</ele>
        <time>2020-07-05T16:54:43Z</time>
      </trkpt>
      <trkpt lat="46.06691" lon="6.22919">
        <ele>927.163</ele>
        <time>2020-07-05T16:54:44Z</time>
      </trkpt>
      <trkpt lat="46.06688" lon="6.22925">
        <ele>927.134</ele>
        <time>2020-07-05T16:54:45Z</time>
      </trkpt>
      <trkpt lat="46.06686" lon="6.22931">
        <ele>926.872</ele>
        <time>2020-07-05T16:54:47Z</time>
      </trkpt>
      <trkpt lat="46.06684" lon="6.22944">
        <ele>926.613</ele>
        <time>2020-07-05T16:54:49Z</time>
      </trkpt>
      <trkpt lat="46.06686" lon="6.22952">
        <ele>926.514</ele>
        <time>2020-07-05T16:54:50Z</time>
      </trkpt>
      <trkpt lat="46.0669" lon="6.22957">
        <ele>926.408</ele>
        <time>2020-07-05T16:54:51Z</time>
      </trkpt>
      <trkpt lat="46.06694" lon="6.22961">
        <ele>926.452</ele>
        <time>2020-07-05T16:54:52Z</time>
      </trkpt>
      <trkpt lat="46.06697" lon="6.22967">
        <ele>926.339</ele>
        <time>2020-07-05T16:54:53Z</time>
      </trkpt>
      <trkpt lat="46.06704" lon="6.22977">
        <ele>926.269</ele>
        <time>2020-07-05T16:54:55Z</time>
      </trkpt>
      <trkpt lat="46.0671" lon="6.22985">
        <ele>926.241</ele>
        <time>2020-07-05T16:54:57Z</time>
      </trkpt>
      <trkpt lat="46.06714" lon="6.22992">
        <ele>926.187</ele>
        <time>2020-07-05T16:54:58Z</time>
      </trkpt>
      <trkpt lat="46.06717" lon="6.22997">
        <ele>926.13</ele>
        <time>2020-07-05T16:54:59Z</time>
      </trkpt>
      <trkpt lat="46.06718" lon="6.2301">
        <ele>926.054</ele>
        <time>2020-07-05T16:55:01Z</time>
      </trkpt>
      <trkpt lat="46.06721" lon="6.23016">
        <ele>926.095</ele>
        <time>2020-07-05T16:55:02Z</time>
      </trkpt>
      <trkpt lat="46.06724" lon="6.23023">
        <ele>926.163</ele>
        <time>2020-07-05T16:55:03Z</time>
      </trkpt>
      <trkpt lat="46.06726" lon="6.23031">
        <ele>926.144</ele>
        <time>2020-07-05T16:55:04Z</time>
      </trkpt>
      <trkpt lat="46.06729" lon="6.23042">
        <ele>926.218</ele>
        <time>2020-07-05T16:55:05Z</time>
      </trkpt>
      <trkpt lat="46.06732" lon="6.2305">
        <ele>926.308</ele>
        <time>2020-07-05T16:55:06Z</time>
      </trkpt>
      <trkpt lat="46.06734" lon="6.23061">
        <ele>926.321</ele>
        <time>2020-07-05T16:55:08Z</time>
      </trkpt>
      <trkpt lat="46.06735" lon="6.23067">
        <ele>926.418</ele>
        <time>2020-07-05T16:55:09Z</time>
      </trkpt>
      <trkpt lat="46.06736" lon="6.23076">
        <ele>926.458</ele>
        <time>2020-07-05T16:55:10Z</time>
      </trkpt>
      <trkpt lat="46.06737" lon="6.23083">
        <ele>926.48</ele>
        <time>2020-07-05T16:55:11Z</time>
      </trkpt>
      <trkpt lat="46.06735" lon="6.23096">
        <ele>926.686</ele>
        <time>2020-07-05T16:55:13Z</time>
      </trkpt>
      <trkpt lat="46.06735" lon="6.23103">
        <ele>926.899</ele>
        <time>2020-07-05T16:55:14Z</time>
      </trkpt>
      <trkpt lat="46.06734" lon="6.23109">
        <ele>927.043</ele>
        <time>2020-07-05T16:55:15Z</time>
      </trkpt>
      <trkpt lat="46.06733" lon="6.23117">
        <ele>927.264</ele>
        <time>2020-07-05T16:55:16Z</time>
      </trkpt>
      <trkpt lat="46.06732" lon="6.23123">
        <ele>927.679</ele>
        <time>2020-07-05T16:55:18Z</time>
      </trkpt>
      <trkpt lat="46.06731" lon="6.2313">
        <ele>927.705</ele>
        <time>2020-07-05T16:55:19Z</time>
      </trkpt>
      <trkpt lat="46.06723" lon="6.23154">
        <ele>928.225</ele>
        <time>2020-07-05T16:55:32Z</time>
      </trkpt>
      <trkpt lat="46.06725" lon="6.23165">
        <ele>928.308</ele>
        <time>2020-07-05T16:55:34Z</time>
      </trkpt>
      <trkpt lat="46.06728" lon="6.23171">
        <ele>928.492</ele>
        <time>2020-07-05T16:55:35Z</time>
      </trkpt>
      <trkpt lat="46.06731" lon="6.23176">
        <ele>928.519</ele>
        <time>2020-07-05T16:55:36Z</time>
      </trkpt>
      <trkpt lat="46.06734" lon="6.23182">
        <ele>928.669</ele>
        <time>2020-07-05T16:55:37Z</time>
      </trkpt>
      <trkpt lat="46.06737" lon="6.23192">
        <ele>928.861</ele>
        <time>2020-07-05T16:55:38Z</time>
      </trkpt>
      <trkpt lat="46.06739" lon="6.23203">
        <ele>928.917</ele>
        <time>2020-07-05T16:55:39Z</time>
      </trkpt>
      <trkpt lat="46.06741" lon="6.23211">
        <ele>929.16</ele>
        <time>2020-07-05T16:55:40Z</time>
      </trkpt>
      <trkpt lat="46.0674" lon="6.23221">
        <ele>929.564</ele>
        <time>2020-07-05T16:55:41Z</time>
      </trkpt>
      <trkpt lat="46.06735" lon="6.23233">
        <ele>929.925</ele>
        <time>2020-07-05T16:55:42Z</time>
      </trkpt>
      <trkpt lat="46.0673" lon="6.23246">
        <ele>930.352</ele>
        <time>2020-07-05T16:55:43Z</time>
      </trkpt>
      <trkpt lat="46.06726" lon="6.23257">
        <ele>930.753</ele>
        <time>2020-07-05T16:55:44Z</time>
      </trkpt>
      <trkpt lat="46.06723" lon="6.23269">
        <ele>931.008</ele>
        <time>2020-07-05T16:55:45Z</time>
      </trkpt>
      <trkpt lat="46.06721" lon="6.2328">
        <ele>931.208</ele>
        <time>2020-07-05T16:55:46Z</time>
      </trkpt>
      <trkpt lat="46.0672" lon="6.2329">
        <ele>931.48</ele>
        <time>2020-07-05T16:55:47Z</time>
      </trkpt>
      <trkpt lat="46.06718" lon="6.23298">
        <ele>931.477</ele>
        <time>2020-07-05T16:55:48Z</time>
      </trkpt>
      <trkpt lat="46.06715" lon="6.23307">
        <ele>931.477</ele>
        <time>2020-07-05T16:55:49Z</time>
      </trkpt>
      <trkpt lat="46.06713" lon="6.23316">
        <ele>931.269</ele>
        <time>2020-07-05T16:55:50Z</time>
      </trkpt>
      <trkpt lat="46.0671" lon="6.23322">
        <ele>930.815</ele>
        <time>2020-07-05T16:55:51Z</time>
      </trkpt>
      <trkpt lat="46.06707" lon="6.23331">
        <ele>930.198</ele>
        <time>2020-07-05T16:55:52Z</time>
      </trkpt>
      <trkpt lat="46.06702" lon="6.23342">
        <ele>928.622</ele>
        <time>2020-07-05T16:55:54Z</time>
      </trkpt>
      <trkpt lat="46.06699" lon="6.23348">
        <ele>927.953</ele>
        <time>2020-07-05T16:55:55Z</time>
      </trkpt>
      <trkpt lat="46.06695" lon="6.23353">
        <ele>926.787</ele>
        <time>2020-07-05T16:55:57Z</time>
      </trkpt>
      <trkpt lat="46.0669" lon="6.2336">
        <ele>926.042</ele>
        <time>2020-07-05T16:55:59Z</time>
      </trkpt>
      <trkpt lat="46.06686" lon="6.23364">
        <ele>925.526</ele>
        <time>2020-07-05T16:56:02Z</time>
      </trkpt>
      <trkpt lat="46.06681" lon="6.23367">
        <ele>925.608</ele>
        <time>2020-07-05T16:56:25Z</time>
      </trkpt>
      <trkpt lat="46.06685" lon="6.23376">
        <ele>925.523</ele>
        <time>2020-07-05T16:56:27Z</time>
      </trkpt>
      <trkpt lat="46.06689" lon="6.23386">
        <ele>925.54</ele>
        <time>2020-07-05T16:56:29Z</time>
      </trkpt>
      <trkpt lat="46.06691" lon="6.23393">
        <ele>925.51</ele>
        <time>2020-07-05T16:56:30Z</time>
      </trkpt>
      <trkpt lat="46.06694" lon="6.23399">
        <ele>925.522</ele>
        <time>2020-07-05T16:56:31Z</time>
      </trkpt>
      <trkpt lat="46.06696" lon="6.23408">
        <ele>925.528</ele>
        <time>2020-07-05T16:56:32Z</time>
      </trkpt>
      <trkpt lat="46.067" lon="6.2342">
        <ele>925.551</ele>
        <time>2020-07-05T16:56:33Z</time>
      </trkpt>
      <trkpt lat="46.06703" lon="6.23427">
        <ele>925.515</ele>
        <time>2020-07-05T16:56:34Z</time>
      </trkpt>
      <trkpt lat="46.06704" lon="6.23434">
        <ele>925.556</ele>
        <time>2020-07-05T16:56:35Z</time>
      </trkpt>
      <trkpt lat="46.06707" lon="6.2344">
        <ele>925.567</ele>
        <time>2020-07-05T16:56:36Z</time>
      </trkpt>
      <trkpt lat="46.06711" lon="6.23445">
        <ele>925.581</ele>
        <time>2020-07-05T16:56:37Z</time>
      </trkpt>
      <trkpt lat="46.06715" lon="6.23452">
        <ele>925.519</ele>
        <time>2020-07-05T16:56:38Z</time>
      </trkpt>
      <trkpt lat="46.06718" lon="6.23459">
        <ele>925.508</ele>
        <time>2020-07-05T16:56:39Z</time>
      </trkpt>
      <trkpt lat="46.06721" lon="6.23465">
        <ele>925.561</ele>
        <time>2020-07-05T16:56:40Z</time>
      </trkpt>
      <trkpt lat="46.06725" lon="6.23471">
        <ele>925.578</ele>
        <time>2020-07-05T16:56:41Z</time>
      </trkpt>
      <trkpt lat="46.0673" lon="6.23481">
        <ele>925.658</ele>
        <time>2020-07-05T16:56:42Z</time>
      </trkpt>
      <trkpt lat="46.06734" lon="6.23492">
        <ele>925.75</ele>
        <time>2020-07-05T16:56:43Z</time>
      </trkpt>
      <trkpt lat="46.06737" lon="6.23505">
        <ele>925.846</ele>
        <time>2020-07-05T16:56:44Z</time>
      </trkpt>
      <trkpt lat="46.06741" lon="6.2352">
        <ele>926.089</ele>
        <time>2020-07-05T16:56:45Z</time>
      </trkpt>
      <trkpt lat="46.06744" lon="6.23536">
        <ele>926.393</ele>
        <time>2020-07-05T16:56:46Z</time>
      </trkpt>
      <trkpt lat="46.06749" lon="6.23552">
        <ele>926.524</ele>
        <time>2020-07-05T16:56:47Z</time>
      </trkpt>
      <trkpt lat="46.06754" lon="6.2357">
        <ele>926.751</ele>
        <time>2020-07-05T16:56:48Z</time>
      </trkpt>
      <trkpt lat="46.06761" lon="6.23587">
        <ele>926.901</ele>
        <time>2020-07-05T16:56:49Z</time>
      </trkpt>
      <trkpt lat="46.06768" lon="6.23604">
        <ele>927.211</ele>
        <time>2020-07-05T16:56:50Z</time>
      </trkpt>
      <trkpt lat="46.06775" lon="6.23616">
        <ele>927.308</ele>
        <time>2020-07-05T16:56:51Z</time>
      </trkpt>
      <trkpt lat="46.06783" lon="6.23626">
        <ele>927.47</ele>
        <time>2020-07-05T16:56:52Z</time>
      </trkpt>
      <trkpt lat="46.06795" lon="6.23635">
        <ele>927.427</ele>
        <time>2020-07-05T16:56:53Z</time>
      </trkpt>
      <trkpt lat="46.06804" lon="6.23642">
        <ele>927.497</ele>
        <time>2020-07-05T16:56:54Z</time>
      </trkpt>
      <trkpt lat="46.06811" lon="6.23646">
        <ele>927.429</ele>
        <time>2020-07-05T16:56:55Z</time>
      </trkpt>
      <trkpt lat="46.06818" lon="6.23654">
        <ele>927.455</ele>
        <time>2020-07-05T16:56:56Z</time>
      </trkpt>
      <trkpt lat="46.06826" lon="6.23661">
        <ele>927.588</ele>
        <time>2020-07-05T16:56:57Z</time>
      </trkpt>
      <trkpt lat="46.06832" lon="6.23668">
        <ele>927.662</ele>
        <time>2020-07-05T16:56:58Z</time>
      </trkpt>
      <trkpt lat="46.06838" lon="6.23673">
        <ele>927.863</ele>
        <time>2020-07-05T16:56:59Z</time>
      </trkpt>
      <trkpt lat="46.06846" lon="6.23679">
        <ele>928.085</ele>
        <time>2020-07-05T16:57:00Z</time>
      </trkpt>
      <trkpt lat="46.06854" lon="6.23685">
        <ele>928.289</ele>
        <time>2020-07-05T16:57:01Z</time>
      </trkpt>
      <trkpt lat="46.06862" lon="6.2369">
        <ele>928.417</ele>
        <time>2020-07-05T16:57:02Z</time>
      </trkpt>
      <trkpt lat="46.0687" lon="6.23696">
        <ele>928.608</ele>
        <time>2020-07-05T16:57:03Z</time>
      </trkpt>
      <trkpt lat="46.06877" lon="6.23701">
        <ele>928.723</ele>
        <time>2020-07-05T16:57:04Z</time>
      </trkpt>
      <trkpt lat="46.06884" lon="6.23705">
        <ele>928.88</ele>
        <time>2020-07-05T16:57:05Z</time>
      </trkpt>
      <trkpt lat="46.0689" lon="6.23709">
        <ele>928.95</ele>
        <time>2020-07-05T16:57:06Z</time>
      </trkpt>
      <trkpt lat="46.06897" lon="6.23711">
        <ele>928.912</ele>
        <time>2020-07-05T16:57:07Z</time>
      </trkpt>
      <trkpt lat="46.06904" lon="6.23712">
        <ele>928.998</ele>
        <time>2020-07-05T16:57:08Z</time>
      </trkpt>
      <trkpt lat="46.06909" lon="6.23711">
        <ele>928.991</ele>
        <time>2020-07-05T16:57:09Z</time>
      </trkpt>
      <trkpt lat="46.06916" lon="6.23711">
        <ele>928.695</ele>
        <time>2020-07-05T16:57:11Z</time>
      </trkpt>
      <trkpt lat="46.06921" lon="6.2372">
        <ele>928.476</ele>
        <time>2020-07-05T16:57:12Z</time>
      </trkpt>
      <trkpt lat="46.06926" lon="6.23727">
        <ele>928.233</ele>
        <time>2020-07-05T16:57:13Z</time>
      </trkpt>
      <trkpt lat="46.06931" lon="6.23732">
        <ele>928.023</ele>
        <time>2020-07-05T16:57:14Z</time>
      </trkpt>
      <trkpt lat="46.06927" lon="6.23739">
        <ele>926.915</ele>
        <time>2020-07-05T16:57:26Z</time>
      </trkpt>
      <trkpt lat="46.06928" lon="6.23746">
        <ele>926.908</ele>
        <time>2020-07-05T16:57:27Z</time>
      </trkpt>
      <trkpt lat="46.0693" lon="6.23757">
        <ele>926.828</ele>
        <time>2020-07-05T16:57:28Z</time>
      </trkpt>
      <trkpt lat="46.06932" lon="6.23768">
        <ele>926.885</ele>
        <time>2020-07-05T16:57:29Z</time>
      </trkpt>
      <trkpt lat="46.06935" lon="6.23781">
        <ele>926.825</ele>
        <time>2020-07-05T16:57:30Z</time>
      </trkpt>
      <trkpt lat="46.06938" lon="6.23794">
        <ele>927.187</ele>
        <time>2020-07-05T16:57:31Z</time>
      </trkpt>
      <trkpt lat="46.0694" lon="6.23808">
        <ele>927.253</ele>
        <time>2020-07-05T16:57:32Z</time>
      </trkpt>
      <trkpt lat="46.0694" lon="6.2382">
        <ele>927.386</ele>
        <time>2020-07-05T16:57:33Z</time>
      </trkpt>
      <trkpt lat="46.06939" lon="6.23833">
        <ele>927.33</ele>
        <time>2020-07-05T16:57:34Z</time>
      </trkpt>
      <trkpt lat="46.06935" lon="6.23846">
        <ele>927.331</ele>
        <time>2020-07-05T16:57:35Z</time>
      </trkpt>
      <trkpt lat="46.06929" lon="6.23859">
        <ele>927.258</ele>
        <time>2020-07-05T16:57:36Z</time>
      </trkpt>
      <trkpt lat="46.0692" lon="6.23875">
        <ele>927.252</ele>
        <time>2020-07-05T16:57:37Z</time>
      </trkpt>
      <trkpt lat="46.06909" lon="6.23887">
        <ele>927.217</ele>
        <time>2020-07-05T16:57:38Z</time>
      </trkpt>
      <trkpt lat="46.06899" lon="6.23895">
        <ele>927.108</ele>
        <time>2020-07-05T16:57:39Z</time>
      </trkpt>
      <trkpt lat="46.06889" lon="6.239">
        <ele>927.02</ele>
        <time>2020-07-05T16:57:40Z</time>
      </trkpt>
      <trkpt lat="46.06877" lon="6.23905">
        <ele>926.427</ele>
        <time>2020-07-05T16:57:41Z</time>
      </trkpt>
      <trkpt lat="46.06864" lon="6.23909">
        <ele>925.727</ele>
        <time>2020-07-05T16:57:42Z</time>
      </trkpt>
      <trkpt lat="46.06852" lon="6.2391">
        <ele>924.849</ele>
        <time>2020-07-05T16:57:43Z</time>
      </trkpt>
      <trkpt lat="46.0684" lon="6.2391">
        <ele>923.955</ele>
        <time>2020-07-05T16:57:44Z</time>
      </trkpt>
      <trkpt lat="46.06829" lon="6.23909">
        <ele>922.798</ele>
        <time>2020-07-05T16:57:45Z</time>
      </trkpt>
      <trkpt lat="46.0682" lon="6.23911">
        <ele>921.832</ele>
        <time>2020-07-05T16:57:46Z</time>
      </trkpt>
      <trkpt lat="46.06809" lon="6.23914">
        <ele>920.813</ele>
        <time>2020-07-05T16:57:47Z</time>
      </trkpt>
      <trkpt lat="46.068" lon="6.23921">
        <ele>919.773</ele>
        <time>2020-07-05T16:57:48Z</time>
      </trkpt>
      <trkpt lat="46.06791" lon="6.23932">
        <ele>918.685</ele>
        <time>2020-07-05T16:57:49Z</time>
      </trkpt>
      <trkpt lat="46.06781" lon="6.23945">
        <ele>917.513</ele>
        <time>2020-07-05T16:57:50Z</time>
      </trkpt>
      <trkpt lat="46.06771" lon="6.23957">
        <ele>916.408</ele>
        <time>2020-07-05T16:57:51Z</time>
      </trkpt>
      <trkpt lat="46.06764" lon="6.23967">
        <ele>915.752</ele>
        <time>2020-07-05T16:57:52Z</time>
      </trkpt>
      <trkpt lat="46.06758" lon="6.23975">
        <ele>915.159</ele>
        <time>2020-07-05T16:57:53Z</time>
      </trkpt>
      <trkpt lat="46.06753" lon="6.2398">
        <ele>914.659</ele>
        <time>2020-07-05T16:57:54Z</time>
      </trkpt>
      <trkpt lat="46.0675" lon="6.23987">
        <ele>914.141</ele>
        <time>2020-07-05T16:57:55Z</time>
      </trkpt>
      <trkpt lat="46.06749" lon="6.23995">
        <ele>913.817</ele>
        <time>2020-07-05T16:57:56Z</time>
      </trkpt>
      <trkpt lat="46.06749" lon="6.24003">
        <ele>913.41</ele>
        <time>2020-07-05T16:57:57Z</time>
      </trkpt>
      <trkpt lat="46.06748" lon="6.24013">
        <ele>913.174</ele>
        <time>2020-07-05T16:57:58Z</time>
      </trkpt>
      <trkpt lat="46.06744" lon="6.24024">
        <ele>913.155</ele>
        <time>2020-07-05T16:57:59Z</time>
      </trkpt>
      <trkpt lat="46.06737" lon="6.24034">
        <ele>913.132</ele>
        <time>2020-07-05T16:58:00Z</time>
      </trkpt>
      <trkpt lat="46.0673" lon="6.24046">
        <ele>913.292</ele>
        <time>2020-07-05T16:58:01Z</time>
      </trkpt>
      <trkpt lat="46.06723" lon="6.24057">
        <ele>913.511</ele>
        <time>2020-07-05T16:58:02Z</time>
      </trkpt>
      <trkpt lat="46.06713" lon="6.24068">
        <ele>913.808</ele>
        <time>2020-07-05T16:58:03Z</time>
      </trkpt>
      <trkpt lat="46.06706" lon="6.24076">
        <ele>914.098</ele>
        <time>2020-07-05T16:58:04Z</time>
      </trkpt>
      <trkpt lat="46.06694" lon="6.24086">
        <ele>914.465</ele>
        <time>2020-07-05T16:58:05Z</time>
      </trkpt>
      <trkpt lat="46.06682" lon="6.24093">
        <ele>915.045</ele>
        <time>2020-07-05T16:58:06Z</time>
      </trkpt>
      <trkpt lat="46.06667" lon="6.24109">
        <ele>915.597</ele>
        <time>2020-07-05T16:58:07Z</time>
      </trkpt>
      <trkpt lat="46.06652" lon="6.24126">
        <ele>915.793</ele>
        <time>2020-07-05T16:58:08Z</time>
      </trkpt>
      <trkpt lat="46.06637" lon="6.24143">
        <ele>916.366</ele>
        <time>2020-07-05T16:58:09Z</time>
      </trkpt>
      <trkpt lat="46.06625" lon="6.24156">
        <ele>916.39</ele>
        <time>2020-07-05T16:58:10Z</time>
      </trkpt>
      <trkpt lat="46.06614" lon="6.24167">
        <ele>916.341</ele>
        <time>2020-07-05T16:58:11Z</time>
      </trkpt>
      <trkpt lat="46.06608" lon="6.24175">
        <ele>916.189</ele>
        <time>2020-07-05T16:58:12Z</time>
      </trkpt>
      <trkpt lat="46.06603" lon="6.24185">
        <ele>916.006</ele>
        <time>2020-07-05T16:58:13Z</time>
      </trkpt>
      <trkpt lat="46.06602" lon="6.24198">
        <ele>916.026</ele>
        <time>2020-07-05T16:58:14Z</time>
      </trkpt>
      <trkpt lat="46.06603" lon="6.24216">
        <ele>916.108</ele>
        <time>2020-07-05T16:58:15Z</time>
      </trkpt>
      <trkpt lat="46.06604" lon="6.24234">
        <ele>916.683</ele>
        <time>2020-07-05T16:58:16Z</time>
      </trkpt>
      <trkpt lat="46.06604" lon="6.24255">
        <ele>917.58</ele>
        <time>2020-07-05T16:58:17Z</time>
      </trkpt>
      <trkpt lat="46.06605" lon="6.24275">
        <ele>918.67</ele>
        <time>2020-07-05T16:58:18Z</time>
      </trkpt>
      <trkpt lat="46.06606" lon="6.24292">
        <ele>919.312</ele>
        <time>2020-07-05T16:58:19Z</time>
      </trkpt>
      <trkpt lat="46.06607" lon="6.24308">
        <ele>919.478</ele>
        <time>2020-07-05T16:58:20Z</time>
      </trkpt>
      <trkpt lat="46.06609" lon="6.24319">
        <ele>919.411</ele>
        <time>2020-07-05T16:58:21Z</time>
      </trkpt>
      <trkpt lat="46.06609" lon="6.24328">
        <ele>918.645</ele>
        <time>2020-07-05T16:58:22Z</time>
      </trkpt>
      <trkpt lat="46.06615" lon="6.24334">
        <ele>917.846</ele>
        <time>2020-07-05T16:58:23Z</time>
      </trkpt>
      <trkpt lat="46.06621" lon="6.24338">
        <ele>917.384</ele>
        <time>2020-07-05T16:58:24Z</time>
      </trkpt>
      <trkpt lat="46.06628" lon="6.24342">
        <ele>917.207</ele>
        <time>2020-07-05T16:58:25Z</time>
      </trkpt>
      <trkpt lat="46.06633" lon="6.24345">
        <ele>917.217</ele>
        <time>2020-07-05T16:58:26Z</time>
      </trkpt>
      <trkpt lat="46.06639" lon="6.24351">
        <ele>917.508</ele>
        <time>2020-07-05T16:58:27Z</time>
      </trkpt>
      <trkpt lat="46.06645" lon="6.24357">
        <ele>917.583</ele>
        <time>2020-07-05T16:58:28Z</time>
      </trkpt>
      <trkpt lat="46.0665" lon="6.24364">
        <ele>917.33</ele>
        <time>2020-07-05T16:58:29Z</time>
      </trkpt>
      <trkpt lat="46.06654" lon="6.24373">
        <ele>916.87</ele>
        <time>2020-07-05T16:58:30Z</time>
      </trkpt>
      <trkpt lat="46.06658" lon="6.24382">
        <ele>916.132</ele>
        <time>2020-07-05T16:58:31Z</time>
      </trkpt>
      <trkpt lat="46.06663" lon="6.24391">
        <ele>915.428</ele>
        <time>2020-07-05T16:58:32Z</time>
      </trkpt>
      <trkpt lat="46.06669" lon="6.24401">
        <ele>914.831</ele>
        <time>2020-07-05T16:58:33Z</time>
      </trkpt>
      <trkpt lat="46.06673" lon="6.2441">
        <ele>914.125</ele>
        <time>2020-07-05T16:58:34Z</time>
      </trkpt>
      <trkpt lat="46.06677" lon="6.24417">
        <ele>913.556</ele>
        <time>2020-07-05T16:58:35Z</time>
      </trkpt>
      <trkpt lat="46.06682" lon="6.24424">
        <ele>912.872</ele>
        <time>2020-07-05T16:58:36Z</time>
      </trkpt>
      <trkpt lat="46.06688" lon="6.2443">
        <ele>912.113</ele>
        <time>2020-07-05T16:58:37Z</time>
      </trkpt>
      <trkpt lat="46.06695" lon="6.24435">
        <ele>911.614</ele>
        <time>2020-07-05T16:58:38Z</time>
      </trkpt>
      <trkpt lat="46.06701" lon="6.24433">
        <ele>911.008</ele>
        <time>2020-07-05T16:58:39Z</time>
      </trkpt>
      <trkpt lat="46.06708" lon="6.24431">
        <ele>910.512</ele>
        <time>2020-07-05T16:58:40Z</time>
      </trkpt>
      <trkpt lat="46.06715" lon="6.24426">
        <ele>910.239</ele>
        <time>2020-07-05T16:58:41Z</time>
      </trkpt>
      <trkpt lat="46.06722" lon="6.24421">
        <ele>910.169</ele>
        <time>2020-07-05T16:58:42Z</time>
      </trkpt>
      <trkpt lat="46.06731" lon="6.24418">
        <ele>910.091</ele>
        <time>2020-07-05T16:58:43Z</time>
      </trkpt>
      <trkpt lat="46.06739" lon="6.24414">
        <ele>910.017</ele>
        <time>2020-07-05T16:58:44Z</time>
      </trkpt>
      <trkpt lat="46.06746" lon="6.24413">
        <ele>910.45</ele>
        <time>2020-07-05T16:58:45Z</time>
      </trkpt>
      <trkpt lat="46.06753" lon="6.24411">
        <ele>911.024</ele>
        <time>2020-07-05T16:58:47Z</time>
      </trkpt>
      <trkpt lat="46.06758" lon="6.24409">
        <ele>911.415</ele>
        <time>2020-07-05T16:58:49Z</time>
      </trkpt>
      <trkpt lat="46.06766" lon="6.24406">
        <ele>911.418</ele>
        <time>2020-07-05T16:58:50Z</time>
      </trkpt>
      <trkpt lat="46.06774" lon="6.24402">
        <ele>911.498</ele>
        <time>2020-07-05T16:58:51Z</time>
      </trkpt>
      <trkpt lat="46.0678" lon="6.24399">
        <ele>911.617</ele>
        <time>2020-07-05T16:58:52Z</time>
      </trkpt>
      <trkpt lat="46.06784" lon="6.244">
        <ele>911.708</ele>
        <time>2020-07-05T16:58:53Z</time>
      </trkpt>
      <trkpt lat="46.06795" lon="6.244">
        <ele>911.786</ele>
        <time>2020-07-05T16:58:55Z</time>
      </trkpt>
      <trkpt lat="46.06805" lon="6.24405">
        <ele>911.233</ele>
        <time>2020-07-05T16:58:57Z</time>
      </trkpt>
      <trkpt lat="46.06812" lon="6.24411">
        <ele>911.013</ele>
        <time>2020-07-05T16:58:58Z</time>
      </trkpt>
      <trkpt lat="46.06817" lon="6.24416">
        <ele>911.055</ele>
        <time>2020-07-05T16:58:59Z</time>
      </trkpt>
      <trkpt lat="46.06825" lon="6.24419">
        <ele>911.031</ele>
        <time>2020-07-05T16:59:00Z</time>
      </trkpt>
      <trkpt lat="46.06834" lon="6.24425">
        <ele>911.114</ele>
        <time>2020-07-05T16:59:01Z</time>
      </trkpt>
      <trkpt lat="46.06845" lon="6.2443">
        <ele>911.258</ele>
        <time>2020-07-05T16:59:02Z</time>
      </trkpt>
      <trkpt lat="46.06854" lon="6.24436">
        <ele>911.539</ele>
        <time>2020-07-05T16:59:03Z</time>
      </trkpt>
      <trkpt lat="46.06863" lon="6.24442">
        <ele>911.848</ele>
        <time>2020-07-05T16:59:04Z</time>
      </trkpt>
      <trkpt lat="46.06869" lon="6.24449">
        <ele>912.261</ele>
        <time>2020-07-05T16:59:05Z</time>
      </trkpt>
      <trkpt lat="46.06873" lon="6.24453">
        <ele>912.517</ele>
        <time>2020-07-05T16:59:06Z</time>
      </trkpt>
      <trkpt lat="46.06876" lon="6.24461">
        <ele>913.808</ele>
        <time>2020-07-05T16:59:14Z</time>
      </trkpt>
      <trkpt lat="46.06875" lon="6.24468">
        <ele>913.849</ele>
        <time>2020-07-05T16:59:15Z</time>
      </trkpt>
      <trkpt lat="46.06873" lon="6.24479">
        <ele>913.946</ele>
        <time>2020-07-05T16:59:16Z</time>
      </trkpt>
      <trkpt lat="46.06871" lon="6.24492">
        <ele>914.196</ele>
        <time>2020-07-05T16:59:17Z</time>
      </trkpt>
      <trkpt lat="46.06869" lon="6.24509">
        <ele>914.668</ele>
        <time>2020-07-05T16:59:18Z</time>
      </trkpt>
      <trkpt lat="46.06866" lon="6.24524">
        <ele>915.384</ele>
        <time>2020-07-05T16:59:19Z</time>
      </trkpt>
      <trkpt lat="46.06863" lon="6.24534">
        <ele>916.137</ele>
        <time>2020-07-05T16:59:20Z</time>
      </trkpt>
      <trkpt lat="46.0686" lon="6.24541">
        <ele>917.191</ele>
        <time>2020-07-05T16:59:21Z</time>
      </trkpt>
      <trkpt lat="46.06858" lon="6.24549">
        <ele>918.212</ele>
        <time>2020-07-05T16:59:22Z</time>
      </trkpt>
      <trkpt lat="46.06862" lon="6.24556">
        <ele>920.414</ele>
        <time>2020-07-05T16:59:24Z</time>
      </trkpt>
      <trkpt lat="46.06867" lon="6.2456">
        <ele>921.354</ele>
        <time>2020-07-05T16:59:25Z</time>
      </trkpt>
      <trkpt lat="46.06873" lon="6.24565">
        <ele>921.909</ele>
        <time>2020-07-05T16:59:26Z</time>
      </trkpt>
      <trkpt lat="46.06882" lon="6.24574">
        <ele>922.508</ele>
        <time>2020-07-05T16:59:27Z</time>
      </trkpt>
      <trkpt lat="46.06892" lon="6.24581">
        <ele>922.976</ele>
        <time>2020-07-05T16:59:28Z</time>
      </trkpt>
      <trkpt lat="46.06898" lon="6.24587">
        <ele>923.173</ele>
        <time>2020-07-05T16:59:29Z</time>
      </trkpt>
      <trkpt lat="46.06904" lon="6.24591">
        <ele>923.373</ele>
        <time>2020-07-05T16:59:30Z</time>
      </trkpt>
      <trkpt lat="46.06909" lon="6.24596">
        <ele>923.475</ele>
        <time>2020-07-05T16:59:31Z</time>
      </trkpt>
      <trkpt lat="46.06913" lon="6.24603">
        <ele>923.471</ele>
        <time>2020-07-05T16:59:32Z</time>
      </trkpt>
      <trkpt lat="46.06917" lon="6.24609">
        <ele>923.464</ele>
        <time>2020-07-05T16:59:33Z</time>
      </trkpt>
      <trkpt lat="46.06922" lon="6.24619">
        <ele>923.498</ele>
        <time>2020-07-05T16:59:35Z</time>
      </trkpt>
      <trkpt lat="46.06925" lon="6.24628">
        <ele>923.559</ele>
        <time>2020-07-05T16:59:37Z</time>
      </trkpt>
      <trkpt lat="46.0693" lon="6.24628">
        <ele>923.939</ele>
        <time>2020-07-05T16:59:39Z</time>
      </trkpt>
      <trkpt lat="46.0693" lon="6.24621">
        <ele>924.101</ele>
        <time>2020-07-05T16:59:40Z</time>
      </trkpt>
      <trkpt lat="46.0692" lon="6.24612">
        <ele>924.321</ele>
        <time>2020-07-05T16:59:42Z</time>
      </trkpt>
      <trkpt lat="46.06914" lon="6.24608">
        <ele>924.308</ele>
        <time>2020-07-05T16:59:43Z</time>
      </trkpt>
      <trkpt lat="46.06906" lon="6.24599">
        <ele>924.238</ele>
        <time>2020-07-05T16:59:44Z</time>
      </trkpt>
      <trkpt lat="46.06897" lon="6.24592">
        <ele>924.265</ele>
        <time>2020-07-05T16:59:45Z</time>
      </trkpt>
      <trkpt lat="46.06887" lon="6.24586">
        <ele>923.955</ele>
        <time>2020-07-05T16:59:46Z</time>
      </trkpt>
      <trkpt lat="46.0688" lon="6.2458">
        <ele>923.957</ele>
        <time>2020-07-05T16:59:47Z</time>
      </trkpt>
      <trkpt lat="46.06873" lon="6.24572">
        <ele>923.973</ele>
        <time>2020-07-05T16:59:48Z</time>
      </trkpt>
      <trkpt lat="46.06869" lon="6.24564">
        <ele>923.966</ele>
        <time>2020-07-05T16:59:49Z</time>
      </trkpt>
      <trkpt lat="46.06866" lon="6.24559">
        <ele>923.61</ele>
        <time>2020-07-05T16:59:50Z</time>
      </trkpt>
      <trkpt lat="46.06858" lon="6.24553">
        <ele>923.431</ele>
        <time>2020-07-05T16:59:51Z</time>
      </trkpt>
      <trkpt lat="46.0686" lon="6.24546">
        <ele>922.636</ele>
        <time>2020-07-05T16:59:53Z</time>
      </trkpt>
      <trkpt lat="46.06863" lon="6.24539">
        <ele>922.117</ele>
        <time>2020-07-05T16:59:54Z</time>
      </trkpt>
      <trkpt lat="46.06865" lon="6.24531">
        <ele>921.618</ele>
        <time>2020-07-05T16:59:55Z</time>
      </trkpt>
      <trkpt lat="46.06868" lon="6.24517">
        <ele>920.908</ele>
        <time>2020-07-05T16:59:56Z</time>
      </trkpt>
      <trkpt lat="46.06871" lon="6.24504">
        <ele>920.388</ele>
        <time>2020-07-05T16:59:57Z</time>
      </trkpt>
      <trkpt lat="46.06873" lon="6.24491">
        <ele>919.475</ele>
        <time>2020-07-05T16:59:58Z</time>
      </trkpt>
      <trkpt lat="46.06875" lon="6.24479">
        <ele>918.685</ele>
        <time>2020-07-05T16:59:59Z</time>
      </trkpt>
      <trkpt lat="46.06874" lon="6.2447">
        <ele>917.627</ele>
        <time>2020-07-05T17:00:00Z</time>
      </trkpt>
      <trkpt lat="46.0688" lon="6.24459">
        <ele>915.993</ele>
        <time>2020-07-05T17:00:02Z</time>
      </trkpt>
      <trkpt lat="46.06886" lon="6.24457">
        <ele>915.196</ele>
        <time>2020-07-05T17:00:03Z</time>
      </trkpt>
      <trkpt lat="46.06893" lon="6.24461">
        <ele>914.44</ele>
        <time>2020-07-05T17:00:04Z</time>
      </trkpt>
      <trkpt lat="46.069" lon="6.24469">
        <ele>914.031</ele>
        <time>2020-07-05T17:00:05Z</time>
      </trkpt>
      <trkpt lat="46.06907" lon="6.24476">
        <ele>913.896</ele>
        <time>2020-07-05T17:00:06Z</time>
      </trkpt>
      <trkpt lat="46.06914" lon="6.24483">
        <ele>913.831</ele>
        <time>2020-07-05T17:00:07Z</time>
      </trkpt>
      <trkpt lat="46.06923" lon="6.24491">
        <ele>913.924</ele>
        <time>2020-07-05T17:00:08Z</time>
      </trkpt>
      <trkpt lat="46.06933" lon="6.24499">
        <ele>914.108</ele>
        <time>2020-07-05T17:00:09Z</time>
      </trkpt>
      <trkpt lat="46.06942" lon="6.24508">
        <ele>914.414</ele>
        <time>2020-07-05T17:00:10Z</time>
      </trkpt>
      <trkpt lat="46.06953" lon="6.24515">
        <ele>914.931</ele>
        <time>2020-07-05T17:00:11Z</time>
      </trkpt>
      <trkpt lat="46.06966" lon="6.24523">
        <ele>915.391</ele>
        <time>2020-07-05T17:00:12Z</time>
      </trkpt>
      <trkpt lat="46.06979" lon="6.24525">
        <ele>915.883</ele>
        <time>2020-07-05T17:00:13Z</time>
      </trkpt>
      <trkpt lat="46.06997" lon="6.2453">
        <ele>916.399</ele>
        <time>2020-07-05T17:00:14Z</time>
      </trkpt>
      <trkpt lat="46.07012" lon="6.24532">
        <ele>916.862</ele>
        <time>2020-07-05T17:00:15Z</time>
      </trkpt>
      <trkpt lat="46.07028" lon="6.24533">
        <ele>917.526</ele>
        <time>2020-07-05T17:00:16Z</time>
      </trkpt>
      <trkpt lat="46.07044" lon="6.24534">
        <ele>918.257</ele>
        <time>2020-07-05T17:00:17Z</time>
      </trkpt>
      <trkpt lat="46.07059" lon="6.24535">
        <ele>919.125</ele>
        <time>2020-07-05T17:00:18Z</time>
      </trkpt>
      <trkpt lat="46.07073" lon="6.24534">
        <ele>919.826</ele>
        <time>2020-07-05T17:00:19Z</time>
      </trkpt>
      <trkpt lat="46.07084" lon="6.24534">
        <ele>920.508</ele>
        <time>2020-07-05T17:00:20Z</time>
      </trkpt>
      <trkpt lat="46.07094" lon="6.24534">
        <ele>921.008</ele>
        <time>2020-07-05T17:00:21Z</time>
      </trkpt>
      <trkpt lat="46.071" lon="6.24537">
        <ele>921.487</ele>
        <time>2020-07-05T17:00:22Z</time>
      </trkpt>
      <trkpt lat="46.07105" lon="6.24543">
        <ele>921.664</ele>
        <time>2020-07-05T17:00:23Z</time>
      </trkpt>
      <trkpt lat="46.07111" lon="6.24551">
        <ele>922.174</ele>
        <time>2020-07-05T17:00:25Z</time>
      </trkpt>
      <trkpt lat="46.07118" lon="6.24556">
        <ele>922.646</ele>
        <time>2020-07-05T17:00:27Z</time>
      </trkpt>
      <trkpt lat="46.07122" lon="6.2456">
        <ele>922.912</ele>
        <time>2020-07-05T17:00:28Z</time>
      </trkpt>
      <trkpt lat="46.07128" lon="6.24564">
        <ele>923.325</ele>
        <time>2020-07-05T17:00:29Z</time>
      </trkpt>
      <trkpt lat="46.07135" lon="6.2457">
        <ele>923.739</ele>
        <time>2020-07-05T17:00:30Z</time>
      </trkpt>
      <trkpt lat="46.07144" lon="6.24579">
        <ele>924.25</ele>
        <time>2020-07-05T17:00:31Z</time>
      </trkpt>
      <trkpt lat="46.07152" lon="6.24588">
        <ele>924.963</ele>
        <time>2020-07-05T17:00:32Z</time>
      </trkpt>
      <trkpt lat="46.07162" lon="6.24596">
        <ele>925.644</ele>
        <time>2020-07-05T17:00:33Z</time>
      </trkpt>
      <trkpt lat="46.07173" lon="6.24606">
        <ele>926.318</ele>
        <time>2020-07-05T17:00:34Z</time>
      </trkpt>
      <trkpt lat="46.07185" lon="6.24616">
        <ele>927.208</ele>
        <time>2020-07-05T17:00:35Z</time>
      </trkpt>
      <trkpt lat="46.07197" lon="6.24627">
        <ele>928.191</ele>
        <time>2020-07-05T17:00:36Z</time>
      </trkpt>
      <trkpt lat="46.0721" lon="6.24638">
        <ele>928.988</ele>
        <time>2020-07-05T17:00:37Z</time>
      </trkpt>
      <trkpt lat="46.07222" lon="6.24649">
        <ele>929.938</ele>
        <time>2020-07-05T17:00:38Z</time>
      </trkpt>
      <trkpt lat="46.07235" lon="6.2466">
        <ele>930.75</ele>
        <time>2020-07-05T17:00:39Z</time>
      </trkpt>
      <trkpt lat="46.07246" lon="6.2467">
        <ele>931.796</ele>
        <time>2020-07-05T17:00:40Z</time>
      </trkpt>
      <trkpt lat="46.07257" lon="6.24681">
        <ele>932.659</ele>
        <time>2020-07-05T17:00:41Z</time>
      </trkpt>
      <trkpt lat="46.07265" lon="6.24688">
        <ele>933.343</ele>
        <time>2020-07-05T17:00:42Z</time>
      </trkpt>
      <trkpt lat="46.07272" lon="6.24695">
        <ele>933.974</ele>
        <time>2020-07-05T17:00:43Z</time>
      </trkpt>
      <trkpt lat="46.07276" lon="6.247">
        <ele>934.557</ele>
        <time>2020-07-05T17:00:44Z</time>
      </trkpt>
      <trkpt lat="46.0728" lon="6.24703">
        <ele>935</ele>
        <time>2020-07-05T17:00:46Z</time>
      </trkpt>
      <trkpt lat="46.07284" lon="6.24708">
        <ele>935.42</ele>
        <time>2020-07-05T17:01:06Z</time>
      </trkpt>
      <trkpt lat="46.07288" lon="6.24713">
        <ele>935.408</ele>
        <time>2020-07-05T17:01:07Z</time>
      </trkpt>
      <trkpt lat="46.07293" lon="6.24723">
        <ele>935.49</ele>
        <time>2020-07-05T17:01:08Z</time>
      </trkpt>
      <trkpt lat="46.07301" lon="6.24733">
        <ele>935.467</ele>
        <time>2020-07-05T17:01:09Z</time>
      </trkpt>
      <trkpt lat="46.07308" lon="6.24744">
        <ele>935.327</ele>
        <time>2020-07-05T17:01:10Z</time>
      </trkpt>
      <trkpt lat="46.07314" lon="6.24754">
        <ele>935.149</ele>
        <time>2020-07-05T17:01:11Z</time>
      </trkpt>
      <trkpt lat="46.07317" lon="6.24767">
        <ele>934.865</ele>
        <time>2020-07-05T17:01:12Z</time>
      </trkpt>
      <trkpt lat="46.07314" lon="6.24782">
        <ele>934.568</ele>
        <time>2020-07-05T17:01:13Z</time>
      </trkpt>
      <trkpt lat="46.07307" lon="6.24795">
        <ele>934.052</ele>
        <time>2020-07-05T17:01:14Z</time>
      </trkpt>
      <trkpt lat="46.07296" lon="6.24805">
        <ele>933.753</ele>
        <time>2020-07-05T17:01:15Z</time>
      </trkpt>
      <trkpt lat="46.07284" lon="6.2481">
        <ele>933.572</ele>
        <time>2020-07-05T17:01:16Z</time>
      </trkpt>
      <trkpt lat="46.07273" lon="6.24814">
        <ele>933.313</ele>
        <time>2020-07-05T17:01:17Z</time>
      </trkpt>
      <trkpt lat="46.07263" lon="6.24824">
        <ele>932.914</ele>
        <time>2020-07-05T17:01:18Z</time>
      </trkpt>
      <trkpt lat="46.07258" lon="6.24836">
        <ele>932.408</ele>
        <time>2020-07-05T17:01:19Z</time>
      </trkpt>
      <trkpt lat="46.07256" lon="6.24853">
        <ele>931.772</ele>
        <time>2020-07-05T17:01:20Z</time>
      </trkpt>
      <trkpt lat="46.07256" lon="6.2487">
        <ele>931.119</ele>
        <time>2020-07-05T17:01:21Z</time>
      </trkpt>
      <trkpt lat="46.07256" lon="6.24885">
        <ele>930.529</ele>
        <time>2020-07-05T17:01:22Z</time>
      </trkpt>
      <trkpt lat="46.07257" lon="6.24901">
        <ele>930.051</ele>
        <time>2020-07-05T17:01:23Z</time>
      </trkpt>
      <trkpt lat="46.07256" lon="6.24915">
        <ele>929.717</ele>
        <time>2020-07-05T17:01:24Z</time>
      </trkpt>
      <trkpt lat="46.07254" lon="6.24929">
        <ele>929.59</ele>
        <time>2020-07-05T17:01:25Z</time>
      </trkpt>
      <trkpt lat="46.07253" lon="6.2494">
        <ele>929.224</ele>
        <time>2020-07-05T17:01:26Z</time>
      </trkpt>
      <trkpt lat="46.07252" lon="6.2495">
        <ele>928.965</ele>
        <time>2020-07-05T17:01:27Z</time>
      </trkpt>
      <trkpt lat="46.07252" lon="6.24958">
        <ele>928.728</ele>
        <time>2020-07-05T17:01:28Z</time>
      </trkpt>
      <trkpt lat="46.07251" lon="6.24965">
        <ele>928.589</ele>
        <time>2020-07-05T17:01:29Z</time>
      </trkpt>
      <trkpt lat="46.07251" lon="6.24972">
        <ele>928.317</ele>
        <time>2020-07-05T17:01:31Z</time>
      </trkpt>
      <trkpt lat="46.07251" lon="6.24981">
        <ele>928.208</ele>
        <time>2020-07-05T17:01:34Z</time>
      </trkpt>
      <trkpt lat="46.07252" lon="6.24991">
        <ele>928.267</ele>
        <time>2020-07-05T17:01:36Z</time>
      </trkpt>
      <trkpt lat="46.07254" lon="6.25">
        <ele>928.244</ele>
        <time>2020-07-05T17:01:38Z</time>
      </trkpt>
      <trkpt lat="46.07255" lon="6.25009">
        <ele>928.224</ele>
        <time>2020-07-05T17:01:40Z</time>
      </trkpt>
      <trkpt lat="46.07257" lon="6.25018">
        <ele>928.216</ele>
        <time>2020-07-05T17:01:42Z</time>
      </trkpt>
      <trkpt lat="46.07257" lon="6.25026">
        <ele>928.242</ele>
        <time>2020-07-05T17:01:45Z</time>
      </trkpt>
      <trkpt lat="46.07258" lon="6.25034">
        <ele>928.325</ele>
        <time>2020-07-05T17:01:49Z</time>
      </trkpt>
      <trkpt lat="46.07258" lon="6.25042">
        <ele>928.399</ele>
        <time>2020-07-05T17:01:51Z</time>
      </trkpt>
      <trkpt lat="46.07256" lon="6.25049">
        <ele>928.47</ele>
        <time>2020-07-05T17:01:52Z</time>
      </trkpt>
      <trkpt lat="46.07253" lon="6.25057">
        <ele>928.544</ele>
        <time>2020-07-05T17:01:53Z</time>
      </trkpt>
      <trkpt lat="46.07249" lon="6.25068">
        <ele>928.505</ele>
        <time>2020-07-05T17:01:54Z</time>
      </trkpt>
      <trkpt lat="46.07244" lon="6.2508">
        <ele>928.615</ele>
        <time>2020-07-05T17:01:55Z</time>
      </trkpt>
      <trkpt lat="46.07239" lon="6.25098">
        <ele>929.108</ele>
        <time>2020-07-05T17:01:56Z</time>
      </trkpt>
      <trkpt lat="46.07231" lon="6.25112">
        <ele>929.929</ele>
        <time>2020-07-05T17:01:57Z</time>
      </trkpt>
      <trkpt lat="46.07221" lon="6.25126">
        <ele>930.916</ele>
        <time>2020-07-05T17:01:58Z</time>
      </trkpt>
      <trkpt lat="46.07214" lon="6.2514">
        <ele>932.326</ele>
        <time>2020-07-05T17:01:59Z</time>
      </trkpt>
      <trkpt lat="46.07206" lon="6.25151">
        <ele>933.758</ele>
        <time>2020-07-05T17:02:00Z</time>
      </trkpt>
      <trkpt lat="46.07199" lon="6.25159">
        <ele>935.074</ele>
        <time>2020-07-05T17:02:01Z</time>
      </trkpt>
      <trkpt lat="46.07192" lon="6.25169">
        <ele>935.817</ele>
        <time>2020-07-05T17:02:02Z</time>
      </trkpt>
      <trkpt lat="46.07185" lon="6.25181">
        <ele>936.381</ele>
        <time>2020-07-05T17:02:03Z</time>
      </trkpt>
      <trkpt lat="46.07179" lon="6.25191">
        <ele>936.312</ele>
        <time>2020-07-05T17:02:04Z</time>
      </trkpt>
      <trkpt lat="46.07173" lon="6.25201">
        <ele>936.362</ele>
        <time>2020-07-05T17:02:05Z</time>
      </trkpt>
      <trkpt lat="46.07167" lon="6.25211">
        <ele>935.983</ele>
        <time>2020-07-05T17:02:06Z</time>
      </trkpt>
      <trkpt lat="46.07161" lon="6.25217">
        <ele>935.311</ele>
        <time>2020-07-05T17:02:07Z</time>
      </trkpt>
      <trkpt lat="46.07157" lon="6.25223">
        <ele>934.608</ele>
        <time>2020-07-05T17:02:08Z</time>
      </trkpt>
      <trkpt lat="46.07153" lon="6.25228">
        <ele>933.761</ele>
        <time>2020-07-05T17:02:09Z</time>
      </trkpt>
      <trkpt lat="46.07149" lon="6.25235">
        <ele>932.868</ele>
        <time>2020-07-05T17:02:10Z</time>
      </trkpt>
      <trkpt lat="46.07146" lon="6.25241">
        <ele>931.938</ele>
        <time>2020-07-05T17:02:11Z</time>
      </trkpt>
      <trkpt lat="46.07143" lon="6.25249">
        <ele>931.12</ele>
        <time>2020-07-05T17:02:12Z</time>
      </trkpt>
      <trkpt lat="46.07139" lon="6.25258">
        <ele>930.446</ele>
        <time>2020-07-05T17:02:13Z</time>
      </trkpt>
      <trkpt lat="46.07134" lon="6.25267">
        <ele>929.839</ele>
        <time>2020-07-05T17:02:14Z</time>
      </trkpt>
      <trkpt lat="46.07131" lon="6.25275">
        <ele>929.343</ele>
        <time>2020-07-05T17:02:15Z</time>
      </trkpt>
      <trkpt lat="46.07126" lon="6.25281">
        <ele>928.864</ele>
        <time>2020-07-05T17:02:16Z</time>
      </trkpt>
      <trkpt lat="46.07123" lon="6.25285">
        <ele>928.341</ele>
        <time>2020-07-05T17:02:17Z</time>
      </trkpt>
      <trkpt lat="46.0712" lon="6.25291">
        <ele>927.981</ele>
        <time>2020-07-05T17:02:18Z</time>
      </trkpt>
      <trkpt lat="46.07114" lon="6.253">
        <ele>927.009</ele>
        <time>2020-07-05T17:02:20Z</time>
      </trkpt>
      <trkpt lat="46.0711" lon="6.25305">
        <ele>926.508</ele>
        <time>2020-07-05T17:02:21Z</time>
      </trkpt>
      <trkpt lat="46.07104" lon="6.25314">
        <ele>925.379</ele>
        <time>2020-07-05T17:02:23Z</time>
      </trkpt>
      <trkpt lat="46.071" lon="6.25319">
        <ele>924.616</ele>
        <time>2020-07-05T17:02:24Z</time>
      </trkpt>
      <trkpt lat="46.07096" lon="6.25324">
        <ele>923.846</ele>
        <time>2020-07-05T17:02:25Z</time>
      </trkpt>
      <trkpt lat="46.0709" lon="6.25334">
        <ele>923.038</ele>
        <time>2020-07-05T17:02:26Z</time>
      </trkpt>
      <trkpt lat="46.07084" lon="6.25342">
        <ele>922.094</ele>
        <time>2020-07-05T17:02:27Z</time>
      </trkpt>
      <trkpt lat="46.07081" lon="6.25348">
        <ele>921.197</ele>
        <time>2020-07-05T17:02:28Z</time>
      </trkpt>
      <trkpt lat="46.07078" lon="6.25355">
        <ele>920.271</ele>
        <time>2020-07-05T17:02:29Z</time>
      </trkpt>
      <trkpt lat="46.07076" lon="6.25361">
        <ele>919.332</ele>
        <time>2020-07-05T17:02:30Z</time>
      </trkpt>
      <trkpt lat="46.07076" lon="6.2537">
        <ele>917.818</ele>
        <time>2020-07-05T17:02:32Z</time>
      </trkpt>
      <trkpt lat="46.07079" lon="6.25376">
        <ele>916.698</ele>
        <time>2020-07-05T17:02:34Z</time>
      </trkpt>
      <trkpt lat="46.07082" lon="6.25385">
        <ele>915.817</ele>
        <time>2020-07-05T17:02:36Z</time>
      </trkpt>
      <trkpt lat="46.07086" lon="6.25393">
        <ele>915.508</ele>
        <time>2020-07-05T17:02:37Z</time>
      </trkpt>
      <trkpt lat="46.07091" lon="6.25402">
        <ele>915.216</ele>
        <time>2020-07-05T17:02:38Z</time>
      </trkpt>
      <trkpt lat="46.07095" lon="6.2541">
        <ele>914.973</ele>
        <time>2020-07-05T17:02:39Z</time>
      </trkpt>
      <trkpt lat="46.07099" lon="6.25417">
        <ele>914.453</ele>
        <time>2020-07-05T17:02:40Z</time>
      </trkpt>
      <trkpt lat="46.07103" lon="6.25424">
        <ele>913.875</ele>
        <time>2020-07-05T17:02:41Z</time>
      </trkpt>
      <trkpt lat="46.07107" lon="6.25431">
        <ele>913.241</ele>
        <time>2020-07-05T17:02:42Z</time>
      </trkpt>
      <trkpt lat="46.07111" lon="6.25437">
        <ele>912.664</ele>
        <time>2020-07-05T17:02:43Z</time>
      </trkpt>
      <trkpt lat="46.07115" lon="6.25445">
        <ele>911.628</ele>
        <time>2020-07-05T17:02:45Z</time>
      </trkpt>
      <trkpt lat="46.07119" lon="6.25456">
        <ele>910.379</ele>
        <time>2020-07-05T17:03:35Z</time>
      </trkpt>
      <trkpt lat="46.07124" lon="6.25453">
        <ele>910.451</ele>
        <time>2020-07-05T17:03:37Z</time>
      </trkpt>
      <trkpt lat="46.07123" lon="6.25446">
        <ele>910.401</ele>
        <time>2020-07-05T17:03:41Z</time>
      </trkpt>
      <trkpt lat="46.07119" lon="6.25463">
        <ele>910.111</ele>
        <time>2020-07-05T17:03:55Z</time>
      </trkpt>
      <trkpt lat="46.07121" lon="6.25472">
        <ele>910.108</ele>
        <time>2020-07-05T17:03:56Z</time>
      </trkpt>
      <trkpt lat="46.07125" lon="6.25476">
        <ele>910.09</ele>
        <time>2020-07-05T17:03:57Z</time>
      </trkpt>
      <trkpt lat="46.07129" lon="6.25479">
        <ele>909.967</ele>
        <time>2020-07-05T17:03:58Z</time>
      </trkpt>
      <trkpt lat="46.07139" lon="6.25475">
        <ele>909.827</ele>
        <time>2020-07-05T17:04:00Z</time>
      </trkpt>
      <trkpt lat="46.07144" lon="6.25469">
        <ele>909.859</ele>
        <time>2020-07-05T17:04:01Z</time>
      </trkpt>
      <trkpt lat="46.0715" lon="6.25462">
        <ele>909.885</ele>
        <time>2020-07-05T17:04:02Z</time>
      </trkpt>
      <trkpt lat="46.07156" lon="6.25454">
        <ele>909.958</ele>
        <time>2020-07-05T17:04:03Z</time>
      </trkpt>
      <trkpt lat="46.0716" lon="6.25449">
        <ele>910.082</ele>
        <time>2020-07-05T17:04:04Z</time>
      </trkpt>
      <trkpt lat="46.07167" lon="6.25443">
        <ele>910.013</ele>
        <time>2020-07-05T17:04:06Z</time>
      </trkpt>
      <trkpt lat="46.07172" lon="6.25441">
        <ele>909.851</ele>
        <time>2020-07-05T17:04:09Z</time>
      </trkpt>
      <trkpt lat="46.07161" lon="6.25453">
        <ele>909.601</ele>
        <time>2020-07-05T17:04:15Z</time>
      </trkpt>
      <trkpt lat="46.07155" lon="6.25459">
        <ele>909.611</ele>
        <time>2020-07-05T17:04:16Z</time>
      </trkpt>
      <trkpt lat="46.07149" lon="6.25467">
        <ele>909.708</ele>
        <time>2020-07-05T17:04:17Z</time>
      </trkpt>
      <trkpt lat="46.07143" lon="6.25473">
        <ele>909.92</ele>
        <time>2020-07-05T17:04:18Z</time>
      </trkpt>
      <trkpt lat="46.07136" lon="6.25477">
        <ele>910.067</ele>
        <time>2020-07-05T17:04:19Z</time>
      </trkpt>
      <trkpt lat="46.0713" lon="6.2548">
        <ele>910.037</ele>
        <time>2020-07-05T17:04:21Z</time>
      </trkpt>
      <trkpt lat="46.07131" lon="6.25468">
        <ele>909.579</ele>
        <time>2020-07-05T17:04:25Z</time>
      </trkpt>
      <trkpt lat="46.07142" lon="6.2546">
        <ele>909.555</ele>
        <time>2020-07-05T17:04:27Z</time>
      </trkpt>
      <trkpt lat="46.07151" lon="6.25454">
        <ele>909.678</ele>
        <time>2020-07-05T17:04:28Z</time>
      </trkpt>
      <trkpt lat="46.07159" lon="6.25445">
        <ele>909.822</ele>
        <time>2020-07-05T17:04:29Z</time>
      </trkpt>
      <trkpt lat="46.07166" lon="6.25437">
        <ele>910.093</ele>
        <time>2020-07-05T17:04:30Z</time>
      </trkpt>
      <trkpt lat="46.07173" lon="6.25432">
        <ele>910.148</ele>
        <time>2020-07-05T17:04:31Z</time>
      </trkpt>
      <trkpt lat="46.07179" lon="6.25429">
        <ele>910.161</ele>
        <time>2020-07-05T17:04:32Z</time>
      </trkpt>
      <trkpt lat="46.07187" lon="6.25422">
        <ele>910.117</ele>
        <time>2020-07-05T17:04:34Z</time>
      </trkpt>
      <trkpt lat="46.07191" lon="6.25417">
        <ele>909.908</ele>
        <time>2020-07-05T17:04:35Z</time>
      </trkpt>
      <trkpt lat="46.07195" lon="6.25408">
        <ele>909.879</ele>
        <time>2020-07-05T17:04:36Z</time>
      </trkpt>
      <trkpt lat="46.07196" lon="6.25399">
        <ele>909.726</ele>
        <time>2020-07-05T17:04:37Z</time>
      </trkpt>
      <trkpt lat="46.07196" lon="6.25389">
        <ele>909.776</ele>
        <time>2020-07-05T17:04:38Z</time>
      </trkpt>
      <trkpt lat="46.07196" lon="6.25378">
        <ele>909.728</ele>
        <time>2020-07-05T17:04:39Z</time>
      </trkpt>
      <trkpt lat="46.07197" lon="6.25369">
        <ele>909.774</ele>
        <time>2020-07-05T17:04:40Z</time>
      </trkpt>
      <trkpt lat="46.07199" lon="6.25362">
        <ele>909.897</ele>
        <time>2020-07-05T17:04:41Z</time>
      </trkpt>
      <trkpt lat="46.07202" lon="6.25358">
        <ele>909.991</ele>
        <time>2020-07-05T17:04:42Z</time>
      </trkpt>
      <trkpt lat="46.07207" lon="6.25352">
        <ele>909.992</ele>
        <time>2020-07-05T17:04:43Z</time>
      </trkpt>
      <trkpt lat="46.07213" lon="6.25343">
        <ele>910.026</ele>
        <time>2020-07-05T17:04:44Z</time>
      </trkpt>
      <trkpt lat="46.07219" lon="6.25336">
        <ele>910.147</ele>
        <time>2020-07-05T17:04:45Z</time>
      </trkpt>
      <trkpt lat="46.07225" lon="6.2533">
        <ele>910.111</ele>
        <time>2020-07-05T17:04:46Z</time>
      </trkpt>
      <trkpt lat="46.07232" lon="6.25324">
        <ele>910.108</ele>
        <time>2020-07-05T17:04:47Z</time>
      </trkpt>
      <trkpt lat="46.07238" lon="6.25317">
        <ele>910.127</ele>
        <time>2020-07-05T17:04:48Z</time>
      </trkpt>
      <trkpt lat="46.07246" lon="6.25312">
        <ele>910.174</ele>
        <time>2020-07-05T17:04:49Z</time>
      </trkpt>
      <trkpt lat="46.07253" lon="6.25307">
        <ele>910.184</ele>
        <time>2020-07-05T17:04:50Z</time>
      </trkpt>
      <trkpt lat="46.0726" lon="6.25301">
        <ele>910.156</ele>
        <time>2020-07-05T17:04:51Z</time>
      </trkpt>
      <trkpt lat="46.07265" lon="6.25296">
        <ele>910.112</ele>
        <time>2020-07-05T17:04:52Z</time>
      </trkpt>
      <trkpt lat="46.07269" lon="6.2529">
        <ele>909.825</ele>
        <time>2020-07-05T17:04:54Z</time>
      </trkpt>
      <trkpt lat="46.07275" lon="6.25284">
        <ele>908.679</ele>
        <time>2020-07-05T17:04:59Z</time>
      </trkpt>
      <trkpt lat="46.0728" lon="6.2528">
        <ele>908.54</ele>
        <time>2020-07-05T17:05:01Z</time>
      </trkpt>
      <trkpt lat="46.07283" lon="6.25272">
        <ele>908.879</ele>
        <time>2020-07-05T17:05:08Z</time>
      </trkpt>
      <trkpt lat="46.07289" lon="6.25269">
        <ele>909.005</ele>
        <time>2020-07-05T17:05:10Z</time>
      </trkpt>
      <trkpt lat="46.07295" lon="6.25269">
        <ele>909.125</ele>
        <time>2020-07-05T17:05:14Z</time>
      </trkpt>
      <trkpt lat="46.07297" lon="6.25261">
        <ele>909.008</ele>
        <time>2020-07-05T17:05:17Z</time>
      </trkpt>
      <trkpt lat="46.07297" lon="6.25251">
        <ele>909.072</ele>
        <time>2020-07-05T17:05:19Z</time>
      </trkpt>
      <trkpt lat="46.07296" lon="6.25242">
        <ele>909.219</ele>
        <time>2020-07-05T17:05:43Z</time>
      </trkpt>
      <trkpt lat="46.07297" lon="6.25234">
        <ele>909.359</ele>
        <time>2020-07-05T17:05:44Z</time>
      </trkpt>
      <trkpt lat="46.07302" lon="6.25229">
        <ele>909.481</ele>
        <time>2020-07-05T17:05:45Z</time>
      </trkpt>
      <trkpt lat="46.07308" lon="6.25225">
        <ele>909.967</ele>
        <time>2020-07-05T17:05:47Z</time>
      </trkpt>
      <trkpt lat="46.0732" lon="6.25228">
        <ele>910.31</ele>
        <time>2020-07-05T17:05:48Z</time>
      </trkpt>
      <trkpt lat="46.0733" lon="6.25227">
        <ele>910.644</ele>
        <time>2020-07-05T17:05:49Z</time>
      </trkpt>
      <trkpt lat="46.07335" lon="6.25222">
        <ele>910.855</ele>
        <time>2020-07-05T17:05:50Z</time>
      </trkpt>
      <trkpt lat="46.07339" lon="6.25219">
        <ele>910.927</ele>
        <time>2020-07-05T17:05:51Z</time>
      </trkpt>
      <trkpt lat="46.07344" lon="6.25217">
        <ele>910.968</ele>
        <time>2020-07-05T17:05:52Z</time>
      </trkpt>
      <trkpt lat="46.0735" lon="6.25218">
        <ele>910.914</ele>
        <time>2020-07-05T17:05:53Z</time>
      </trkpt>
      <trkpt lat="46.07356" lon="6.25219">
        <ele>910.908</ele>
        <time>2020-07-05T17:05:54Z</time>
      </trkpt>
      <trkpt lat="46.07362" lon="6.25221">
        <ele>911.067</ele>
        <time>2020-07-05T17:05:55Z</time>
      </trkpt>
      <trkpt lat="46.07371" lon="6.25222">
        <ele>911.154</ele>
        <time>2020-07-05T17:05:56Z</time>
      </trkpt>
      <trkpt lat="46.07377" lon="6.25221">
        <ele>911.164</ele>
        <time>2020-07-05T17:05:57Z</time>
      </trkpt>
      <trkpt lat="46.07383" lon="6.25223">
        <ele>911.176</ele>
        <time>2020-07-05T17:05:58Z</time>
      </trkpt>
      <trkpt lat="46.07388" lon="6.25218">
        <ele>910.322</ele>
        <time>2020-07-05T17:06:03Z</time>
      </trkpt>
      <trkpt lat="46.07393" lon="6.25216">
        <ele>910.825</ele>
        <time>2020-07-05T17:06:05Z</time>
      </trkpt>
      <trkpt lat="46.07401" lon="6.25216">
        <ele>911.599</ele>
        <time>2020-07-05T17:06:07Z</time>
      </trkpt>
      <trkpt lat="46.07407" lon="6.25221">
        <ele>911.68</ele>
        <time>2020-07-05T17:06:09Z</time>
      </trkpt>
      <trkpt lat="46.07418" lon="6.25218">
        <ele>910.036</ele>
        <time>2020-07-05T17:06:22Z</time>
      </trkpt>
      <trkpt lat="46.07422" lon="6.25222">
        <ele>910.017</ele>
        <time>2020-07-05T17:06:31Z</time>
      </trkpt>
      <trkpt lat="46.07427" lon="6.25222">
        <ele>909.718</ele>
        <time>2020-07-05T17:06:33Z</time>
      </trkpt>
      <trkpt lat="46.07432" lon="6.25222">
        <ele>909.208</ele>
        <time>2020-07-05T17:06:35Z</time>
      </trkpt>
      <trkpt lat="46.07436" lon="6.2523">
        <ele>908.668</ele>
        <time>2020-07-05T17:06:37Z</time>
      </trkpt>
      <trkpt lat="46.07439" lon="6.25235">
        <ele>907.565</ele>
        <time>2020-07-05T17:06:41Z</time>
      </trkpt>
      <trkpt lat="46.07446" lon="6.2525">
        <ele>907.075</ele>
        <time>2020-07-05T17:06:53Z</time>
      </trkpt>
      <trkpt lat="46.0745" lon="6.25259">
        <ele>906.817</ele>
        <time>2020-07-05T17:07:02Z</time>
      </trkpt>
      <trkpt lat="46.07453" lon="6.2527">
        <ele>906.873</ele>
        <time>2020-07-05T17:07:04Z</time>
      </trkpt>
      <trkpt lat="46.07457" lon="6.25278">
        <ele>907.016</ele>
        <time>2020-07-05T17:07:05Z</time>
      </trkpt>
      <trkpt lat="46.07461" lon="6.25287">
        <ele>907.16</ele>
        <time>2020-07-05T17:07:06Z</time>
      </trkpt>
      <trkpt lat="46.0747" lon="6.25293">
        <ele>907.351</ele>
        <time>2020-07-05T17:07:07Z</time>
      </trkpt>
      <trkpt lat="46.07484" lon="6.25293">
        <ele>907.642</ele>
        <time>2020-07-05T17:07:08Z</time>
      </trkpt>
      <trkpt lat="46.07493" lon="6.25299">
        <ele>908.322</ele>
        <time>2020-07-05T17:07:09Z</time>
      </trkpt>
      <trkpt lat="46.075" lon="6.25301">
        <ele>908.914</ele>
        <time>2020-07-05T17:07:10Z</time>
      </trkpt>
      <trkpt lat="46.07507" lon="6.25303">
        <ele>909.608</ele>
        <time>2020-07-05T17:07:11Z</time>
      </trkpt>
      <trkpt lat="46.07514" lon="6.25302">
        <ele>910.039</ele>
        <time>2020-07-05T17:07:12Z</time>
      </trkpt>
      <trkpt lat="46.07519" lon="6.25302">
        <ele>910.026</ele>
        <time>2020-07-05T17:07:13Z</time>
      </trkpt>
      <trkpt lat="46.07525" lon="6.25305">
        <ele>909.796</ele>
        <time>2020-07-05T17:07:15Z</time>
      </trkpt>
      <trkpt lat="46.0753" lon="6.25309">
        <ele>909.598</ele>
        <time>2020-07-05T17:07:17Z</time>
      </trkpt>
      <trkpt lat="46.07539" lon="6.25311">
        <ele>909.934</ele>
        <time>2020-07-05T17:07:19Z</time>
      </trkpt>
      <trkpt lat="46.07544" lon="6.25312">
        <ele>910.147</ele>
        <time>2020-07-05T17:07:20Z</time>
      </trkpt>
      <trkpt lat="46.07553" lon="6.25316">
        <ele>910.331</ele>
        <time>2020-07-05T17:07:21Z</time>
      </trkpt>
      <trkpt lat="46.07561" lon="6.2532">
        <ele>910.532</ele>
        <time>2020-07-05T17:07:22Z</time>
      </trkpt>
      <trkpt lat="46.07566" lon="6.25323">
        <ele>910.644</ele>
        <time>2020-07-05T17:07:23Z</time>
      </trkpt>
      <trkpt lat="46.07572" lon="6.25331">
        <ele>910.805</ele>
        <time>2020-07-05T17:07:24Z</time>
      </trkpt>
      <trkpt lat="46.07577" lon="6.2533">
        <ele>911.115</ele>
        <time>2020-07-05T17:07:25Z</time>
      </trkpt>
      <trkpt lat="46.07584" lon="6.25327">
        <ele>911.508</ele>
        <time>2020-07-05T17:07:26Z</time>
      </trkpt>
      <trkpt lat="46.07593" lon="6.25324">
        <ele>912.129</ele>
        <time>2020-07-05T17:07:27Z</time>
      </trkpt>
      <trkpt lat="46.07601" lon="6.2532">
        <ele>912.846</ele>
        <time>2020-07-05T17:07:28Z</time>
      </trkpt>
      <trkpt lat="46.07608" lon="6.25315">
        <ele>913.836</ele>
        <time>2020-07-05T17:07:29Z</time>
      </trkpt>
      <trkpt lat="46.07612" lon="6.25312">
        <ele>914.838</ele>
        <time>2020-07-05T17:07:30Z</time>
      </trkpt>
      <trkpt lat="46.07616" lon="6.25305">
        <ele>915.944</ele>
        <time>2020-07-05T17:07:31Z</time>
      </trkpt>
      <trkpt lat="46.07621" lon="6.25296">
        <ele>917.117</ele>
        <time>2020-07-05T17:07:32Z</time>
      </trkpt>
      <trkpt lat="46.07627" lon="6.25288">
        <ele>918.351</ele>
        <time>2020-07-05T17:07:33Z</time>
      </trkpt>
      <trkpt lat="46.07633" lon="6.25278">
        <ele>919.312</ele>
        <time>2020-07-05T17:07:34Z</time>
      </trkpt>
      <trkpt lat="46.07639" lon="6.25269">
        <ele>920.269</ele>
        <time>2020-07-05T17:07:35Z</time>
      </trkpt>
      <trkpt lat="46.07644" lon="6.25259">
        <ele>921.204</ele>
        <time>2020-07-05T17:07:36Z</time>
      </trkpt>
      <trkpt lat="46.07649" lon="6.25252">
        <ele>921.924</ele>
        <time>2020-07-05T17:07:37Z</time>
      </trkpt>
      <trkpt lat="46.07654" lon="6.25249">
        <ele>922.608</ele>
        <time>2020-07-05T17:07:38Z</time>
      </trkpt>
      <trkpt lat="46.07662" lon="6.25249">
        <ele>923.141</ele>
        <time>2020-07-05T17:07:39Z</time>
      </trkpt>
      <trkpt lat="46.0767" lon="6.25249">
        <ele>923.688</ele>
        <time>2020-07-05T17:07:40Z</time>
      </trkpt>
      <trkpt lat="46.07676" lon="6.25247">
        <ele>924.028</ele>
        <time>2020-07-05T17:07:41Z</time>
      </trkpt>
      <trkpt lat="46.07682" lon="6.25241">
        <ele>924.26</ele>
        <time>2020-07-05T17:07:42Z</time>
      </trkpt>
      <trkpt lat="46.0769" lon="6.25236">
        <ele>924.286</ele>
        <time>2020-07-05T17:07:43Z</time>
      </trkpt>
      <trkpt lat="46.07694" lon="6.25235">
        <ele>924.299</ele>
        <time>2020-07-05T17:07:44Z</time>
      </trkpt>
      <trkpt lat="46.07702" lon="6.25233">
        <ele>924.083</ele>
        <time>2020-07-05T17:07:45Z</time>
      </trkpt>
      <trkpt lat="46.07709" lon="6.25229">
        <ele>923.644</ele>
        <time>2020-07-05T17:07:46Z</time>
      </trkpt>
      <trkpt lat="46.07717" lon="6.25222">
        <ele>923.146</ele>
        <time>2020-07-05T17:07:47Z</time>
      </trkpt>
      <trkpt lat="46.07722" lon="6.25213">
        <ele>922.788</ele>
        <time>2020-07-05T17:07:48Z</time>
      </trkpt>
      <trkpt lat="46.07727" lon="6.25205">
        <ele>922.516</ele>
        <time>2020-07-05T17:07:49Z</time>
      </trkpt>
      <trkpt lat="46.07729" lon="6.25195">
        <ele>922.208</ele>
        <time>2020-07-05T17:07:50Z</time>
      </trkpt>
      <trkpt lat="46.07731" lon="6.25186">
        <ele>921.999</ele>
        <time>2020-07-05T17:07:51Z</time>
      </trkpt>
      <trkpt lat="46.07735" lon="6.25178">
        <ele>921.396</ele>
        <time>2020-07-05T17:07:53Z</time>
      </trkpt>
      <trkpt lat="46.0774" lon="6.25169">
        <ele>919.336</ele>
        <time>2020-07-05T17:08:11Z</time>
      </trkpt>
      <trkpt lat="46.07741" lon="6.25163">
        <ele>919.328</ele>
        <time>2020-07-05T17:08:14Z</time>
      </trkpt>
      <trkpt lat="46.07745" lon="6.25159">
        <ele>918.824</ele>
        <time>2020-07-05T17:08:17Z</time>
      </trkpt>
      <trkpt lat="46.07751" lon="6.25157">
        <ele>918.247</ele>
        <time>2020-07-05T17:08:19Z</time>
      </trkpt>
      <trkpt lat="46.07756" lon="6.25159">
        <ele>917.341</ele>
        <time>2020-07-05T17:08:21Z</time>
      </trkpt>
      <trkpt lat="46.07752" lon="6.25172">
        <ele>916.812</ele>
        <time>2020-07-05T17:08:23Z</time>
      </trkpt>
      <trkpt lat="46.07748" lon="6.2518">
        <ele>916.829</ele>
        <time>2020-07-05T17:08:24Z</time>
      </trkpt>
      <trkpt lat="46.0774" lon="6.2519">
        <ele>917.2</ele>
        <time>2020-07-05T17:08:25Z</time>
      </trkpt>
      <trkpt lat="46.07734" lon="6.25197">
        <ele>917.92</ele>
        <time>2020-07-05T17:08:26Z</time>
      </trkpt>
      <trkpt lat="46.07731" lon="6.25202">
        <ele>918.708</ele>
        <time>2020-07-05T17:08:27Z</time>
      </trkpt>
      <trkpt lat="46.07726" lon="6.25207">
        <ele>919.627</ele>
        <time>2020-07-05T17:08:28Z</time>
      </trkpt>
      <trkpt lat="46.0772" lon="6.25212">
        <ele>920.464</ele>
        <time>2020-07-05T17:08:29Z</time>
      </trkpt>
      <trkpt lat="46.07714" lon="6.25217">
        <ele>921.174</ele>
        <time>2020-07-05T17:08:30Z</time>
      </trkpt>
      <trkpt lat="46.07707" lon="6.25221">
        <ele>921.626</ele>
        <time>2020-07-05T17:08:31Z</time>
      </trkpt>
      <trkpt lat="46.077" lon="6.25225">
        <ele>922.042</ele>
        <time>2020-07-05T17:08:32Z</time>
      </trkpt>
      <trkpt lat="46.07694" lon="6.25227">
        <ele>922.375</ele>
        <time>2020-07-05T17:08:33Z</time>
      </trkpt>
      <trkpt lat="46.07687" lon="6.25229">
        <ele>922.669</ele>
        <time>2020-07-05T17:08:34Z</time>
      </trkpt>
      <trkpt lat="46.07682" lon="6.25232">
        <ele>922.81</ele>
        <time>2020-07-05T17:08:35Z</time>
      </trkpt>
      <trkpt lat="46.07678" lon="6.25235">
        <ele>923.178</ele>
        <time>2020-07-05T17:08:36Z</time>
      </trkpt>
      <trkpt lat="46.07675" lon="6.25241">
        <ele>923.433</ele>
        <time>2020-07-05T17:08:37Z</time>
      </trkpt>
      <trkpt lat="46.07669" lon="6.25244">
        <ele>924.026</ele>
        <time>2020-07-05T17:08:39Z</time>
      </trkpt>
      <trkpt lat="46.07664" lon="6.25244">
        <ele>924.408</ele>
        <time>2020-07-05T17:08:40Z</time>
      </trkpt>
      <trkpt lat="46.07658" lon="6.25244">
        <ele>924.792</ele>
        <time>2020-07-05T17:08:41Z</time>
      </trkpt>
      <trkpt lat="46.07653" lon="6.25249">
        <ele>924.839</ele>
        <time>2020-07-05T17:08:43Z</time>
      </trkpt>
      <trkpt lat="46.07649" lon="6.25257">
        <ele>924.369</ele>
        <time>2020-07-05T17:08:45Z</time>
      </trkpt>
      <trkpt lat="46.07645" lon="6.25266">
        <ele>924.041</ele>
        <time>2020-07-05T17:08:46Z</time>
      </trkpt>
      <trkpt lat="46.07639" lon="6.25276">
        <ele>923.667</ele>
        <time>2020-07-05T17:08:47Z</time>
      </trkpt>
      <trkpt lat="46.07636" lon="6.25283">
        <ele>923.39</ele>
        <time>2020-07-05T17:08:48Z</time>
      </trkpt>
      <trkpt lat="46.07633" lon="6.25289">
        <ele>922.924</ele>
        <time>2020-07-05T17:08:49Z</time>
      </trkpt>
      <trkpt lat="46.07627" lon="6.25297">
        <ele>921.765</ele>
        <time>2020-07-05T17:08:51Z</time>
      </trkpt>
      <trkpt lat="46.0763" lon="6.25288">
        <ele>918.655</ele>
        <time>2020-07-05T17:09:07Z</time>
      </trkpt>
      <trkpt lat="46.07633" lon="6.25281">
        <ele>918.907</ele>
        <time>2020-07-05T17:09:08Z</time>
      </trkpt>
      <trkpt lat="46.07639" lon="6.25271">
        <ele>919.417</ele>
        <time>2020-07-05T17:09:09Z</time>
      </trkpt>
      <trkpt lat="46.07644" lon="6.25255">
        <ele>920.108</ele>
        <time>2020-07-05T17:09:10Z</time>
      </trkpt>
      <trkpt lat="46.07649" lon="6.25243">
        <ele>921.13</ele>
        <time>2020-07-05T17:09:11Z</time>
      </trkpt>
      <trkpt lat="46.07655" lon="6.25236">
        <ele>922.147</ele>
        <time>2020-07-05T17:09:12Z</time>
      </trkpt>
      <trkpt lat="46.07663" lon="6.25237">
        <ele>922.917</ele>
        <time>2020-07-05T17:09:13Z</time>
      </trkpt>
      <trkpt lat="46.07671" lon="6.25237">
        <ele>923.599</ele>
        <time>2020-07-05T17:09:14Z</time>
      </trkpt>
      <trkpt lat="46.07676" lon="6.25239">
        <ele>924.195</ele>
        <time>2020-07-05T17:09:15Z</time>
      </trkpt>
      <trkpt lat="46.07683" lon="6.25235">
        <ele>924.398</ele>
        <time>2020-07-05T17:09:16Z</time>
      </trkpt>
      <trkpt lat="46.07693" lon="6.25231">
        <ele>924.322</ele>
        <time>2020-07-05T17:09:17Z</time>
      </trkpt>
      <trkpt lat="46.077" lon="6.25226">
        <ele>924.253</ele>
        <time>2020-07-05T17:09:18Z</time>
      </trkpt>
      <trkpt lat="46.07707" lon="6.25224">
        <ele>924.112</ele>
        <time>2020-07-05T17:09:19Z</time>
      </trkpt>
      <trkpt lat="46.07714" lon="6.25219">
        <ele>923.732</ele>
        <time>2020-07-05T17:09:20Z</time>
      </trkpt>
      <trkpt lat="46.07721" lon="6.2521">
        <ele>923.205</ele>
        <time>2020-07-05T17:09:21Z</time>
      </trkpt>
      <trkpt lat="46.07728" lon="6.252">
        <ele>922.808</ele>
        <time>2020-07-05T17:09:22Z</time>
      </trkpt>
      <trkpt lat="46.07731" lon="6.25191">
        <ele>922.566</ele>
        <time>2020-07-05T17:09:23Z</time>
      </trkpt>
      <trkpt lat="46.07734" lon="6.25183">
        <ele>922.263</ele>
        <time>2020-07-05T17:09:24Z</time>
      </trkpt>
      <trkpt lat="46.07737" lon="6.25175">
        <ele>921.833</ele>
        <time>2020-07-05T17:09:25Z</time>
      </trkpt>
      <trkpt lat="46.07741" lon="6.25167">
        <ele>921.465</ele>
        <time>2020-07-05T17:09:26Z</time>
      </trkpt>
      <trkpt lat="46.07746" lon="6.25162">
        <ele>921.021</ele>
        <time>2020-07-05T17:09:27Z</time>
      </trkpt>
      <trkpt lat="46.07751" lon="6.25159">
        <ele>920.324</ele>
        <time>2020-07-05T17:09:28Z</time>
      </trkpt>
      <trkpt lat="46.07759" lon="6.25154">
        <ele>919.538</ele>
        <time>2020-07-05T17:09:29Z</time>
      </trkpt>
      <trkpt lat="46.07764" lon="6.25146">
        <ele>918.769</ele>
        <time>2020-07-05T17:09:30Z</time>
      </trkpt>
      <trkpt lat="46.07771" lon="6.25133">
        <ele>917.817</ele>
        <time>2020-07-05T17:09:31Z</time>
      </trkpt>
      <trkpt lat="46.07776" lon="6.25123">
        <ele>916.887</ele>
        <time>2020-07-05T17:09:32Z</time>
      </trkpt>
      <trkpt lat="46.07783" lon="6.25112">
        <ele>915.915</ele>
        <time>2020-07-05T17:09:33Z</time>
      </trkpt>
      <trkpt lat="46.07788" lon="6.25102">
        <ele>915.108</ele>
        <time>2020-07-05T17:09:34Z</time>
      </trkpt>
      <trkpt lat="46.07793" lon="6.25093">
        <ele>914.576</ele>
        <time>2020-07-05T17:09:35Z</time>
      </trkpt>
      <trkpt lat="46.07796" lon="6.25083">
        <ele>914.093</ele>
        <time>2020-07-05T17:09:36Z</time>
      </trkpt>
      <trkpt lat="46.078" lon="6.25069">
        <ele>913.883</ele>
        <time>2020-07-05T17:09:37Z</time>
      </trkpt>
      <trkpt lat="46.07803" lon="6.25054">
        <ele>913.785</ele>
        <time>2020-07-05T17:09:38Z</time>
      </trkpt>
      <trkpt lat="46.07808" lon="6.2504">
        <ele>913.711</ele>
        <time>2020-07-05T17:09:39Z</time>
      </trkpt>
      <trkpt lat="46.07811" lon="6.2503">
        <ele>913.864</ele>
        <time>2020-07-05T17:09:40Z</time>
      </trkpt>
      <trkpt lat="46.07816" lon="6.2502">
        <ele>913.968</ele>
        <time>2020-07-05T17:09:41Z</time>
      </trkpt>
      <trkpt lat="46.07821" lon="6.2501">
        <ele>914.079</ele>
        <time>2020-07-05T17:09:42Z</time>
      </trkpt>
      <trkpt lat="46.07826" lon="6.25004">
        <ele>914.083</ele>
        <time>2020-07-05T17:09:43Z</time>
      </trkpt>
      <trkpt lat="46.07832" lon="6.24999">
        <ele>914.025</ele>
        <time>2020-07-05T17:09:44Z</time>
      </trkpt>
      <trkpt lat="46.07839" lon="6.24991">
        <ele>913.817</ele>
        <time>2020-07-05T17:09:45Z</time>
      </trkpt>
      <trkpt lat="46.07846" lon="6.24982">
        <ele>913.508</ele>
        <time>2020-07-05T17:09:46Z</time>
      </trkpt>
      <trkpt lat="46.07853" lon="6.24971">
        <ele>912.983</ele>
        <time>2020-07-05T17:09:47Z</time>
      </trkpt>
      <trkpt lat="46.07857" lon="6.24954">
        <ele>912.25</ele>
        <time>2020-07-05T17:09:48Z</time>
      </trkpt>
      <trkpt lat="46.07862" lon="6.24939">
        <ele>911.47</ele>
        <time>2020-07-05T17:09:49Z</time>
      </trkpt>
      <trkpt lat="46.07866" lon="6.24927">
        <ele>910.562</ele>
        <time>2020-07-05T17:09:50Z</time>
      </trkpt>
      <trkpt lat="46.07871" lon="6.24917">
        <ele>909.318</ele>
        <time>2020-07-05T17:09:51Z</time>
      </trkpt>
      <trkpt lat="46.07879" lon="6.2491">
        <ele>908.221</ele>
        <time>2020-07-05T17:09:52Z</time>
      </trkpt>
      <trkpt lat="46.07888" lon="6.24905">
        <ele>906.835</ele>
        <time>2020-07-05T17:09:53Z</time>
      </trkpt>
      <trkpt lat="46.07898" lon="6.24899">
        <ele>905.576</ele>
        <time>2020-07-05T17:09:54Z</time>
      </trkpt>
      <trkpt lat="46.07907" lon="6.24894">
        <ele>904.248</ele>
        <time>2020-07-05T17:09:55Z</time>
      </trkpt>
      <trkpt lat="46.07915" lon="6.24887">
        <ele>903.061</ele>
        <time>2020-07-05T17:09:56Z</time>
      </trkpt>
      <trkpt lat="46.07918" lon="6.24878">
        <ele>901.917</ele>
        <time>2020-07-05T17:09:57Z</time>
      </trkpt>
      <trkpt lat="46.07918" lon="6.24871">
        <ele>901.008</ele>
        <time>2020-07-05T17:09:58Z</time>
      </trkpt>
      <trkpt lat="46.07915" lon="6.24861">
        <ele>900.369</ele>
        <time>2020-07-05T17:09:59Z</time>
      </trkpt>
      <trkpt lat="46.07909" lon="6.24849">
        <ele>899.656</ele>
        <time>2020-07-05T17:10:00Z</time>
      </trkpt>
      <trkpt lat="46.07906" lon="6.24834">
        <ele>898.956</ele>
        <time>2020-07-05T17:10:01Z</time>
      </trkpt>
      <trkpt lat="46.07904" lon="6.24817">
        <ele>898.358</ele>
        <time>2020-07-05T17:10:02Z</time>
      </trkpt>
      <trkpt lat="46.07903" lon="6.24802">
        <ele>898.194</ele>
        <time>2020-07-05T17:10:03Z</time>
      </trkpt>
      <trkpt lat="46.07904" lon="6.24788">
        <ele>898.157</ele>
        <time>2020-07-05T17:10:04Z</time>
      </trkpt>
      <trkpt lat="46.07904" lon="6.24775">
        <ele>898.011</ele>
        <time>2020-07-05T17:10:05Z</time>
      </trkpt>
      <trkpt lat="46.07904" lon="6.24765">
        <ele>897.932</ele>
        <time>2020-07-05T17:10:06Z</time>
      </trkpt>
      <trkpt lat="46.07905" lon="6.24755">
        <ele>897.887</ele>
        <time>2020-07-05T17:10:07Z</time>
      </trkpt>
      <trkpt lat="46.07906" lon="6.24746">
        <ele>897.442</ele>
        <time>2020-07-05T17:10:08Z</time>
      </trkpt>
      <trkpt lat="46.07907" lon="6.24738">
        <ele>896.726</ele>
        <time>2020-07-05T17:10:09Z</time>
      </trkpt>
      <trkpt lat="46.07907" lon="6.2473">
        <ele>896.208</ele>
        <time>2020-07-05T17:10:10Z</time>
      </trkpt>
      <trkpt lat="46.07908" lon="6.24723">
        <ele>896.033</ele>
        <time>2020-07-05T17:10:11Z</time>
      </trkpt>
      <trkpt lat="46.07909" lon="6.24714">
        <ele>895.98</ele>
        <time>2020-07-05T17:10:12Z</time>
      </trkpt>
      <trkpt lat="46.07909" lon="6.24706">
        <ele>895.89</ele>
        <time>2020-07-05T17:10:13Z</time>
      </trkpt>
      <trkpt lat="46.0791" lon="6.24697">
        <ele>895.752</ele>
        <time>2020-07-05T17:10:14Z</time>
      </trkpt>
      <trkpt lat="46.07913" lon="6.24689">
        <ele>895.668</ele>
        <time>2020-07-05T17:10:15Z</time>
      </trkpt>
      <trkpt lat="46.07915" lon="6.2468">
        <ele>895.591</ele>
        <time>2020-07-05T17:10:16Z</time>
      </trkpt>
      <trkpt lat="46.07918" lon="6.24673">
        <ele>895.425</ele>
        <time>2020-07-05T17:10:17Z</time>
      </trkpt>
      <trkpt lat="46.07929" lon="6.24677">
        <ele>895.726</ele>
        <time>2020-07-05T17:10:24Z</time>
      </trkpt>
      <trkpt lat="46.07937" lon="6.24685">
        <ele>895.876</ele>
        <time>2020-07-05T17:10:25Z</time>
      </trkpt>
      <trkpt lat="46.07948" lon="6.24697">
        <ele>895.89</ele>
        <time>2020-07-05T17:10:26Z</time>
      </trkpt>
      <trkpt lat="46.0796" lon="6.24711">
        <ele>896.019</ele>
        <time>2020-07-05T17:10:27Z</time>
      </trkpt>
      <trkpt lat="46.07974" lon="6.24727">
        <ele>896.208</ele>
        <time>2020-07-05T17:10:28Z</time>
      </trkpt>
      <trkpt lat="46.07988" lon="6.24744">
        <ele>896.532</ele>
        <time>2020-07-05T17:10:29Z</time>
      </trkpt>
      <trkpt lat="46.08004" lon="6.24764">
        <ele>896.899</ele>
        <time>2020-07-05T17:10:30Z</time>
      </trkpt>
      <trkpt lat="46.08022" lon="6.24786">
        <ele>897.249</ele>
        <time>2020-07-05T17:10:31Z</time>
      </trkpt>
      <trkpt lat="46.08036" lon="6.24805">
        <ele>897.281</ele>
        <time>2020-07-05T17:10:32Z</time>
      </trkpt>
      <trkpt lat="46.08049" lon="6.24819">
        <ele>897.127</ele>
        <time>2020-07-05T17:10:33Z</time>
      </trkpt>
      <trkpt lat="46.0806" lon="6.24832">
        <ele>896.34</ele>
        <time>2020-07-05T17:10:34Z</time>
      </trkpt>
      <trkpt lat="46.0807" lon="6.24845">
        <ele>895.124</ele>
        <time>2020-07-05T17:10:35Z</time>
      </trkpt>
      <trkpt lat="46.08079" lon="6.24856">
        <ele>893.535</ele>
        <time>2020-07-05T17:10:36Z</time>
      </trkpt>
      <trkpt lat="46.08087" lon="6.24865">
        <ele>892.058</ele>
        <time>2020-07-05T17:10:37Z</time>
      </trkpt>
      <trkpt lat="46.08094" lon="6.24874">
        <ele>890.752</ele>
        <time>2020-07-05T17:10:38Z</time>
      </trkpt>
      <trkpt lat="46.08101" lon="6.24883">
        <ele>889.617</ele>
        <time>2020-07-05T17:10:39Z</time>
      </trkpt>
      <trkpt lat="46.08108" lon="6.24893">
        <ele>889.008</ele>
        <time>2020-07-05T17:10:40Z</time>
      </trkpt>
      <trkpt lat="46.08113" lon="6.24904">
        <ele>888.84</ele>
        <time>2020-07-05T17:10:41Z</time>
      </trkpt>
      <trkpt lat="46.08117" lon="6.24915">
        <ele>888.577</ele>
        <time>2020-07-05T17:10:42Z</time>
      </trkpt>
      <trkpt lat="46.0812" lon="6.24924">
        <ele>888.127</ele>
        <time>2020-07-05T17:10:43Z</time>
      </trkpt>
      <trkpt lat="46.08122" lon="6.24933">
        <ele>887.969</ele>
        <time>2020-07-05T17:10:44Z</time>
      </trkpt>
      <trkpt lat="46.08125" lon="6.2494">
        <ele>887.635</ele>
        <time>2020-07-05T17:10:45Z</time>
      </trkpt>
      <trkpt lat="46.0813" lon="6.24937">
        <ele>886.128</ele>
        <time>2020-07-05T17:11:23Z</time>
      </trkpt>
      <trkpt lat="46.08136" lon="6.24932">
        <ele>886.172</ele>
        <time>2020-07-05T17:11:24Z</time>
      </trkpt>
      <trkpt lat="46.08144" lon="6.24926">
        <ele>886.093</ele>
        <time>2020-07-05T17:11:25Z</time>
      </trkpt>
      <trkpt lat="46.08155" lon="6.24916">
        <ele>886.073</ele>
        <time>2020-07-05T17:11:26Z</time>
      </trkpt>
      <trkpt lat="46.08167" lon="6.24908">
        <ele>886.185</ele>
        <time>2020-07-05T17:11:27Z</time>
      </trkpt>
      <trkpt lat="46.08178" lon="6.24897">
        <ele>886.213</ele>
        <time>2020-07-05T17:11:28Z</time>
      </trkpt>
      <trkpt lat="46.08188" lon="6.2489">
        <ele>886.208</ele>
        <time>2020-07-05T17:11:29Z</time>
      </trkpt>
      <trkpt lat="46.08203" lon="6.24879">
        <ele>886.372</ele>
        <time>2020-07-05T17:11:31Z</time>
      </trkpt>
      <trkpt lat="46.08214" lon="6.24868">
        <ele>886.359</ele>
        <time>2020-07-05T17:11:32Z</time>
      </trkpt>
      <trkpt lat="46.08225" lon="6.24856">
        <ele>886.379</ele>
        <time>2020-07-05T17:11:33Z</time>
      </trkpt>
      <trkpt lat="46.08235" lon="6.24843">
        <ele>886.081</ele>
        <time>2020-07-05T17:11:34Z</time>
      </trkpt>
      <trkpt lat="46.08245" lon="6.24831">
        <ele>885.517</ele>
        <time>2020-07-05T17:11:35Z</time>
      </trkpt>
      <trkpt lat="46.08255" lon="6.24821">
        <ele>884.78</ele>
        <time>2020-07-05T17:11:36Z</time>
      </trkpt>
      <trkpt lat="46.08263" lon="6.24813">
        <ele>883.664</ele>
        <time>2020-07-05T17:11:37Z</time>
      </trkpt>
      <trkpt lat="46.0827" lon="6.2481">
        <ele>882.595</ele>
        <time>2020-07-05T17:11:38Z</time>
      </trkpt>
      <trkpt lat="46.08275" lon="6.2481">
        <ele>881.448</ele>
        <time>2020-07-05T17:11:39Z</time>
      </trkpt>
      <trkpt lat="46.08282" lon="6.24814">
        <ele>880.661</ele>
        <time>2020-07-05T17:11:40Z</time>
      </trkpt>
      <trkpt lat="46.08285" lon="6.24821">
        <ele>880.017</ele>
        <time>2020-07-05T17:11:41Z</time>
      </trkpt>
      <trkpt lat="46.0829" lon="6.24829">
        <ele>879.608</ele>
        <time>2020-07-05T17:11:42Z</time>
      </trkpt>
      <trkpt lat="46.08297" lon="6.2484">
        <ele>879.319</ele>
        <time>2020-07-05T17:11:43Z</time>
      </trkpt>
      <trkpt lat="46.08305" lon="6.24848">
        <ele>879.326</ele>
        <time>2020-07-05T17:11:44Z</time>
      </trkpt>
      <trkpt lat="46.0831" lon="6.24854">
        <ele>879.376</ele>
        <time>2020-07-05T17:11:45Z</time>
      </trkpt>
      <trkpt lat="46.08315" lon="6.24861">
        <ele>879.138</ele>
        <time>2020-07-05T17:11:46Z</time>
      </trkpt>
      <trkpt lat="46.0832" lon="6.24866">
        <ele>878.944</ele>
        <time>2020-07-05T17:11:47Z</time>
      </trkpt>
      <trkpt lat="46.08326" lon="6.24871">
        <ele>878.577</ele>
        <time>2020-07-05T17:11:48Z</time>
      </trkpt>
      <trkpt lat="46.08332" lon="6.24873">
        <ele>877.941</ele>
        <time>2020-07-05T17:11:49Z</time>
      </trkpt>
      <trkpt lat="46.08339" lon="6.24871">
        <ele>877.482</ele>
        <time>2020-07-05T17:11:50Z</time>
      </trkpt>
      <trkpt lat="46.08347" lon="6.2487">
        <ele>876.976</ele>
        <time>2020-07-05T17:11:51Z</time>
      </trkpt>
      <trkpt lat="46.08362" lon="6.2486">
        <ele>876.99</ele>
        <time>2020-07-05T17:11:52Z</time>
      </trkpt>
      <trkpt lat="46.08374" lon="6.24849">
        <ele>877.019</ele>
        <time>2020-07-05T17:11:53Z</time>
      </trkpt>
      <trkpt lat="46.08391" lon="6.24841">
        <ele>877.508</ele>
        <time>2020-07-05T17:11:54Z</time>
      </trkpt>
      <trkpt lat="46.08404" lon="6.24832">
        <ele>878.342</ele>
        <time>2020-07-05T17:11:55Z</time>
      </trkpt>
      <trkpt lat="46.08413" lon="6.24826">
        <ele>879.389</ele>
        <time>2020-07-05T17:11:56Z</time>
      </trkpt>
      <trkpt lat="46.08421" lon="6.24826">
        <ele>880.049</ele>
        <time>2020-07-05T17:11:57Z</time>
      </trkpt>
      <trkpt lat="46.0843" lon="6.24832">
        <ele>880.611</ele>
        <time>2020-07-05T17:11:58Z</time>
      </trkpt>
      <trkpt lat="46.08441" lon="6.24845">
        <ele>881.037</ele>
        <time>2020-07-05T17:11:59Z</time>
      </trkpt>
      <trkpt lat="46.08451" lon="6.2486">
        <ele>881.01</ele>
        <time>2020-07-05T17:12:00Z</time>
      </trkpt>
      <trkpt lat="46.08462" lon="6.24873">
        <ele>881.194</ele>
        <time>2020-07-05T17:12:01Z</time>
      </trkpt>
      <trkpt lat="46.08473" lon="6.24882">
        <ele>881.175</ele>
        <time>2020-07-05T17:12:02Z</time>
      </trkpt>
      <trkpt lat="46.08482" lon="6.2489">
        <ele>881.182</ele>
        <time>2020-07-05T17:12:03Z</time>
      </trkpt>
      <trkpt lat="46.08492" lon="6.24897">
        <ele>880.943</ele>
        <time>2020-07-05T17:12:04Z</time>
      </trkpt>
      <trkpt lat="46.08502" lon="6.24902">
        <ele>880.917</ele>
        <time>2020-07-05T17:12:05Z</time>
      </trkpt>
      <trkpt lat="46.08511" lon="6.24904">
        <ele>880.608</ele>
        <time>2020-07-05T17:12:06Z</time>
      </trkpt>
      <trkpt lat="46.08519" lon="6.24902">
        <ele>880.433</ele>
        <time>2020-07-05T17:12:07Z</time>
      </trkpt>
      <trkpt lat="46.08528" lon="6.24897">
        <ele>880.26</ele>
        <time>2020-07-05T17:12:08Z</time>
      </trkpt>
      <trkpt lat="46.08537" lon="6.24892">
        <ele>880.25</ele>
        <time>2020-07-05T17:12:09Z</time>
      </trkpt>
      <trkpt lat="46.08545" lon="6.24887">
        <ele>880.332</ele>
        <time>2020-07-05T17:12:10Z</time>
      </trkpt>
      <trkpt lat="46.08553" lon="6.24882">
        <ele>880.338</ele>
        <time>2020-07-05T17:12:11Z</time>
      </trkpt>
      <trkpt lat="46.0856" lon="6.24877">
        <ele>880.581</ele>
        <time>2020-07-05T17:12:12Z</time>
      </trkpt>
      <trkpt lat="46.08568" lon="6.2487">
        <ele>880.785</ele>
        <time>2020-07-05T17:12:13Z</time>
      </trkpt>
      <trkpt lat="46.08577" lon="6.24862">
        <ele>880.896</ele>
        <time>2020-07-05T17:12:14Z</time>
      </trkpt>
      <trkpt lat="46.08587" lon="6.24855">
        <ele>880.914</ele>
        <time>2020-07-05T17:12:15Z</time>
      </trkpt>
      <trkpt lat="46.08596" lon="6.24848">
        <ele>880.954</ele>
        <time>2020-07-05T17:12:16Z</time>
      </trkpt>
      <trkpt lat="46.08604" lon="6.24839">
        <ele>880.809</ele>
        <time>2020-07-05T17:12:17Z</time>
      </trkpt>
      <trkpt lat="46.08612" lon="6.24832">
        <ele>880.508</ele>
        <time>2020-07-05T17:12:18Z</time>
      </trkpt>
      <trkpt lat="46.08619" lon="6.24825">
        <ele>879.926</ele>
        <time>2020-07-05T17:12:19Z</time>
      </trkpt>
      <trkpt lat="46.08628" lon="6.24816">
        <ele>879.483</ele>
        <time>2020-07-05T17:12:20Z</time>
      </trkpt>
      <trkpt lat="46.08637" lon="6.24805">
        <ele>878.653</ele>
        <time>2020-07-05T17:12:21Z</time>
      </trkpt>
      <trkpt lat="46.08646" lon="6.24792">
        <ele>877.785</ele>
        <time>2020-07-05T17:12:22Z</time>
      </trkpt>
      <trkpt lat="46.08653" lon="6.24781">
        <ele>876.771</ele>
        <time>2020-07-05T17:12:23Z</time>
      </trkpt>
      <trkpt lat="46.08662" lon="6.2477">
        <ele>875.864</ele>
        <time>2020-07-05T17:12:24Z</time>
      </trkpt>
      <trkpt lat="46.0867" lon="6.24763">
        <ele>874.628</ele>
        <time>2020-07-05T17:12:25Z</time>
      </trkpt>
      <trkpt lat="46.08678" lon="6.24756">
        <ele>873.639</ele>
        <time>2020-07-05T17:12:26Z</time>
      </trkpt>
      <trkpt lat="46.08687" lon="6.24754">
        <ele>872.729</ele>
        <time>2020-07-05T17:12:27Z</time>
      </trkpt>
      <trkpt lat="46.08696" lon="6.24754">
        <ele>871.9</ele>
        <time>2020-07-05T17:12:28Z</time>
      </trkpt>
      <trkpt lat="46.08705" lon="6.24753">
        <ele>871.32</ele>
        <time>2020-07-05T17:12:29Z</time>
      </trkpt>
      <trkpt lat="46.08715" lon="6.24749">
        <ele>871.008</ele>
        <time>2020-07-05T17:12:30Z</time>
      </trkpt>
      <trkpt lat="46.08721" lon="6.2474">
        <ele>871.027</ele>
        <time>2020-07-05T17:12:31Z</time>
      </trkpt>
      <trkpt lat="46.08729" lon="6.24726">
        <ele>871.124</ele>
        <time>2020-07-05T17:12:32Z</time>
      </trkpt>
      <trkpt lat="46.08737" lon="6.24713">
        <ele>871.694</ele>
        <time>2020-07-05T17:12:33Z</time>
      </trkpt>
      <trkpt lat="46.08743" lon="6.24701">
        <ele>872.216</ele>
        <time>2020-07-05T17:12:34Z</time>
      </trkpt>
      <trkpt lat="46.08747" lon="6.24694">
        <ele>872.942</ele>
        <time>2020-07-05T17:12:35Z</time>
      </trkpt>
      <trkpt lat="46.08753" lon="6.24688">
        <ele>873.415</ele>
        <time>2020-07-05T17:12:36Z</time>
      </trkpt>
      <trkpt lat="46.08759" lon="6.24682">
        <ele>873.949</ele>
        <time>2020-07-05T17:12:37Z</time>
      </trkpt>
      <trkpt lat="46.08766" lon="6.24675">
        <ele>874.18</ele>
        <time>2020-07-05T17:12:38Z</time>
      </trkpt>
      <trkpt lat="46.08773" lon="6.24669">
        <ele>874.136</ele>
        <time>2020-07-05T17:12:39Z</time>
      </trkpt>
      <trkpt lat="46.08782" lon="6.24664">
        <ele>874.017</ele>
        <time>2020-07-05T17:12:40Z</time>
      </trkpt>
      <trkpt lat="46.08792" lon="6.24658">
        <ele>873.818</ele>
        <time>2020-07-05T17:12:41Z</time>
      </trkpt>
      <trkpt lat="46.08801" lon="6.24654">
        <ele>873.708</ele>
        <time>2020-07-05T17:12:42Z</time>
      </trkpt>
      <trkpt lat="46.08809" lon="6.24647">
        <ele>873.758</ele>
        <time>2020-07-05T17:12:43Z</time>
      </trkpt>
      <trkpt lat="46.08816" lon="6.24643">
        <ele>873.665</ele>
        <time>2020-07-05T17:12:44Z</time>
      </trkpt>
      <trkpt lat="46.08823" lon="6.24639">
        <ele>873.675</ele>
        <time>2020-07-05T17:12:45Z</time>
      </trkpt>
      <trkpt lat="46.08828" lon="6.24636">
        <ele>873.647</ele>
        <time>2020-07-05T17:12:46Z</time>
      </trkpt>
      <trkpt lat="46.08833" lon="6.24634">
        <ele>873.743</ele>
        <time>2020-07-05T17:12:47Z</time>
      </trkpt>
      <trkpt lat="46.08838" lon="6.24632">
        <ele>873.776</ele>
        <time>2020-07-05T17:12:48Z</time>
      </trkpt>
      <trkpt lat="46.08845" lon="6.24627">
        <ele>873.68</ele>
        <time>2020-07-05T17:12:50Z</time>
      </trkpt>
      <trkpt lat="46.0885" lon="6.24625">
        <ele>873.281</ele>
        <time>2020-07-05T17:13:02Z</time>
      </trkpt>
      <trkpt lat="46.08858" lon="6.24628">
        <ele>873.172</ele>
        <time>2020-07-05T17:13:04Z</time>
      </trkpt>
      <trkpt lat="46.08864" lon="6.24632">
        <ele>873.013</ele>
        <time>2020-07-05T17:13:05Z</time>
      </trkpt>
      <trkpt lat="46.08871" lon="6.24637">
        <ele>872.814</ele>
        <time>2020-07-05T17:13:06Z</time>
      </trkpt>
      <trkpt lat="46.08879" lon="6.24642">
        <ele>872.408</ele>
        <time>2020-07-05T17:13:07Z</time>
      </trkpt>
      <trkpt lat="46.08886" lon="6.24647">
        <ele>871.742</ele>
        <time>2020-07-05T17:13:08Z</time>
      </trkpt>
      <trkpt lat="46.08895" lon="6.24652">
        <ele>870.849</ele>
        <time>2020-07-05T17:13:09Z</time>
      </trkpt>
      <trkpt lat="46.08903" lon="6.24655">
        <ele>870.039</ele>
        <time>2020-07-05T17:13:10Z</time>
      </trkpt>
      <trkpt lat="46.08911" lon="6.24659">
        <ele>869.131</ele>
        <time>2020-07-05T17:13:11Z</time>
      </trkpt>
      <trkpt lat="46.08918" lon="6.24663">
        <ele>868.377</ele>
        <time>2020-07-05T17:13:12Z</time>
      </trkpt>
      <trkpt lat="46.08925" lon="6.24666">
        <ele>867.74</ele>
        <time>2020-07-05T17:13:13Z</time>
      </trkpt>
      <trkpt lat="46.08934" lon="6.24668">
        <ele>867.444</ele>
        <time>2020-07-05T17:13:14Z</time>
      </trkpt>
      <trkpt lat="46.08943" lon="6.24672">
        <ele>867.145</ele>
        <time>2020-07-05T17:13:15Z</time>
      </trkpt>
      <trkpt lat="46.08951" lon="6.24675">
        <ele>866.939</ele>
        <time>2020-07-05T17:13:16Z</time>
      </trkpt>
      <trkpt lat="46.0896" lon="6.24679">
        <ele>866.701</ele>
        <time>2020-07-05T17:13:17Z</time>
      </trkpt>
      <trkpt lat="46.08969" lon="6.24684">
        <ele>866.521</ele>
        <time>2020-07-05T17:13:18Z</time>
      </trkpt>
      <trkpt lat="46.08977" lon="6.2469">
        <ele>866.108</ele>
        <time>2020-07-05T17:13:19Z</time>
      </trkpt>
      <trkpt lat="46.08985" lon="6.24699">
        <ele>865.628</ele>
        <time>2020-07-05T17:13:20Z</time>
      </trkpt>
      <trkpt lat="46.08992" lon="6.24709">
        <ele>865.035</ele>
        <time>2020-07-05T17:13:21Z</time>
      </trkpt>
      <trkpt lat="46.08998" lon="6.24722">
        <ele>864.315</ele>
        <time>2020-07-05T17:13:22Z</time>
      </trkpt>
      <trkpt lat="46.09004" lon="6.24736">
        <ele>863.677</ele>
        <time>2020-07-05T17:13:23Z</time>
      </trkpt>
      <trkpt lat="46.09009" lon="6.24746">
        <ele>863.093</ele>
        <time>2020-07-05T17:13:24Z</time>
      </trkpt>
      <trkpt lat="46.09013" lon="6.24753">
        <ele>862.496</ele>
        <time>2020-07-05T17:13:25Z</time>
      </trkpt>
      <trkpt lat="46.09016" lon="6.24759">
        <ele>861.87</ele>
        <time>2020-07-05T17:13:26Z</time>
      </trkpt>
      <trkpt lat="46.09018" lon="6.24766">
        <ele>861.361</ele>
        <time>2020-07-05T17:13:27Z</time>
      </trkpt>
      <trkpt lat="46.0902" lon="6.24772">
        <ele>860.852</ele>
        <time>2020-07-05T17:13:28Z</time>
      </trkpt>
      <trkpt lat="46.09023" lon="6.24778">
        <ele>859.853</ele>
        <time>2020-07-05T17:13:30Z</time>
      </trkpt>
      <trkpt lat="46.09019" lon="6.24759">
        <ele>859.008</ele>
        <time>2020-07-05T17:14:21Z</time>
      </trkpt>
      <trkpt lat="46.09015" lon="6.24752">
        <ele>859.208</ele>
        <time>2020-07-05T17:14:22Z</time>
      </trkpt>
      <trkpt lat="46.09011" lon="6.24743">
        <ele>859.34</ele>
        <time>2020-07-05T17:14:23Z</time>
      </trkpt>
      <trkpt lat="46.09006" lon="6.24734">
        <ele>859.587</ele>
        <time>2020-07-05T17:14:24Z</time>
      </trkpt>
      <trkpt lat="46.09002" lon="6.24724">
        <ele>859.867</ele>
        <time>2020-07-05T17:14:25Z</time>
      </trkpt>
      <trkpt lat="46.08997" lon="6.24713">
        <ele>860.129</ele>
        <time>2020-07-05T17:14:26Z</time>
      </trkpt>
      <trkpt lat="46.08993" lon="6.24704">
        <ele>860.565</ele>
        <time>2020-07-05T17:14:27Z</time>
      </trkpt>
      <trkpt lat="46.08988" lon="6.24695">
        <ele>861.198</ele>
        <time>2020-07-05T17:14:28Z</time>
      </trkpt>
      <trkpt lat="46.08982" lon="6.24687">
        <ele>861.532</ele>
        <time>2020-07-05T17:14:29Z</time>
      </trkpt>
      <trkpt lat="46.08975" lon="6.2468">
        <ele>862.033</ele>
        <time>2020-07-05T17:14:30Z</time>
      </trkpt>
      <trkpt lat="46.08968" lon="6.24674">
        <ele>862.794</ele>
        <time>2020-07-05T17:14:31Z</time>
      </trkpt>
      <trkpt lat="46.0896" lon="6.24669">
        <ele>863.457</ele>
        <time>2020-07-05T17:14:32Z</time>
      </trkpt>
      <trkpt lat="46.0895" lon="6.24666">
        <ele>864.222</ele>
        <time>2020-07-05T17:14:33Z</time>
      </trkpt>
      <trkpt lat="46.0894" lon="6.24663">
        <ele>864.908</ele>
        <time>2020-07-05T17:14:34Z</time>
      </trkpt>
      <trkpt lat="46.08928" lon="6.24659">
        <ele>865.624</ele>
        <time>2020-07-05T17:14:35Z</time>
      </trkpt>
      <trkpt lat="46.08917" lon="6.24655">
        <ele>866.361</ele>
        <time>2020-07-05T17:14:36Z</time>
      </trkpt>
      <trkpt lat="46.08906" lon="6.24653">
        <ele>866.811</ele>
        <time>2020-07-05T17:14:37Z</time>
      </trkpt>
      <trkpt lat="46.08895" lon="6.24649">
        <ele>867.073</ele>
        <time>2020-07-05T17:14:38Z</time>
      </trkpt>
      <trkpt lat="46.08883" lon="6.24643">
        <ele>867.529</ele>
        <time>2020-07-05T17:14:39Z</time>
      </trkpt>
      <trkpt lat="46.08872" lon="6.24637">
        <ele>867.922</ele>
        <time>2020-07-05T17:14:40Z</time>
      </trkpt>
      <trkpt lat="46.08861" lon="6.24632">
        <ele>868.116</ele>
        <time>2020-07-05T17:14:41Z</time>
      </trkpt>
      <trkpt lat="46.08851" lon="6.24624">
        <ele>868.687</ele>
        <time>2020-07-05T17:14:42Z</time>
      </trkpt>
      <trkpt lat="46.08842" lon="6.24614">
        <ele>869.353</ele>
        <time>2020-07-05T17:14:43Z</time>
      </trkpt>
      <trkpt lat="46.08833" lon="6.24601">
        <ele>870.104</ele>
        <time>2020-07-05T17:14:44Z</time>
      </trkpt>
      <trkpt lat="46.08824" lon="6.24589">
        <ele>870.714</ele>
        <time>2020-07-05T17:14:45Z</time>
      </trkpt>
      <trkpt lat="46.08815" lon="6.24575">
        <ele>871.508</ele>
        <time>2020-07-05T17:14:46Z</time>
      </trkpt>
      <trkpt lat="46.08807" lon="6.24562">
        <ele>872.18</ele>
        <time>2020-07-05T17:14:47Z</time>
      </trkpt>
      <trkpt lat="46.08799" lon="6.2455">
        <ele>872.547</ele>
        <time>2020-07-05T17:14:48Z</time>
      </trkpt>
      <trkpt lat="46.08791" lon="6.24537">
        <ele>872.737</ele>
        <time>2020-07-05T17:14:49Z</time>
      </trkpt>
      <trkpt lat="46.08783" lon="6.24525">
        <ele>872.989</ele>
        <time>2020-07-05T17:14:50Z</time>
      </trkpt>
      <trkpt lat="46.08776" lon="6.24514">
        <ele>872.985</ele>
        <time>2020-07-05T17:14:51Z</time>
      </trkpt>
      <trkpt lat="46.08771" lon="6.24504">
        <ele>872.948</ele>
        <time>2020-07-05T17:14:52Z</time>
      </trkpt>
      <trkpt lat="46.08766" lon="6.24495">
        <ele>873.012</ele>
        <time>2020-07-05T17:14:53Z</time>
      </trkpt>
      <trkpt lat="46.08758" lon="6.24487">
        <ele>873.143</ele>
        <time>2020-07-05T17:14:54Z</time>
      </trkpt>
      <trkpt lat="46.08748" lon="6.24477">
        <ele>873.263</ele>
        <time>2020-07-05T17:14:55Z</time>
      </trkpt>
      <trkpt lat="46.08738" lon="6.24467">
        <ele>873.344</ele>
        <time>2020-07-05T17:14:56Z</time>
      </trkpt>
      <trkpt lat="46.08728" lon="6.24459">
        <ele>873.318</ele>
        <time>2020-07-05T17:14:57Z</time>
      </trkpt>
      <trkpt lat="46.08718" lon="6.24451">
        <ele>873.208</ele>
        <time>2020-07-05T17:14:58Z</time>
      </trkpt>
      <trkpt lat="46.08708" lon="6.24444">
        <ele>873.111</ele>
        <time>2020-07-05T17:14:59Z</time>
      </trkpt>
      <trkpt lat="46.08696" lon="6.24437">
        <ele>873.158</ele>
        <time>2020-07-05T17:15:00Z</time>
      </trkpt>
      <trkpt lat="46.08683" lon="6.24432">
        <ele>872.928</ele>
        <time>2020-07-05T17:15:01Z</time>
      </trkpt>
      <trkpt lat="46.08672" lon="6.24429">
        <ele>872.82</ele>
        <time>2020-07-05T17:15:02Z</time>
      </trkpt>
      <trkpt lat="46.0866" lon="6.24425">
        <ele>872.736</ele>
        <time>2020-07-05T17:15:03Z</time>
      </trkpt>
      <trkpt lat="46.0865" lon="6.24421">
        <ele>872.699</ele>
        <time>2020-07-05T17:15:04Z</time>
      </trkpt>
      <trkpt lat="46.08642" lon="6.24417">
        <ele>872.663</ele>
        <time>2020-07-05T17:15:05Z</time>
      </trkpt>
      <trkpt lat="46.08635" lon="6.24416">
        <ele>872.724</ele>
        <time>2020-07-05T17:15:06Z</time>
      </trkpt>
      <trkpt lat="46.08613" lon="6.24405">
        <ele>873.083</ele>
        <time>2020-07-05T17:15:07Z</time>
      </trkpt>
      <trkpt lat="46.08589" lon="6.24405">
        <ele>873.525</ele>
        <time>2020-07-05T17:15:08Z</time>
      </trkpt>
      <trkpt lat="46.0858" lon="6.24403">
        <ele>873.917</ele>
        <time>2020-07-05T17:15:09Z</time>
      </trkpt>
      <trkpt lat="46.08573" lon="6.24401">
        <ele>874.208</ele>
        <time>2020-07-05T17:15:10Z</time>
      </trkpt>
      <trkpt lat="46.08569" lon="6.244">
        <ele>874.573</ele>
        <time>2020-07-05T17:15:11Z</time>
      </trkpt>
      <trkpt lat="46.08567" lon="6.24393">
        <ele>875.48</ele>
        <time>2020-07-05T17:15:17Z</time>
      </trkpt>
      <trkpt lat="46.0856" lon="6.24387">
        <ele>875.44</ele>
        <time>2020-07-05T17:15:18Z</time>
      </trkpt>
      <trkpt lat="46.08568" lon="6.24372">
        <ele>875.652</ele>
        <time>2020-07-05T17:20:13Z</time>
      </trkpt>
      <trkpt lat="46.0857" lon="6.24363">
        <ele>875.658</ele>
        <time>2020-07-05T17:20:14Z</time>
      </trkpt>
      <trkpt lat="46.08571" lon="6.24355">
        <ele>875.691</ele>
        <time>2020-07-05T17:20:15Z</time>
      </trkpt>
      <trkpt lat="46.08573" lon="6.24348">
        <ele>875.715</ele>
        <time>2020-07-05T17:20:16Z</time>
      </trkpt>
      <trkpt lat="46.08576" lon="6.24337">
        <ele>875.736</ele>
        <time>2020-07-05T17:20:17Z</time>
      </trkpt>
      <trkpt lat="46.08579" lon="6.24327">
        <ele>875.898</ele>
        <time>2020-07-05T17:20:18Z</time>
      </trkpt>
      <trkpt lat="46.08581" lon="6.24316">
        <ele>875.815</ele>
        <time>2020-07-05T17:20:19Z</time>
      </trkpt>
      <trkpt lat="46.08583" lon="6.24307">
        <ele>875.826</ele>
        <time>2020-07-05T17:20:20Z</time>
      </trkpt>
      <trkpt lat="46.08586" lon="6.24298">
        <ele>875.808</ele>
        <time>2020-07-05T17:20:21Z</time>
      </trkpt>
      <trkpt lat="46.08587" lon="6.24286">
        <ele>875.864</ele>
        <time>2020-07-05T17:20:22Z</time>
      </trkpt>
      <trkpt lat="46.08588" lon="6.24273">
        <ele>875.761</ele>
        <time>2020-07-05T17:20:23Z</time>
      </trkpt>
      <trkpt lat="46.08586" lon="6.2426">
        <ele>875.681</ele>
        <time>2020-07-05T17:20:24Z</time>
      </trkpt>
      <trkpt lat="46.08583" lon="6.24247">
        <ele>875.423</ele>
        <time>2020-07-05T17:20:25Z</time>
      </trkpt>
      <trkpt lat="46.08578" lon="6.24233">
        <ele>875.389</ele>
        <time>2020-07-05T17:20:26Z</time>
      </trkpt>
      <trkpt lat="46.08574" lon="6.24218">
        <ele>875.192</ele>
        <time>2020-07-05T17:20:27Z</time>
      </trkpt>
      <trkpt lat="46.08568" lon="6.24204">
        <ele>875.096</ele>
        <time>2020-07-05T17:20:28Z</time>
      </trkpt>
      <trkpt lat="46.08565" lon="6.24189">
        <ele>874.857</ele>
        <time>2020-07-05T17:20:29Z</time>
      </trkpt>
      <trkpt lat="46.08562" lon="6.24174">
        <ele>874.883</ele>
        <time>2020-07-05T17:20:30Z</time>
      </trkpt>
      <trkpt lat="46.08563" lon="6.24161">
        <ele>874.825</ele>
        <time>2020-07-05T17:20:31Z</time>
      </trkpt>
      <trkpt lat="46.08567" lon="6.24145">
        <ele>874.917</ele>
        <time>2020-07-05T17:20:32Z</time>
      </trkpt>
      <trkpt lat="46.08572" lon="6.24129">
        <ele>875.008</ele>
        <time>2020-07-05T17:20:33Z</time>
      </trkpt>
      <trkpt lat="46.08576" lon="6.24115">
        <ele>875.423</ele>
        <time>2020-07-05T17:20:34Z</time>
      </trkpt>
      <trkpt lat="46.0858" lon="6.24109">
        <ele>875.95</ele>
        <time>2020-07-05T17:20:35Z</time>
      </trkpt>
      <trkpt lat="46.08574" lon="6.24104">
        <ele>876.84</ele>
        <time>2020-07-05T17:20:37Z</time>
      </trkpt>
      <trkpt lat="46.08567" lon="6.24102">
        <ele>877.152</ele>
        <time>2020-07-05T17:20:38Z</time>
      </trkpt>
      <trkpt lat="46.08559" lon="6.24099">
        <ele>877.158</ele>
        <time>2020-07-05T17:20:39Z</time>
      </trkpt>
      <trkpt lat="46.08546" lon="6.24089">
        <ele>877.111</ele>
        <time>2020-07-05T17:20:40Z</time>
      </trkpt>
      <trkpt lat="46.08533" lon="6.24078">
        <ele>877.285</ele>
        <time>2020-07-05T17:20:41Z</time>
      </trkpt>
      <trkpt lat="46.08519" lon="6.24067">
        <ele>877.516</ele>
        <time>2020-07-05T17:20:42Z</time>
      </trkpt>
      <trkpt lat="46.085" lon="6.24041">
        <ele>878.113</ele>
        <time>2020-07-05T17:20:43Z</time>
      </trkpt>
      <trkpt lat="46.08487" lon="6.24026">
        <ele>878.943</ele>
        <time>2020-07-05T17:20:44Z</time>
      </trkpt>
      <trkpt lat="46.0848" lon="6.24">
        <ele>879.607</ele>
        <time>2020-07-05T17:20:45Z</time>
      </trkpt>
      <trkpt lat="46.08473" lon="6.23986">
        <ele>880.108</ele>
        <time>2020-07-05T17:20:46Z</time>
      </trkpt>
      <trkpt lat="46.08467" lon="6.23973">
        <ele>880.536</ele>
        <time>2020-07-05T17:20:47Z</time>
      </trkpt>
      <trkpt lat="46.0846" lon="6.23958">
        <ele>880.893</ele>
        <time>2020-07-05T17:20:48Z</time>
      </trkpt>
      <trkpt lat="46.08453" lon="6.23945">
        <ele>881.093</ele>
        <time>2020-07-05T17:20:49Z</time>
      </trkpt>
      <trkpt lat="46.08448" lon="6.23934">
        <ele>881.375</ele>
        <time>2020-07-05T17:20:50Z</time>
      </trkpt>
      <trkpt lat="46.08443" lon="6.23926">
        <ele>881.521</ele>
        <time>2020-07-05T17:20:51Z</time>
      </trkpt>
      <trkpt lat="46.08445" lon="6.2392">
        <ele>881.534</ele>
        <time>2020-07-05T17:21:00Z</time>
      </trkpt>
      <trkpt lat="46.08451" lon="6.23907">
        <ele>881.578</ele>
        <time>2020-07-05T17:21:02Z</time>
      </trkpt>
      <trkpt lat="46.08456" lon="6.23902">
        <ele>881.559</ele>
        <time>2020-07-05T17:21:03Z</time>
      </trkpt>
      <trkpt lat="46.08461" lon="6.23894">
        <ele>881.547</ele>
        <time>2020-07-05T17:21:04Z</time>
      </trkpt>
      <trkpt lat="46.08466" lon="6.23886">
        <ele>881.429</ele>
        <time>2020-07-05T17:21:05Z</time>
      </trkpt>
      <trkpt lat="46.08472" lon="6.23877">
        <ele>881.221</ele>
        <time>2020-07-05T17:21:06Z</time>
      </trkpt>
      <trkpt lat="46.08483" lon="6.23866">
        <ele>881.008</ele>
        <time>2020-07-05T17:21:07Z</time>
      </trkpt>
      <trkpt lat="46.08491" lon="6.23855">
        <ele>880.639</ele>
        <time>2020-07-05T17:21:08Z</time>
      </trkpt>
      <trkpt lat="46.085" lon="6.23844">
        <ele>880.316</ele>
        <time>2020-07-05T17:21:09Z</time>
      </trkpt>
      <trkpt lat="46.08508" lon="6.23833">
        <ele>879.986</ele>
        <time>2020-07-05T17:21:10Z</time>
      </trkpt>
      <trkpt lat="46.08517" lon="6.23822">
        <ele>879.568</ele>
        <time>2020-07-05T17:21:11Z</time>
      </trkpt>
      <trkpt lat="46.08524" lon="6.23812">
        <ele>879.274</ele>
        <time>2020-07-05T17:21:12Z</time>
      </trkpt>
      <trkpt lat="46.08533" lon="6.23803">
        <ele>879.027</ele>
        <time>2020-07-05T17:21:13Z</time>
      </trkpt>
      <trkpt lat="46.08542" lon="6.23792">
        <ele>878.771</ele>
        <time>2020-07-05T17:21:14Z</time>
      </trkpt>
      <trkpt lat="46.08552" lon="6.23783">
        <ele>878.562</ele>
        <time>2020-07-05T17:21:15Z</time>
      </trkpt>
      <trkpt lat="46.0856" lon="6.23774">
        <ele>878.534</ele>
        <time>2020-07-05T17:21:16Z</time>
      </trkpt>
      <trkpt lat="46.08568" lon="6.23766">
        <ele>878.555</ele>
        <time>2020-07-05T17:21:17Z</time>
      </trkpt>
      <trkpt lat="46.08577" lon="6.23757">
        <ele>878.51</ele>
        <time>2020-07-05T17:21:18Z</time>
      </trkpt>
      <trkpt lat="46.08585" lon="6.23751">
        <ele>878.508</ele>
        <time>2020-07-05T17:21:19Z</time>
      </trkpt>
      <trkpt lat="46.08592" lon="6.23746">
        <ele>878.768</ele>
        <time>2020-07-05T17:21:20Z</time>
      </trkpt>
      <trkpt lat="46.08602" lon="6.2374">
        <ele>878.825</ele>
        <time>2020-07-05T17:21:21Z</time>
      </trkpt>
      <trkpt lat="46.08612" lon="6.23736">
        <ele>879.285</ele>
        <time>2020-07-05T17:21:22Z</time>
      </trkpt>
      <trkpt lat="46.08621" lon="6.23729">
        <ele>879.537</ele>
        <time>2020-07-05T17:21:23Z</time>
      </trkpt>
      <trkpt lat="46.08629" lon="6.23721">
        <ele>879.773</ele>
        <time>2020-07-05T17:21:24Z</time>
      </trkpt>
      <trkpt lat="46.08632" lon="6.23712">
        <ele>879.776</ele>
        <time>2020-07-05T17:21:25Z</time>
      </trkpt>
      <trkpt lat="46.08633" lon="6.23703">
        <ele>879.71</ele>
        <time>2020-07-05T17:21:26Z</time>
      </trkpt>
      <trkpt lat="46.08634" lon="6.23691">
        <ele>879.481</ele>
        <time>2020-07-05T17:21:27Z</time>
      </trkpt>
      <trkpt lat="46.08638" lon="6.23675">
        <ele>879.191</ele>
        <time>2020-07-05T17:21:28Z</time>
      </trkpt>
      <trkpt lat="46.0864" lon="6.23665">
        <ele>878.981</ele>
        <time>2020-07-05T17:21:29Z</time>
      </trkpt>
      <trkpt lat="46.08641" lon="6.23653">
        <ele>878.619</ele>
        <time>2020-07-05T17:21:30Z</time>
      </trkpt>
      <trkpt lat="46.08643" lon="6.2364">
        <ele>878.108</ele>
        <time>2020-07-05T17:21:31Z</time>
      </trkpt>
      <trkpt lat="46.08646" lon="6.23627">
        <ele>877.554</ele>
        <time>2020-07-05T17:21:32Z</time>
      </trkpt>
      <trkpt lat="46.08648" lon="6.23616">
        <ele>876.821</ele>
        <time>2020-07-05T17:21:33Z</time>
      </trkpt>
      <trkpt lat="46.0865" lon="6.23603">
        <ele>876.161</ele>
        <time>2020-07-05T17:21:34Z</time>
      </trkpt>
      <trkpt lat="46.08652" lon="6.23592">
        <ele>875.293</ele>
        <time>2020-07-05T17:21:35Z</time>
      </trkpt>
      <trkpt lat="46.08655" lon="6.23582">
        <ele>874.289</ele>
        <time>2020-07-05T17:21:36Z</time>
      </trkpt>
      <trkpt lat="46.08655" lon="6.23571">
        <ele>873.392</ele>
        <time>2020-07-05T17:21:37Z</time>
      </trkpt>
      <trkpt lat="46.08655" lon="6.23559">
        <ele>872.256</ele>
        <time>2020-07-05T17:21:38Z</time>
      </trkpt>
      <trkpt lat="46.08656" lon="6.23551">
        <ele>871.277</ele>
        <time>2020-07-05T17:21:39Z</time>
      </trkpt>
      <trkpt lat="46.08654" lon="6.23541">
        <ele>869.977</ele>
        <time>2020-07-05T17:21:40Z</time>
      </trkpt>
      <trkpt lat="46.08653" lon="6.2353">
        <ele>868.661</ele>
        <time>2020-07-05T17:21:41Z</time>
      </trkpt>
      <trkpt lat="46.08653" lon="6.2352">
        <ele>867.227</ele>
        <time>2020-07-05T17:21:42Z</time>
      </trkpt>
      <trkpt lat="46.08657" lon="6.23511">
        <ele>866.108</ele>
        <time>2020-07-05T17:21:43Z</time>
      </trkpt>
      <trkpt lat="46.08666" lon="6.23502">
        <ele>864.922</ele>
        <time>2020-07-05T17:21:44Z</time>
      </trkpt>
      <trkpt lat="46.08675" lon="6.235">
        <ele>863.899</ele>
        <time>2020-07-05T17:21:45Z</time>
      </trkpt>
      <trkpt lat="46.08685" lon="6.235">
        <ele>862.829</ele>
        <time>2020-07-05T17:21:46Z</time>
      </trkpt>
      <trkpt lat="46.08695" lon="6.23501">
        <ele>861.871</ele>
        <time>2020-07-05T17:21:47Z</time>
      </trkpt>
      <trkpt lat="46.08708" lon="6.23501">
        <ele>860.947</ele>
        <time>2020-07-05T17:21:48Z</time>
      </trkpt>
      <trkpt lat="46.08719" lon="6.23496">
        <ele>860.23</ele>
        <time>2020-07-05T17:21:49Z</time>
      </trkpt>
      <trkpt lat="46.0873" lon="6.23493">
        <ele>859.524</ele>
        <time>2020-07-05T17:21:50Z</time>
      </trkpt>
      <trkpt lat="46.08741" lon="6.23489">
        <ele>859.065</ele>
        <time>2020-07-05T17:21:51Z</time>
      </trkpt>
      <trkpt lat="46.08753" lon="6.23488">
        <ele>858.633</ele>
        <time>2020-07-05T17:21:52Z</time>
      </trkpt>
      <trkpt lat="46.08763" lon="6.23483">
        <ele>858.123</ele>
        <time>2020-07-05T17:21:53Z</time>
      </trkpt>
      <trkpt lat="46.08773" lon="6.23477">
        <ele>857.615</ele>
        <time>2020-07-05T17:21:54Z</time>
      </trkpt>
      <trkpt lat="46.08784" lon="6.23472">
        <ele>857.208</ele>
        <time>2020-07-05T17:21:55Z</time>
      </trkpt>
      <trkpt lat="46.08794" lon="6.23465">
        <ele>856.918</ele>
        <time>2020-07-05T17:21:56Z</time>
      </trkpt>
      <trkpt lat="46.08778" lon="6.23461">
        <ele>856.665</ele>
        <time>2020-07-05T17:21:57Z</time>
      </trkpt>
      <trkpt lat="46.08784" lon="6.23458">
        <ele>856.435</ele>
        <time>2020-07-05T17:21:58Z</time>
      </trkpt>
      <trkpt lat="46.08787" lon="6.23452">
        <ele>856.347</ele>
        <time>2020-07-05T17:21:59Z</time>
      </trkpt>
      <trkpt lat="46.08791" lon="6.23443">
        <ele>856.083</ele>
        <time>2020-07-05T17:22:00Z</time>
      </trkpt>
      <trkpt lat="46.08793" lon="6.23434">
        <ele>855.516</ele>
        <time>2020-07-05T17:22:01Z</time>
      </trkpt>
      <trkpt lat="46.08795" lon="6.23424">
        <ele>854.89</ele>
        <time>2020-07-05T17:22:02Z</time>
      </trkpt>
      <trkpt lat="46.088" lon="6.23413">
        <ele>854.041</ele>
        <time>2020-07-05T17:22:03Z</time>
      </trkpt>
      <trkpt lat="46.08804" lon="6.23404">
        <ele>853.068</ele>
        <time>2020-07-05T17:22:04Z</time>
      </trkpt>
      <trkpt lat="46.08809" lon="6.23398">
        <ele>852.142</ele>
        <time>2020-07-05T17:22:05Z</time>
      </trkpt>
      <trkpt lat="46.08815" lon="6.23392">
        <ele>851.226</ele>
        <time>2020-07-05T17:22:06Z</time>
      </trkpt>
      <trkpt lat="46.08822" lon="6.23387">
        <ele>850.308</ele>
        <time>2020-07-05T17:22:07Z</time>
      </trkpt>
      <trkpt lat="46.0883" lon="6.23382">
        <ele>849.411</ele>
        <time>2020-07-05T17:22:08Z</time>
      </trkpt>
      <trkpt lat="46.08837" lon="6.2338">
        <ele>848.328</ele>
        <time>2020-07-05T17:22:09Z</time>
      </trkpt>
      <trkpt lat="46.08844" lon="6.23379">
        <ele>847.248</ele>
        <time>2020-07-05T17:22:10Z</time>
      </trkpt>
      <trkpt lat="46.08849" lon="6.23378">
        <ele>846.12</ele>
        <time>2020-07-05T17:22:11Z</time>
      </trkpt>
      <trkpt lat="46.08854" lon="6.23378">
        <ele>845.126</ele>
        <time>2020-07-05T17:22:12Z</time>
      </trkpt>
      <trkpt lat="46.0886" lon="6.23376">
        <ele>844.089</ele>
        <time>2020-07-05T17:22:13Z</time>
      </trkpt>
      <trkpt lat="46.08868" lon="6.23373">
        <ele>842.913</ele>
        <time>2020-07-05T17:22:14Z</time>
      </trkpt>
      <trkpt lat="46.08875" lon="6.23373">
        <ele>841.764</ele>
        <time>2020-07-05T17:22:15Z</time>
      </trkpt>
      <trkpt lat="46.08882" lon="6.23372">
        <ele>840.539</ele>
        <time>2020-07-05T17:22:16Z</time>
      </trkpt>
      <trkpt lat="46.08889" lon="6.23371">
        <ele>839.201</ele>
        <time>2020-07-05T17:22:17Z</time>
      </trkpt>
      <trkpt lat="46.08896" lon="6.23369">
        <ele>838.021</ele>
        <time>2020-07-05T17:22:18Z</time>
      </trkpt>
      <trkpt lat="46.08901" lon="6.23364">
        <ele>836.808</ele>
        <time>2020-07-05T17:22:19Z</time>
      </trkpt>
      <trkpt lat="46.08907" lon="6.2336">
        <ele>835.798</ele>
        <time>2020-07-05T17:22:20Z</time>
      </trkpt>
      <trkpt lat="46.08916" lon="6.23352">
        <ele>834.885</ele>
        <time>2020-07-05T17:22:21Z</time>
      </trkpt>
      <trkpt lat="46.08926" lon="6.23343">
        <ele>834.145</ele>
        <time>2020-07-05T17:22:22Z</time>
      </trkpt>
      <trkpt lat="46.08933" lon="6.23333">
        <ele>833.337</ele>
        <time>2020-07-05T17:22:23Z</time>
      </trkpt>
      <trkpt lat="46.08938" lon="6.23323">
        <ele>832.563</ele>
        <time>2020-07-05T17:22:24Z</time>
      </trkpt>
      <trkpt lat="46.08943" lon="6.23311">
        <ele>831.546</ele>
        <time>2020-07-05T17:22:25Z</time>
      </trkpt>
      <trkpt lat="46.08949" lon="6.23299">
        <ele>830.46</ele>
        <time>2020-07-05T17:22:26Z</time>
      </trkpt>
      <trkpt lat="46.08955" lon="6.23288">
        <ele>829.471</ele>
        <time>2020-07-05T17:22:27Z</time>
      </trkpt>
      <trkpt lat="46.08959" lon="6.23279">
        <ele>828.327</ele>
        <time>2020-07-05T17:22:28Z</time>
      </trkpt>
      <trkpt lat="46.08962" lon="6.23272">
        <ele>827.268</ele>
        <time>2020-07-05T17:22:29Z</time>
      </trkpt>
      <trkpt lat="46.08967" lon="6.23266">
        <ele>826.214</ele>
        <time>2020-07-05T17:22:30Z</time>
      </trkpt>
      <trkpt lat="46.08972" lon="6.23262">
        <ele>825.208</ele>
        <time>2020-07-05T17:22:31Z</time>
      </trkpt>
      <trkpt lat="46.08981" lon="6.2326">
        <ele>823.297</ele>
        <time>2020-07-05T17:22:33Z</time>
      </trkpt>
      <trkpt lat="46.08988" lon="6.23259">
        <ele>822.444</ele>
        <time>2020-07-05T17:22:34Z</time>
      </trkpt>
      <trkpt lat="46.08996" lon="6.23264">
        <ele>821.724</ele>
        <time>2020-07-05T17:22:35Z</time>
      </trkpt>
      <trkpt lat="46.09002" lon="6.23272">
        <ele>821.286</ele>
        <time>2020-07-05T17:22:36Z</time>
      </trkpt>
      <trkpt lat="46.09009" lon="6.23287">
        <ele>820.642</ele>
        <time>2020-07-05T17:22:37Z</time>
      </trkpt>
      <trkpt lat="46.09018" lon="6.23303">
        <ele>820.285</ele>
        <time>2020-07-05T17:22:38Z</time>
      </trkpt>
      <trkpt lat="46.09026" lon="6.23317">
        <ele>819.859</ele>
        <time>2020-07-05T17:22:39Z</time>
      </trkpt>
      <trkpt lat="46.09034" lon="6.23331">
        <ele>819.36</ele>
        <time>2020-07-05T17:22:40Z</time>
      </trkpt>
      <trkpt lat="46.09041" lon="6.23344">
        <ele>818.958</ele>
        <time>2020-07-05T17:22:41Z</time>
      </trkpt>
      <trkpt lat="46.09048" lon="6.23356">
        <ele>818.752</ele>
        <time>2020-07-05T17:22:42Z</time>
      </trkpt>
      <trkpt lat="46.09053" lon="6.23368">
        <ele>818.417</ele>
        <time>2020-07-05T17:22:43Z</time>
      </trkpt>
      <trkpt lat="46.09059" lon="6.2338">
        <ele>817.908</ele>
        <time>2020-07-05T17:22:44Z</time>
      </trkpt>
      <trkpt lat="46.09066" lon="6.23388">
        <ele>817.67</ele>
        <time>2020-07-05T17:22:45Z</time>
      </trkpt>
      <trkpt lat="46.09075" lon="6.23395">
        <ele>817.337</ele>
        <time>2020-07-05T17:22:46Z</time>
      </trkpt>
      <trkpt lat="46.09084" lon="6.234">
        <ele>816.997</ele>
        <time>2020-07-05T17:22:47Z</time>
      </trkpt>
      <trkpt lat="46.09095" lon="6.23406">
        <ele>816.699</ele>
        <time>2020-07-05T17:22:48Z</time>
      </trkpt>
      <trkpt lat="46.09107" lon="6.23415">
        <ele>816.395</ele>
        <time>2020-07-05T17:22:49Z</time>
      </trkpt>
      <trkpt lat="46.0912" lon="6.23424">
        <ele>816.018</ele>
        <time>2020-07-05T17:22:50Z</time>
      </trkpt>
      <trkpt lat="46.09131" lon="6.23433">
        <ele>815.642</ele>
        <time>2020-07-05T17:22:51Z</time>
      </trkpt>
      <trkpt lat="46.0914" lon="6.23442">
        <ele>815.393</ele>
        <time>2020-07-05T17:22:52Z</time>
      </trkpt>
      <trkpt lat="46.0915" lon="6.2345">
        <ele>814.846</ele>
        <time>2020-07-05T17:22:53Z</time>
      </trkpt>
      <trkpt lat="46.0916" lon="6.23456">
        <ele>814.388</ele>
        <time>2020-07-05T17:22:54Z</time>
      </trkpt>
      <trkpt lat="46.09169" lon="6.23461">
        <ele>813.616</ele>
        <time>2020-07-05T17:22:55Z</time>
      </trkpt>
      <trkpt lat="46.09177" lon="6.23459">
        <ele>812.808</ele>
        <time>2020-07-05T17:22:56Z</time>
      </trkpt>
      <trkpt lat="46.09186" lon="6.23454">
        <ele>811.839</ele>
        <time>2020-07-05T17:22:57Z</time>
      </trkpt>
      <trkpt lat="46.09191" lon="6.23445">
        <ele>810.786</ele>
        <time>2020-07-05T17:22:58Z</time>
      </trkpt>
      <trkpt lat="46.09196" lon="6.23433">
        <ele>809.636</ele>
        <time>2020-07-05T17:22:59Z</time>
      </trkpt>
      <trkpt lat="46.092" lon="6.23419">
        <ele>808.598</ele>
        <time>2020-07-05T17:23:00Z</time>
      </trkpt>
      <trkpt lat="46.09206" lon="6.23408">
        <ele>807.454</ele>
        <time>2020-07-05T17:23:01Z</time>
      </trkpt>
      <trkpt lat="46.09214" lon="6.234">
        <ele>806.447</ele>
        <time>2020-07-05T17:23:02Z</time>
      </trkpt>
      <trkpt lat="46.09225" lon="6.23395">
        <ele>805.641</ele>
        <time>2020-07-05T17:23:03Z</time>
      </trkpt>
      <trkpt lat="46.09236" lon="6.23394">
        <ele>804.852</ele>
        <time>2020-07-05T17:23:04Z</time>
      </trkpt>
      <trkpt lat="46.09246" lon="6.23393">
        <ele>804.241</ele>
        <time>2020-07-05T17:23:05Z</time>
      </trkpt>
      <trkpt lat="46.09256" lon="6.23395">
        <ele>803.781</ele>
        <time>2020-07-05T17:23:06Z</time>
      </trkpt>
      <trkpt lat="46.09268" lon="6.23405">
        <ele>803.309</ele>
        <time>2020-07-05T17:23:07Z</time>
      </trkpt>
      <trkpt lat="46.0928" lon="6.23411">
        <ele>802.908</ele>
        <time>2020-07-05T17:23:08Z</time>
      </trkpt>
      <trkpt lat="46.0929" lon="6.23416">
        <ele>802.449</ele>
        <time>2020-07-05T17:23:09Z</time>
      </trkpt>
      <trkpt lat="46.093" lon="6.23425">
        <ele>801.826</ele>
        <time>2020-07-05T17:23:10Z</time>
      </trkpt>
      <trkpt lat="46.09309" lon="6.23435">
        <ele>801.026</ele>
        <time>2020-07-05T17:23:11Z</time>
      </trkpt>
      <trkpt lat="46.09318" lon="6.23449">
        <ele>800.058</ele>
        <time>2020-07-05T17:23:12Z</time>
      </trkpt>
      <trkpt lat="46.09328" lon="6.23461">
        <ele>799.154</ele>
        <time>2020-07-05T17:23:13Z</time>
      </trkpt>
      <trkpt lat="46.09339" lon="6.23476">
        <ele>798.497</ele>
        <time>2020-07-05T17:23:14Z</time>
      </trkpt>
      <trkpt lat="46.0935" lon="6.23493">
        <ele>797.731</ele>
        <time>2020-07-05T17:23:15Z</time>
      </trkpt>
      <trkpt lat="46.09357" lon="6.23508">
        <ele>797.122</ele>
        <time>2020-07-05T17:23:16Z</time>
      </trkpt>
      <trkpt lat="46.09364" lon="6.23523">
        <ele>796.662</ele>
        <time>2020-07-05T17:23:17Z</time>
      </trkpt>
      <trkpt lat="46.09374" lon="6.23535">
        <ele>796.183</ele>
        <time>2020-07-05T17:23:18Z</time>
      </trkpt>
      <trkpt lat="46.09383" lon="6.23545">
        <ele>795.611</ele>
        <time>2020-07-05T17:23:19Z</time>
      </trkpt>
      <trkpt lat="46.09393" lon="6.23555">
        <ele>795.108</ele>
        <time>2020-07-05T17:23:20Z</time>
      </trkpt>
      <trkpt lat="46.09403" lon="6.23565">
        <ele>794.751</ele>
        <time>2020-07-05T17:23:21Z</time>
      </trkpt>
      <trkpt lat="46.09414" lon="6.23576">
        <ele>794.248</ele>
        <time>2020-07-05T17:23:22Z</time>
      </trkpt>
      <trkpt lat="46.09426" lon="6.23588">
        <ele>794.048</ele>
        <time>2020-07-05T17:23:23Z</time>
      </trkpt>
      <trkpt lat="46.09436" lon="6.23598">
        <ele>793.61</ele>
        <time>2020-07-05T17:23:24Z</time>
      </trkpt>
      <trkpt lat="46.09448" lon="6.23605">
        <ele>793.336</ele>
        <time>2020-07-05T17:23:25Z</time>
      </trkpt>
      <trkpt lat="46.09459" lon="6.23615">
        <ele>792.839</ele>
        <time>2020-07-05T17:23:26Z</time>
      </trkpt>
      <trkpt lat="46.0947" lon="6.23623">
        <ele>792.393</ele>
        <time>2020-07-05T17:23:27Z</time>
      </trkpt>
      <trkpt lat="46.0948" lon="6.23627">
        <ele>791.544</ele>
        <time>2020-07-05T17:23:28Z</time>
      </trkpt>
      <trkpt lat="46.0949" lon="6.23633">
        <ele>790.637</ele>
        <time>2020-07-05T17:23:29Z</time>
      </trkpt>
      <trkpt lat="46.095" lon="6.23643">
        <ele>789.549</ele>
        <time>2020-07-05T17:23:30Z</time>
      </trkpt>
      <trkpt lat="46.09506" lon="6.23655">
        <ele>788.413</ele>
        <time>2020-07-05T17:23:31Z</time>
      </trkpt>
      <trkpt lat="46.09513" lon="6.23665">
        <ele>787.308</ele>
        <time>2020-07-05T17:23:32Z</time>
      </trkpt>
      <trkpt lat="46.09519" lon="6.23674">
        <ele>786.268</ele>
        <time>2020-07-05T17:23:33Z</time>
      </trkpt>
      <trkpt lat="46.09525" lon="6.23679">
        <ele>785.495</ele>
        <time>2020-07-05T17:23:34Z</time>
      </trkpt>
      <trkpt lat="46.09532" lon="6.23675">
        <ele>784.765</ele>
        <time>2020-07-05T17:23:35Z</time>
      </trkpt>
      <trkpt lat="46.09537" lon="6.23669">
        <ele>784.257</ele>
        <time>2020-07-05T17:23:36Z</time>
      </trkpt>
      <trkpt lat="46.09544" lon="6.23662">
        <ele>783.763</ele>
        <time>2020-07-05T17:23:37Z</time>
      </trkpt>
      <trkpt lat="46.09552" lon="6.23643">
        <ele>783.126</ele>
        <time>2020-07-05T17:23:38Z</time>
      </trkpt>
      <trkpt lat="46.0956" lon="6.23632">
        <ele>782.41</ele>
        <time>2020-07-05T17:23:39Z</time>
      </trkpt>
      <trkpt lat="46.09568" lon="6.23622">
        <ele>781.621</ele>
        <time>2020-07-05T17:23:40Z</time>
      </trkpt>
      <trkpt lat="46.09573" lon="6.23616">
        <ele>780.637</ele>
        <time>2020-07-05T17:23:41Z</time>
      </trkpt>
      <trkpt lat="46.09579" lon="6.23614">
        <ele>779.749</ele>
        <time>2020-07-05T17:23:42Z</time>
      </trkpt>
      <trkpt lat="46.09587" lon="6.23613">
        <ele>778.813</ele>
        <time>2020-07-05T17:23:43Z</time>
      </trkpt>
      <trkpt lat="46.09596" lon="6.23613">
        <ele>778.008</ele>
        <time>2020-07-05T17:23:44Z</time>
      </trkpt>
      <trkpt lat="46.09606" lon="6.23616">
        <ele>777.368</ele>
        <time>2020-07-05T17:23:45Z</time>
      </trkpt>
      <trkpt lat="46.09618" lon="6.23619">
        <ele>777.045</ele>
        <time>2020-07-05T17:23:46Z</time>
      </trkpt>
      <trkpt lat="46.09628" lon="6.23618">
        <ele>776.835</ele>
        <time>2020-07-05T17:23:47Z</time>
      </trkpt>
      <trkpt lat="46.09639" lon="6.23619">
        <ele>776.697</ele>
        <time>2020-07-05T17:23:48Z</time>
      </trkpt>
      <trkpt lat="46.09648" lon="6.23619">
        <ele>776.523</ele>
        <time>2020-07-05T17:23:49Z</time>
      </trkpt>
      <trkpt lat="46.09658" lon="6.23618">
        <ele>776.466</ele>
        <time>2020-07-05T17:23:50Z</time>
      </trkpt>
      <trkpt lat="46.09669" lon="6.23617">
        <ele>776.14</ele>
        <time>2020-07-05T17:23:51Z</time>
      </trkpt>
      <trkpt lat="46.09678" lon="6.23615">
        <ele>775.871</ele>
        <time>2020-07-05T17:23:52Z</time>
      </trkpt>
      <trkpt lat="46.09687" lon="6.23615">
        <ele>775.516</ele>
        <time>2020-07-05T17:23:53Z</time>
      </trkpt>
      <trkpt lat="46.09694" lon="6.23614">
        <ele>775.276</ele>
        <time>2020-07-05T17:23:54Z</time>
      </trkpt>
      <trkpt lat="46.09701" lon="6.2361">
        <ele>774.913</ele>
        <time>2020-07-05T17:23:55Z</time>
      </trkpt>
      <trkpt lat="46.09705" lon="6.23602">
        <ele>774.508</ele>
        <time>2020-07-05T17:23:56Z</time>
      </trkpt>
      <trkpt lat="46.09711" lon="6.23593">
        <ele>774.186</ele>
        <time>2020-07-05T17:23:57Z</time>
      </trkpt>
      <trkpt lat="46.09717" lon="6.23583">
        <ele>773.493</ele>
        <time>2020-07-05T17:23:58Z</time>
      </trkpt>
      <trkpt lat="46.09722" lon="6.23577">
        <ele>772.713</ele>
        <time>2020-07-05T17:23:59Z</time>
      </trkpt>
      <trkpt lat="46.09728" lon="6.23572">
        <ele>771.775</ele>
        <time>2020-07-05T17:24:00Z</time>
      </trkpt>
      <trkpt lat="46.09735" lon="6.23568">
        <ele>770.531</ele>
        <time>2020-07-05T17:24:01Z</time>
      </trkpt>
      <trkpt lat="46.09742" lon="6.23565">
        <ele>769.174</ele>
        <time>2020-07-05T17:24:02Z</time>
      </trkpt>
      <trkpt lat="46.0975" lon="6.23561">
        <ele>767.738</ele>
        <time>2020-07-05T17:24:03Z</time>
      </trkpt>
      <trkpt lat="46.09756" lon="6.23553">
        <ele>766.449</ele>
        <time>2020-07-05T17:24:04Z</time>
      </trkpt>
      <trkpt lat="46.09764" lon="6.23544">
        <ele>765.298</ele>
        <time>2020-07-05T17:24:05Z</time>
      </trkpt>
      <trkpt lat="46.09769" lon="6.23535">
        <ele>764.115</ele>
        <time>2020-07-05T17:24:06Z</time>
      </trkpt>
      <trkpt lat="46.09777" lon="6.23527">
        <ele>762.926</ele>
        <time>2020-07-05T17:24:07Z</time>
      </trkpt>
      <trkpt lat="46.09786" lon="6.23522">
        <ele>761.808</ele>
        <time>2020-07-05T17:24:08Z</time>
      </trkpt>
      <trkpt lat="46.09796" lon="6.23518">
        <ele>760.774</ele>
        <time>2020-07-05T17:24:09Z</time>
      </trkpt>
      <trkpt lat="46.09805" lon="6.23513">
        <ele>759.651</ele>
        <time>2020-07-05T17:24:10Z</time>
      </trkpt>
      <trkpt lat="46.09813" lon="6.23507">
        <ele>758.481</ele>
        <time>2020-07-05T17:24:11Z</time>
      </trkpt>
      <trkpt lat="46.0982" lon="6.23501">
        <ele>757.313</ele>
        <time>2020-07-05T17:24:12Z</time>
      </trkpt>
      <trkpt lat="46.09826" lon="6.23494">
        <ele>756.319</ele>
        <time>2020-07-05T17:24:13Z</time>
      </trkpt>
      <trkpt lat="46.09832" lon="6.23486">
        <ele>755.232</ele>
        <time>2020-07-05T17:24:14Z</time>
      </trkpt>
      <trkpt lat="46.09838" lon="6.23478">
        <ele>754.056</ele>
        <time>2020-07-05T17:24:15Z</time>
      </trkpt>
      <trkpt lat="46.09844" lon="6.23475">
        <ele>752.967</ele>
        <time>2020-07-05T17:24:16Z</time>
      </trkpt>
      <trkpt lat="46.09849" lon="6.23476">
        <ele>751.863</ele>
        <time>2020-07-05T17:24:17Z</time>
      </trkpt>
      <trkpt lat="46.09855" lon="6.23483">
        <ele>750.944</ele>
        <time>2020-07-05T17:24:18Z</time>
      </trkpt>
      <trkpt lat="46.09863" lon="6.23491">
        <ele>750.018</ele>
        <time>2020-07-05T17:24:19Z</time>
      </trkpt>
      <trkpt lat="46.09872" lon="6.23499">
        <ele>749.308</ele>
        <time>2020-07-05T17:24:20Z</time>
      </trkpt>
      <trkpt lat="46.09879" lon="6.23507">
        <ele>748.841</ele>
        <time>2020-07-05T17:24:21Z</time>
      </trkpt>
      <trkpt lat="46.09885" lon="6.23513">
        <ele>748.428</ele>
        <time>2020-07-05T17:24:22Z</time>
      </trkpt>
      <trkpt lat="46.09891" lon="6.23518">
        <ele>747.818</ele>
        <time>2020-07-05T17:24:23Z</time>
      </trkpt>
      <trkpt lat="46.09896" lon="6.2352">
        <ele>746.95</ele>
        <time>2020-07-05T17:24:25Z</time>
      </trkpt>
      <trkpt lat="46.09899" lon="6.23508">
        <ele>745.826</ele>
        <time>2020-07-05T17:24:27Z</time>
      </trkpt>
      <trkpt lat="46.09902" lon="6.23501">
        <ele>745.329</ele>
        <time>2020-07-05T17:24:28Z</time>
      </trkpt>
      <trkpt lat="46.09907" lon="6.23494">
        <ele>744.883</ele>
        <time>2020-07-05T17:24:29Z</time>
      </trkpt>
      <trkpt lat="46.09909" lon="6.23486">
        <ele>744.274</ele>
        <time>2020-07-05T17:24:30Z</time>
      </trkpt>
      <trkpt lat="46.09911" lon="6.23479">
        <ele>743.666</ele>
        <time>2020-07-05T17:24:31Z</time>
      </trkpt>
      <trkpt lat="46.09914" lon="6.2347">
        <ele>743.029</ele>
        <time>2020-07-05T17:24:32Z</time>
      </trkpt>
      <trkpt lat="46.09917" lon="6.23463">
        <ele>742.421</ele>
        <time>2020-07-05T17:24:33Z</time>
      </trkpt>
      <trkpt lat="46.0992" lon="6.23456">
        <ele>741.708</ele>
        <time>2020-07-05T17:24:34Z</time>
      </trkpt>
      <trkpt lat="46.09922" lon="6.23449">
        <ele>741.141</ele>
        <time>2020-07-05T17:24:35Z</time>
      </trkpt>
      <trkpt lat="46.09925" lon="6.2344">
        <ele>740.428</ele>
        <time>2020-07-05T17:24:36Z</time>
      </trkpt>
      <trkpt lat="46.09927" lon="6.23431">
        <ele>739.618</ele>
        <time>2020-07-05T17:24:37Z</time>
      </trkpt>
      <trkpt lat="46.09929" lon="6.23424">
        <ele>738.86</ele>
        <time>2020-07-05T17:24:38Z</time>
      </trkpt>
      <trkpt lat="46.09932" lon="6.23416">
        <ele>738.176</ele>
        <time>2020-07-05T17:24:39Z</time>
      </trkpt>
      <trkpt lat="46.09934" lon="6.2341">
        <ele>737.449</ele>
        <time>2020-07-05T17:24:40Z</time>
      </trkpt>
      <trkpt lat="46.09937" lon="6.23399">
        <ele>736.353</ele>
        <time>2020-07-05T17:24:42Z</time>
      </trkpt>
      <trkpt lat="46.09938" lon="6.23391">
        <ele>735.934</ele>
        <time>2020-07-05T17:24:43Z</time>
      </trkpt>
      <trkpt lat="46.09938" lon="6.23383">
        <ele>735.457</ele>
        <time>2020-07-05T17:24:44Z</time>
      </trkpt>
      <trkpt lat="46.0994" lon="6.23376">
        <ele>734.8</ele>
        <time>2020-07-05T17:24:45Z</time>
      </trkpt>
      <trkpt lat="46.09944" lon="6.23371">
        <ele>734.12</ele>
        <time>2020-07-05T17:24:46Z</time>
      </trkpt>
      <trkpt lat="46.09949" lon="6.23368">
        <ele>733.408</ele>
        <time>2020-07-05T17:24:47Z</time>
      </trkpt>
      <trkpt lat="46.09956" lon="6.23369">
        <ele>732.74</ele>
        <time>2020-07-05T17:24:48Z</time>
      </trkpt>
      <trkpt lat="46.09964" lon="6.23373">
        <ele>732.267</ele>
        <time>2020-07-05T17:24:49Z</time>
      </trkpt>
      <trkpt lat="46.09972" lon="6.2338">
        <ele>732.077</ele>
        <time>2020-07-05T17:24:50Z</time>
      </trkpt>
      <trkpt lat="46.09981" lon="6.23386">
        <ele>732.089</ele>
        <time>2020-07-05T17:24:51Z</time>
      </trkpt>
      <trkpt lat="46.09991" lon="6.23392">
        <ele>732.125</ele>
        <time>2020-07-05T17:24:52Z</time>
      </trkpt>
      <trkpt lat="46.10001" lon="6.23397">
        <ele>732.348</ele>
        <time>2020-07-05T17:24:53Z</time>
      </trkpt>
      <trkpt lat="46.1001" lon="6.23403">
        <ele>732.692</ele>
        <time>2020-07-05T17:24:54Z</time>
      </trkpt>
      <trkpt lat="46.10019" lon="6.23407">
        <ele>732.753</ele>
        <time>2020-07-05T17:24:55Z</time>
      </trkpt>
      <trkpt lat="46.10028" lon="6.23412">
        <ele>732.894</ele>
        <time>2020-07-05T17:24:56Z</time>
      </trkpt>
      <trkpt lat="46.10037" lon="6.23416">
        <ele>732.857</ele>
        <time>2020-07-05T17:24:57Z</time>
      </trkpt>
      <trkpt lat="46.10045" lon="6.23421">
        <ele>732.822</ele>
        <time>2020-07-05T17:24:58Z</time>
      </trkpt>
      <trkpt lat="46.10054" lon="6.23427">
        <ele>732.508</ele>
        <time>2020-07-05T17:24:59Z</time>
      </trkpt>
      <trkpt lat="46.10061" lon="6.23434">
        <ele>732.464</ele>
        <time>2020-07-05T17:25:00Z</time>
      </trkpt>
      <trkpt lat="46.10067" lon="6.2344">
        <ele>732.331</ele>
        <time>2020-07-05T17:25:01Z</time>
      </trkpt>
      <trkpt lat="46.10073" lon="6.23446">
        <ele>732.171</ele>
        <time>2020-07-05T17:25:02Z</time>
      </trkpt>
      <trkpt lat="46.10078" lon="6.23452">
        <ele>732.193</ele>
        <time>2020-07-05T17:25:03Z</time>
      </trkpt>
      <trkpt lat="46.10083" lon="6.23454">
        <ele>732.159</ele>
        <time>2020-07-05T17:25:04Z</time>
      </trkpt>
      <trkpt lat="46.10088" lon="6.23456">
        <ele>731.742</ele>
        <time>2020-07-05T17:25:12Z</time>
      </trkpt>
    </trkseg>
  </trk>
</gpx>